<?xml version="1.0" encoding="UTF-8" standalone="no" ?>
<gpx xmlns="http://www.topografix.com/GPX/1/1" xmlns:xsi="http://www.w3.org/2001/XMLSchema-instance" xsi:schemaLocation="http://www.topografix.com/GPX/1/1 http://www.topografix.com/GPX/1/1/gpx.xsd" version="1.1" creator="VisuGPX - https://www.visugpx.com">
  <metadata>
    <name>Dent de Crolles</name>
  </metadata>
  <trk>
    <name><![CDATA[250712-dentDepuisPerquelin]]></name>
    <trkseg>
      <trkpt lat="45.33085" lon="5.84957">
        <ele>1001.7</ele>
        <time>2025-07-12T07:40:46</time>
      </trkpt>
      <trkpt lat="45.33084" lon="5.84956">
        <ele>1001.7</ele>
        <time>2025-07-12T07:40:47</time>
      </trkpt>
      <trkpt lat="45.33079" lon="5.84952">
        <ele>1001.7</ele>
        <time>2025-07-12T07:40:48</time>
      </trkpt>
      <trkpt lat="45.33075" lon="5.84952">
        <ele>1001.7</ele>
        <time>2025-07-12T07:40:49</time>
      </trkpt>
      <trkpt lat="45.33074" lon="5.8495">
        <ele>1001.7</ele>
        <time>2025-07-12T07:40:50</time>
      </trkpt>
      <trkpt lat="45.33072" lon="5.84949">
        <ele>1011.6</ele>
        <time>2025-07-12T07:40:50</time>
      </trkpt>
      <trkpt lat="45.33072" lon="5.84948">
        <ele>1011.6</ele>
        <time>2025-07-12T07:40:52</time>
      </trkpt>
      <trkpt lat="45.33071" lon="5.84948">
        <ele>1011.6</ele>
        <time>2025-07-12T07:40:53</time>
      </trkpt>
      <trkpt lat="45.33071" lon="5.84948">
        <ele>1011.6</ele>
        <time>2025-07-12T07:40:53</time>
      </trkpt>
      <trkpt lat="45.33071" lon="5.84947">
        <ele>1011.6</ele>
        <time>2025-07-12T07:40:54</time>
      </trkpt>
      <trkpt lat="45.33071" lon="5.84947">
        <ele>1011.6</ele>
        <time>2025-07-12T07:40:55</time>
      </trkpt>
      <trkpt lat="45.33071" lon="5.84947">
        <ele>1011.6</ele>
        <time>2025-07-12T07:40:56</time>
      </trkpt>
      <trkpt lat="45.33071" lon="5.84947">
        <ele>1011.6</ele>
        <time>2025-07-12T07:40:57</time>
      </trkpt>
      <trkpt lat="45.33071" lon="5.84945">
        <ele>1012.9667</ele>
        <time>2025-07-12T07:40:58</time>
      </trkpt>
      <trkpt lat="45.33071" lon="5.84943">
        <ele>1012.9667</ele>
        <time>2025-07-12T07:40:58</time>
      </trkpt>
      <trkpt lat="45.33072" lon="5.84941">
        <ele>1012.9667</ele>
        <time>2025-07-12T07:41:00</time>
      </trkpt>
      <trkpt lat="45.33071" lon="5.84938">
        <ele>1012.9667</ele>
        <time>2025-07-12T07:41:02</time>
      </trkpt>
      <trkpt lat="45.33071" lon="5.84937">
        <ele>1012.9667</ele>
        <time>2025-07-12T07:41:04</time>
      </trkpt>
      <trkpt lat="45.3307" lon="5.84936">
        <ele>1014.2</ele>
        <time>2025-07-12T07:41:07</time>
      </trkpt>
      <trkpt lat="45.33069" lon="5.84924">
        <ele>1014.3</ele>
        <time>2025-07-12T07:41:12</time>
      </trkpt>
      <trkpt lat="45.33067" lon="5.84922">
        <ele>1014.3</ele>
        <time>2025-07-12T07:41:16</time>
      </trkpt>
      <trkpt lat="45.33066" lon="5.84921">
        <ele>1014.3</ele>
        <time>2025-07-12T07:41:18</time>
      </trkpt>
      <trkpt lat="45.33064" lon="5.84917">
        <ele>1012.8</ele>
        <time>2025-07-12T07:41:20</time>
      </trkpt>
      <trkpt lat="45.33062" lon="5.84915">
        <ele>1012.8</ele>
        <time>2025-07-12T07:41:22</time>
      </trkpt>
      <trkpt lat="45.33059" lon="5.84911">
        <ele>1012.8</ele>
        <time>2025-07-12T07:41:24</time>
      </trkpt>
      <trkpt lat="45.33053" lon="5.84901">
        <ele>1011.9</ele>
        <time>2025-07-12T07:41:32</time>
      </trkpt>
      <trkpt lat="45.33049" lon="5.84898">
        <ele>1012.4</ele>
        <time>2025-07-12T07:41:49</time>
      </trkpt>
      <trkpt lat="45.33043" lon="5.84894">
        <ele>1012.4</ele>
        <time>2025-07-12T07:41:52</time>
      </trkpt>
      <trkpt lat="45.3304" lon="5.84893">
        <ele>1012.4</ele>
        <time>2025-07-12T07:41:53</time>
      </trkpt>
      <trkpt lat="45.33039" lon="5.84892">
        <ele>1012.4</ele>
        <time>2025-07-12T07:41:54</time>
      </trkpt>
      <trkpt lat="45.33039" lon="5.84892">
        <ele>1012.4</ele>
        <time>2025-07-12T07:41:54</time>
      </trkpt>
      <trkpt lat="45.33038" lon="5.84892">
        <ele>1011.8333</ele>
        <time>2025-07-12T07:41:56</time>
      </trkpt>
      <trkpt lat="45.33038" lon="5.84891">
        <ele>1011.8333</ele>
        <time>2025-07-12T07:42:02</time>
      </trkpt>
      <trkpt lat="45.33037" lon="5.84891">
        <ele>1012.1</ele>
        <time>2025-07-12T07:42:02</time>
      </trkpt>
      <trkpt lat="45.33037" lon="5.8489">
        <ele>1012.1</ele>
        <time>2025-07-12T07:42:04</time>
      </trkpt>
      <trkpt lat="45.33037" lon="5.84889">
        <ele>1012.1</ele>
        <time>2025-07-12T07:42:07</time>
      </trkpt>
      <trkpt lat="45.33029" lon="5.84879">
        <ele>1012.1</ele>
        <time>2025-07-12T07:42:09</time>
      </trkpt>
      <trkpt lat="45.33027" lon="5.84876">
        <ele>1012.6</ele>
        <time>2025-07-12T07:42:10</time>
      </trkpt>
      <trkpt lat="45.33027" lon="5.84874">
        <ele>1012.6</ele>
        <time>2025-07-12T07:42:10</time>
      </trkpt>
      <trkpt lat="45.33027" lon="5.84873">
        <ele>1012.6</ele>
        <time>2025-07-12T07:42:11</time>
      </trkpt>
      <trkpt lat="45.33026" lon="5.84872">
        <ele>1012.6</ele>
        <time>2025-07-12T07:42:13</time>
      </trkpt>
      <trkpt lat="45.33027" lon="5.84871">
        <ele>1012.6</ele>
        <time>2025-07-12T07:42:16</time>
      </trkpt>
      <trkpt lat="45.33024" lon="5.84862">
        <ele>1015.3333</ele>
        <time>2025-07-12T07:42:24</time>
      </trkpt>
      <trkpt lat="45.33022" lon="5.84856">
        <ele>1015.3333</ele>
        <time>2025-07-12T07:42:26</time>
      </trkpt>
      <trkpt lat="45.33022" lon="5.84855">
        <ele>1015.3333</ele>
        <time>2025-07-12T07:42:27</time>
      </trkpt>
      <trkpt lat="45.33022" lon="5.84853">
        <ele>1015.3333</ele>
        <time>2025-07-12T07:42:27</time>
      </trkpt>
      <trkpt lat="45.33018" lon="5.84839">
        <ele>1017.6</ele>
        <time>2025-07-12T07:42:37</time>
      </trkpt>
      <trkpt lat="45.33018" lon="5.84837">
        <ele>1018.3</ele>
        <time>2025-07-12T07:42:39</time>
      </trkpt>
      <trkpt lat="45.33018" lon="5.84833">
        <ele>1018.3</ele>
        <time>2025-07-12T07:42:42</time>
      </trkpt>
      <trkpt lat="45.33016" lon="5.84825">
        <ele>1021.9667</ele>
        <time>2025-07-12T07:42:48</time>
      </trkpt>
      <trkpt lat="45.33014" lon="5.84817">
        <ele>1024.8</ele>
        <time>2025-07-12T07:42:53</time>
      </trkpt>
      <trkpt lat="45.33013" lon="5.84815">
        <ele>1024.8</ele>
        <time>2025-07-12T07:42:55</time>
      </trkpt>
      <trkpt lat="45.3301" lon="5.84812">
        <ele>1024.8</ele>
        <time>2025-07-12T07:42:58</time>
      </trkpt>
      <trkpt lat="45.3301" lon="5.84811">
        <ele>1024.8</ele>
        <time>2025-07-12T07:42:58</time>
      </trkpt>
      <trkpt lat="45.33006" lon="5.8481">
        <ele>1025.8</ele>
        <time>2025-07-12T07:43:03</time>
      </trkpt>
      <trkpt lat="45.33005" lon="5.8481">
        <ele>1025.8</ele>
        <time>2025-07-12T07:43:05</time>
      </trkpt>
      <trkpt lat="45.33005" lon="5.84811">
        <ele>1025.8</ele>
        <time>2025-07-12T07:43:06</time>
      </trkpt>
      <trkpt lat="45.33004" lon="5.84811">
        <ele>1028.6</ele>
        <time>2025-07-12T07:43:07</time>
      </trkpt>
      <trkpt lat="45.33005" lon="5.84811">
        <ele>1028.6</ele>
        <time>2025-07-12T07:43:10</time>
      </trkpt>
      <trkpt lat="45.33005" lon="5.84811">
        <ele>1028.6</ele>
        <time>2025-07-12T07:43:11</time>
      </trkpt>
      <trkpt lat="45.33001" lon="5.84815">
        <ele>1029.3</ele>
        <time>2025-07-12T07:43:15</time>
      </trkpt>
      <trkpt lat="45.33001" lon="5.84817">
        <ele>1029.3</ele>
        <time>2025-07-12T07:43:16</time>
      </trkpt>
      <trkpt lat="45.33001" lon="5.84819">
        <ele>1029.3</ele>
        <time>2025-07-12T07:43:18</time>
      </trkpt>
      <trkpt lat="45.33001" lon="5.8482">
        <ele>1029.3</ele>
        <time>2025-07-12T07:43:21</time>
      </trkpt>
      <trkpt lat="45.33001" lon="5.8482">
        <ele>1030.3334</ele>
        <time>2025-07-12T07:43:21</time>
      </trkpt>
      <trkpt lat="45.33001" lon="5.84828">
        <ele>1030.3334</ele>
        <time>2025-07-12T07:43:24</time>
      </trkpt>
      <trkpt lat="45.33002" lon="5.84832">
        <ele>1031.7</ele>
        <time>2025-07-12T07:43:28</time>
      </trkpt>
      <trkpt lat="45.33003" lon="5.84837">
        <ele>1031.7</ele>
        <time>2025-07-12T07:43:32</time>
      </trkpt>
      <trkpt lat="45.33004" lon="5.84841">
        <ele>1031.4</ele>
        <time>2025-07-12T07:43:35</time>
      </trkpt>
      <trkpt lat="45.33007" lon="5.84849">
        <ele>1030</ele>
        <time>2025-07-12T07:43:44</time>
      </trkpt>
      <trkpt lat="45.33007" lon="5.84851">
        <ele>1030.6333</ele>
        <time>2025-07-12T07:43:51</time>
      </trkpt>
      <trkpt lat="45.33008" lon="5.84855">
        <ele>1030.6333</ele>
        <time>2025-07-12T07:43:52</time>
      </trkpt>
      <trkpt lat="45.33011" lon="5.84863">
        <ele>1034</ele>
        <time>2025-07-12T07:44:05</time>
      </trkpt>
      <trkpt lat="45.33011" lon="5.84865">
        <ele>1034</ele>
        <time>2025-07-12T07:44:06</time>
      </trkpt>
      <trkpt lat="45.33013" lon="5.84872">
        <ele>1034</ele>
        <time>2025-07-12T07:44:11</time>
      </trkpt>
      <trkpt lat="45.33014" lon="5.84873">
        <ele>1034.5333</ele>
        <time>2025-07-12T07:44:12</time>
      </trkpt>
      <trkpt lat="45.33018" lon="5.84889">
        <ele>1034.5333</ele>
        <time>2025-07-12T07:44:18</time>
      </trkpt>
      <trkpt lat="45.33018" lon="5.84897">
        <ele>1037.2</ele>
        <time>2025-07-12T07:44:22</time>
      </trkpt>
      <trkpt lat="45.33018" lon="5.849">
        <ele>1039.1</ele>
        <time>2025-07-12T07:44:27</time>
      </trkpt>
      <trkpt lat="45.33018" lon="5.849">
        <ele>1039.1</ele>
        <time>2025-07-12T07:44:29</time>
      </trkpt>
      <trkpt lat="45.33019" lon="5.84908">
        <ele>1039.2</ele>
        <time>2025-07-12T07:44:36</time>
      </trkpt>
      <trkpt lat="45.33019" lon="5.84908">
        <ele>1039.2</ele>
        <time>2025-07-12T07:44:37</time>
      </trkpt>
      <trkpt lat="45.33021" lon="5.84913">
        <ele>1039.2</ele>
        <time>2025-07-12T07:44:40</time>
      </trkpt>
      <trkpt lat="45.33021" lon="5.84916">
        <ele>1039.8</ele>
        <time>2025-07-12T07:44:42</time>
      </trkpt>
      <trkpt lat="45.33021" lon="5.84918">
        <ele>1039.8</ele>
        <time>2025-07-12T07:44:46</time>
      </trkpt>
      <trkpt lat="45.33022" lon="5.84921">
        <ele>1040.5</ele>
        <time>2025-07-12T07:44:54</time>
      </trkpt>
      <trkpt lat="45.33024" lon="5.84934">
        <ele>1041.9</ele>
        <time>2025-07-12T07:44:56</time>
      </trkpt>
      <trkpt lat="45.33024" lon="5.84936">
        <ele>1041.9</ele>
        <time>2025-07-12T07:44:57</time>
      </trkpt>
      <trkpt lat="45.33024" lon="5.84938">
        <ele>1041.9</ele>
        <time>2025-07-12T07:44:58</time>
      </trkpt>
      <trkpt lat="45.33025" lon="5.8494">
        <ele>1041.9</ele>
        <time>2025-07-12T07:44:59</time>
      </trkpt>
      <trkpt lat="45.33026" lon="5.84942">
        <ele>1041.9</ele>
        <time>2025-07-12T07:45:00</time>
      </trkpt>
      <trkpt lat="45.33027" lon="5.84945">
        <ele>1043.3</ele>
        <time>2025-07-12T07:45:06</time>
      </trkpt>
      <trkpt lat="45.33029" lon="5.84957">
        <ele>1044.5</ele>
        <time>2025-07-12T07:45:20</time>
      </trkpt>
      <trkpt lat="45.33029" lon="5.84963">
        <ele>1044.5</ele>
        <time>2025-07-12T07:45:23</time>
      </trkpt>
      <trkpt lat="45.3303" lon="5.84963">
        <ele>1044.9</ele>
        <time>2025-07-12T07:45:28</time>
      </trkpt>
      <trkpt lat="45.3303" lon="5.84964">
        <ele>1044.9</ele>
        <time>2025-07-12T07:45:31</time>
      </trkpt>
      <trkpt lat="45.33031" lon="5.84966">
        <ele>1044.9</ele>
        <time>2025-07-12T07:45:38</time>
      </trkpt>
      <trkpt lat="45.33033" lon="5.84971">
        <ele>1047.5</ele>
        <time>2025-07-12T07:45:39</time>
      </trkpt>
      <trkpt lat="45.33036" lon="5.84978">
        <ele>1047.5</ele>
        <time>2025-07-12T07:45:43</time>
      </trkpt>
      <trkpt lat="45.33037" lon="5.8499">
        <ele>1047.5</ele>
        <time>2025-07-12T07:45:47</time>
      </trkpt>
      <trkpt lat="45.33038" lon="5.85">
        <ele>1047.5</ele>
        <time>2025-07-12T07:45:48</time>
      </trkpt>
      <trkpt lat="45.33038" lon="5.85001">
        <ele>1047.5</ele>
        <time>2025-07-12T07:45:49</time>
      </trkpt>
      <trkpt lat="45.33037" lon="5.85005">
        <ele>1047.5</ele>
        <time>2025-07-12T07:45:51</time>
      </trkpt>
      <trkpt lat="45.33037" lon="5.85008">
        <ele>1050.7</ele>
        <time>2025-07-12T07:45:54</time>
      </trkpt>
      <trkpt lat="45.33038" lon="5.85009">
        <ele>1050.7</ele>
        <time>2025-07-12T07:45:55</time>
      </trkpt>
      <trkpt lat="45.33041" lon="5.85023">
        <ele>1051.6</ele>
        <time>2025-07-12T07:46:12</time>
      </trkpt>
      <trkpt lat="45.33042" lon="5.85026">
        <ele>1051.6</ele>
        <time>2025-07-12T07:46:13</time>
      </trkpt>
      <trkpt lat="45.33042" lon="5.85026">
        <ele>1051.6</ele>
        <time>2025-07-12T07:46:14</time>
      </trkpt>
      <trkpt lat="45.33042" lon="5.85026">
        <ele>1054.5</ele>
        <time>2025-07-12T07:46:15</time>
      </trkpt>
      <trkpt lat="45.33042" lon="5.85026">
        <ele>1054.5</ele>
        <time>2025-07-12T07:46:17</time>
      </trkpt>
      <trkpt lat="45.33042" lon="5.85027">
        <ele>1054.5</ele>
        <time>2025-07-12T07:46:19</time>
      </trkpt>
      <trkpt lat="45.33042" lon="5.85027">
        <ele>1054.5</ele>
        <time>2025-07-12T07:46:19</time>
      </trkpt>
      <trkpt lat="45.33043" lon="5.85042">
        <ele>1054.5</ele>
        <time>2025-07-12T07:46:22</time>
      </trkpt>
      <trkpt lat="45.33043" lon="5.85043">
        <ele>1054.5</ele>
        <time>2025-07-12T07:46:25</time>
      </trkpt>
      <trkpt lat="45.33043" lon="5.85043">
        <ele>1054.5</ele>
        <time>2025-07-12T07:46:27</time>
      </trkpt>
      <trkpt lat="45.33044" lon="5.85044">
        <ele>1054.5</ele>
        <time>2025-07-12T07:46:29</time>
      </trkpt>
      <trkpt lat="45.33043" lon="5.85047">
        <ele>1055.2333</ele>
        <time>2025-07-12T07:46:29</time>
      </trkpt>
      <trkpt lat="45.33044" lon="5.85054">
        <ele>1055.5</ele>
        <time>2025-07-12T07:46:37</time>
      </trkpt>
      <trkpt lat="45.33044" lon="5.85054">
        <ele>1055.5</ele>
        <time>2025-07-12T07:46:37</time>
      </trkpt>
      <trkpt lat="45.33044" lon="5.85054">
        <ele>1055.5</ele>
        <time>2025-07-12T07:46:38</time>
      </trkpt>
      <trkpt lat="45.33044" lon="5.85054">
        <ele>1055.5</ele>
        <time>2025-07-12T07:46:39</time>
      </trkpt>
      <trkpt lat="45.3305" lon="5.85069">
        <ele>1055.9</ele>
        <time>2025-07-12T07:46:48</time>
      </trkpt>
      <trkpt lat="45.3305" lon="5.8507">
        <ele>1056.6</ele>
        <time>2025-07-12T07:46:51</time>
      </trkpt>
      <trkpt lat="45.3305" lon="5.8507">
        <ele>1056.6</ele>
        <time>2025-07-12T07:46:56</time>
      </trkpt>
      <trkpt lat="45.3305" lon="5.8507">
        <ele>1056.6</ele>
        <time>2025-07-12T07:46:56</time>
      </trkpt>
      <trkpt lat="45.3305" lon="5.8507">
        <ele>1056.6</ele>
        <time>2025-07-12T07:46:57</time>
      </trkpt>
      <trkpt lat="45.3305" lon="5.8507">
        <ele>1056.8</ele>
        <time>2025-07-12T07:46:58</time>
      </trkpt>
      <trkpt lat="45.3305" lon="5.85071">
        <ele>1056.8</ele>
        <time>2025-07-12T07:47:00</time>
      </trkpt>
      <trkpt lat="45.3305" lon="5.85071">
        <ele>1056.8</ele>
        <time>2025-07-12T07:47:02</time>
      </trkpt>
      <trkpt lat="45.3305" lon="5.85071">
        <ele>1056.8</ele>
        <time>2025-07-12T07:47:03</time>
      </trkpt>
      <trkpt lat="45.3305" lon="5.85071">
        <ele>1056.8</ele>
        <time>2025-07-12T07:47:04</time>
      </trkpt>
      <trkpt lat="45.3305" lon="5.85071">
        <ele>1056.8</ele>
        <time>2025-07-12T07:47:05</time>
      </trkpt>
      <trkpt lat="45.3305" lon="5.85071">
        <ele>1056.8</ele>
        <time>2025-07-12T07:47:05</time>
      </trkpt>
      <trkpt lat="45.33053" lon="5.85083">
        <ele>1058.6</ele>
        <time>2025-07-12T07:47:07</time>
      </trkpt>
      <trkpt lat="45.33054" lon="5.85085">
        <ele>1058.6</ele>
        <time>2025-07-12T07:47:07</time>
      </trkpt>
      <trkpt lat="45.33054" lon="5.85085">
        <ele>1058.6</ele>
        <time>2025-07-12T07:47:09</time>
      </trkpt>
      <trkpt lat="45.33054" lon="5.85086">
        <ele>1058.6</ele>
        <time>2025-07-12T07:47:14</time>
      </trkpt>
      <trkpt lat="45.33054" lon="5.85087">
        <ele>1058.6</ele>
        <time>2025-07-12T07:47:17</time>
      </trkpt>
      <trkpt lat="45.33054" lon="5.85088">
        <ele>1058.6</ele>
        <time>2025-07-12T07:47:20</time>
      </trkpt>
      <trkpt lat="45.33055" lon="5.85089">
        <ele>1061.1</ele>
        <time>2025-07-12T07:47:20</time>
      </trkpt>
      <trkpt lat="45.33058" lon="5.85099">
        <ele>1061.1</ele>
        <time>2025-07-12T07:47:23</time>
      </trkpt>
      <trkpt lat="45.33064" lon="5.85119">
        <ele>1067.5</ele>
        <time>2025-07-12T07:47:44</time>
      </trkpt>
      <trkpt lat="45.33067" lon="5.85128">
        <ele>1067.5</ele>
        <time>2025-07-12T07:47:49</time>
      </trkpt>
      <trkpt lat="45.33067" lon="5.8513">
        <ele>1067.5</ele>
        <time>2025-07-12T07:47:52</time>
      </trkpt>
      <trkpt lat="45.33069" lon="5.85135">
        <ele>1067.6</ele>
        <time>2025-07-12T07:47:56</time>
      </trkpt>
      <trkpt lat="45.33072" lon="5.85152">
        <ele>1070.0667</ele>
        <time>2025-07-12T07:48:01</time>
      </trkpt>
      <trkpt lat="45.33072" lon="5.85153">
        <ele>1070.0667</ele>
        <time>2025-07-12T07:48:01</time>
      </trkpt>
      <trkpt lat="45.33073" lon="5.85153">
        <ele>1070.0667</ele>
        <time>2025-07-12T07:48:04</time>
      </trkpt>
      <trkpt lat="45.33073" lon="5.85153">
        <ele>1070.0667</ele>
        <time>2025-07-12T07:48:05</time>
      </trkpt>
      <trkpt lat="45.33073" lon="5.85153">
        <ele>1070.0667</ele>
        <time>2025-07-12T07:48:06</time>
      </trkpt>
      <trkpt lat="45.33073" lon="5.85153">
        <ele>1070.9</ele>
        <time>2025-07-12T07:48:07</time>
      </trkpt>
      <trkpt lat="45.33073" lon="5.85154">
        <ele>1070.9</ele>
        <time>2025-07-12T07:48:07</time>
      </trkpt>
      <trkpt lat="45.33073" lon="5.85157">
        <ele>1070.9</ele>
        <time>2025-07-12T07:48:09</time>
      </trkpt>
      <trkpt lat="45.33072" lon="5.85162">
        <ele>1070.9</ele>
        <time>2025-07-12T07:48:11</time>
      </trkpt>
      <trkpt lat="45.33071" lon="5.85169">
        <ele>1070.9</ele>
        <time>2025-07-12T07:48:13</time>
      </trkpt>
      <trkpt lat="45.33072" lon="5.85174">
        <ele>1071.1</ele>
        <time>2025-07-12T07:48:16</time>
      </trkpt>
      <trkpt lat="45.33074" lon="5.85183">
        <ele>1071.1</ele>
        <time>2025-07-12T07:48:21</time>
      </trkpt>
      <trkpt lat="45.33075" lon="5.85184">
        <ele>1071.8334</ele>
        <time>2025-07-12T07:48:22</time>
      </trkpt>
      <trkpt lat="45.33076" lon="5.852">
        <ele>1072.6</ele>
        <time>2025-07-12T07:48:32</time>
      </trkpt>
      <trkpt lat="45.33074" lon="5.85202">
        <ele>1072.6</ele>
        <time>2025-07-12T07:48:33</time>
      </trkpt>
      <trkpt lat="45.33073" lon="5.85205">
        <ele>1072.6</ele>
        <time>2025-07-12T07:48:35</time>
      </trkpt>
      <trkpt lat="45.33073" lon="5.85211">
        <ele>1072.6</ele>
        <time>2025-07-12T07:48:38</time>
      </trkpt>
      <trkpt lat="45.33072" lon="5.85214">
        <ele>1072.6</ele>
        <time>2025-07-12T07:48:41</time>
      </trkpt>
      <trkpt lat="45.33073" lon="5.85218">
        <ele>1072.6</ele>
        <time>2025-07-12T07:48:43</time>
      </trkpt>
      <trkpt lat="45.33075" lon="5.85223">
        <ele>1072.2</ele>
        <time>2025-07-12T07:48:46</time>
      </trkpt>
      <trkpt lat="45.33074" lon="5.85227">
        <ele>1072.2</ele>
        <time>2025-07-12T07:48:49</time>
      </trkpt>
      <trkpt lat="45.33069" lon="5.85244">
        <ele>1070.4</ele>
        <time>2025-07-12T07:48:57</time>
      </trkpt>
      <trkpt lat="45.33068" lon="5.85247">
        <ele>1070.4</ele>
        <time>2025-07-12T07:48:59</time>
      </trkpt>
      <trkpt lat="45.33068" lon="5.85248">
        <ele>1070.4</ele>
        <time>2025-07-12T07:49:00</time>
      </trkpt>
      <trkpt lat="45.33067" lon="5.85252">
        <ele>1069.6</ele>
        <time>2025-07-12T07:49:03</time>
      </trkpt>
      <trkpt lat="45.33067" lon="5.85254">
        <ele>1069.6</ele>
        <time>2025-07-12T07:49:04</time>
      </trkpt>
      <trkpt lat="45.33067" lon="5.85255">
        <ele>1069.6</ele>
        <time>2025-07-12T07:49:05</time>
      </trkpt>
      <trkpt lat="45.33067" lon="5.85259">
        <ele>1069.6</ele>
        <time>2025-07-12T07:49:07</time>
      </trkpt>
      <trkpt lat="45.33067" lon="5.8526">
        <ele>1069.6</ele>
        <time>2025-07-12T07:49:08</time>
      </trkpt>
      <trkpt lat="45.33066" lon="5.85262">
        <ele>1070.1</ele>
        <time>2025-07-12T07:49:09</time>
      </trkpt>
      <trkpt lat="45.33057" lon="5.85284">
        <ele>1068.6</ele>
        <time>2025-07-12T07:49:22</time>
      </trkpt>
      <trkpt lat="45.33057" lon="5.85287">
        <ele>1068.6</ele>
        <time>2025-07-12T07:49:24</time>
      </trkpt>
      <trkpt lat="45.33057" lon="5.85289">
        <ele>1068.6</ele>
        <time>2025-07-12T07:49:25</time>
      </trkpt>
      <trkpt lat="45.33057" lon="5.85291">
        <ele>1068.6</ele>
        <time>2025-07-12T07:49:26</time>
      </trkpt>
      <trkpt lat="45.33057" lon="5.85293">
        <ele>1067.8</ele>
        <time>2025-07-12T07:49:27</time>
      </trkpt>
      <trkpt lat="45.33056" lon="5.85296">
        <ele>1067.8</ele>
        <time>2025-07-12T07:49:29</time>
      </trkpt>
      <trkpt lat="45.33052" lon="5.8531">
        <ele>1067</ele>
        <time>2025-07-12T07:49:37</time>
      </trkpt>
      <trkpt lat="45.33052" lon="5.85311">
        <ele>1067</ele>
        <time>2025-07-12T07:49:37</time>
      </trkpt>
      <trkpt lat="45.33052" lon="5.85311">
        <ele>1067</ele>
        <time>2025-07-12T07:49:38</time>
      </trkpt>
      <trkpt lat="45.33052" lon="5.85311">
        <ele>1067</ele>
        <time>2025-07-12T07:49:38</time>
      </trkpt>
      <trkpt lat="45.33052" lon="5.85311">
        <ele>1067</ele>
        <time>2025-07-12T07:49:39</time>
      </trkpt>
      <trkpt lat="45.33053" lon="5.85311">
        <ele>1067</ele>
        <time>2025-07-12T07:49:39</time>
      </trkpt>
      <trkpt lat="45.33053" lon="5.85311">
        <ele>1067</ele>
        <time>2025-07-12T07:49:40</time>
      </trkpt>
      <trkpt lat="45.33053" lon="5.85313">
        <ele>1066.2</ele>
        <time>2025-07-12T07:49:40</time>
      </trkpt>
      <trkpt lat="45.33053" lon="5.85315">
        <ele>1066.2</ele>
        <time>2025-07-12T07:49:41</time>
      </trkpt>
      <trkpt lat="45.33053" lon="5.85317">
        <ele>1066.2</ele>
        <time>2025-07-12T07:49:42</time>
      </trkpt>
      <trkpt lat="45.33055" lon="5.8533">
        <ele>1066.2</ele>
        <time>2025-07-12T07:49:48</time>
      </trkpt>
      <trkpt lat="45.33054" lon="5.85334">
        <ele>1064.7</ele>
        <time>2025-07-12T07:49:51</time>
      </trkpt>
      <trkpt lat="45.33054" lon="5.85334">
        <ele>1064.7</ele>
        <time>2025-07-12T07:49:52</time>
      </trkpt>
      <trkpt lat="45.33054" lon="5.85334">
        <ele>1064.7</ele>
        <time>2025-07-12T07:49:52</time>
      </trkpt>
      <trkpt lat="45.33054" lon="5.85334">
        <ele>1064.7</ele>
        <time>2025-07-12T07:49:55</time>
      </trkpt>
      <trkpt lat="45.33055" lon="5.85336">
        <ele>1064.7</ele>
        <time>2025-07-12T07:49:56</time>
      </trkpt>
      <trkpt lat="45.33058" lon="5.85337">
        <ele>1064.1</ele>
        <time>2025-07-12T07:49:57</time>
      </trkpt>
      <trkpt lat="45.33058" lon="5.85338">
        <ele>1064.1</ele>
        <time>2025-07-12T07:49:58</time>
      </trkpt>
      <trkpt lat="45.33059" lon="5.85338">
        <ele>1064.1</ele>
        <time>2025-07-12T07:49:59</time>
      </trkpt>
      <trkpt lat="45.33059" lon="5.85338">
        <ele>1064.1</ele>
        <time>2025-07-12T07:50:00</time>
      </trkpt>
      <trkpt lat="45.33059" lon="5.85338">
        <ele>1064.1</ele>
        <time>2025-07-12T07:50:01</time>
      </trkpt>
      <trkpt lat="45.33059" lon="5.85339">
        <ele>1064.1</ele>
        <time>2025-07-12T07:50:02</time>
      </trkpt>
      <trkpt lat="45.33059" lon="5.85339">
        <ele>1064.1</ele>
        <time>2025-07-12T07:50:05</time>
      </trkpt>
      <trkpt lat="45.33059" lon="5.85339">
        <ele>1063.6333</ele>
        <time>2025-07-12T07:50:06</time>
      </trkpt>
      <trkpt lat="45.33059" lon="5.85339">
        <ele>1063.6333</ele>
        <time>2025-07-12T07:50:07</time>
      </trkpt>
      <trkpt lat="45.3306" lon="5.85339">
        <ele>1063.7</ele>
        <time>2025-07-12T07:51:00</time>
      </trkpt>
      <trkpt lat="45.3306" lon="5.85339">
        <ele>1063.7</ele>
        <time>2025-07-12T07:51:02</time>
      </trkpt>
      <trkpt lat="45.3306" lon="5.85339">
        <ele>1063.7</ele>
        <time>2025-07-12T07:51:03</time>
      </trkpt>
      <trkpt lat="45.3306" lon="5.85339">
        <ele>1063.7</ele>
        <time>2025-07-12T07:51:05</time>
      </trkpt>
      <trkpt lat="45.3306" lon="5.85339">
        <ele>1063.7</ele>
        <time>2025-07-12T07:51:06</time>
      </trkpt>
      <trkpt lat="45.3306" lon="5.85339">
        <ele>1063.7</ele>
        <time>2025-07-12T07:51:07</time>
      </trkpt>
      <trkpt lat="45.33052" lon="5.85341">
        <ele>1063.7</ele>
        <time>2025-07-12T07:51:08</time>
      </trkpt>
      <trkpt lat="45.33051" lon="5.85342">
        <ele>1063.7</ele>
        <time>2025-07-12T07:51:09</time>
      </trkpt>
      <trkpt lat="45.3305" lon="5.85342">
        <ele>1063.7</ele>
        <time>2025-07-12T07:51:10</time>
      </trkpt>
      <trkpt lat="45.3305" lon="5.85343">
        <ele>1063.7</ele>
        <time>2025-07-12T07:51:10</time>
      </trkpt>
      <trkpt lat="45.3305" lon="5.85343">
        <ele>1063.7</ele>
        <time>2025-07-12T07:51:11</time>
      </trkpt>
      <trkpt lat="45.33049" lon="5.85343">
        <ele>1063.7</ele>
        <time>2025-07-12T07:51:12</time>
      </trkpt>
      <trkpt lat="45.33049" lon="5.85344">
        <ele>1063.7</ele>
        <time>2025-07-12T07:51:15</time>
      </trkpt>
      <trkpt lat="45.33049" lon="5.85344">
        <ele>1063.7</ele>
        <time>2025-07-12T07:51:17</time>
      </trkpt>
      <trkpt lat="45.33049" lon="5.85345">
        <ele>1063.7</ele>
        <time>2025-07-12T07:51:18</time>
      </trkpt>
      <trkpt lat="45.33049" lon="5.85345">
        <ele>1063.7</ele>
        <time>2025-07-12T07:51:19</time>
      </trkpt>
      <trkpt lat="45.33049" lon="5.85345">
        <ele>1063.7</ele>
        <time>2025-07-12T07:51:20</time>
      </trkpt>
      <trkpt lat="45.33049" lon="5.85344">
        <ele>1063.7</ele>
        <time>2025-07-12T07:51:23</time>
      </trkpt>
      <trkpt lat="45.33049" lon="5.85345">
        <ele>1063.7</ele>
        <time>2025-07-12T07:51:23</time>
      </trkpt>
      <trkpt lat="45.33049" lon="5.85345">
        <ele>1063.7</ele>
        <time>2025-07-12T07:51:25</time>
      </trkpt>
      <trkpt lat="45.33049" lon="5.85345">
        <ele>1063.7</ele>
        <time>2025-07-12T07:51:27</time>
      </trkpt>
      <trkpt lat="45.33049" lon="5.85345">
        <ele>1063.7</ele>
        <time>2025-07-12T07:51:28</time>
      </trkpt>
      <trkpt lat="45.33049" lon="5.85345">
        <ele>1063.7</ele>
        <time>2025-07-12T07:51:29</time>
      </trkpt>
      <trkpt lat="45.33049" lon="5.85345">
        <ele>1063.7</ele>
        <time>2025-07-12T07:51:30</time>
      </trkpt>
      <trkpt lat="45.33049" lon="5.85345">
        <ele>1063.7</ele>
        <time>2025-07-12T07:51:31</time>
      </trkpt>
      <trkpt lat="45.33049" lon="5.85345">
        <ele>1063.7</ele>
        <time>2025-07-12T07:51:32</time>
      </trkpt>
      <trkpt lat="45.33049" lon="5.85345">
        <ele>1063.7</ele>
        <time>2025-07-12T07:51:33</time>
      </trkpt>
      <trkpt lat="45.33049" lon="5.85345">
        <ele>1063.7</ele>
        <time>2025-07-12T07:51:34</time>
      </trkpt>
      <trkpt lat="45.33049" lon="5.85345">
        <ele>1063.6</ele>
        <time>2025-07-12T07:51:35</time>
      </trkpt>
      <trkpt lat="45.3305" lon="5.85345">
        <ele>1063.6</ele>
        <time>2025-07-12T07:51:39</time>
      </trkpt>
      <trkpt lat="45.3305" lon="5.85345">
        <ele>1063.6</ele>
        <time>2025-07-12T07:51:41</time>
      </trkpt>
      <trkpt lat="45.33054" lon="5.85362">
        <ele>1063.6</ele>
        <time>2025-07-12T07:51:42</time>
      </trkpt>
      <trkpt lat="45.33054" lon="5.85365">
        <ele>1063.6</ele>
        <time>2025-07-12T07:51:43</time>
      </trkpt>
      <trkpt lat="45.33054" lon="5.85366">
        <ele>1063.6</ele>
        <time>2025-07-12T07:51:44</time>
      </trkpt>
      <trkpt lat="45.33055" lon="5.85366">
        <ele>1063.6</ele>
        <time>2025-07-12T07:51:45</time>
      </trkpt>
      <trkpt lat="45.33054" lon="5.85367">
        <ele>1063.6</ele>
        <time>2025-07-12T07:51:47</time>
      </trkpt>
      <trkpt lat="45.33055" lon="5.85367">
        <ele>1063.6</ele>
        <time>2025-07-12T07:51:51</time>
      </trkpt>
      <trkpt lat="45.33055" lon="5.85367">
        <ele>1066.4</ele>
        <time>2025-07-12T07:51:52</time>
      </trkpt>
      <trkpt lat="45.33055" lon="5.85367">
        <ele>1066.4</ele>
        <time>2025-07-12T07:51:54</time>
      </trkpt>
      <trkpt lat="45.33055" lon="5.85367">
        <ele>1066.4</ele>
        <time>2025-07-12T07:51:56</time>
      </trkpt>
      <trkpt lat="45.33055" lon="5.85367">
        <ele>1066.4</ele>
        <time>2025-07-12T07:51:58</time>
      </trkpt>
      <trkpt lat="45.33055" lon="5.85367">
        <ele>1066.4</ele>
        <time>2025-07-12T07:51:58</time>
      </trkpt>
      <trkpt lat="45.33055" lon="5.85367">
        <ele>1066.4</ele>
        <time>2025-07-12T07:52:00</time>
      </trkpt>
      <trkpt lat="45.33055" lon="5.85367">
        <ele>1066.4</ele>
        <time>2025-07-12T07:52:02</time>
      </trkpt>
      <trkpt lat="45.33055" lon="5.85367">
        <ele>1066.4</ele>
        <time>2025-07-12T07:52:03</time>
      </trkpt>
      <trkpt lat="45.33054" lon="5.85367">
        <ele>1066.4</ele>
        <time>2025-07-12T07:52:04</time>
      </trkpt>
      <trkpt lat="45.33054" lon="5.85367">
        <ele>1066.4</ele>
        <time>2025-07-12T07:52:07</time>
      </trkpt>
      <trkpt lat="45.33054" lon="5.85368">
        <ele>1066.4</ele>
        <time>2025-07-12T07:52:08</time>
      </trkpt>
      <trkpt lat="45.33054" lon="5.85368">
        <ele>1066.4</ele>
        <time>2025-07-12T07:52:10</time>
      </trkpt>
      <trkpt lat="45.33054" lon="5.85368">
        <ele>1066.4</ele>
        <time>2025-07-12T07:52:11</time>
      </trkpt>
      <trkpt lat="45.33054" lon="5.85368">
        <ele>1066.4</ele>
        <time>2025-07-12T07:52:14</time>
      </trkpt>
      <trkpt lat="45.33055" lon="5.85369">
        <ele>1066.4</ele>
        <time>2025-07-12T07:52:15</time>
      </trkpt>
      <trkpt lat="45.33056" lon="5.85376">
        <ele>1066.4</ele>
        <time>2025-07-12T07:52:17</time>
      </trkpt>
      <trkpt lat="45.33057" lon="5.85378">
        <ele>1070.6</ele>
        <time>2025-07-12T07:52:19</time>
      </trkpt>
      <trkpt lat="45.33058" lon="5.85381">
        <ele>1070.6</ele>
        <time>2025-07-12T07:52:23</time>
      </trkpt>
      <trkpt lat="45.33058" lon="5.85381">
        <ele>1070.6</ele>
        <time>2025-07-12T07:52:25</time>
      </trkpt>
      <trkpt lat="45.33058" lon="5.85381">
        <ele>1070.6</ele>
        <time>2025-07-12T07:52:26</time>
      </trkpt>
      <trkpt lat="45.33059" lon="5.85381">
        <ele>1070.6</ele>
        <time>2025-07-12T07:52:27</time>
      </trkpt>
      <trkpt lat="45.33059" lon="5.85381">
        <ele>1070.6</ele>
        <time>2025-07-12T07:52:28</time>
      </trkpt>
      <trkpt lat="45.33059" lon="5.85382">
        <ele>1070.8</ele>
        <time>2025-07-12T07:52:30</time>
      </trkpt>
      <trkpt lat="45.33059" lon="5.85385">
        <ele>1070.8</ele>
        <time>2025-07-12T07:52:32</time>
      </trkpt>
      <trkpt lat="45.33059" lon="5.8539">
        <ele>1070.8</ele>
        <time>2025-07-12T07:52:34</time>
      </trkpt>
      <trkpt lat="45.3306" lon="5.85392">
        <ele>1070.8</ele>
        <time>2025-07-12T07:52:35</time>
      </trkpt>
      <trkpt lat="45.3306" lon="5.85393">
        <ele>1070.8</ele>
        <time>2025-07-12T07:52:37</time>
      </trkpt>
      <trkpt lat="45.3306" lon="5.85394">
        <ele>1072.6</ele>
        <time>2025-07-12T07:52:39</time>
      </trkpt>
      <trkpt lat="45.33061" lon="5.85394">
        <ele>1072.6</ele>
        <time>2025-07-12T07:52:40</time>
      </trkpt>
      <trkpt lat="45.33061" lon="5.85394">
        <ele>1072.6</ele>
        <time>2025-07-12T07:52:41</time>
      </trkpt>
      <trkpt lat="45.33061" lon="5.85394">
        <ele>1072.6</ele>
        <time>2025-07-12T07:52:42</time>
      </trkpt>
      <trkpt lat="45.33061" lon="5.85394">
        <ele>1072.6</ele>
        <time>2025-07-12T07:52:42</time>
      </trkpt>
      <trkpt lat="45.33061" lon="5.85394">
        <ele>1072.6</ele>
        <time>2025-07-12T07:52:43</time>
      </trkpt>
      <trkpt lat="45.33061" lon="5.85394">
        <ele>1072.6</ele>
        <time>2025-07-12T07:52:43</time>
      </trkpt>
      <trkpt lat="45.33061" lon="5.85394">
        <ele>1072.6</ele>
        <time>2025-07-12T07:52:44</time>
      </trkpt>
      <trkpt lat="45.33061" lon="5.85394">
        <ele>1072.6</ele>
        <time>2025-07-12T07:52:45</time>
      </trkpt>
      <trkpt lat="45.33061" lon="5.85394">
        <ele>1072.6</ele>
        <time>2025-07-12T07:52:46</time>
      </trkpt>
      <trkpt lat="45.33063" lon="5.85405">
        <ele>1072.6</ele>
        <time>2025-07-12T07:52:48</time>
      </trkpt>
      <trkpt lat="45.33063" lon="5.85407">
        <ele>1072.6</ele>
        <time>2025-07-12T07:52:49</time>
      </trkpt>
      <trkpt lat="45.33063" lon="5.85407">
        <ele>1072.6</ele>
        <time>2025-07-12T07:52:57</time>
      </trkpt>
      <trkpt lat="45.33063" lon="5.85408">
        <ele>1072.6</ele>
        <time>2025-07-12T07:52:58</time>
      </trkpt>
      <trkpt lat="45.33063" lon="5.85408">
        <ele>1074.1</ele>
        <time>2025-07-12T07:53:02</time>
      </trkpt>
      <trkpt lat="45.33063" lon="5.85408">
        <ele>1074.1</ele>
        <time>2025-07-12T07:53:03</time>
      </trkpt>
      <trkpt lat="45.33063" lon="5.85408">
        <ele>1074.1</ele>
        <time>2025-07-12T07:53:04</time>
      </trkpt>
      <trkpt lat="45.33063" lon="5.85408">
        <ele>1074.1</ele>
        <time>2025-07-12T07:53:06</time>
      </trkpt>
      <trkpt lat="45.33063" lon="5.85408">
        <ele>1074.1</ele>
        <time>2025-07-12T07:53:07</time>
      </trkpt>
      <trkpt lat="45.33063" lon="5.85409">
        <ele>1074.1</ele>
        <time>2025-07-12T07:53:09</time>
      </trkpt>
      <trkpt lat="45.33063" lon="5.85409">
        <ele>1074.1</ele>
        <time>2025-07-12T07:53:10</time>
      </trkpt>
      <trkpt lat="45.33063" lon="5.85409">
        <ele>1074.1</ele>
        <time>2025-07-12T07:53:11</time>
      </trkpt>
      <trkpt lat="45.33063" lon="5.85409">
        <ele>1074.1</ele>
        <time>2025-07-12T07:53:12</time>
      </trkpt>
      <trkpt lat="45.33062" lon="5.85409">
        <ele>1074.1</ele>
        <time>2025-07-12T07:53:16</time>
      </trkpt>
      <trkpt lat="45.33062" lon="5.85409">
        <ele>1074.1</ele>
        <time>2025-07-12T07:53:17</time>
      </trkpt>
      <trkpt lat="45.33062" lon="5.85411">
        <ele>1074.1</ele>
        <time>2025-07-12T07:53:18</time>
      </trkpt>
      <trkpt lat="45.33062" lon="5.85423">
        <ele>1076.4</ele>
        <time>2025-07-12T07:53:21</time>
      </trkpt>
      <trkpt lat="45.33062" lon="5.85423">
        <ele>1076.4</ele>
        <time>2025-07-12T07:53:23</time>
      </trkpt>
      <trkpt lat="45.33061" lon="5.85424">
        <ele>1076.4</ele>
        <time>2025-07-12T07:53:27</time>
      </trkpt>
      <trkpt lat="45.33061" lon="5.85424">
        <ele>1076.8</ele>
        <time>2025-07-12T07:53:33</time>
      </trkpt>
      <trkpt lat="45.33061" lon="5.85425">
        <ele>1076.8</ele>
        <time>2025-07-12T07:53:34</time>
      </trkpt>
      <trkpt lat="45.33061" lon="5.85425">
        <ele>1076.8</ele>
        <time>2025-07-12T07:53:35</time>
      </trkpt>
      <trkpt lat="45.33061" lon="5.85426">
        <ele>1076.8</ele>
        <time>2025-07-12T07:53:36</time>
      </trkpt>
      <trkpt lat="45.33057" lon="5.85437">
        <ele>1078.3334</ele>
        <time>2025-07-12T07:53:40</time>
      </trkpt>
      <trkpt lat="45.33057" lon="5.85437">
        <ele>1078.3334</ele>
        <time>2025-07-12T07:53:41</time>
      </trkpt>
      <trkpt lat="45.33057" lon="5.85438">
        <ele>1078.3334</ele>
        <time>2025-07-12T07:53:42</time>
      </trkpt>
      <trkpt lat="45.33056" lon="5.85438">
        <ele>1078.3334</ele>
        <time>2025-07-12T07:53:45</time>
      </trkpt>
      <trkpt lat="45.33056" lon="5.85438">
        <ele>1078.6</ele>
        <time>2025-07-12T07:53:47</time>
      </trkpt>
      <trkpt lat="45.33056" lon="5.85438">
        <ele>1078.6</ele>
        <time>2025-07-12T07:53:49</time>
      </trkpt>
      <trkpt lat="45.33056" lon="5.85438">
        <ele>1078.6</ele>
        <time>2025-07-12T07:53:49</time>
      </trkpt>
      <trkpt lat="45.33056" lon="5.85438">
        <ele>1078.6</ele>
        <time>2025-07-12T07:53:53</time>
      </trkpt>
      <trkpt lat="45.33056" lon="5.85438">
        <ele>1078.6</ele>
        <time>2025-07-12T07:53:54</time>
      </trkpt>
      <trkpt lat="45.33056" lon="5.85438">
        <ele>1078.6</ele>
        <time>2025-07-12T07:53:55</time>
      </trkpt>
      <trkpt lat="45.33056" lon="5.85438">
        <ele>1078.6</ele>
        <time>2025-07-12T07:53:56</time>
      </trkpt>
      <trkpt lat="45.33056" lon="5.85438">
        <ele>1078.6</ele>
        <time>2025-07-12T07:53:57</time>
      </trkpt>
      <trkpt lat="45.33056" lon="5.85438">
        <ele>1078.6</ele>
        <time>2025-07-12T07:53:58</time>
      </trkpt>
      <trkpt lat="45.33056" lon="5.85438">
        <ele>1078.6</ele>
        <time>2025-07-12T07:53:59</time>
      </trkpt>
      <trkpt lat="45.33055" lon="5.85438">
        <ele>1078.6</ele>
        <time>2025-07-12T07:54:01</time>
      </trkpt>
      <trkpt lat="45.33055" lon="5.85438">
        <ele>1078.6</ele>
        <time>2025-07-12T07:54:02</time>
      </trkpt>
      <trkpt lat="45.33047" lon="5.85447">
        <ele>1078.6</ele>
        <time>2025-07-12T07:54:03</time>
      </trkpt>
      <trkpt lat="45.33046" lon="5.85448">
        <ele>1078.6</ele>
        <time>2025-07-12T07:54:04</time>
      </trkpt>
      <trkpt lat="45.33046" lon="5.85449">
        <ele>1078.6</ele>
        <time>2025-07-12T07:54:05</time>
      </trkpt>
      <trkpt lat="45.33046" lon="5.85449">
        <ele>1078.6</ele>
        <time>2025-07-12T07:54:07</time>
      </trkpt>
      <trkpt lat="45.33046" lon="5.85449">
        <ele>1078.6</ele>
        <time>2025-07-12T07:54:08</time>
      </trkpt>
      <trkpt lat="45.33046" lon="5.85449">
        <ele>1078.6</ele>
        <time>2025-07-12T07:54:09</time>
      </trkpt>
      <trkpt lat="45.33045" lon="5.85449">
        <ele>1081</ele>
        <time>2025-07-12T07:54:13</time>
      </trkpt>
      <trkpt lat="45.33045" lon="5.85449">
        <ele>1081</ele>
        <time>2025-07-12T07:54:14</time>
      </trkpt>
      <trkpt lat="45.33045" lon="5.85449">
        <ele>1081</ele>
        <time>2025-07-12T07:54:15</time>
      </trkpt>
      <trkpt lat="45.33045" lon="5.85449">
        <ele>1081</ele>
        <time>2025-07-12T07:54:15</time>
      </trkpt>
      <trkpt lat="45.33045" lon="5.85449">
        <ele>1081</ele>
        <time>2025-07-12T07:54:20</time>
      </trkpt>
      <trkpt lat="45.33045" lon="5.85449">
        <ele>1081</ele>
        <time>2025-07-12T07:54:20</time>
      </trkpt>
      <trkpt lat="45.33044" lon="5.8545">
        <ele>1081</ele>
        <time>2025-07-12T07:54:24</time>
      </trkpt>
      <trkpt lat="45.33039" lon="5.85454">
        <ele>1081</ele>
        <time>2025-07-12T07:54:25</time>
      </trkpt>
      <trkpt lat="45.33036" lon="5.85456">
        <ele>1081.9</ele>
        <time>2025-07-12T07:54:27</time>
      </trkpt>
      <trkpt lat="45.33035" lon="5.85456">
        <ele>1081.9</ele>
        <time>2025-07-12T07:54:27</time>
      </trkpt>
      <trkpt lat="45.33035" lon="5.85456">
        <ele>1081.9</ele>
        <time>2025-07-12T07:54:28</time>
      </trkpt>
      <trkpt lat="45.33034" lon="5.85458">
        <ele>1081.9</ele>
        <time>2025-07-12T07:54:30</time>
      </trkpt>
      <trkpt lat="45.33026" lon="5.85457">
        <ele>1081.9</ele>
        <time>2025-07-12T07:54:31</time>
      </trkpt>
      <trkpt lat="45.33023" lon="5.85456">
        <ele>1081.9</ele>
        <time>2025-07-12T07:54:31</time>
      </trkpt>
      <trkpt lat="45.33022" lon="5.85456">
        <ele>1081.9</ele>
        <time>2025-07-12T07:54:33</time>
      </trkpt>
      <trkpt lat="45.33022" lon="5.85456">
        <ele>1081.9</ele>
        <time>2025-07-12T07:54:34</time>
      </trkpt>
      <trkpt lat="45.33022" lon="5.85456">
        <ele>1084.2</ele>
        <time>2025-07-12T07:54:36</time>
      </trkpt>
      <trkpt lat="45.33022" lon="5.85456">
        <ele>1084.2</ele>
        <time>2025-07-12T07:54:37</time>
      </trkpt>
      <trkpt lat="45.33022" lon="5.85456">
        <ele>1084.2</ele>
        <time>2025-07-12T07:54:38</time>
      </trkpt>
      <trkpt lat="45.33022" lon="5.85456">
        <ele>1084.2</ele>
        <time>2025-07-12T07:54:42</time>
      </trkpt>
      <trkpt lat="45.33022" lon="5.85456">
        <ele>1084.2</ele>
        <time>2025-07-12T07:54:42</time>
      </trkpt>
      <trkpt lat="45.33022" lon="5.85456">
        <ele>1084.2</ele>
        <time>2025-07-12T07:54:43</time>
      </trkpt>
      <trkpt lat="45.33022" lon="5.85456">
        <ele>1084.2</ele>
        <time>2025-07-12T07:54:45</time>
      </trkpt>
      <trkpt lat="45.33022" lon="5.85456">
        <ele>1084.2</ele>
        <time>2025-07-12T07:54:46</time>
      </trkpt>
      <trkpt lat="45.33022" lon="5.85456">
        <ele>1084.2</ele>
        <time>2025-07-12T07:54:46</time>
      </trkpt>
      <trkpt lat="45.33022" lon="5.85456">
        <ele>1084.2</ele>
        <time>2025-07-12T07:54:47</time>
      </trkpt>
      <trkpt lat="45.33022" lon="5.85456">
        <ele>1084.2</ele>
        <time>2025-07-12T07:54:48</time>
      </trkpt>
      <trkpt lat="45.33022" lon="5.85456">
        <ele>1084.2</ele>
        <time>2025-07-12T07:54:49</time>
      </trkpt>
      <trkpt lat="45.33022" lon="5.85456">
        <ele>1084.2</ele>
        <time>2025-07-12T07:54:50</time>
      </trkpt>
      <trkpt lat="45.33022" lon="5.85456">
        <ele>1085.6</ele>
        <time>2025-07-12T07:54:54</time>
      </trkpt>
      <trkpt lat="45.33022" lon="5.85456">
        <ele>1085.6</ele>
        <time>2025-07-12T07:54:55</time>
      </trkpt>
      <trkpt lat="45.33022" lon="5.85457">
        <ele>1085.6</ele>
        <time>2025-07-12T07:54:57</time>
      </trkpt>
      <trkpt lat="45.33019" lon="5.85461">
        <ele>1085.6</ele>
        <time>2025-07-12T07:54:57</time>
      </trkpt>
      <trkpt lat="45.33017" lon="5.85464">
        <ele>1089.7</ele>
        <time>2025-07-12T07:54:59</time>
      </trkpt>
      <trkpt lat="45.33017" lon="5.85465">
        <ele>1089.7</ele>
        <time>2025-07-12T07:55:01</time>
      </trkpt>
      <trkpt lat="45.33016" lon="5.85465">
        <ele>1089.7</ele>
        <time>2025-07-12T07:55:05</time>
      </trkpt>
      <trkpt lat="45.33016" lon="5.85466">
        <ele>1089.7</ele>
        <time>2025-07-12T07:55:09</time>
      </trkpt>
      <trkpt lat="45.33016" lon="5.85466">
        <ele>1089.7</ele>
        <time>2025-07-12T07:55:10</time>
      </trkpt>
      <trkpt lat="45.33016" lon="5.85466">
        <ele>1089.7</ele>
        <time>2025-07-12T07:55:11</time>
      </trkpt>
      <trkpt lat="45.33016" lon="5.85466">
        <ele>1089.7</ele>
        <time>2025-07-12T07:55:13</time>
      </trkpt>
      <trkpt lat="45.33016" lon="5.85466">
        <ele>1089.7</ele>
        <time>2025-07-12T07:55:15</time>
      </trkpt>
      <trkpt lat="45.33016" lon="5.85466">
        <ele>1089.7</ele>
        <time>2025-07-12T07:55:16</time>
      </trkpt>
      <trkpt lat="45.33016" lon="5.85466">
        <ele>1089.7</ele>
        <time>2025-07-12T07:55:17</time>
      </trkpt>
      <trkpt lat="45.33016" lon="5.85466">
        <ele>1089.7</ele>
        <time>2025-07-12T07:55:18</time>
      </trkpt>
      <trkpt lat="45.33016" lon="5.85467">
        <ele>1089.7</ele>
        <time>2025-07-12T07:55:20</time>
      </trkpt>
      <trkpt lat="45.33016" lon="5.85467">
        <ele>1089.7</ele>
        <time>2025-07-12T07:55:21</time>
      </trkpt>
      <trkpt lat="45.33016" lon="5.85468">
        <ele>1089.7</ele>
        <time>2025-07-12T07:55:22</time>
      </trkpt>
      <trkpt lat="45.33017" lon="5.85468">
        <ele>1091.2</ele>
        <time>2025-07-12T07:55:23</time>
      </trkpt>
      <trkpt lat="45.33019" lon="5.85471">
        <ele>1091.2</ele>
        <time>2025-07-12T07:55:24</time>
      </trkpt>
      <trkpt lat="45.3302" lon="5.85472">
        <ele>1091.2</ele>
        <time>2025-07-12T07:55:24</time>
      </trkpt>
      <trkpt lat="45.33022" lon="5.85473">
        <ele>1091.2</ele>
        <time>2025-07-12T07:55:26</time>
      </trkpt>
      <trkpt lat="45.33022" lon="5.85473">
        <ele>1091.2</ele>
        <time>2025-07-12T07:55:27</time>
      </trkpt>
      <trkpt lat="45.33022" lon="5.85473">
        <ele>1091.2</ele>
        <time>2025-07-12T07:55:28</time>
      </trkpt>
      <trkpt lat="45.33023" lon="5.85474">
        <ele>1091.2</ele>
        <time>2025-07-12T07:55:28</time>
      </trkpt>
      <trkpt lat="45.33023" lon="5.85474">
        <ele>1091.2</ele>
        <time>2025-07-12T07:55:29</time>
      </trkpt>
      <trkpt lat="45.33023" lon="5.85474">
        <ele>1091.2</ele>
        <time>2025-07-12T07:55:30</time>
      </trkpt>
      <trkpt lat="45.33023" lon="5.85474">
        <ele>1091.2</ele>
        <time>2025-07-12T07:55:30</time>
      </trkpt>
      <trkpt lat="45.33023" lon="5.85474">
        <ele>1091.2</ele>
        <time>2025-07-12T07:55:31</time>
      </trkpt>
      <trkpt lat="45.33023" lon="5.85474">
        <ele>1091.2</ele>
        <time>2025-07-12T07:55:33</time>
      </trkpt>
      <trkpt lat="45.33023" lon="5.85474">
        <ele>1091.2</ele>
        <time>2025-07-12T07:55:35</time>
      </trkpt>
      <trkpt lat="45.33023" lon="5.85474">
        <ele>1091.2</ele>
        <time>2025-07-12T07:55:36</time>
      </trkpt>
      <trkpt lat="45.33023" lon="5.85474">
        <ele>1091.2</ele>
        <time>2025-07-12T07:55:37</time>
      </trkpt>
      <trkpt lat="45.33023" lon="5.85475">
        <ele>1091.2</ele>
        <time>2025-07-12T07:55:38</time>
      </trkpt>
      <trkpt lat="45.33023" lon="5.85475">
        <ele>1091.2</ele>
        <time>2025-07-12T07:55:38</time>
      </trkpt>
      <trkpt lat="45.33023" lon="5.85475">
        <ele>1091.2</ele>
        <time>2025-07-12T07:55:39</time>
      </trkpt>
      <trkpt lat="45.33023" lon="5.85475">
        <ele>1091.2</ele>
        <time>2025-07-12T07:55:40</time>
      </trkpt>
      <trkpt lat="45.33023" lon="5.85475">
        <ele>1091.2</ele>
        <time>2025-07-12T07:55:41</time>
      </trkpt>
      <trkpt lat="45.33022" lon="5.85474">
        <ele>1091.2</ele>
        <time>2025-07-12T07:55:42</time>
      </trkpt>
      <trkpt lat="45.33022" lon="5.85474">
        <ele>1091.2</ele>
        <time>2025-07-12T07:55:43</time>
      </trkpt>
      <trkpt lat="45.33022" lon="5.85474">
        <ele>1091.2</ele>
        <time>2025-07-12T07:55:44</time>
      </trkpt>
      <trkpt lat="45.33022" lon="5.85474">
        <ele>1093.7</ele>
        <time>2025-07-12T07:55:47</time>
      </trkpt>
      <trkpt lat="45.33022" lon="5.85474">
        <ele>1093.7</ele>
        <time>2025-07-12T07:55:48</time>
      </trkpt>
      <trkpt lat="45.33022" lon="5.85474">
        <ele>1093.7</ele>
        <time>2025-07-12T07:55:50</time>
      </trkpt>
      <trkpt lat="45.33022" lon="5.85474">
        <ele>1093.7</ele>
        <time>2025-07-12T07:55:50</time>
      </trkpt>
      <trkpt lat="45.33022" lon="5.85474">
        <ele>1093.7</ele>
        <time>2025-07-12T07:55:51</time>
      </trkpt>
      <trkpt lat="45.33022" lon="5.85474">
        <ele>1093.7</ele>
        <time>2025-07-12T07:55:53</time>
      </trkpt>
      <trkpt lat="45.33022" lon="5.85474">
        <ele>1093.7</ele>
        <time>2025-07-12T07:55:54</time>
      </trkpt>
      <trkpt lat="45.33022" lon="5.85474">
        <ele>1093.7</ele>
        <time>2025-07-12T07:55:54</time>
      </trkpt>
      <trkpt lat="45.33022" lon="5.85474">
        <ele>1093.7</ele>
        <time>2025-07-12T07:55:56</time>
      </trkpt>
      <trkpt lat="45.33022" lon="5.85474">
        <ele>1093.7</ele>
        <time>2025-07-12T07:55:57</time>
      </trkpt>
      <trkpt lat="45.33015" lon="5.8549">
        <ele>1093.7</ele>
        <time>2025-07-12T07:55:58</time>
      </trkpt>
      <trkpt lat="45.33011" lon="5.85499">
        <ele>1093.7</ele>
        <time>2025-07-12T07:55:59</time>
      </trkpt>
      <trkpt lat="45.33011" lon="5.85499">
        <ele>1093.7</ele>
        <time>2025-07-12T07:56:00</time>
      </trkpt>
      <trkpt lat="45.3301" lon="5.855">
        <ele>1093.7</ele>
        <time>2025-07-12T07:56:02</time>
      </trkpt>
      <trkpt lat="45.3301" lon="5.855">
        <ele>1093.7</ele>
        <time>2025-07-12T07:56:02</time>
      </trkpt>
      <trkpt lat="45.3301" lon="5.85501">
        <ele>1096.6</ele>
        <time>2025-07-12T07:56:08</time>
      </trkpt>
      <trkpt lat="45.3301" lon="5.85501">
        <ele>1096.6</ele>
        <time>2025-07-12T07:56:09</time>
      </trkpt>
      <trkpt lat="45.3301" lon="5.85501">
        <ele>1096.6</ele>
        <time>2025-07-12T07:56:10</time>
      </trkpt>
      <trkpt lat="45.3301" lon="5.85501">
        <ele>1096.6</ele>
        <time>2025-07-12T07:56:11</time>
      </trkpt>
      <trkpt lat="45.3301" lon="5.85501">
        <ele>1096.6</ele>
        <time>2025-07-12T07:56:12</time>
      </trkpt>
      <trkpt lat="45.3301" lon="5.85501">
        <ele>1096.6</ele>
        <time>2025-07-12T07:56:12</time>
      </trkpt>
      <trkpt lat="45.3301" lon="5.85502">
        <ele>1096.6</ele>
        <time>2025-07-12T07:56:14</time>
      </trkpt>
      <trkpt lat="45.3301" lon="5.85502">
        <ele>1096.6</ele>
        <time>2025-07-12T07:56:15</time>
      </trkpt>
      <trkpt lat="45.3301" lon="5.85502">
        <ele>1096.6</ele>
        <time>2025-07-12T07:56:18</time>
      </trkpt>
      <trkpt lat="45.3301" lon="5.85502">
        <ele>1096.6</ele>
        <time>2025-07-12T07:56:21</time>
      </trkpt>
      <trkpt lat="45.3301" lon="5.85502">
        <ele>1096.6</ele>
        <time>2025-07-12T07:56:21</time>
      </trkpt>
      <trkpt lat="45.33009" lon="5.85502">
        <ele>1096.6</ele>
        <time>2025-07-12T07:56:22</time>
      </trkpt>
      <trkpt lat="45.33008" lon="5.85504">
        <ele>1096.6</ele>
        <time>2025-07-12T07:56:24</time>
      </trkpt>
      <trkpt lat="45.33005" lon="5.85508">
        <ele>1096.6</ele>
        <time>2025-07-12T07:56:25</time>
      </trkpt>
      <trkpt lat="45.33004" lon="5.85508">
        <ele>1096.6</ele>
        <time>2025-07-12T07:56:26</time>
      </trkpt>
      <trkpt lat="45.33003" lon="5.85509">
        <ele>1099.6</ele>
        <time>2025-07-12T07:56:28</time>
      </trkpt>
      <trkpt lat="45.33003" lon="5.85509">
        <ele>1099.6</ele>
        <time>2025-07-12T07:56:29</time>
      </trkpt>
      <trkpt lat="45.33003" lon="5.85509">
        <ele>1099.6</ele>
        <time>2025-07-12T07:56:30</time>
      </trkpt>
      <trkpt lat="45.33002" lon="5.85509">
        <ele>1099.6</ele>
        <time>2025-07-12T07:56:31</time>
      </trkpt>
      <trkpt lat="45.33002" lon="5.8551">
        <ele>1099.6</ele>
        <time>2025-07-12T07:56:32</time>
      </trkpt>
      <trkpt lat="45.33002" lon="5.8551">
        <ele>1099.6</ele>
        <time>2025-07-12T07:56:33</time>
      </trkpt>
      <trkpt lat="45.33002" lon="5.8551">
        <ele>1099.6</ele>
        <time>2025-07-12T07:56:37</time>
      </trkpt>
      <trkpt lat="45.33002" lon="5.85511">
        <ele>1099.6</ele>
        <time>2025-07-12T07:56:39</time>
      </trkpt>
      <trkpt lat="45.33002" lon="5.85511">
        <ele>1099.6</ele>
        <time>2025-07-12T07:56:42</time>
      </trkpt>
      <trkpt lat="45.33002" lon="5.85511">
        <ele>1099.6</ele>
        <time>2025-07-12T07:56:45</time>
      </trkpt>
      <trkpt lat="45.33002" lon="5.85511">
        <ele>1099.6</ele>
        <time>2025-07-12T07:56:45</time>
      </trkpt>
      <trkpt lat="45.33002" lon="5.85511">
        <ele>1099.6</ele>
        <time>2025-07-12T07:56:46</time>
      </trkpt>
      <trkpt lat="45.33002" lon="5.85511">
        <ele>1099.6</ele>
        <time>2025-07-12T07:56:47</time>
      </trkpt>
      <trkpt lat="45.33002" lon="5.85511">
        <ele>1099.6</ele>
        <time>2025-07-12T07:56:47</time>
      </trkpt>
      <trkpt lat="45.33002" lon="5.85511">
        <ele>1099.6</ele>
        <time>2025-07-12T07:56:48</time>
      </trkpt>
      <trkpt lat="45.33002" lon="5.85511">
        <ele>1099.6</ele>
        <time>2025-07-12T07:56:49</time>
      </trkpt>
      <trkpt lat="45.33004" lon="5.85515">
        <ele>1099.6</ele>
        <time>2025-07-12T07:56:51</time>
      </trkpt>
      <trkpt lat="45.33006" lon="5.85519">
        <ele>1099.6</ele>
        <time>2025-07-12T07:56:51</time>
      </trkpt>
      <trkpt lat="45.33007" lon="5.8552">
        <ele>1108.9</ele>
        <time>2025-07-12T07:56:53</time>
      </trkpt>
      <trkpt lat="45.33007" lon="5.85521">
        <ele>1108.9</ele>
        <time>2025-07-12T07:56:54</time>
      </trkpt>
      <trkpt lat="45.33008" lon="5.85521">
        <ele>1108.9</ele>
        <time>2025-07-12T07:56:55</time>
      </trkpt>
      <trkpt lat="45.33008" lon="5.85522">
        <ele>1108.9</ele>
        <time>2025-07-12T07:56:56</time>
      </trkpt>
      <trkpt lat="45.33008" lon="5.85522">
        <ele>1108.9</ele>
        <time>2025-07-12T07:56:56</time>
      </trkpt>
      <trkpt lat="45.33008" lon="5.85522">
        <ele>1108.9</ele>
        <time>2025-07-12T07:56:58</time>
      </trkpt>
      <trkpt lat="45.33008" lon="5.85522">
        <ele>1108.9</ele>
        <time>2025-07-12T07:57:00</time>
      </trkpt>
      <trkpt lat="45.33009" lon="5.85522">
        <ele>1108.9</ele>
        <time>2025-07-12T07:57:03</time>
      </trkpt>
      <trkpt lat="45.33009" lon="5.85523">
        <ele>1108.9</ele>
        <time>2025-07-12T07:57:08</time>
      </trkpt>
      <trkpt lat="45.33008" lon="5.85524">
        <ele>1108.9</ele>
        <time>2025-07-12T07:57:08</time>
      </trkpt>
      <trkpt lat="45.33008" lon="5.85525">
        <ele>1108.9</ele>
        <time>2025-07-12T07:57:09</time>
      </trkpt>
      <trkpt lat="45.33007" lon="5.85531">
        <ele>1108.9</ele>
        <time>2025-07-12T07:57:10</time>
      </trkpt>
      <trkpt lat="45.33006" lon="5.85535">
        <ele>1108.9</ele>
        <time>2025-07-12T07:57:12</time>
      </trkpt>
      <trkpt lat="45.33006" lon="5.85537">
        <ele>1108.9</ele>
        <time>2025-07-12T07:57:16</time>
      </trkpt>
      <trkpt lat="45.33006" lon="5.85537">
        <ele>1112.8</ele>
        <time>2025-07-12T07:57:17</time>
      </trkpt>
      <trkpt lat="45.33006" lon="5.85537">
        <ele>1112.8</ele>
        <time>2025-07-12T07:57:17</time>
      </trkpt>
      <trkpt lat="45.33006" lon="5.85537">
        <ele>1112.8</ele>
        <time>2025-07-12T07:57:19</time>
      </trkpt>
      <trkpt lat="45.33006" lon="5.85537">
        <ele>1112.8</ele>
        <time>2025-07-12T07:57:21</time>
      </trkpt>
      <trkpt lat="45.33006" lon="5.85537">
        <ele>1112.8</ele>
        <time>2025-07-12T07:57:22</time>
      </trkpt>
      <trkpt lat="45.33006" lon="5.85537">
        <ele>1112.8</ele>
        <time>2025-07-12T07:57:22</time>
      </trkpt>
      <trkpt lat="45.33006" lon="5.85537">
        <ele>1112.8</ele>
        <time>2025-07-12T07:57:23</time>
      </trkpt>
      <trkpt lat="45.33006" lon="5.85538">
        <ele>1112.8</ele>
        <time>2025-07-12T07:57:25</time>
      </trkpt>
      <trkpt lat="45.33005" lon="5.85544">
        <ele>1112.8</ele>
        <time>2025-07-12T07:57:27</time>
      </trkpt>
      <trkpt lat="45.33005" lon="5.85547">
        <ele>1112.8</ele>
        <time>2025-07-12T07:57:27</time>
      </trkpt>
      <trkpt lat="45.33004" lon="5.85548">
        <ele>1112.8</ele>
        <time>2025-07-12T07:57:28</time>
      </trkpt>
      <trkpt lat="45.33004" lon="5.8555">
        <ele>1112.8</ele>
        <time>2025-07-12T07:57:30</time>
      </trkpt>
      <trkpt lat="45.33004" lon="5.85551">
        <ele>1112.8</ele>
        <time>2025-07-12T07:57:31</time>
      </trkpt>
      <trkpt lat="45.33004" lon="5.85551">
        <ele>1112.8</ele>
        <time>2025-07-12T07:57:32</time>
      </trkpt>
      <trkpt lat="45.33004" lon="5.85552">
        <ele>1115.2</ele>
        <time>2025-07-12T07:57:34</time>
      </trkpt>
      <trkpt lat="45.33004" lon="5.85552">
        <ele>1115.2</ele>
        <time>2025-07-12T07:57:36</time>
      </trkpt>
      <trkpt lat="45.33004" lon="5.85552">
        <ele>1115.2</ele>
        <time>2025-07-12T07:57:39</time>
      </trkpt>
      <trkpt lat="45.33004" lon="5.85552">
        <ele>1115.2</ele>
        <time>2025-07-12T07:57:40</time>
      </trkpt>
      <trkpt lat="45.33004" lon="5.85552">
        <ele>1115.2</ele>
        <time>2025-07-12T07:57:41</time>
      </trkpt>
      <trkpt lat="45.33004" lon="5.85552">
        <ele>1115.2</ele>
        <time>2025-07-12T07:57:43</time>
      </trkpt>
      <trkpt lat="45.33004" lon="5.85553">
        <ele>1115.2</ele>
        <time>2025-07-12T07:57:44</time>
      </trkpt>
      <trkpt lat="45.33004" lon="5.85553">
        <ele>1115.2</ele>
        <time>2025-07-12T07:57:48</time>
      </trkpt>
      <trkpt lat="45.33005" lon="5.85554">
        <ele>1118.8</ele>
        <time>2025-07-12T07:57:49</time>
      </trkpt>
      <trkpt lat="45.33008" lon="5.85559">
        <ele>1118.8</ele>
        <time>2025-07-12T07:57:50</time>
      </trkpt>
      <trkpt lat="45.33009" lon="5.85562">
        <ele>1118.8</ele>
        <time>2025-07-12T07:57:50</time>
      </trkpt>
      <trkpt lat="45.33009" lon="5.85564">
        <ele>1118.8</ele>
        <time>2025-07-12T07:57:51</time>
      </trkpt>
      <trkpt lat="45.33009" lon="5.85567">
        <ele>1119.1</ele>
        <time>2025-07-12T07:57:59</time>
      </trkpt>
      <trkpt lat="45.33009" lon="5.85567">
        <ele>1119.1</ele>
        <time>2025-07-12T07:58:00</time>
      </trkpt>
      <trkpt lat="45.33009" lon="5.85567">
        <ele>1119.1</ele>
        <time>2025-07-12T07:58:01</time>
      </trkpt>
      <trkpt lat="45.33009" lon="5.85567">
        <ele>1119.1</ele>
        <time>2025-07-12T07:58:02</time>
      </trkpt>
      <trkpt lat="45.33009" lon="5.85567">
        <ele>1119.1</ele>
        <time>2025-07-12T07:58:02</time>
      </trkpt>
      <trkpt lat="45.33009" lon="5.85567">
        <ele>1119.1</ele>
        <time>2025-07-12T07:58:05</time>
      </trkpt>
      <trkpt lat="45.33009" lon="5.85567">
        <ele>1119.1</ele>
        <time>2025-07-12T07:58:06</time>
      </trkpt>
      <trkpt lat="45.33014" lon="5.85575">
        <ele>1119.1</ele>
        <time>2025-07-12T07:58:11</time>
      </trkpt>
      <trkpt lat="45.33015" lon="5.85577">
        <ele>1119.1</ele>
        <time>2025-07-12T07:58:12</time>
      </trkpt>
      <trkpt lat="45.33015" lon="5.85577">
        <ele>1119.1</ele>
        <time>2025-07-12T07:58:13</time>
      </trkpt>
      <trkpt lat="45.33014" lon="5.85578">
        <ele>1119.1</ele>
        <time>2025-07-12T07:58:13</time>
      </trkpt>
      <trkpt lat="45.33014" lon="5.85578">
        <ele>1119.1</ele>
        <time>2025-07-12T07:58:14</time>
      </trkpt>
      <trkpt lat="45.33014" lon="5.85578">
        <ele>1119.1</ele>
        <time>2025-07-12T07:58:15</time>
      </trkpt>
      <trkpt lat="45.33014" lon="5.85578">
        <ele>1119.1</ele>
        <time>2025-07-12T07:58:16</time>
      </trkpt>
      <trkpt lat="45.33014" lon="5.85579">
        <ele>1119.1</ele>
        <time>2025-07-12T07:58:17</time>
      </trkpt>
      <trkpt lat="45.33014" lon="5.85579">
        <ele>1119.1</ele>
        <time>2025-07-12T07:58:18</time>
      </trkpt>
      <trkpt lat="45.33014" lon="5.85579">
        <ele>1119.1</ele>
        <time>2025-07-12T07:58:19</time>
      </trkpt>
      <trkpt lat="45.33014" lon="5.85579">
        <ele>1121.8</ele>
        <time>2025-07-12T07:58:26</time>
      </trkpt>
      <trkpt lat="45.33013" lon="5.8558">
        <ele>1121.8</ele>
        <time>2025-07-12T07:58:27</time>
      </trkpt>
      <trkpt lat="45.33012" lon="5.85585">
        <ele>1121.8</ele>
        <time>2025-07-12T07:58:29</time>
      </trkpt>
      <trkpt lat="45.3301" lon="5.85589">
        <ele>1121.8</ele>
        <time>2025-07-12T07:58:30</time>
      </trkpt>
      <trkpt lat="45.3301" lon="5.8559">
        <ele>1125.6333</ele>
        <time>2025-07-12T07:58:31</time>
      </trkpt>
      <trkpt lat="45.33009" lon="5.8559">
        <ele>1125.6333</ele>
        <time>2025-07-12T07:58:32</time>
      </trkpt>
      <trkpt lat="45.33009" lon="5.85591">
        <ele>1125.6333</ele>
        <time>2025-07-12T07:58:34</time>
      </trkpt>
      <trkpt lat="45.33009" lon="5.85591">
        <ele>1125.6333</ele>
        <time>2025-07-12T07:58:37</time>
      </trkpt>
      <trkpt lat="45.33009" lon="5.85591">
        <ele>1126.1</ele>
        <time>2025-07-12T07:58:40</time>
      </trkpt>
      <trkpt lat="45.33009" lon="5.85591">
        <ele>1126.1</ele>
        <time>2025-07-12T07:58:41</time>
      </trkpt>
      <trkpt lat="45.33009" lon="5.85591">
        <ele>1126.1</ele>
        <time>2025-07-12T07:58:42</time>
      </trkpt>
      <trkpt lat="45.33009" lon="5.85591">
        <ele>1126.1</ele>
        <time>2025-07-12T07:58:44</time>
      </trkpt>
      <trkpt lat="45.33009" lon="5.85591">
        <ele>1126.1</ele>
        <time>2025-07-12T07:58:45</time>
      </trkpt>
      <trkpt lat="45.33009" lon="5.85591">
        <ele>1126.1</ele>
        <time>2025-07-12T07:58:46</time>
      </trkpt>
      <trkpt lat="45.33009" lon="5.85591">
        <ele>1126.1</ele>
        <time>2025-07-12T07:58:47</time>
      </trkpt>
      <trkpt lat="45.33009" lon="5.85591">
        <ele>1126.1</ele>
        <time>2025-07-12T07:58:48</time>
      </trkpt>
      <trkpt lat="45.33009" lon="5.85591">
        <ele>1126.1</ele>
        <time>2025-07-12T07:58:48</time>
      </trkpt>
      <trkpt lat="45.33009" lon="5.85591">
        <ele>1126.1</ele>
        <time>2025-07-12T07:58:49</time>
      </trkpt>
      <trkpt lat="45.33009" lon="5.85591">
        <ele>1126.1</ele>
        <time>2025-07-12T07:58:54</time>
      </trkpt>
      <trkpt lat="45.33008" lon="5.85591">
        <ele>1129.1</ele>
        <time>2025-07-12T07:58:56</time>
      </trkpt>
      <trkpt lat="45.33008" lon="5.85591">
        <ele>1129.1</ele>
        <time>2025-07-12T07:58:57</time>
      </trkpt>
      <trkpt lat="45.33004" lon="5.85603">
        <ele>1129.1</ele>
        <time>2025-07-12T07:58:58</time>
      </trkpt>
      <trkpt lat="45.33002" lon="5.85607">
        <ele>1129.1</ele>
        <time>2025-07-12T07:58:59</time>
      </trkpt>
      <trkpt lat="45.33001" lon="5.8561">
        <ele>1129.1</ele>
        <time>2025-07-12T07:59:00</time>
      </trkpt>
      <trkpt lat="45.33" lon="5.85611">
        <ele>1129.1</ele>
        <time>2025-07-12T07:59:02</time>
      </trkpt>
      <trkpt lat="45.32999" lon="5.85612">
        <ele>1129.1</ele>
        <time>2025-07-12T07:59:02</time>
      </trkpt>
      <trkpt lat="45.32999" lon="5.85612">
        <ele>1130.4</ele>
        <time>2025-07-12T07:59:03</time>
      </trkpt>
      <trkpt lat="45.32999" lon="5.85612">
        <ele>1130.4</ele>
        <time>2025-07-12T07:59:04</time>
      </trkpt>
      <trkpt lat="45.32999" lon="5.85613">
        <ele>1130.4</ele>
        <time>2025-07-12T07:59:07</time>
      </trkpt>
      <trkpt lat="45.32999" lon="5.85612">
        <ele>1130.4</ele>
        <time>2025-07-12T07:59:07</time>
      </trkpt>
      <trkpt lat="45.32999" lon="5.85613">
        <ele>1130.4</ele>
        <time>2025-07-12T07:59:08</time>
      </trkpt>
      <trkpt lat="45.32999" lon="5.85612">
        <ele>1130.4</ele>
        <time>2025-07-12T07:59:09</time>
      </trkpt>
      <trkpt lat="45.32999" lon="5.85612">
        <ele>1130.4</ele>
        <time>2025-07-12T07:59:10</time>
      </trkpt>
      <trkpt lat="45.32998" lon="5.85612">
        <ele>1130.4</ele>
        <time>2025-07-12T07:59:10</time>
      </trkpt>
      <trkpt lat="45.32998" lon="5.85612">
        <ele>1130.9</ele>
        <time>2025-07-12T07:59:11</time>
      </trkpt>
      <trkpt lat="45.32998" lon="5.85612">
        <ele>1130.9</ele>
        <time>2025-07-12T07:59:12</time>
      </trkpt>
      <trkpt lat="45.32998" lon="5.85613">
        <ele>1130.9</ele>
        <time>2025-07-12T07:59:13</time>
      </trkpt>
      <trkpt lat="45.32998" lon="5.85613">
        <ele>1130.9</ele>
        <time>2025-07-12T07:59:13</time>
      </trkpt>
      <trkpt lat="45.32998" lon="5.85613">
        <ele>1130.9</ele>
        <time>2025-07-12T07:59:14</time>
      </trkpt>
      <trkpt lat="45.32998" lon="5.85613">
        <ele>1130.9</ele>
        <time>2025-07-12T07:59:15</time>
      </trkpt>
      <trkpt lat="45.32998" lon="5.85613">
        <ele>1130.9</ele>
        <time>2025-07-12T07:59:16</time>
      </trkpt>
      <trkpt lat="45.32992" lon="5.85619">
        <ele>1130.9</ele>
        <time>2025-07-12T07:59:17</time>
      </trkpt>
      <trkpt lat="45.32991" lon="5.8562">
        <ele>1130.9</ele>
        <time>2025-07-12T07:59:18</time>
      </trkpt>
      <trkpt lat="45.32991" lon="5.85621">
        <ele>1132.8334</ele>
        <time>2025-07-12T07:59:22</time>
      </trkpt>
      <trkpt lat="45.32991" lon="5.85621">
        <ele>1132.8334</ele>
        <time>2025-07-12T07:59:22</time>
      </trkpt>
      <trkpt lat="45.32991" lon="5.85621">
        <ele>1132.8334</ele>
        <time>2025-07-12T07:59:25</time>
      </trkpt>
      <trkpt lat="45.32991" lon="5.85621">
        <ele>1132.8334</ele>
        <time>2025-07-12T07:59:25</time>
      </trkpt>
      <trkpt lat="45.32991" lon="5.85621">
        <ele>1133</ele>
        <time>2025-07-12T07:59:27</time>
      </trkpt>
      <trkpt lat="45.32991" lon="5.85621">
        <ele>1133</ele>
        <time>2025-07-12T07:59:28</time>
      </trkpt>
      <trkpt lat="45.32991" lon="5.85621">
        <ele>1133</ele>
        <time>2025-07-12T07:59:29</time>
      </trkpt>
      <trkpt lat="45.32991" lon="5.85621">
        <ele>1133</ele>
        <time>2025-07-12T07:59:30</time>
      </trkpt>
      <trkpt lat="45.32991" lon="5.85621">
        <ele>1133</ele>
        <time>2025-07-12T07:59:31</time>
      </trkpt>
      <trkpt lat="45.32991" lon="5.85621">
        <ele>1133</ele>
        <time>2025-07-12T07:59:31</time>
      </trkpt>
      <trkpt lat="45.32991" lon="5.85621">
        <ele>1133</ele>
        <time>2025-07-12T07:59:32</time>
      </trkpt>
      <trkpt lat="45.32991" lon="5.85621">
        <ele>1133</ele>
        <time>2025-07-12T07:59:33</time>
      </trkpt>
      <trkpt lat="45.32991" lon="5.85621">
        <ele>1133</ele>
        <time>2025-07-12T07:59:34</time>
      </trkpt>
      <trkpt lat="45.32991" lon="5.85621">
        <ele>1133</ele>
        <time>2025-07-12T07:59:37</time>
      </trkpt>
      <trkpt lat="45.32991" lon="5.85621">
        <ele>1133</ele>
        <time>2025-07-12T07:59:38</time>
      </trkpt>
      <trkpt lat="45.32991" lon="5.85621">
        <ele>1133</ele>
        <time>2025-07-12T07:59:39</time>
      </trkpt>
      <trkpt lat="45.32991" lon="5.85621">
        <ele>1133</ele>
        <time>2025-07-12T07:59:41</time>
      </trkpt>
      <trkpt lat="45.32991" lon="5.85621">
        <ele>1133</ele>
        <time>2025-07-12T07:59:41</time>
      </trkpt>
      <trkpt lat="45.32991" lon="5.85621">
        <ele>1133</ele>
        <time>2025-07-12T07:59:46</time>
      </trkpt>
      <trkpt lat="45.32991" lon="5.85621">
        <ele>1133</ele>
        <time>2025-07-12T07:59:46</time>
      </trkpt>
      <trkpt lat="45.32991" lon="5.85621">
        <ele>1133</ele>
        <time>2025-07-12T07:59:47</time>
      </trkpt>
      <trkpt lat="45.32991" lon="5.85622">
        <ele>1133</ele>
        <time>2025-07-12T07:59:48</time>
      </trkpt>
      <trkpt lat="45.32991" lon="5.85622">
        <ele>1133</ele>
        <time>2025-07-12T07:59:49</time>
      </trkpt>
      <trkpt lat="45.32991" lon="5.85621">
        <ele>1133</ele>
        <time>2025-07-12T07:59:49</time>
      </trkpt>
      <trkpt lat="45.32991" lon="5.85621">
        <ele>1133</ele>
        <time>2025-07-12T07:59:50</time>
      </trkpt>
      <trkpt lat="45.32991" lon="5.85621">
        <ele>1133</ele>
        <time>2025-07-12T07:59:51</time>
      </trkpt>
      <trkpt lat="45.32991" lon="5.85621">
        <ele>1133</ele>
        <time>2025-07-12T07:59:54</time>
      </trkpt>
      <trkpt lat="45.32991" lon="5.85622">
        <ele>1133</ele>
        <time>2025-07-12T07:59:58</time>
      </trkpt>
      <trkpt lat="45.32991" lon="5.85622">
        <ele>1133</ele>
        <time>2025-07-12T07:59:58</time>
      </trkpt>
      <trkpt lat="45.32991" lon="5.85622">
        <ele>1133</ele>
        <time>2025-07-12T07:59:59</time>
      </trkpt>
      <trkpt lat="45.3299" lon="5.85624">
        <ele>1133</ele>
        <time>2025-07-12T08:00:02</time>
      </trkpt>
      <trkpt lat="45.32989" lon="5.85627">
        <ele>1133</ele>
        <time>2025-07-12T08:00:03</time>
      </trkpt>
      <trkpt lat="45.32988" lon="5.85629">
        <ele>1133</ele>
        <time>2025-07-12T08:00:03</time>
      </trkpt>
      <trkpt lat="45.32987" lon="5.8563">
        <ele>1133</ele>
        <time>2025-07-12T08:00:04</time>
      </trkpt>
      <trkpt lat="45.32987" lon="5.8563">
        <ele>1133</ele>
        <time>2025-07-12T08:00:05</time>
      </trkpt>
      <trkpt lat="45.32987" lon="5.85631">
        <ele>1133</ele>
        <time>2025-07-12T08:00:06</time>
      </trkpt>
      <trkpt lat="45.32987" lon="5.85631">
        <ele>1135</ele>
        <time>2025-07-12T08:00:07</time>
      </trkpt>
      <trkpt lat="45.32987" lon="5.85632">
        <ele>1135</ele>
        <time>2025-07-12T08:00:08</time>
      </trkpt>
      <trkpt lat="45.32987" lon="5.85632">
        <ele>1135</ele>
        <time>2025-07-12T08:00:10</time>
      </trkpt>
      <trkpt lat="45.32987" lon="5.85633">
        <ele>1135</ele>
        <time>2025-07-12T08:00:11</time>
      </trkpt>
      <trkpt lat="45.32987" lon="5.85633">
        <ele>1135</ele>
        <time>2025-07-12T08:00:12</time>
      </trkpt>
      <trkpt lat="45.32987" lon="5.85633">
        <ele>1135</ele>
        <time>2025-07-12T08:00:13</time>
      </trkpt>
      <trkpt lat="45.32987" lon="5.85633">
        <ele>1135</ele>
        <time>2025-07-12T08:00:14</time>
      </trkpt>
      <trkpt lat="45.32987" lon="5.85634">
        <ele>1135</ele>
        <time>2025-07-12T08:00:15</time>
      </trkpt>
      <trkpt lat="45.32987" lon="5.85634">
        <ele>1135</ele>
        <time>2025-07-12T08:00:16</time>
      </trkpt>
      <trkpt lat="45.32987" lon="5.85634">
        <ele>1135</ele>
        <time>2025-07-12T08:00:17</time>
      </trkpt>
      <trkpt lat="45.32987" lon="5.85634">
        <ele>1135</ele>
        <time>2025-07-12T08:00:18</time>
      </trkpt>
      <trkpt lat="45.32987" lon="5.85634">
        <ele>1135</ele>
        <time>2025-07-12T08:00:20</time>
      </trkpt>
      <trkpt lat="45.32987" lon="5.85634">
        <ele>1135</ele>
        <time>2025-07-12T08:00:20</time>
      </trkpt>
      <trkpt lat="45.32987" lon="5.85634">
        <ele>1135</ele>
        <time>2025-07-12T08:00:21</time>
      </trkpt>
      <trkpt lat="45.32987" lon="5.85634">
        <ele>1135</ele>
        <time>2025-07-12T08:00:22</time>
      </trkpt>
      <trkpt lat="45.32987" lon="5.85634">
        <ele>1135</ele>
        <time>2025-07-12T08:00:23</time>
      </trkpt>
      <trkpt lat="45.32987" lon="5.85634">
        <ele>1135</ele>
        <time>2025-07-12T08:00:24</time>
      </trkpt>
      <trkpt lat="45.32987" lon="5.85635">
        <ele>1135</ele>
        <time>2025-07-12T08:00:25</time>
      </trkpt>
      <trkpt lat="45.32987" lon="5.85635">
        <ele>1135</ele>
        <time>2025-07-12T08:00:27</time>
      </trkpt>
      <trkpt lat="45.32986" lon="5.85635">
        <ele>1135</ele>
        <time>2025-07-12T08:00:29</time>
      </trkpt>
      <trkpt lat="45.32986" lon="5.85636">
        <ele>1135</ele>
        <time>2025-07-12T08:00:30</time>
      </trkpt>
      <trkpt lat="45.32987" lon="5.85642">
        <ele>1135</ele>
        <time>2025-07-12T08:00:31</time>
      </trkpt>
      <trkpt lat="45.32987" lon="5.85644">
        <ele>1135</ele>
        <time>2025-07-12T08:00:32</time>
      </trkpt>
      <trkpt lat="45.32987" lon="5.85646">
        <ele>1135.4</ele>
        <time>2025-07-12T08:00:34</time>
      </trkpt>
      <trkpt lat="45.32987" lon="5.85646">
        <ele>1135.4</ele>
        <time>2025-07-12T08:00:35</time>
      </trkpt>
      <trkpt lat="45.32988" lon="5.85648">
        <ele>1135.4</ele>
        <time>2025-07-12T08:00:37</time>
      </trkpt>
      <trkpt lat="45.32988" lon="5.85648">
        <ele>1135.4</ele>
        <time>2025-07-12T08:00:39</time>
      </trkpt>
      <trkpt lat="45.32989" lon="5.85648">
        <ele>1135.4</ele>
        <time>2025-07-12T08:00:40</time>
      </trkpt>
      <trkpt lat="45.32989" lon="5.85648">
        <ele>1135.4</ele>
        <time>2025-07-12T08:00:41</time>
      </trkpt>
      <trkpt lat="45.32989" lon="5.85649">
        <ele>1136</ele>
        <time>2025-07-12T08:00:42</time>
      </trkpt>
      <trkpt lat="45.32989" lon="5.85649">
        <ele>1136</ele>
        <time>2025-07-12T08:00:43</time>
      </trkpt>
      <trkpt lat="45.32989" lon="5.85649">
        <ele>1136</ele>
        <time>2025-07-12T08:00:43</time>
      </trkpt>
      <trkpt lat="45.32989" lon="5.85649">
        <ele>1136</ele>
        <time>2025-07-12T08:00:44</time>
      </trkpt>
      <trkpt lat="45.32989" lon="5.85649">
        <ele>1136</ele>
        <time>2025-07-12T08:00:44</time>
      </trkpt>
      <trkpt lat="45.32989" lon="5.85649">
        <ele>1136</ele>
        <time>2025-07-12T08:00:46</time>
      </trkpt>
      <trkpt lat="45.32989" lon="5.85649">
        <ele>1136</ele>
        <time>2025-07-12T08:00:48</time>
      </trkpt>
      <trkpt lat="45.32989" lon="5.85649">
        <ele>1136</ele>
        <time>2025-07-12T08:00:49</time>
      </trkpt>
      <trkpt lat="45.32989" lon="5.85649">
        <ele>1136</ele>
        <time>2025-07-12T08:00:50</time>
      </trkpt>
      <trkpt lat="45.32989" lon="5.85649">
        <ele>1136</ele>
        <time>2025-07-12T08:00:51</time>
      </trkpt>
      <trkpt lat="45.32989" lon="5.85649">
        <ele>1136</ele>
        <time>2025-07-12T08:00:52</time>
      </trkpt>
      <trkpt lat="45.32989" lon="5.85649">
        <ele>1136</ele>
        <time>2025-07-12T08:00:52</time>
      </trkpt>
      <trkpt lat="45.32989" lon="5.85649">
        <ele>1136</ele>
        <time>2025-07-12T08:00:53</time>
      </trkpt>
      <trkpt lat="45.32989" lon="5.85649">
        <ele>1136</ele>
        <time>2025-07-12T08:00:53</time>
      </trkpt>
      <trkpt lat="45.32989" lon="5.85649">
        <ele>1136</ele>
        <time>2025-07-12T08:00:56</time>
      </trkpt>
      <trkpt lat="45.32989" lon="5.85649">
        <ele>1136</ele>
        <time>2025-07-12T08:00:57</time>
      </trkpt>
      <trkpt lat="45.32989" lon="5.8565">
        <ele>1136</ele>
        <time>2025-07-12T08:00:59</time>
      </trkpt>
      <trkpt lat="45.32989" lon="5.8565">
        <ele>1136</ele>
        <time>2025-07-12T08:01:00</time>
      </trkpt>
      <trkpt lat="45.32989" lon="5.8565">
        <ele>1136</ele>
        <time>2025-07-12T08:01:01</time>
      </trkpt>
      <trkpt lat="45.32989" lon="5.8565">
        <ele>1136</ele>
        <time>2025-07-12T08:01:02</time>
      </trkpt>
      <trkpt lat="45.32988" lon="5.8565">
        <ele>1142.0333</ele>
        <time>2025-07-12T08:01:04</time>
      </trkpt>
      <trkpt lat="45.32988" lon="5.8565">
        <ele>1142.0333</ele>
        <time>2025-07-12T08:01:05</time>
      </trkpt>
      <trkpt lat="45.32992" lon="5.85658">
        <ele>1142.0333</ele>
        <time>2025-07-12T08:01:06</time>
      </trkpt>
      <trkpt lat="45.32993" lon="5.85662">
        <ele>1142.0333</ele>
        <time>2025-07-12T08:01:06</time>
      </trkpt>
      <trkpt lat="45.32994" lon="5.85663">
        <ele>1142.0333</ele>
        <time>2025-07-12T08:01:08</time>
      </trkpt>
      <trkpt lat="45.32994" lon="5.85663">
        <ele>1142.0333</ele>
        <time>2025-07-12T08:01:09</time>
      </trkpt>
      <trkpt lat="45.32994" lon="5.85663">
        <ele>1142.0333</ele>
        <time>2025-07-12T08:01:10</time>
      </trkpt>
      <trkpt lat="45.32994" lon="5.85663">
        <ele>1142.3</ele>
        <time>2025-07-12T08:01:13</time>
      </trkpt>
      <trkpt lat="45.32994" lon="5.85663">
        <ele>1142.3</ele>
        <time>2025-07-12T08:01:14</time>
      </trkpt>
      <trkpt lat="45.32994" lon="5.85663">
        <ele>1142.3</ele>
        <time>2025-07-12T08:01:15</time>
      </trkpt>
      <trkpt lat="45.32993" lon="5.85663">
        <ele>1142.3</ele>
        <time>2025-07-12T08:01:16</time>
      </trkpt>
      <trkpt lat="45.32993" lon="5.85663">
        <ele>1142.3</ele>
        <time>2025-07-12T08:01:17</time>
      </trkpt>
      <trkpt lat="45.32993" lon="5.85663">
        <ele>1142.3</ele>
        <time>2025-07-12T08:01:18</time>
      </trkpt>
      <trkpt lat="45.32994" lon="5.85663">
        <ele>1142.3</ele>
        <time>2025-07-12T08:01:19</time>
      </trkpt>
      <trkpt lat="45.32994" lon="5.85663">
        <ele>1142.3</ele>
        <time>2025-07-12T08:01:20</time>
      </trkpt>
      <trkpt lat="45.32994" lon="5.85663">
        <ele>1142.3</ele>
        <time>2025-07-12T08:01:21</time>
      </trkpt>
      <trkpt lat="45.32994" lon="5.85663">
        <ele>1142.3</ele>
        <time>2025-07-12T08:01:22</time>
      </trkpt>
      <trkpt lat="45.32994" lon="5.85663">
        <ele>1142.3</ele>
        <time>2025-07-12T08:01:25</time>
      </trkpt>
      <trkpt lat="45.32994" lon="5.85663">
        <ele>1142.3</ele>
        <time>2025-07-12T08:01:26</time>
      </trkpt>
      <trkpt lat="45.32993" lon="5.85663">
        <ele>1142.3</ele>
        <time>2025-07-12T08:01:27</time>
      </trkpt>
      <trkpt lat="45.3299" lon="5.85665">
        <ele>1142.3</ele>
        <time>2025-07-12T08:01:27</time>
      </trkpt>
      <trkpt lat="45.32985" lon="5.85669">
        <ele>1143.9667</ele>
        <time>2025-07-12T08:01:31</time>
      </trkpt>
      <trkpt lat="45.32984" lon="5.85669">
        <ele>1143.9667</ele>
        <time>2025-07-12T08:01:32</time>
      </trkpt>
      <trkpt lat="45.32984" lon="5.8567">
        <ele>1143.9667</ele>
        <time>2025-07-12T08:01:33</time>
      </trkpt>
      <trkpt lat="45.32983" lon="5.85669">
        <ele>1143.9667</ele>
        <time>2025-07-12T08:01:35</time>
      </trkpt>
      <trkpt lat="45.32983" lon="5.8567">
        <ele>1143.9667</ele>
        <time>2025-07-12T08:01:36</time>
      </trkpt>
      <trkpt lat="45.32982" lon="5.85671">
        <ele>1144.2</ele>
        <time>2025-07-12T08:01:38</time>
      </trkpt>
      <trkpt lat="45.3298" lon="5.85674">
        <ele>1144.2</ele>
        <time>2025-07-12T08:01:39</time>
      </trkpt>
      <trkpt lat="45.32978" lon="5.85676">
        <ele>1144.2</ele>
        <time>2025-07-12T08:01:41</time>
      </trkpt>
      <trkpt lat="45.32977" lon="5.85676">
        <ele>1144.2</ele>
        <time>2025-07-12T08:01:43</time>
      </trkpt>
      <trkpt lat="45.32976" lon="5.85676">
        <ele>1144.2</ele>
        <time>2025-07-12T08:01:45</time>
      </trkpt>
      <trkpt lat="45.32976" lon="5.85677">
        <ele>1144.2</ele>
        <time>2025-07-12T08:01:46</time>
      </trkpt>
      <trkpt lat="45.32976" lon="5.85677">
        <ele>1144.2</ele>
        <time>2025-07-12T08:01:47</time>
      </trkpt>
      <trkpt lat="45.32976" lon="5.85677">
        <ele>1147.5</ele>
        <time>2025-07-12T08:01:48</time>
      </trkpt>
      <trkpt lat="45.32976" lon="5.85678">
        <ele>1147.5</ele>
        <time>2025-07-12T08:01:50</time>
      </trkpt>
      <trkpt lat="45.32975" lon="5.85678">
        <ele>1147.5</ele>
        <time>2025-07-12T08:01:51</time>
      </trkpt>
      <trkpt lat="45.32975" lon="5.85678">
        <ele>1147.5</ele>
        <time>2025-07-12T08:01:51</time>
      </trkpt>
      <trkpt lat="45.32975" lon="5.85678">
        <ele>1147.5</ele>
        <time>2025-07-12T08:01:52</time>
      </trkpt>
      <trkpt lat="45.32975" lon="5.85679">
        <ele>1147.5</ele>
        <time>2025-07-12T08:01:53</time>
      </trkpt>
      <trkpt lat="45.32975" lon="5.85679">
        <ele>1147.5</ele>
        <time>2025-07-12T08:01:55</time>
      </trkpt>
      <trkpt lat="45.32975" lon="5.85679">
        <ele>1155.8</ele>
        <time>2025-07-12T08:01:57</time>
      </trkpt>
      <trkpt lat="45.32975" lon="5.8568">
        <ele>1155.8</ele>
        <time>2025-07-12T08:02:05</time>
      </trkpt>
      <trkpt lat="45.32974" lon="5.8568">
        <ele>1156.8</ele>
        <time>2025-07-12T08:02:09</time>
      </trkpt>
      <trkpt lat="45.32969" lon="5.85679">
        <ele>1156.8</ele>
        <time>2025-07-12T08:02:10</time>
      </trkpt>
      <trkpt lat="45.32965" lon="5.85677">
        <ele>1156.8</ele>
        <time>2025-07-12T08:02:17</time>
      </trkpt>
      <trkpt lat="45.32965" lon="5.85677">
        <ele>1156.8</ele>
        <time>2025-07-12T08:02:18</time>
      </trkpt>
      <trkpt lat="45.32965" lon="5.85677">
        <ele>1156.8</ele>
        <time>2025-07-12T08:02:21</time>
      </trkpt>
      <trkpt lat="45.32965" lon="5.85677">
        <ele>1156.8</ele>
        <time>2025-07-12T08:02:22</time>
      </trkpt>
      <trkpt lat="45.32965" lon="5.85677">
        <ele>1156.8</ele>
        <time>2025-07-12T08:02:23</time>
      </trkpt>
      <trkpt lat="45.32965" lon="5.85677">
        <ele>1156.8</ele>
        <time>2025-07-12T08:02:23</time>
      </trkpt>
      <trkpt lat="45.32965" lon="5.85677">
        <ele>1156.8</ele>
        <time>2025-07-12T08:02:25</time>
      </trkpt>
      <trkpt lat="45.32965" lon="5.85676">
        <ele>1156.8</ele>
        <time>2025-07-12T08:02:26</time>
      </trkpt>
      <trkpt lat="45.32965" lon="5.85676">
        <ele>1156.8</ele>
        <time>2025-07-12T08:02:27</time>
      </trkpt>
      <trkpt lat="45.32965" lon="5.85676">
        <ele>1156.8</ele>
        <time>2025-07-12T08:02:29</time>
      </trkpt>
      <trkpt lat="45.32965" lon="5.85676">
        <ele>1156.8</ele>
        <time>2025-07-12T08:02:30</time>
      </trkpt>
      <trkpt lat="45.32966" lon="5.85676">
        <ele>1179.2</ele>
        <time>2025-07-12T08:02:33</time>
      </trkpt>
      <trkpt lat="45.32968" lon="5.85675">
        <ele>1179.2</ele>
        <time>2025-07-12T08:02:33</time>
      </trkpt>
      <trkpt lat="45.32969" lon="5.85674">
        <ele>1179.2</ele>
        <time>2025-07-12T08:02:34</time>
      </trkpt>
      <trkpt lat="45.32973" lon="5.85672">
        <ele>1179.2</ele>
        <time>2025-07-12T08:02:35</time>
      </trkpt>
      <trkpt lat="45.32974" lon="5.85672">
        <ele>1179.2</ele>
        <time>2025-07-12T08:02:36</time>
      </trkpt>
      <trkpt lat="45.32975" lon="5.85672">
        <ele>1179.2</ele>
        <time>2025-07-12T08:02:37</time>
      </trkpt>
      <trkpt lat="45.32975" lon="5.85673">
        <ele>1179.2</ele>
        <time>2025-07-12T08:02:38</time>
      </trkpt>
      <trkpt lat="45.32976" lon="5.85673">
        <ele>1179.2</ele>
        <time>2025-07-12T08:02:44</time>
      </trkpt>
      <trkpt lat="45.32976" lon="5.85673">
        <ele>1179.2</ele>
        <time>2025-07-12T08:02:44</time>
      </trkpt>
      <trkpt lat="45.32977" lon="5.85673">
        <ele>1179.2</ele>
        <time>2025-07-12T08:02:47</time>
      </trkpt>
      <trkpt lat="45.32976" lon="5.85673">
        <ele>1179.2</ele>
        <time>2025-07-12T08:02:48</time>
      </trkpt>
      <trkpt lat="45.32976" lon="5.85673">
        <ele>1180.3334</ele>
        <time>2025-07-12T08:02:49</time>
      </trkpt>
      <trkpt lat="45.32975" lon="5.85673">
        <ele>1180.3334</ele>
        <time>2025-07-12T08:02:49</time>
      </trkpt>
      <trkpt lat="45.32972" lon="5.85673">
        <ele>1180.3334</ele>
        <time>2025-07-12T08:02:50</time>
      </trkpt>
      <trkpt lat="45.3297" lon="5.85673">
        <ele>1180.3334</ele>
        <time>2025-07-12T08:02:52</time>
      </trkpt>
      <trkpt lat="45.3297" lon="5.85673">
        <ele>1180.3334</ele>
        <time>2025-07-12T08:02:53</time>
      </trkpt>
      <trkpt lat="45.32969" lon="5.85672">
        <ele>1180.3334</ele>
        <time>2025-07-12T08:02:55</time>
      </trkpt>
      <trkpt lat="45.32967" lon="5.85672">
        <ele>1181.2</ele>
        <time>2025-07-12T08:02:58</time>
      </trkpt>
      <trkpt lat="45.32967" lon="5.85672">
        <ele>1181.2</ele>
        <time>2025-07-12T08:02:58</time>
      </trkpt>
      <trkpt lat="45.32967" lon="5.85672">
        <ele>1181.2</ele>
        <time>2025-07-12T08:02:59</time>
      </trkpt>
      <trkpt lat="45.32967" lon="5.85672">
        <ele>1181.2</ele>
        <time>2025-07-12T08:02:59</time>
      </trkpt>
      <trkpt lat="45.32967" lon="5.85672">
        <ele>1181.2</ele>
        <time>2025-07-12T08:03:00</time>
      </trkpt>
      <trkpt lat="45.32967" lon="5.85672">
        <ele>1181.2</ele>
        <time>2025-07-12T08:03:01</time>
      </trkpt>
      <trkpt lat="45.32967" lon="5.85672">
        <ele>1181.2</ele>
        <time>2025-07-12T08:03:04</time>
      </trkpt>
      <trkpt lat="45.32966" lon="5.85673">
        <ele>1181.2</ele>
        <time>2025-07-12T08:03:06</time>
      </trkpt>
      <trkpt lat="45.32966" lon="5.85672">
        <ele>1181.2</ele>
        <time>2025-07-12T08:03:12</time>
      </trkpt>
      <trkpt lat="45.32966" lon="5.85673">
        <ele>1181.2</ele>
        <time>2025-07-12T08:03:13</time>
      </trkpt>
      <trkpt lat="45.32967" lon="5.85673">
        <ele>1181.2</ele>
        <time>2025-07-12T08:03:16</time>
      </trkpt>
      <trkpt lat="45.32967" lon="5.85673">
        <ele>1181.2</ele>
        <time>2025-07-12T08:03:17</time>
      </trkpt>
      <trkpt lat="45.32967" lon="5.85672">
        <ele>1181.2</ele>
        <time>2025-07-12T08:03:17</time>
      </trkpt>
      <trkpt lat="45.32967" lon="5.85673">
        <ele>1181.2</ele>
        <time>2025-07-12T08:03:18</time>
      </trkpt>
      <trkpt lat="45.32967" lon="5.85673">
        <ele>1181.2</ele>
        <time>2025-07-12T08:03:19</time>
      </trkpt>
      <trkpt lat="45.32967" lon="5.85673">
        <ele>1183.2</ele>
        <time>2025-07-12T08:03:21</time>
      </trkpt>
      <trkpt lat="45.32968" lon="5.85673">
        <ele>1183.2</ele>
        <time>2025-07-12T08:03:24</time>
      </trkpt>
      <trkpt lat="45.32966" lon="5.85673">
        <ele>1183.6</ele>
        <time>2025-07-12T08:03:29</time>
      </trkpt>
      <trkpt lat="45.32951" lon="5.85674">
        <ele>1183.6</ele>
        <time>2025-07-12T08:03:29</time>
      </trkpt>
      <trkpt lat="45.32946" lon="5.85673">
        <ele>1183.6</ele>
        <time>2025-07-12T08:03:32</time>
      </trkpt>
      <trkpt lat="45.32945" lon="5.85672">
        <ele>1183.6</ele>
        <time>2025-07-12T08:03:34</time>
      </trkpt>
      <trkpt lat="45.32945" lon="5.85672">
        <ele>1189.5</ele>
        <time>2025-07-12T08:03:35</time>
      </trkpt>
      <trkpt lat="45.32945" lon="5.85672">
        <ele>1189.5</ele>
        <time>2025-07-12T08:03:36</time>
      </trkpt>
      <trkpt lat="45.32945" lon="5.85672">
        <ele>1189.5</ele>
        <time>2025-07-12T08:03:37</time>
      </trkpt>
      <trkpt lat="45.32945" lon="5.85672">
        <ele>1189.5</ele>
        <time>2025-07-12T08:03:37</time>
      </trkpt>
      <trkpt lat="45.32945" lon="5.85672">
        <ele>1189.5</ele>
        <time>2025-07-12T08:03:38</time>
      </trkpt>
      <trkpt lat="45.32945" lon="5.85672">
        <ele>1189.5</ele>
        <time>2025-07-12T08:03:39</time>
      </trkpt>
      <trkpt lat="45.32945" lon="5.85671">
        <ele>1189.5</ele>
        <time>2025-07-12T08:03:41</time>
      </trkpt>
      <trkpt lat="45.32945" lon="5.85671">
        <ele>1189.5</ele>
        <time>2025-07-12T08:03:43</time>
      </trkpt>
      <trkpt lat="45.32945" lon="5.85671">
        <ele>1189.5</ele>
        <time>2025-07-12T08:03:44</time>
      </trkpt>
      <trkpt lat="45.32945" lon="5.85672">
        <ele>1189.5</ele>
        <time>2025-07-12T08:03:52</time>
      </trkpt>
      <trkpt lat="45.32945" lon="5.85672">
        <ele>1189.5</ele>
        <time>2025-07-12T08:03:52</time>
      </trkpt>
      <trkpt lat="45.32945" lon="5.85671">
        <ele>1189.5</ele>
        <time>2025-07-12T08:03:53</time>
      </trkpt>
      <trkpt lat="45.32944" lon="5.85671">
        <ele>1189.5</ele>
        <time>2025-07-12T08:03:54</time>
      </trkpt>
      <trkpt lat="45.3294" lon="5.85668">
        <ele>1189.5</ele>
        <time>2025-07-12T08:03:55</time>
      </trkpt>
      <trkpt lat="45.32937" lon="5.85666">
        <ele>1189.5</ele>
        <time>2025-07-12T08:03:56</time>
      </trkpt>
      <trkpt lat="45.32935" lon="5.85665">
        <ele>1195.2</ele>
        <time>2025-07-12T08:04:01</time>
      </trkpt>
      <trkpt lat="45.32934" lon="5.85665">
        <ele>1195.2</ele>
        <time>2025-07-12T08:04:04</time>
      </trkpt>
      <trkpt lat="45.32933" lon="5.85665">
        <ele>1195.2</ele>
        <time>2025-07-12T08:04:04</time>
      </trkpt>
      <trkpt lat="45.32931" lon="5.85664">
        <ele>1195.2</ele>
        <time>2025-07-12T08:04:05</time>
      </trkpt>
      <trkpt lat="45.32926" lon="5.85662">
        <ele>1195.2</ele>
        <time>2025-07-12T08:04:06</time>
      </trkpt>
      <trkpt lat="45.32924" lon="5.85661">
        <ele>1198.1</ele>
        <time>2025-07-12T08:04:08</time>
      </trkpt>
      <trkpt lat="45.32924" lon="5.85662">
        <ele>1198.1</ele>
        <time>2025-07-12T08:04:11</time>
      </trkpt>
      <trkpt lat="45.32924" lon="5.85662">
        <ele>1198.1</ele>
        <time>2025-07-12T08:04:17</time>
      </trkpt>
      <trkpt lat="45.32924" lon="5.85663">
        <ele>1198.1</ele>
        <time>2025-07-12T08:04:32</time>
      </trkpt>
      <trkpt lat="45.32924" lon="5.85663">
        <ele>1198.1</ele>
        <time>2025-07-12T08:04:33</time>
      </trkpt>
      <trkpt lat="45.32924" lon="5.85663">
        <ele>1198.1</ele>
        <time>2025-07-12T08:04:34</time>
      </trkpt>
      <trkpt lat="45.32924" lon="5.85663">
        <ele>1198.1</ele>
        <time>2025-07-12T08:04:35</time>
      </trkpt>
      <trkpt lat="45.32924" lon="5.85663">
        <ele>1198.1</ele>
        <time>2025-07-12T08:04:36</time>
      </trkpt>
      <trkpt lat="45.32924" lon="5.85663">
        <ele>1198.1</ele>
        <time>2025-07-12T08:04:37</time>
      </trkpt>
      <trkpt lat="45.32924" lon="5.85663">
        <ele>1198.1</ele>
        <time>2025-07-12T08:04:38</time>
      </trkpt>
      <trkpt lat="45.32924" lon="5.85663">
        <ele>1198.1</ele>
        <time>2025-07-12T08:04:41</time>
      </trkpt>
      <trkpt lat="45.32924" lon="5.85663">
        <ele>1198.1</ele>
        <time>2025-07-12T08:04:42</time>
      </trkpt>
      <trkpt lat="45.32917" lon="5.85646">
        <ele>1205.1</ele>
        <time>2025-07-12T08:05:18</time>
      </trkpt>
      <trkpt lat="45.32916" lon="5.85661">
        <ele>1205.1</ele>
        <time>2025-07-12T08:06:11</time>
      </trkpt>
      <trkpt lat="45.32913" lon="5.85646">
        <ele>1209.3</ele>
        <time>2025-07-12T08:07:23</time>
      </trkpt>
      <trkpt lat="45.32912" lon="5.85646">
        <ele>1209.3</ele>
        <time>2025-07-12T08:07:24</time>
      </trkpt>
      <trkpt lat="45.32912" lon="5.85646">
        <ele>1209.3</ele>
        <time>2025-07-12T08:07:25</time>
      </trkpt>
      <trkpt lat="45.32912" lon="5.85646">
        <ele>1209.3</ele>
        <time>2025-07-12T08:07:28</time>
      </trkpt>
      <trkpt lat="45.32912" lon="5.85645">
        <ele>1209.3</ele>
        <time>2025-07-12T08:07:29</time>
      </trkpt>
      <trkpt lat="45.3291" lon="5.85643">
        <ele>1209.3</ele>
        <time>2025-07-12T08:07:30</time>
      </trkpt>
      <trkpt lat="45.32909" lon="5.85641">
        <ele>1209.3</ele>
        <time>2025-07-12T08:07:30</time>
      </trkpt>
      <trkpt lat="45.32908" lon="5.8564">
        <ele>1209.3</ele>
        <time>2025-07-12T08:07:31</time>
      </trkpt>
      <trkpt lat="45.32908" lon="5.85639">
        <ele>1209.3</ele>
        <time>2025-07-12T08:07:32</time>
      </trkpt>
      <trkpt lat="45.32908" lon="5.85638">
        <ele>1209.3</ele>
        <time>2025-07-12T08:07:33</time>
      </trkpt>
      <trkpt lat="45.32908" lon="5.85638">
        <ele>1209.3</ele>
        <time>2025-07-12T08:07:34</time>
      </trkpt>
      <trkpt lat="45.32908" lon="5.85638">
        <ele>1209.3</ele>
        <time>2025-07-12T08:07:34</time>
      </trkpt>
      <trkpt lat="45.32908" lon="5.85637">
        <ele>1209.3</ele>
        <time>2025-07-12T08:07:37</time>
      </trkpt>
      <trkpt lat="45.32907" lon="5.85637">
        <ele>1210.8</ele>
        <time>2025-07-12T08:07:44</time>
      </trkpt>
      <trkpt lat="45.32901" lon="5.85636">
        <ele>1210.8</ele>
        <time>2025-07-12T08:07:49</time>
      </trkpt>
      <trkpt lat="45.32896" lon="5.85638">
        <ele>1210.6</ele>
        <time>2025-07-12T08:08:01</time>
      </trkpt>
      <trkpt lat="45.32896" lon="5.85638">
        <ele>1210.6</ele>
        <time>2025-07-12T08:08:02</time>
      </trkpt>
      <trkpt lat="45.32896" lon="5.85638">
        <ele>1210.6</ele>
        <time>2025-07-12T08:08:03</time>
      </trkpt>
      <trkpt lat="45.32896" lon="5.85638">
        <ele>1210.6</ele>
        <time>2025-07-12T08:08:04</time>
      </trkpt>
      <trkpt lat="45.32895" lon="5.85639">
        <ele>1211.9</ele>
        <time>2025-07-12T08:08:08</time>
      </trkpt>
      <trkpt lat="45.32895" lon="5.85639">
        <ele>1211.9</ele>
        <time>2025-07-12T08:08:09</time>
      </trkpt>
      <trkpt lat="45.32883" lon="5.85638">
        <ele>1211.9</ele>
        <time>2025-07-12T08:08:11</time>
      </trkpt>
      <trkpt lat="45.32875" lon="5.85638">
        <ele>1211.9</ele>
        <time>2025-07-12T08:08:13</time>
      </trkpt>
      <trkpt lat="45.32873" lon="5.85638">
        <ele>1211.9</ele>
        <time>2025-07-12T08:08:15</time>
      </trkpt>
      <trkpt lat="45.32873" lon="5.85638">
        <ele>1211.9</ele>
        <time>2025-07-12T08:08:15</time>
      </trkpt>
      <trkpt lat="45.32873" lon="5.85637">
        <ele>1211.9</ele>
        <time>2025-07-12T08:08:16</time>
      </trkpt>
      <trkpt lat="45.32873" lon="5.85637">
        <ele>1211.9</ele>
        <time>2025-07-12T08:08:17</time>
      </trkpt>
      <trkpt lat="45.32873" lon="5.85637">
        <ele>1211.9</ele>
        <time>2025-07-12T08:08:19</time>
      </trkpt>
      <trkpt lat="45.32872" lon="5.85637">
        <ele>1211.9</ele>
        <time>2025-07-12T08:08:19</time>
      </trkpt>
      <trkpt lat="45.32872" lon="5.85637">
        <ele>1211.9</ele>
        <time>2025-07-12T08:08:20</time>
      </trkpt>
      <trkpt lat="45.32872" lon="5.85637">
        <ele>1211.9</ele>
        <time>2025-07-12T08:08:21</time>
      </trkpt>
      <trkpt lat="45.32872" lon="5.85637">
        <ele>1211.9</ele>
        <time>2025-07-12T08:08:22</time>
      </trkpt>
      <trkpt lat="45.32872" lon="5.85637">
        <ele>1211.6</ele>
        <time>2025-07-12T08:08:24</time>
      </trkpt>
      <trkpt lat="45.32872" lon="5.85637">
        <ele>1211.6</ele>
        <time>2025-07-12T08:08:25</time>
      </trkpt>
      <trkpt lat="45.32872" lon="5.85637">
        <ele>1211.6</ele>
        <time>2025-07-12T08:08:25</time>
      </trkpt>
      <trkpt lat="45.32872" lon="5.85637">
        <ele>1211.6</ele>
        <time>2025-07-12T08:08:29</time>
      </trkpt>
      <trkpt lat="45.32872" lon="5.85637">
        <ele>1211.6</ele>
        <time>2025-07-12T08:08:29</time>
      </trkpt>
      <trkpt lat="45.32871" lon="5.85638">
        <ele>1211.6</ele>
        <time>2025-07-12T08:08:34</time>
      </trkpt>
      <trkpt lat="45.32871" lon="5.85639">
        <ele>1211.6</ele>
        <time>2025-07-12T08:08:35</time>
      </trkpt>
      <trkpt lat="45.3287" lon="5.85639">
        <ele>1211.6</ele>
        <time>2025-07-12T08:08:37</time>
      </trkpt>
      <trkpt lat="45.3287" lon="5.8564">
        <ele>1212.6</ele>
        <time>2025-07-12T08:08:37</time>
      </trkpt>
      <trkpt lat="45.32869" lon="5.8564">
        <ele>1212.6</ele>
        <time>2025-07-12T08:08:39</time>
      </trkpt>
      <trkpt lat="45.32863" lon="5.85639">
        <ele>1212.6</ele>
        <time>2025-07-12T08:08:40</time>
      </trkpt>
      <trkpt lat="45.32861" lon="5.85638">
        <ele>1212.6</ele>
        <time>2025-07-12T08:08:41</time>
      </trkpt>
      <trkpt lat="45.32861" lon="5.85638">
        <ele>1212.6</ele>
        <time>2025-07-12T08:08:42</time>
      </trkpt>
      <trkpt lat="45.3286" lon="5.85638">
        <ele>1212.6</ele>
        <time>2025-07-12T08:08:43</time>
      </trkpt>
      <trkpt lat="45.32859" lon="5.85638">
        <ele>1212.6</ele>
        <time>2025-07-12T08:08:44</time>
      </trkpt>
      <trkpt lat="45.32853" lon="5.85639">
        <ele>1212.6</ele>
        <time>2025-07-12T08:08:44</time>
      </trkpt>
      <trkpt lat="45.32849" lon="5.8564">
        <ele>1213.7</ele>
        <time>2025-07-12T08:08:45</time>
      </trkpt>
      <trkpt lat="45.32849" lon="5.85641">
        <ele>1213.7</ele>
        <time>2025-07-12T08:08:46</time>
      </trkpt>
      <trkpt lat="45.32848" lon="5.85641">
        <ele>1213.7</ele>
        <time>2025-07-12T08:08:48</time>
      </trkpt>
      <trkpt lat="45.32848" lon="5.85641">
        <ele>1213.7</ele>
        <time>2025-07-12T08:08:50</time>
      </trkpt>
      <trkpt lat="45.32848" lon="5.85641">
        <ele>1213.7</ele>
        <time>2025-07-12T08:08:53</time>
      </trkpt>
      <trkpt lat="45.32848" lon="5.85641">
        <ele>1213.9</ele>
        <time>2025-07-12T08:08:54</time>
      </trkpt>
      <trkpt lat="45.32848" lon="5.85641">
        <ele>1213.9</ele>
        <time>2025-07-12T08:08:54</time>
      </trkpt>
      <trkpt lat="45.32848" lon="5.85641">
        <ele>1213.9</ele>
        <time>2025-07-12T08:08:55</time>
      </trkpt>
      <trkpt lat="45.32848" lon="5.85641">
        <ele>1213.9</ele>
        <time>2025-07-12T08:08:56</time>
      </trkpt>
      <trkpt lat="45.32848" lon="5.85641">
        <ele>1213.9</ele>
        <time>2025-07-12T08:08:57</time>
      </trkpt>
      <trkpt lat="45.32848" lon="5.85641">
        <ele>1213.9</ele>
        <time>2025-07-12T08:08:58</time>
      </trkpt>
      <trkpt lat="45.32848" lon="5.85641">
        <ele>1213.9</ele>
        <time>2025-07-12T08:09:00</time>
      </trkpt>
      <trkpt lat="45.32839" lon="5.85642">
        <ele>1213.9</ele>
        <time>2025-07-12T08:09:01</time>
      </trkpt>
      <trkpt lat="45.32838" lon="5.85643">
        <ele>1213.9</ele>
        <time>2025-07-12T08:09:01</time>
      </trkpt>
      <trkpt lat="45.32838" lon="5.85643">
        <ele>1213.9</ele>
        <time>2025-07-12T08:09:02</time>
      </trkpt>
      <trkpt lat="45.32838" lon="5.85643">
        <ele>1213.9</ele>
        <time>2025-07-12T08:09:03</time>
      </trkpt>
      <trkpt lat="45.32838" lon="5.85643">
        <ele>1213.9</ele>
        <time>2025-07-12T08:09:04</time>
      </trkpt>
      <trkpt lat="45.32838" lon="5.85643">
        <ele>1213.9</ele>
        <time>2025-07-12T08:09:05</time>
      </trkpt>
      <trkpt lat="45.32838" lon="5.85643">
        <ele>1213.9</ele>
        <time>2025-07-12T08:09:05</time>
      </trkpt>
      <trkpt lat="45.32838" lon="5.85643">
        <ele>1213.9</ele>
        <time>2025-07-12T08:09:06</time>
      </trkpt>
      <trkpt lat="45.32838" lon="5.85643">
        <ele>1213.9</ele>
        <time>2025-07-12T08:09:08</time>
      </trkpt>
      <trkpt lat="45.32838" lon="5.85643">
        <ele>1213.9</ele>
        <time>2025-07-12T08:09:08</time>
      </trkpt>
      <trkpt lat="45.32838" lon="5.85643">
        <ele>1216.1</ele>
        <time>2025-07-12T08:09:09</time>
      </trkpt>
      <trkpt lat="45.32838" lon="5.85643">
        <ele>1216.1</ele>
        <time>2025-07-12T08:09:10</time>
      </trkpt>
      <trkpt lat="45.32838" lon="5.85643">
        <ele>1216.1</ele>
        <time>2025-07-12T08:09:11</time>
      </trkpt>
      <trkpt lat="45.32838" lon="5.85643">
        <ele>1216.1</ele>
        <time>2025-07-12T08:09:11</time>
      </trkpt>
      <trkpt lat="45.32838" lon="5.85643">
        <ele>1216.1</ele>
        <time>2025-07-12T08:09:12</time>
      </trkpt>
      <trkpt lat="45.32838" lon="5.85643">
        <ele>1216.1</ele>
        <time>2025-07-12T08:09:13</time>
      </trkpt>
      <trkpt lat="45.32838" lon="5.85643">
        <ele>1216.1</ele>
        <time>2025-07-12T08:09:16</time>
      </trkpt>
      <trkpt lat="45.32838" lon="5.85643">
        <ele>1216.1</ele>
        <time>2025-07-12T08:09:18</time>
      </trkpt>
      <trkpt lat="45.32838" lon="5.85643">
        <ele>1216.1</ele>
        <time>2025-07-12T08:09:19</time>
      </trkpt>
      <trkpt lat="45.32838" lon="5.85643">
        <ele>1216.1</ele>
        <time>2025-07-12T08:09:20</time>
      </trkpt>
      <trkpt lat="45.32838" lon="5.85644">
        <ele>1216.1</ele>
        <time>2025-07-12T08:09:21</time>
      </trkpt>
      <trkpt lat="45.32838" lon="5.85644">
        <ele>1216.1</ele>
        <time>2025-07-12T08:09:21</time>
      </trkpt>
      <trkpt lat="45.32837" lon="5.85644">
        <ele>1216.1</ele>
        <time>2025-07-12T08:09:22</time>
      </trkpt>
      <trkpt lat="45.32837" lon="5.85644">
        <ele>1216.1</ele>
        <time>2025-07-12T08:09:23</time>
      </trkpt>
      <trkpt lat="45.3283" lon="5.85653">
        <ele>1216.1</ele>
        <time>2025-07-12T08:09:24</time>
      </trkpt>
      <trkpt lat="45.32829" lon="5.85655">
        <ele>1215.2</ele>
        <time>2025-07-12T08:09:25</time>
      </trkpt>
      <trkpt lat="45.32829" lon="5.85656">
        <ele>1215.2</ele>
        <time>2025-07-12T08:09:26</time>
      </trkpt>
      <trkpt lat="45.32829" lon="5.85656">
        <ele>1215.2</ele>
        <time>2025-07-12T08:09:27</time>
      </trkpt>
      <trkpt lat="45.32829" lon="5.85656">
        <ele>1215.2</ele>
        <time>2025-07-12T08:09:28</time>
      </trkpt>
      <trkpt lat="45.32829" lon="5.85655">
        <ele>1215.2</ele>
        <time>2025-07-12T08:09:29</time>
      </trkpt>
      <trkpt lat="45.32829" lon="5.85656">
        <ele>1215.2</ele>
        <time>2025-07-12T08:09:30</time>
      </trkpt>
      <trkpt lat="45.32829" lon="5.85656">
        <ele>1215.2</ele>
        <time>2025-07-12T08:09:30</time>
      </trkpt>
      <trkpt lat="45.32828" lon="5.85656">
        <ele>1215.2</ele>
        <time>2025-07-12T08:09:32</time>
      </trkpt>
      <trkpt lat="45.32828" lon="5.85656">
        <ele>1215.2</ele>
        <time>2025-07-12T08:09:33</time>
      </trkpt>
      <trkpt lat="45.32828" lon="5.85656">
        <ele>1215.2</ele>
        <time>2025-07-12T08:09:35</time>
      </trkpt>
      <trkpt lat="45.32828" lon="5.85656">
        <ele>1215.2</ele>
        <time>2025-07-12T08:09:38</time>
      </trkpt>
      <trkpt lat="45.32828" lon="5.85656">
        <ele>1215.2</ele>
        <time>2025-07-12T08:09:39</time>
      </trkpt>
      <trkpt lat="45.32828" lon="5.85656">
        <ele>1215.2</ele>
        <time>2025-07-12T08:09:41</time>
      </trkpt>
      <trkpt lat="45.32828" lon="5.85657">
        <ele>1215.2</ele>
        <time>2025-07-12T08:09:44</time>
      </trkpt>
      <trkpt lat="45.32816" lon="5.85662">
        <ele>1215.2</ele>
        <time>2025-07-12T08:09:46</time>
      </trkpt>
      <trkpt lat="45.3281" lon="5.85664">
        <ele>1215.2</ele>
        <time>2025-07-12T08:09:47</time>
      </trkpt>
      <trkpt lat="45.32809" lon="5.85664">
        <ele>1215.2</ele>
        <time>2025-07-12T08:09:48</time>
      </trkpt>
      <trkpt lat="45.32807" lon="5.85665">
        <ele>1214.2</ele>
        <time>2025-07-12T08:09:50</time>
      </trkpt>
      <trkpt lat="45.32807" lon="5.85666">
        <ele>1214.2</ele>
        <time>2025-07-12T08:09:52</time>
      </trkpt>
      <trkpt lat="45.32806" lon="5.85666">
        <ele>1214.2</ele>
        <time>2025-07-12T08:09:56</time>
      </trkpt>
      <trkpt lat="45.32806" lon="5.85666">
        <ele>1215.2</ele>
        <time>2025-07-12T08:09:59</time>
      </trkpt>
      <trkpt lat="45.32806" lon="5.85666">
        <ele>1215.2</ele>
        <time>2025-07-12T08:10:00</time>
      </trkpt>
      <trkpt lat="45.32806" lon="5.85665">
        <ele>1215.2</ele>
        <time>2025-07-12T08:10:01</time>
      </trkpt>
      <trkpt lat="45.32806" lon="5.85666">
        <ele>1215.2</ele>
        <time>2025-07-12T08:10:03</time>
      </trkpt>
      <trkpt lat="45.32806" lon="5.85667">
        <ele>1215.2667</ele>
        <time>2025-07-12T08:10:06</time>
      </trkpt>
      <trkpt lat="45.328" lon="5.85673">
        <ele>1215.2667</ele>
        <time>2025-07-12T08:10:09</time>
      </trkpt>
      <trkpt lat="45.32799" lon="5.85673">
        <ele>1215.2667</ele>
        <time>2025-07-12T08:10:10</time>
      </trkpt>
      <trkpt lat="45.32796" lon="5.85673">
        <ele>1215.2667</ele>
        <time>2025-07-12T08:10:14</time>
      </trkpt>
      <trkpt lat="45.32796" lon="5.85673">
        <ele>1215.9</ele>
        <time>2025-07-12T08:10:16</time>
      </trkpt>
      <trkpt lat="45.32796" lon="5.85673">
        <ele>1215.9</ele>
        <time>2025-07-12T08:10:20</time>
      </trkpt>
      <trkpt lat="45.32796" lon="5.85673">
        <ele>1215.9</ele>
        <time>2025-07-12T08:10:21</time>
      </trkpt>
      <trkpt lat="45.32796" lon="5.85672">
        <ele>1215.9</ele>
        <time>2025-07-12T08:10:22</time>
      </trkpt>
      <trkpt lat="45.32796" lon="5.85673">
        <ele>1215.9</ele>
        <time>2025-07-12T08:10:24</time>
      </trkpt>
      <trkpt lat="45.32796" lon="5.85673">
        <ele>1215.9</ele>
        <time>2025-07-12T08:10:26</time>
      </trkpt>
      <trkpt lat="45.3279" lon="5.85676">
        <ele>1215.9</ele>
        <time>2025-07-12T08:10:29</time>
      </trkpt>
      <trkpt lat="45.32788" lon="5.85677">
        <ele>1215.9</ele>
        <time>2025-07-12T08:10:30</time>
      </trkpt>
      <trkpt lat="45.32787" lon="5.85677">
        <ele>1215.9</ele>
        <time>2025-07-12T08:10:33</time>
      </trkpt>
      <trkpt lat="45.32787" lon="5.85677">
        <ele>1215.9</ele>
        <time>2025-07-12T08:10:33</time>
      </trkpt>
      <trkpt lat="45.32787" lon="5.85677">
        <ele>1215.9</ele>
        <time>2025-07-12T08:10:34</time>
      </trkpt>
      <trkpt lat="45.32787" lon="5.85678">
        <ele>1215.9</ele>
        <time>2025-07-12T08:10:35</time>
      </trkpt>
      <trkpt lat="45.32787" lon="5.85678">
        <ele>1215.9</ele>
        <time>2025-07-12T08:10:36</time>
      </trkpt>
      <trkpt lat="45.32787" lon="5.85678">
        <ele>1215.9</ele>
        <time>2025-07-12T08:10:37</time>
      </trkpt>
      <trkpt lat="45.32787" lon="5.85678">
        <ele>1215.9</ele>
        <time>2025-07-12T08:10:38</time>
      </trkpt>
      <trkpt lat="45.32787" lon="5.85678">
        <ele>1215.9</ele>
        <time>2025-07-12T08:10:38</time>
      </trkpt>
      <trkpt lat="45.32787" lon="5.85678">
        <ele>1215.9</ele>
        <time>2025-07-12T08:10:39</time>
      </trkpt>
      <trkpt lat="45.32787" lon="5.85678">
        <ele>1221.4</ele>
        <time>2025-07-12T08:10:42</time>
      </trkpt>
      <trkpt lat="45.32787" lon="5.85678">
        <ele>1221.4</ele>
        <time>2025-07-12T08:10:43</time>
      </trkpt>
      <trkpt lat="45.32787" lon="5.85678">
        <ele>1221.4</ele>
        <time>2025-07-12T08:10:43</time>
      </trkpt>
      <trkpt lat="45.32787" lon="5.85678">
        <ele>1221.4</ele>
        <time>2025-07-12T08:10:46</time>
      </trkpt>
      <trkpt lat="45.32787" lon="5.85678">
        <ele>1221.4</ele>
        <time>2025-07-12T08:10:52</time>
      </trkpt>
      <trkpt lat="45.32781" lon="5.85689">
        <ele>1222.4667</ele>
        <time>2025-07-12T08:10:58</time>
      </trkpt>
      <trkpt lat="45.32781" lon="5.85689">
        <ele>1222.4667</ele>
        <time>2025-07-12T08:10:58</time>
      </trkpt>
      <trkpt lat="45.32781" lon="5.85689">
        <ele>1222.4667</ele>
        <time>2025-07-12T08:10:59</time>
      </trkpt>
      <trkpt lat="45.32781" lon="5.85689">
        <ele>1223</ele>
        <time>2025-07-12T08:11:06</time>
      </trkpt>
      <trkpt lat="45.32781" lon="5.85689">
        <ele>1223</ele>
        <time>2025-07-12T08:11:07</time>
      </trkpt>
      <trkpt lat="45.32781" lon="5.85689">
        <ele>1223</ele>
        <time>2025-07-12T08:11:08</time>
      </trkpt>
      <trkpt lat="45.32781" lon="5.8569">
        <ele>1223</ele>
        <time>2025-07-12T08:11:10</time>
      </trkpt>
      <trkpt lat="45.32781" lon="5.8569">
        <ele>1223</ele>
        <time>2025-07-12T08:11:11</time>
      </trkpt>
      <trkpt lat="45.32781" lon="5.8569">
        <ele>1223</ele>
        <time>2025-07-12T08:11:12</time>
      </trkpt>
      <trkpt lat="45.32781" lon="5.8569">
        <ele>1223</ele>
        <time>2025-07-12T08:11:13</time>
      </trkpt>
      <trkpt lat="45.32782" lon="5.85697">
        <ele>1223</ele>
        <time>2025-07-12T08:11:15</time>
      </trkpt>
      <trkpt lat="45.32782" lon="5.85701">
        <ele>1223</ele>
        <time>2025-07-12T08:11:17</time>
      </trkpt>
      <trkpt lat="45.32783" lon="5.85702">
        <ele>1223</ele>
        <time>2025-07-12T08:11:18</time>
      </trkpt>
      <trkpt lat="45.32783" lon="5.85703">
        <ele>1223</ele>
        <time>2025-07-12T08:11:19</time>
      </trkpt>
      <trkpt lat="45.32783" lon="5.85703">
        <ele>1227.5</ele>
        <time>2025-07-12T08:11:20</time>
      </trkpt>
      <trkpt lat="45.32783" lon="5.85703">
        <ele>1227.5</ele>
        <time>2025-07-12T08:11:24</time>
      </trkpt>
      <trkpt lat="45.32783" lon="5.85703">
        <ele>1227.5</ele>
        <time>2025-07-12T08:11:24</time>
      </trkpt>
      <trkpt lat="45.32783" lon="5.85703">
        <ele>1227.5</ele>
        <time>2025-07-12T08:11:26</time>
      </trkpt>
      <trkpt lat="45.32783" lon="5.85704">
        <ele>1227.5</ele>
        <time>2025-07-12T08:11:28</time>
      </trkpt>
      <trkpt lat="45.32783" lon="5.85704">
        <ele>1227.5</ele>
        <time>2025-07-12T08:11:30</time>
      </trkpt>
      <trkpt lat="45.32783" lon="5.85704">
        <ele>1227.5</ele>
        <time>2025-07-12T08:11:32</time>
      </trkpt>
      <trkpt lat="45.3279" lon="5.85711">
        <ele>1236.2333</ele>
        <time>2025-07-12T08:11:40</time>
      </trkpt>
      <trkpt lat="45.32791" lon="5.85712">
        <ele>1236.2333</ele>
        <time>2025-07-12T08:11:40</time>
      </trkpt>
      <trkpt lat="45.32792" lon="5.85712">
        <ele>1236.2333</ele>
        <time>2025-07-12T08:11:41</time>
      </trkpt>
      <trkpt lat="45.32792" lon="5.85712">
        <ele>1236.2333</ele>
        <time>2025-07-12T08:11:42</time>
      </trkpt>
      <trkpt lat="45.32793" lon="5.85712">
        <ele>1236.2333</ele>
        <time>2025-07-12T08:11:44</time>
      </trkpt>
      <trkpt lat="45.32793" lon="5.85713">
        <ele>1236.3</ele>
        <time>2025-07-12T08:11:45</time>
      </trkpt>
      <trkpt lat="45.32794" lon="5.85714">
        <ele>1236.3</ele>
        <time>2025-07-12T08:11:46</time>
      </trkpt>
      <trkpt lat="45.32796" lon="5.85716">
        <ele>1236.3</ele>
        <time>2025-07-12T08:11:47</time>
      </trkpt>
      <trkpt lat="45.32799" lon="5.85719">
        <ele>1236.3</ele>
        <time>2025-07-12T08:11:48</time>
      </trkpt>
      <trkpt lat="45.32799" lon="5.8572">
        <ele>1236.3</ele>
        <time>2025-07-12T08:11:50</time>
      </trkpt>
      <trkpt lat="45.328" lon="5.8572">
        <ele>1239.3667</ele>
        <time>2025-07-12T08:11:52</time>
      </trkpt>
      <trkpt lat="45.328" lon="5.8572">
        <ele>1239.3667</ele>
        <time>2025-07-12T08:11:53</time>
      </trkpt>
      <trkpt lat="45.32801" lon="5.8572">
        <ele>1239.3667</ele>
        <time>2025-07-12T08:11:54</time>
      </trkpt>
      <trkpt lat="45.32801" lon="5.8572">
        <ele>1239.3667</ele>
        <time>2025-07-12T08:11:55</time>
      </trkpt>
      <trkpt lat="45.32801" lon="5.8572">
        <ele>1239.3667</ele>
        <time>2025-07-12T08:11:56</time>
      </trkpt>
      <trkpt lat="45.32802" lon="5.8572">
        <ele>1239.3667</ele>
        <time>2025-07-12T08:11:57</time>
      </trkpt>
      <trkpt lat="45.32803" lon="5.85722">
        <ele>1239.5</ele>
        <time>2025-07-12T08:12:02</time>
      </trkpt>
      <trkpt lat="45.32804" lon="5.85724">
        <ele>1239.5</ele>
        <time>2025-07-12T08:12:02</time>
      </trkpt>
      <trkpt lat="45.32805" lon="5.85725">
        <ele>1239.5</ele>
        <time>2025-07-12T08:12:04</time>
      </trkpt>
      <trkpt lat="45.32805" lon="5.85726">
        <ele>1239.5</ele>
        <time>2025-07-12T08:12:05</time>
      </trkpt>
      <trkpt lat="45.32808" lon="5.8573">
        <ele>1239.5</ele>
        <time>2025-07-12T08:12:06</time>
      </trkpt>
      <trkpt lat="45.32809" lon="5.85732">
        <ele>1246.2</ele>
        <time>2025-07-12T08:12:09</time>
      </trkpt>
      <trkpt lat="45.32809" lon="5.85733">
        <ele>1246.2</ele>
        <time>2025-07-12T08:12:10</time>
      </trkpt>
      <trkpt lat="45.32809" lon="5.85734">
        <ele>1246.2</ele>
        <time>2025-07-12T08:12:11</time>
      </trkpt>
      <trkpt lat="45.32809" lon="5.85734">
        <ele>1246.2</ele>
        <time>2025-07-12T08:12:12</time>
      </trkpt>
      <trkpt lat="45.32809" lon="5.85735">
        <ele>1246.2</ele>
        <time>2025-07-12T08:12:12</time>
      </trkpt>
      <trkpt lat="45.32809" lon="5.85735">
        <ele>1246.2</ele>
        <time>2025-07-12T08:12:13</time>
      </trkpt>
      <trkpt lat="45.32809" lon="5.85735">
        <ele>1246.2</ele>
        <time>2025-07-12T08:12:15</time>
      </trkpt>
      <trkpt lat="45.32809" lon="5.85736">
        <ele>1246.2</ele>
        <time>2025-07-12T08:12:16</time>
      </trkpt>
      <trkpt lat="45.32809" lon="5.85736">
        <ele>1246.2</ele>
        <time>2025-07-12T08:12:17</time>
      </trkpt>
      <trkpt lat="45.32808" lon="5.85736">
        <ele>1246.2</ele>
        <time>2025-07-12T08:12:20</time>
      </trkpt>
      <trkpt lat="45.32808" lon="5.85736">
        <ele>1246.2</ele>
        <time>2025-07-12T08:12:21</time>
      </trkpt>
      <trkpt lat="45.32808" lon="5.85736">
        <ele>1246.2</ele>
        <time>2025-07-12T08:12:21</time>
      </trkpt>
      <trkpt lat="45.32808" lon="5.85736">
        <ele>1246.2</ele>
        <time>2025-07-12T08:12:23</time>
      </trkpt>
      <trkpt lat="45.32808" lon="5.85736">
        <ele>1246.2</ele>
        <time>2025-07-12T08:12:25</time>
      </trkpt>
      <trkpt lat="45.32808" lon="5.85736">
        <ele>1246.2</ele>
        <time>2025-07-12T08:12:26</time>
      </trkpt>
      <trkpt lat="45.32809" lon="5.85736">
        <ele>1246.2</ele>
        <time>2025-07-12T08:12:30</time>
      </trkpt>
      <trkpt lat="45.32809" lon="5.85735">
        <ele>1246.2</ele>
        <time>2025-07-12T08:12:32</time>
      </trkpt>
      <trkpt lat="45.32809" lon="5.85735">
        <ele>1246.2</ele>
        <time>2025-07-12T08:12:33</time>
      </trkpt>
      <trkpt lat="45.32809" lon="5.85735">
        <ele>1246.2</ele>
        <time>2025-07-12T08:12:33</time>
      </trkpt>
      <trkpt lat="45.32809" lon="5.85735">
        <ele>1246.2</ele>
        <time>2025-07-12T08:12:35</time>
      </trkpt>
      <trkpt lat="45.32809" lon="5.85735">
        <ele>1246.2</ele>
        <time>2025-07-12T08:12:36</time>
      </trkpt>
      <trkpt lat="45.32802" lon="5.85737">
        <ele>1246.2</ele>
        <time>2025-07-12T08:12:37</time>
      </trkpt>
      <trkpt lat="45.32799" lon="5.85738">
        <ele>1246.2</ele>
        <time>2025-07-12T08:12:38</time>
      </trkpt>
      <trkpt lat="45.32797" lon="5.85739">
        <ele>1246.2</ele>
        <time>2025-07-12T08:12:39</time>
      </trkpt>
      <trkpt lat="45.32796" lon="5.85739">
        <ele>1246.2</ele>
        <time>2025-07-12T08:12:40</time>
      </trkpt>
      <trkpt lat="45.32796" lon="5.85739">
        <ele>1246.2</ele>
        <time>2025-07-12T08:12:41</time>
      </trkpt>
      <trkpt lat="45.32796" lon="5.85739">
        <ele>1246.2</ele>
        <time>2025-07-12T08:12:43</time>
      </trkpt>
      <trkpt lat="45.32796" lon="5.85739">
        <ele>1246.2</ele>
        <time>2025-07-12T08:12:44</time>
      </trkpt>
      <trkpt lat="45.32796" lon="5.85739">
        <ele>1246.2</ele>
        <time>2025-07-12T08:12:45</time>
      </trkpt>
      <trkpt lat="45.32796" lon="5.85739">
        <ele>1246.2</ele>
        <time>2025-07-12T08:12:46</time>
      </trkpt>
      <trkpt lat="45.32796" lon="5.85739">
        <ele>1246.2</ele>
        <time>2025-07-12T08:12:47</time>
      </trkpt>
      <trkpt lat="45.32796" lon="5.85739">
        <ele>1246.2</ele>
        <time>2025-07-12T08:12:48</time>
      </trkpt>
      <trkpt lat="45.32796" lon="5.85739">
        <ele>1246.2</ele>
        <time>2025-07-12T08:12:49</time>
      </trkpt>
      <trkpt lat="45.32796" lon="5.85739">
        <ele>1246.2</ele>
        <time>2025-07-12T08:12:50</time>
      </trkpt>
      <trkpt lat="45.32796" lon="5.85739">
        <ele>1249.4</ele>
        <time>2025-07-12T08:12:51</time>
      </trkpt>
      <trkpt lat="45.32796" lon="5.85739">
        <ele>1249.4</ele>
        <time>2025-07-12T08:12:51</time>
      </trkpt>
      <trkpt lat="45.32796" lon="5.85739">
        <ele>1249.4</ele>
        <time>2025-07-12T08:12:52</time>
      </trkpt>
      <trkpt lat="45.32796" lon="5.85739">
        <ele>1249.4</ele>
        <time>2025-07-12T08:12:54</time>
      </trkpt>
      <trkpt lat="45.32796" lon="5.85739">
        <ele>1249.4</ele>
        <time>2025-07-12T08:12:55</time>
      </trkpt>
      <trkpt lat="45.32795" lon="5.85739">
        <ele>1249.4</ele>
        <time>2025-07-12T08:12:56</time>
      </trkpt>
      <trkpt lat="45.3279" lon="5.85735">
        <ele>1249.4</ele>
        <time>2025-07-12T08:12:58</time>
      </trkpt>
      <trkpt lat="45.32789" lon="5.85734">
        <ele>1249.9</ele>
        <time>2025-07-12T08:12:59</time>
      </trkpt>
      <trkpt lat="45.32789" lon="5.85734">
        <ele>1249.9</ele>
        <time>2025-07-12T08:13:00</time>
      </trkpt>
      <trkpt lat="45.32788" lon="5.85734">
        <ele>1249.9</ele>
        <time>2025-07-12T08:13:00</time>
      </trkpt>
      <trkpt lat="45.32788" lon="5.85734">
        <ele>1249.9</ele>
        <time>2025-07-12T08:13:01</time>
      </trkpt>
      <trkpt lat="45.32787" lon="5.85734">
        <ele>1249.9</ele>
        <time>2025-07-12T08:13:04</time>
      </trkpt>
      <trkpt lat="45.32787" lon="5.85734">
        <ele>1249.9</ele>
        <time>2025-07-12T08:13:05</time>
      </trkpt>
      <trkpt lat="45.32787" lon="5.85734">
        <ele>1249.9</ele>
        <time>2025-07-12T08:13:06</time>
      </trkpt>
      <trkpt lat="45.32786" lon="5.85734">
        <ele>1249.9</ele>
        <time>2025-07-12T08:13:07</time>
      </trkpt>
      <trkpt lat="45.32785" lon="5.85733">
        <ele>1249.9</ele>
        <time>2025-07-12T08:13:09</time>
      </trkpt>
      <trkpt lat="45.32785" lon="5.85733">
        <ele>1249.9</ele>
        <time>2025-07-12T08:13:10</time>
      </trkpt>
      <trkpt lat="45.32782" lon="5.8573">
        <ele>1249.9</ele>
        <time>2025-07-12T08:13:13</time>
      </trkpt>
      <trkpt lat="45.32779" lon="5.8573">
        <ele>1249.9</ele>
        <time>2025-07-12T08:13:14</time>
      </trkpt>
      <trkpt lat="45.32776" lon="5.85732">
        <ele>1253.2333</ele>
        <time>2025-07-12T08:13:16</time>
      </trkpt>
      <trkpt lat="45.32775" lon="5.85732">
        <ele>1253.2333</ele>
        <time>2025-07-12T08:13:17</time>
      </trkpt>
      <trkpt lat="45.32774" lon="5.85731">
        <ele>1253.2333</ele>
        <time>2025-07-12T08:13:19</time>
      </trkpt>
      <trkpt lat="45.32774" lon="5.85731">
        <ele>1253.6</ele>
        <time>2025-07-12T08:13:23</time>
      </trkpt>
      <trkpt lat="45.32768" lon="5.85728">
        <ele>1253.6</ele>
        <time>2025-07-12T08:13:30</time>
      </trkpt>
      <trkpt lat="45.32762" lon="5.85726">
        <ele>1256.0667</ele>
        <time>2025-07-12T08:13:31</time>
      </trkpt>
      <trkpt lat="45.3276" lon="5.85727">
        <ele>1256.0667</ele>
        <time>2025-07-12T08:13:31</time>
      </trkpt>
      <trkpt lat="45.32759" lon="5.85727">
        <ele>1256.0667</ele>
        <time>2025-07-12T08:13:32</time>
      </trkpt>
      <trkpt lat="45.32758" lon="5.85726">
        <ele>1256.0667</ele>
        <time>2025-07-12T08:13:34</time>
      </trkpt>
      <trkpt lat="45.32756" lon="5.85725">
        <ele>1256.0667</ele>
        <time>2025-07-12T08:13:36</time>
      </trkpt>
      <trkpt lat="45.32756" lon="5.85725">
        <ele>1256.0667</ele>
        <time>2025-07-12T08:13:36</time>
      </trkpt>
      <trkpt lat="45.32756" lon="5.85725">
        <ele>1256.7</ele>
        <time>2025-07-12T08:13:44</time>
      </trkpt>
      <trkpt lat="45.32756" lon="5.85724">
        <ele>1257.7</ele>
        <time>2025-07-12T08:13:46</time>
      </trkpt>
      <trkpt lat="45.32755" lon="5.85724">
        <ele>1257.7</ele>
        <time>2025-07-12T08:13:46</time>
      </trkpt>
      <trkpt lat="45.32753" lon="5.85723">
        <ele>1257.7</ele>
        <time>2025-07-12T08:13:47</time>
      </trkpt>
      <trkpt lat="45.32752" lon="5.85723">
        <ele>1257.7</ele>
        <time>2025-07-12T08:13:48</time>
      </trkpt>
      <trkpt lat="45.3275" lon="5.85721">
        <ele>1257.7</ele>
        <time>2025-07-12T08:13:49</time>
      </trkpt>
      <trkpt lat="45.32749" lon="5.85721">
        <ele>1257.7</ele>
        <time>2025-07-12T08:13:50</time>
      </trkpt>
      <trkpt lat="45.32749" lon="5.85721">
        <ele>1257.7</ele>
        <time>2025-07-12T08:13:51</time>
      </trkpt>
      <trkpt lat="45.32748" lon="5.85721">
        <ele>1257.7</ele>
        <time>2025-07-12T08:13:51</time>
      </trkpt>
      <trkpt lat="45.32748" lon="5.85721">
        <ele>1257.7</ele>
        <time>2025-07-12T08:13:52</time>
      </trkpt>
      <trkpt lat="45.32745" lon="5.8572">
        <ele>1261.2</ele>
        <time>2025-07-12T08:13:56</time>
      </trkpt>
      <trkpt lat="45.32745" lon="5.85719">
        <ele>1261.2</ele>
        <time>2025-07-12T08:13:59</time>
      </trkpt>
      <trkpt lat="45.32745" lon="5.85719">
        <ele>1261.2</ele>
        <time>2025-07-12T08:14:01</time>
      </trkpt>
      <trkpt lat="45.32744" lon="5.85719">
        <ele>1261.2</ele>
        <time>2025-07-12T08:14:02</time>
      </trkpt>
      <trkpt lat="45.32744" lon="5.85719">
        <ele>1261.2</ele>
        <time>2025-07-12T08:14:04</time>
      </trkpt>
      <trkpt lat="45.32743" lon="5.85719">
        <ele>1261.2</ele>
        <time>2025-07-12T08:14:04</time>
      </trkpt>
      <trkpt lat="45.32742" lon="5.85718">
        <ele>1261.2</ele>
        <time>2025-07-12T08:14:06</time>
      </trkpt>
      <trkpt lat="45.32739" lon="5.85715">
        <ele>1261.2</ele>
        <time>2025-07-12T08:14:07</time>
      </trkpt>
      <trkpt lat="45.32738" lon="5.85713">
        <ele>1261.2</ele>
        <time>2025-07-12T08:14:08</time>
      </trkpt>
      <trkpt lat="45.32737" lon="5.85711">
        <ele>1261.2</ele>
        <time>2025-07-12T08:14:09</time>
      </trkpt>
      <trkpt lat="45.32736" lon="5.85709">
        <ele>1261.2</ele>
        <time>2025-07-12T08:14:11</time>
      </trkpt>
      <trkpt lat="45.32736" lon="5.85708">
        <ele>1261.2</ele>
        <time>2025-07-12T08:14:12</time>
      </trkpt>
      <trkpt lat="45.32736" lon="5.85708">
        <ele>1261.2</ele>
        <time>2025-07-12T08:14:13</time>
      </trkpt>
      <trkpt lat="45.32737" lon="5.85707">
        <ele>1261.2</ele>
        <time>2025-07-12T08:14:18</time>
      </trkpt>
      <trkpt lat="45.32737" lon="5.85707">
        <ele>1263</ele>
        <time>2025-07-12T08:14:19</time>
      </trkpt>
      <trkpt lat="45.32737" lon="5.85707">
        <ele>1263</ele>
        <time>2025-07-12T08:14:20</time>
      </trkpt>
      <trkpt lat="45.32737" lon="5.85708">
        <ele>1263</ele>
        <time>2025-07-12T08:14:21</time>
      </trkpt>
      <trkpt lat="45.32737" lon="5.85708">
        <ele>1263</ele>
        <time>2025-07-12T08:14:21</time>
      </trkpt>
      <trkpt lat="45.32737" lon="5.85708">
        <ele>1263</ele>
        <time>2025-07-12T08:14:22</time>
      </trkpt>
      <trkpt lat="45.32737" lon="5.85708">
        <ele>1263</ele>
        <time>2025-07-12T08:14:24</time>
      </trkpt>
      <trkpt lat="45.32737" lon="5.85708">
        <ele>1263</ele>
        <time>2025-07-12T08:14:25</time>
      </trkpt>
      <trkpt lat="45.32735" lon="5.85707">
        <ele>1263</ele>
        <time>2025-07-12T08:14:26</time>
      </trkpt>
      <trkpt lat="45.32733" lon="5.85706">
        <ele>1263.7333</ele>
        <time>2025-07-12T08:14:27</time>
      </trkpt>
      <trkpt lat="45.32732" lon="5.85706">
        <ele>1263.7333</ele>
        <time>2025-07-12T08:14:28</time>
      </trkpt>
      <trkpt lat="45.32732" lon="5.85706">
        <ele>1263.7333</ele>
        <time>2025-07-12T08:14:29</time>
      </trkpt>
      <trkpt lat="45.32731" lon="5.85706">
        <ele>1263.7333</ele>
        <time>2025-07-12T08:14:30</time>
      </trkpt>
      <trkpt lat="45.3273" lon="5.85706">
        <ele>1263.7333</ele>
        <time>2025-07-12T08:14:31</time>
      </trkpt>
      <trkpt lat="45.3273" lon="5.85706">
        <ele>1263.7333</ele>
        <time>2025-07-12T08:14:31</time>
      </trkpt>
      <trkpt lat="45.32729" lon="5.85706">
        <ele>1263.7333</ele>
        <time>2025-07-12T08:14:32</time>
      </trkpt>
      <trkpt lat="45.32729" lon="5.85706">
        <ele>1263.7333</ele>
        <time>2025-07-12T08:14:33</time>
      </trkpt>
      <trkpt lat="45.32728" lon="5.85706">
        <ele>1263.7333</ele>
        <time>2025-07-12T08:14:34</time>
      </trkpt>
      <trkpt lat="45.32728" lon="5.85705">
        <ele>1263.8</ele>
        <time>2025-07-12T08:14:35</time>
      </trkpt>
      <trkpt lat="45.32728" lon="5.85705">
        <ele>1263.8</ele>
        <time>2025-07-12T08:14:36</time>
      </trkpt>
      <trkpt lat="45.32728" lon="5.85705">
        <ele>1263.8</ele>
        <time>2025-07-12T08:14:38</time>
      </trkpt>
      <trkpt lat="45.3273" lon="5.85706">
        <ele>1263.8</ele>
        <time>2025-07-12T08:14:39</time>
      </trkpt>
      <trkpt lat="45.3273" lon="5.85706">
        <ele>1263.8</ele>
        <time>2025-07-12T08:14:40</time>
      </trkpt>
      <trkpt lat="45.32732" lon="5.85708">
        <ele>1263.8</ele>
        <time>2025-07-12T08:14:41</time>
      </trkpt>
      <trkpt lat="45.32734" lon="5.85709">
        <ele>1266.5</ele>
        <time>2025-07-12T08:14:42</time>
      </trkpt>
      <trkpt lat="45.32735" lon="5.85709">
        <ele>1266.5</ele>
        <time>2025-07-12T08:14:43</time>
      </trkpt>
      <trkpt lat="45.32735" lon="5.85709">
        <ele>1266.5</ele>
        <time>2025-07-12T08:14:44</time>
      </trkpt>
      <trkpt lat="45.32735" lon="5.85709">
        <ele>1266.5</ele>
        <time>2025-07-12T08:14:45</time>
      </trkpt>
      <trkpt lat="45.32735" lon="5.85709">
        <ele>1266.5</ele>
        <time>2025-07-12T08:14:45</time>
      </trkpt>
      <trkpt lat="45.32734" lon="5.8571">
        <ele>1266.5</ele>
        <time>2025-07-12T08:14:49</time>
      </trkpt>
      <trkpt lat="45.32734" lon="5.85709">
        <ele>1268.9</ele>
        <time>2025-07-12T08:14:55</time>
      </trkpt>
      <trkpt lat="45.32734" lon="5.85709">
        <ele>1268.9</ele>
        <time>2025-07-12T08:14:56</time>
      </trkpt>
      <trkpt lat="45.32734" lon="5.85709">
        <ele>1268.9</ele>
        <time>2025-07-12T08:14:57</time>
      </trkpt>
      <trkpt lat="45.32734" lon="5.8571">
        <ele>1268.9</ele>
        <time>2025-07-12T08:15:00</time>
      </trkpt>
      <trkpt lat="45.32735" lon="5.85711">
        <ele>1268.8</ele>
        <time>2025-07-12T08:15:00</time>
      </trkpt>
      <trkpt lat="45.32737" lon="5.85714">
        <ele>1268.8</ele>
        <time>2025-07-12T08:15:01</time>
      </trkpt>
      <trkpt lat="45.32738" lon="5.85715">
        <ele>1268.8</ele>
        <time>2025-07-12T08:15:02</time>
      </trkpt>
      <trkpt lat="45.32739" lon="5.85717">
        <ele>1268.8</ele>
        <time>2025-07-12T08:15:03</time>
      </trkpt>
      <trkpt lat="45.32739" lon="5.85718">
        <ele>1268.8</ele>
        <time>2025-07-12T08:15:04</time>
      </trkpt>
      <trkpt lat="45.32739" lon="5.85719">
        <ele>1268.8</ele>
        <time>2025-07-12T08:15:04</time>
      </trkpt>
      <trkpt lat="45.32742" lon="5.8572">
        <ele>1268.8</ele>
        <time>2025-07-12T08:15:11</time>
      </trkpt>
      <trkpt lat="45.32743" lon="5.85719">
        <ele>1268.8</ele>
        <time>2025-07-12T08:15:12</time>
      </trkpt>
      <trkpt lat="45.32743" lon="5.85719">
        <ele>1268.8</ele>
        <time>2025-07-12T08:15:13</time>
      </trkpt>
      <trkpt lat="45.32743" lon="5.85718">
        <ele>1268.8</ele>
        <time>2025-07-12T08:15:13</time>
      </trkpt>
      <trkpt lat="45.32742" lon="5.85718">
        <ele>1268.8</ele>
        <time>2025-07-12T08:15:14</time>
      </trkpt>
      <trkpt lat="45.32742" lon="5.85718">
        <ele>1268.8</ele>
        <time>2025-07-12T08:15:15</time>
      </trkpt>
      <trkpt lat="45.32742" lon="5.85718">
        <ele>1271.8</ele>
        <time>2025-07-12T08:15:17</time>
      </trkpt>
      <trkpt lat="45.32742" lon="5.85718">
        <ele>1271.8</ele>
        <time>2025-07-12T08:15:18</time>
      </trkpt>
      <trkpt lat="45.32742" lon="5.85718">
        <ele>1271.8</ele>
        <time>2025-07-12T08:15:19</time>
      </trkpt>
      <trkpt lat="45.32742" lon="5.85718">
        <ele>1271.8</ele>
        <time>2025-07-12T08:15:21</time>
      </trkpt>
      <trkpt lat="45.32742" lon="5.85718">
        <ele>1271.8</ele>
        <time>2025-07-12T08:15:22</time>
      </trkpt>
      <trkpt lat="45.32742" lon="5.85718">
        <ele>1271.8</ele>
        <time>2025-07-12T08:15:23</time>
      </trkpt>
      <trkpt lat="45.32742" lon="5.85719">
        <ele>1271.8</ele>
        <time>2025-07-12T08:15:24</time>
      </trkpt>
      <trkpt lat="45.32743" lon="5.85732">
        <ele>1273.3334</ele>
        <time>2025-07-12T08:15:25</time>
      </trkpt>
      <trkpt lat="45.32743" lon="5.85737">
        <ele>1273.3334</ele>
        <time>2025-07-12T08:15:26</time>
      </trkpt>
      <trkpt lat="45.32743" lon="5.8574">
        <ele>1273.3334</ele>
        <time>2025-07-12T08:15:28</time>
      </trkpt>
      <trkpt lat="45.32744" lon="5.8574">
        <ele>1273.3334</ele>
        <time>2025-07-12T08:15:28</time>
      </trkpt>
      <trkpt lat="45.32744" lon="5.8574">
        <ele>1273.3334</ele>
        <time>2025-07-12T08:15:29</time>
      </trkpt>
      <trkpt lat="45.32744" lon="5.8574">
        <ele>1273.3334</ele>
        <time>2025-07-12T08:15:30</time>
      </trkpt>
      <trkpt lat="45.32744" lon="5.8574">
        <ele>1273.3334</ele>
        <time>2025-07-12T08:15:31</time>
      </trkpt>
      <trkpt lat="45.32744" lon="5.8574">
        <ele>1273.3334</ele>
        <time>2025-07-12T08:15:31</time>
      </trkpt>
      <trkpt lat="45.32744" lon="5.8574">
        <ele>1271.8</ele>
        <time>2025-07-12T08:15:33</time>
      </trkpt>
      <trkpt lat="45.32744" lon="5.8574">
        <ele>1271.8</ele>
        <time>2025-07-12T08:15:34</time>
      </trkpt>
      <trkpt lat="45.32744" lon="5.8574">
        <ele>1271.8</ele>
        <time>2025-07-12T08:15:35</time>
      </trkpt>
      <trkpt lat="45.32743" lon="5.8574">
        <ele>1271.8</ele>
        <time>2025-07-12T08:15:35</time>
      </trkpt>
      <trkpt lat="45.32743" lon="5.8574">
        <ele>1271.8</ele>
        <time>2025-07-12T08:15:36</time>
      </trkpt>
      <trkpt lat="45.32743" lon="5.8574">
        <ele>1271.8</ele>
        <time>2025-07-12T08:15:38</time>
      </trkpt>
      <trkpt lat="45.32743" lon="5.8574">
        <ele>1271</ele>
        <time>2025-07-12T08:15:42</time>
      </trkpt>
      <trkpt lat="45.32743" lon="5.8574">
        <ele>1271</ele>
        <time>2025-07-12T08:15:42</time>
      </trkpt>
      <trkpt lat="45.32743" lon="5.8574">
        <ele>1271</ele>
        <time>2025-07-12T08:15:43</time>
      </trkpt>
      <trkpt lat="45.32743" lon="5.8574">
        <ele>1271</ele>
        <time>2025-07-12T08:15:44</time>
      </trkpt>
      <trkpt lat="45.32743" lon="5.8574">
        <ele>1271</ele>
        <time>2025-07-12T08:15:45</time>
      </trkpt>
      <trkpt lat="45.32743" lon="5.8574">
        <ele>1271</ele>
        <time>2025-07-12T08:15:46</time>
      </trkpt>
      <trkpt lat="45.32743" lon="5.8574">
        <ele>1271</ele>
        <time>2025-07-12T08:15:47</time>
      </trkpt>
      <trkpt lat="45.32743" lon="5.8574">
        <ele>1271</ele>
        <time>2025-07-12T08:15:48</time>
      </trkpt>
      <trkpt lat="45.32743" lon="5.85741">
        <ele>1271</ele>
        <time>2025-07-12T08:15:49</time>
      </trkpt>
      <trkpt lat="45.32741" lon="5.85744">
        <ele>1271</ele>
        <time>2025-07-12T08:15:50</time>
      </trkpt>
      <trkpt lat="45.32741" lon="5.85746">
        <ele>1271</ele>
        <time>2025-07-12T08:15:51</time>
      </trkpt>
      <trkpt lat="45.3274" lon="5.85748">
        <ele>1271</ele>
        <time>2025-07-12T08:15:52</time>
      </trkpt>
      <trkpt lat="45.3274" lon="5.85749">
        <ele>1271</ele>
        <time>2025-07-12T08:15:53</time>
      </trkpt>
      <trkpt lat="45.3274" lon="5.85749">
        <ele>1271</ele>
        <time>2025-07-12T08:15:53</time>
      </trkpt>
      <trkpt lat="45.3274" lon="5.85749">
        <ele>1271</ele>
        <time>2025-07-12T08:15:54</time>
      </trkpt>
      <trkpt lat="45.32738" lon="5.8575">
        <ele>1272.5</ele>
        <time>2025-07-12T08:15:57</time>
      </trkpt>
      <trkpt lat="45.32737" lon="5.85751">
        <ele>1272.5</ele>
        <time>2025-07-12T08:15:57</time>
      </trkpt>
      <trkpt lat="45.32737" lon="5.85751">
        <ele>1272.5</ele>
        <time>2025-07-12T08:16:00</time>
      </trkpt>
      <trkpt lat="45.32737" lon="5.85751">
        <ele>1272.5</ele>
        <time>2025-07-12T08:16:01</time>
      </trkpt>
      <trkpt lat="45.32737" lon="5.85751">
        <ele>1272.5</ele>
        <time>2025-07-12T08:16:02</time>
      </trkpt>
      <trkpt lat="45.32737" lon="5.85752">
        <ele>1272.5</ele>
        <time>2025-07-12T08:16:03</time>
      </trkpt>
      <trkpt lat="45.32737" lon="5.85752">
        <ele>1272.5</ele>
        <time>2025-07-12T08:16:04</time>
      </trkpt>
      <trkpt lat="45.32737" lon="5.85752">
        <ele>1272.5</ele>
        <time>2025-07-12T08:16:05</time>
      </trkpt>
      <trkpt lat="45.32737" lon="5.85752">
        <ele>1272.5</ele>
        <time>2025-07-12T08:16:05</time>
      </trkpt>
      <trkpt lat="45.32737" lon="5.85752">
        <ele>1272.5</ele>
        <time>2025-07-12T08:16:06</time>
      </trkpt>
      <trkpt lat="45.32737" lon="5.85752">
        <ele>1272.5</ele>
        <time>2025-07-12T08:16:07</time>
      </trkpt>
      <trkpt lat="45.32736" lon="5.85752">
        <ele>1272.5</ele>
        <time>2025-07-12T08:16:09</time>
      </trkpt>
      <trkpt lat="45.32736" lon="5.85752">
        <ele>1272.5</ele>
        <time>2025-07-12T08:16:09</time>
      </trkpt>
      <trkpt lat="45.32737" lon="5.85752">
        <ele>1272.5</ele>
        <time>2025-07-12T08:16:10</time>
      </trkpt>
      <trkpt lat="45.32737" lon="5.85752">
        <ele>1272.5</ele>
        <time>2025-07-12T08:16:11</time>
      </trkpt>
      <trkpt lat="45.32737" lon="5.85752">
        <ele>1272.5</ele>
        <time>2025-07-12T08:16:12</time>
      </trkpt>
      <trkpt lat="45.32737" lon="5.85752">
        <ele>1272.5</ele>
        <time>2025-07-12T08:16:13</time>
      </trkpt>
      <trkpt lat="45.32737" lon="5.85752">
        <ele>1272.5</ele>
        <time>2025-07-12T08:16:14</time>
      </trkpt>
      <trkpt lat="45.32737" lon="5.85752">
        <ele>1272.5</ele>
        <time>2025-07-12T08:16:17</time>
      </trkpt>
      <trkpt lat="45.32738" lon="5.85752">
        <ele>1272.5</ele>
        <time>2025-07-12T08:16:19</time>
      </trkpt>
      <trkpt lat="45.32739" lon="5.85752">
        <ele>1282.6</ele>
        <time>2025-07-12T08:16:21</time>
      </trkpt>
      <trkpt lat="45.32745" lon="5.85753">
        <ele>1282.6</ele>
        <time>2025-07-12T08:16:24</time>
      </trkpt>
      <trkpt lat="45.32748" lon="5.85752">
        <ele>1282.6</ele>
        <time>2025-07-12T08:16:27</time>
      </trkpt>
      <trkpt lat="45.32748" lon="5.85752">
        <ele>1284.0333</ele>
        <time>2025-07-12T08:16:29</time>
      </trkpt>
      <trkpt lat="45.32748" lon="5.85752">
        <ele>1284.0333</ele>
        <time>2025-07-12T08:16:30</time>
      </trkpt>
      <trkpt lat="45.32748" lon="5.85751">
        <ele>1284.0333</ele>
        <time>2025-07-12T08:16:32</time>
      </trkpt>
      <trkpt lat="45.32755" lon="5.85757">
        <ele>1285.7</ele>
        <time>2025-07-12T08:16:37</time>
      </trkpt>
      <trkpt lat="45.32758" lon="5.85759">
        <ele>1285.7</ele>
        <time>2025-07-12T08:16:38</time>
      </trkpt>
      <trkpt lat="45.3276" lon="5.85762">
        <ele>1285.7</ele>
        <time>2025-07-12T08:16:39</time>
      </trkpt>
      <trkpt lat="45.3276" lon="5.85762">
        <ele>1285.7</ele>
        <time>2025-07-12T08:16:40</time>
      </trkpt>
      <trkpt lat="45.3276" lon="5.85762">
        <ele>1289.6333</ele>
        <time>2025-07-12T08:16:44</time>
      </trkpt>
      <trkpt lat="45.3276" lon="5.85762">
        <ele>1289.6333</ele>
        <time>2025-07-12T08:16:44</time>
      </trkpt>
      <trkpt lat="45.3276" lon="5.85762">
        <ele>1289.6333</ele>
        <time>2025-07-12T08:16:47</time>
      </trkpt>
      <trkpt lat="45.3276" lon="5.85762">
        <ele>1289.6333</ele>
        <time>2025-07-12T08:16:49</time>
      </trkpt>
      <trkpt lat="45.3276" lon="5.85762">
        <ele>1289.7</ele>
        <time>2025-07-12T08:16:53</time>
      </trkpt>
      <trkpt lat="45.3276" lon="5.85762">
        <ele>1289.7</ele>
        <time>2025-07-12T08:16:53</time>
      </trkpt>
      <trkpt lat="45.3276" lon="5.85762">
        <ele>1289.7</ele>
        <time>2025-07-12T08:16:54</time>
      </trkpt>
      <trkpt lat="45.3276" lon="5.85762">
        <ele>1289.7</ele>
        <time>2025-07-12T08:16:54</time>
      </trkpt>
      <trkpt lat="45.3276" lon="5.85762">
        <ele>1289.7</ele>
        <time>2025-07-12T08:16:55</time>
      </trkpt>
      <trkpt lat="45.3276" lon="5.85763">
        <ele>1289.7</ele>
        <time>2025-07-12T08:16:56</time>
      </trkpt>
      <trkpt lat="45.3276" lon="5.85763">
        <ele>1289.7</ele>
        <time>2025-07-12T08:16:58</time>
      </trkpt>
      <trkpt lat="45.3276" lon="5.85763">
        <ele>1289.7</ele>
        <time>2025-07-12T08:16:59</time>
      </trkpt>
      <trkpt lat="45.32761" lon="5.85764">
        <ele>1289.7</ele>
        <time>2025-07-12T08:16:59</time>
      </trkpt>
      <trkpt lat="45.32764" lon="5.85769">
        <ele>1289.7</ele>
        <time>2025-07-12T08:17:02</time>
      </trkpt>
      <trkpt lat="45.32764" lon="5.85769">
        <ele>1289.7</ele>
        <time>2025-07-12T08:17:03</time>
      </trkpt>
      <trkpt lat="45.32765" lon="5.85771">
        <ele>1289.7</ele>
        <time>2025-07-12T08:17:05</time>
      </trkpt>
      <trkpt lat="45.32765" lon="5.85771">
        <ele>1289.7</ele>
        <time>2025-07-12T08:17:06</time>
      </trkpt>
      <trkpt lat="45.32766" lon="5.85771">
        <ele>1290</ele>
        <time>2025-07-12T08:17:07</time>
      </trkpt>
      <trkpt lat="45.32766" lon="5.85771">
        <ele>1290</ele>
        <time>2025-07-12T08:17:09</time>
      </trkpt>
      <trkpt lat="45.32766" lon="5.85774">
        <ele>1290</ele>
        <time>2025-07-12T08:17:12</time>
      </trkpt>
      <trkpt lat="45.32766" lon="5.85775">
        <ele>1290</ele>
        <time>2025-07-12T08:17:14</time>
      </trkpt>
      <trkpt lat="45.32766" lon="5.85776">
        <ele>1290</ele>
        <time>2025-07-12T08:17:16</time>
      </trkpt>
      <trkpt lat="45.32766" lon="5.85775">
        <ele>1290</ele>
        <time>2025-07-12T08:17:18</time>
      </trkpt>
      <trkpt lat="45.32766" lon="5.85775">
        <ele>1290</ele>
        <time>2025-07-12T08:17:19</time>
      </trkpt>
      <trkpt lat="45.32766" lon="5.85775">
        <ele>1290</ele>
        <time>2025-07-12T08:17:21</time>
      </trkpt>
      <trkpt lat="45.32746" lon="5.8578">
        <ele>1288.9</ele>
        <time>2025-07-12T08:17:25</time>
      </trkpt>
      <trkpt lat="45.32746" lon="5.8578">
        <ele>1288.9</ele>
        <time>2025-07-12T08:17:26</time>
      </trkpt>
      <trkpt lat="45.32745" lon="5.8578">
        <ele>1288.9</ele>
        <time>2025-07-12T08:17:28</time>
      </trkpt>
      <trkpt lat="45.32745" lon="5.8578">
        <ele>1288.9</ele>
        <time>2025-07-12T08:17:30</time>
      </trkpt>
      <trkpt lat="45.32745" lon="5.8578">
        <ele>1289</ele>
        <time>2025-07-12T08:17:32</time>
      </trkpt>
      <trkpt lat="45.32745" lon="5.8578">
        <ele>1289</ele>
        <time>2025-07-12T08:17:34</time>
      </trkpt>
      <trkpt lat="45.32745" lon="5.8578">
        <ele>1289</ele>
        <time>2025-07-12T08:17:35</time>
      </trkpt>
      <trkpt lat="45.32745" lon="5.8578">
        <ele>1289</ele>
        <time>2025-07-12T08:17:35</time>
      </trkpt>
      <trkpt lat="45.32745" lon="5.8578">
        <ele>1289</ele>
        <time>2025-07-12T08:17:36</time>
      </trkpt>
      <trkpt lat="45.32745" lon="5.8578">
        <ele>1289</ele>
        <time>2025-07-12T08:17:37</time>
      </trkpt>
      <trkpt lat="45.32745" lon="5.8578">
        <ele>1289</ele>
        <time>2025-07-12T08:17:38</time>
      </trkpt>
      <trkpt lat="45.32745" lon="5.8578">
        <ele>1289.4</ele>
        <time>2025-07-12T08:17:40</time>
      </trkpt>
      <trkpt lat="45.32745" lon="5.8578">
        <ele>1289.4</ele>
        <time>2025-07-12T08:17:42</time>
      </trkpt>
      <trkpt lat="45.32745" lon="5.8578">
        <ele>1289.4</ele>
        <time>2025-07-12T08:17:43</time>
      </trkpt>
      <trkpt lat="45.32739" lon="5.85782">
        <ele>1289.4</ele>
        <time>2025-07-12T08:17:44</time>
      </trkpt>
      <trkpt lat="45.32736" lon="5.85784">
        <ele>1289.4</ele>
        <time>2025-07-12T08:17:44</time>
      </trkpt>
      <trkpt lat="45.32735" lon="5.85784">
        <ele>1289.4</ele>
        <time>2025-07-12T08:17:45</time>
      </trkpt>
      <trkpt lat="45.32734" lon="5.85784">
        <ele>1289.4</ele>
        <time>2025-07-12T08:17:46</time>
      </trkpt>
      <trkpt lat="45.32733" lon="5.85783">
        <ele>1289.4</ele>
        <time>2025-07-12T08:17:47</time>
      </trkpt>
      <trkpt lat="45.32733" lon="5.85783">
        <ele>1289.4</ele>
        <time>2025-07-12T08:17:47</time>
      </trkpt>
      <trkpt lat="45.32732" lon="5.85783">
        <ele>1289.4</ele>
        <time>2025-07-12T08:17:50</time>
      </trkpt>
      <trkpt lat="45.32732" lon="5.85783">
        <ele>1289.4</ele>
        <time>2025-07-12T08:17:51</time>
      </trkpt>
      <trkpt lat="45.32732" lon="5.85783">
        <ele>1289.4</ele>
        <time>2025-07-12T08:17:52</time>
      </trkpt>
      <trkpt lat="45.32732" lon="5.85784">
        <ele>1289.4</ele>
        <time>2025-07-12T08:17:52</time>
      </trkpt>
      <trkpt lat="45.32732" lon="5.85784">
        <ele>1293</ele>
        <time>2025-07-12T08:17:54</time>
      </trkpt>
      <trkpt lat="45.32732" lon="5.85784">
        <ele>1293</ele>
        <time>2025-07-12T08:17:55</time>
      </trkpt>
      <trkpt lat="45.32725" lon="5.85782">
        <ele>1293</ele>
        <time>2025-07-12T08:17:58</time>
      </trkpt>
      <trkpt lat="45.32723" lon="5.85781">
        <ele>1293</ele>
        <time>2025-07-12T08:17:58</time>
      </trkpt>
      <trkpt lat="45.32722" lon="5.85781">
        <ele>1293</ele>
        <time>2025-07-12T08:17:59</time>
      </trkpt>
      <trkpt lat="45.32722" lon="5.85781">
        <ele>1293</ele>
        <time>2025-07-12T08:18:00</time>
      </trkpt>
      <trkpt lat="45.32722" lon="5.85781">
        <ele>1293</ele>
        <time>2025-07-12T08:18:00</time>
      </trkpt>
      <trkpt lat="45.32722" lon="5.85781">
        <ele>1293</ele>
        <time>2025-07-12T08:18:01</time>
      </trkpt>
      <trkpt lat="45.32722" lon="5.85781">
        <ele>1293.2</ele>
        <time>2025-07-12T08:18:02</time>
      </trkpt>
      <trkpt lat="45.32722" lon="5.85781">
        <ele>1293.2</ele>
        <time>2025-07-12T08:18:03</time>
      </trkpt>
      <trkpt lat="45.32722" lon="5.85781">
        <ele>1293.2</ele>
        <time>2025-07-12T08:18:07</time>
      </trkpt>
      <trkpt lat="45.32722" lon="5.85781">
        <ele>1293.2</ele>
        <time>2025-07-12T08:18:07</time>
      </trkpt>
      <trkpt lat="45.32722" lon="5.85781">
        <ele>1293.2</ele>
        <time>2025-07-12T08:18:09</time>
      </trkpt>
      <trkpt lat="45.32722" lon="5.85781">
        <ele>1293.2</ele>
        <time>2025-07-12T08:18:10</time>
      </trkpt>
      <trkpt lat="45.32722" lon="5.85781">
        <ele>1293.2</ele>
        <time>2025-07-12T08:18:11</time>
      </trkpt>
      <trkpt lat="45.32722" lon="5.85781">
        <ele>1293.2</ele>
        <time>2025-07-12T08:18:12</time>
      </trkpt>
      <trkpt lat="45.32721" lon="5.85781">
        <ele>1293.2</ele>
        <time>2025-07-12T08:18:14</time>
      </trkpt>
      <trkpt lat="45.32721" lon="5.85781">
        <ele>1293.2</ele>
        <time>2025-07-12T08:18:16</time>
      </trkpt>
      <trkpt lat="45.32721" lon="5.85781">
        <ele>1293.2</ele>
        <time>2025-07-12T08:18:16</time>
      </trkpt>
      <trkpt lat="45.32721" lon="5.85781">
        <ele>1293.2</ele>
        <time>2025-07-12T08:18:17</time>
      </trkpt>
      <trkpt lat="45.32721" lon="5.85781">
        <ele>1293.2</ele>
        <time>2025-07-12T08:18:18</time>
      </trkpt>
      <trkpt lat="45.32721" lon="5.85781">
        <ele>1293.2</ele>
        <time>2025-07-12T08:18:19</time>
      </trkpt>
      <trkpt lat="45.32715" lon="5.85778">
        <ele>1293.2</ele>
        <time>2025-07-12T08:18:19</time>
      </trkpt>
      <trkpt lat="45.32712" lon="5.85776">
        <ele>1293.2</ele>
        <time>2025-07-12T08:18:21</time>
      </trkpt>
      <trkpt lat="45.32712" lon="5.85775">
        <ele>1293.2</ele>
        <time>2025-07-12T08:18:22</time>
      </trkpt>
      <trkpt lat="45.32712" lon="5.85775">
        <ele>1293.2</ele>
        <time>2025-07-12T08:18:23</time>
      </trkpt>
      <trkpt lat="45.32712" lon="5.85775">
        <ele>1292.4</ele>
        <time>2025-07-12T08:18:25</time>
      </trkpt>
      <trkpt lat="45.32712" lon="5.85775">
        <ele>1292.4</ele>
        <time>2025-07-12T08:18:27</time>
      </trkpt>
      <trkpt lat="45.32712" lon="5.85775">
        <ele>1292.4</ele>
        <time>2025-07-12T08:18:29</time>
      </trkpt>
      <trkpt lat="45.32712" lon="5.85775">
        <ele>1292.4</ele>
        <time>2025-07-12T08:18:30</time>
      </trkpt>
      <trkpt lat="45.32712" lon="5.85775">
        <ele>1292.4</ele>
        <time>2025-07-12T08:18:31</time>
      </trkpt>
      <trkpt lat="45.32712" lon="5.85775">
        <ele>1292.4</ele>
        <time>2025-07-12T08:18:31</time>
      </trkpt>
      <trkpt lat="45.32712" lon="5.85774">
        <ele>1292.4</ele>
        <time>2025-07-12T08:18:32</time>
      </trkpt>
      <trkpt lat="45.32704" lon="5.85767">
        <ele>1292.4</ele>
        <time>2025-07-12T08:18:33</time>
      </trkpt>
      <trkpt lat="45.32702" lon="5.85765">
        <ele>1292.4</ele>
        <time>2025-07-12T08:18:34</time>
      </trkpt>
      <trkpt lat="45.32702" lon="5.85765">
        <ele>1292.4</ele>
        <time>2025-07-12T08:18:35</time>
      </trkpt>
      <trkpt lat="45.32702" lon="5.85764">
        <ele>1292.4</ele>
        <time>2025-07-12T08:18:36</time>
      </trkpt>
      <trkpt lat="45.32701" lon="5.85764">
        <ele>1292.4</ele>
        <time>2025-07-12T08:18:37</time>
      </trkpt>
      <trkpt lat="45.32701" lon="5.85764">
        <ele>1292.4</ele>
        <time>2025-07-12T08:18:38</time>
      </trkpt>
      <trkpt lat="45.32701" lon="5.85764">
        <ele>1292.4</ele>
        <time>2025-07-12T08:18:39</time>
      </trkpt>
      <trkpt lat="45.32701" lon="5.85764">
        <ele>1292.4</ele>
        <time>2025-07-12T08:18:40</time>
      </trkpt>
      <trkpt lat="45.32701" lon="5.85764">
        <ele>1293</ele>
        <time>2025-07-12T08:18:41</time>
      </trkpt>
      <trkpt lat="45.32702" lon="5.85764">
        <ele>1293</ele>
        <time>2025-07-12T08:18:43</time>
      </trkpt>
      <trkpt lat="45.32702" lon="5.85764">
        <ele>1293</ele>
        <time>2025-07-12T08:18:44</time>
      </trkpt>
      <trkpt lat="45.32701" lon="5.85764">
        <ele>1293</ele>
        <time>2025-07-12T08:18:45</time>
      </trkpt>
      <trkpt lat="45.32701" lon="5.85764">
        <ele>1293</ele>
        <time>2025-07-12T08:18:47</time>
      </trkpt>
      <trkpt lat="45.32701" lon="5.85764">
        <ele>1293.2</ele>
        <time>2025-07-12T08:18:48</time>
      </trkpt>
      <trkpt lat="45.32701" lon="5.85764">
        <ele>1293.2</ele>
        <time>2025-07-12T08:18:49</time>
      </trkpt>
      <trkpt lat="45.32701" lon="5.85764">
        <ele>1293.2</ele>
        <time>2025-07-12T08:18:50</time>
      </trkpt>
      <trkpt lat="45.32701" lon="5.85764">
        <ele>1293.2</ele>
        <time>2025-07-12T08:18:51</time>
      </trkpt>
      <trkpt lat="45.32694" lon="5.85758">
        <ele>1293.2</ele>
        <time>2025-07-12T08:18:52</time>
      </trkpt>
      <trkpt lat="45.32693" lon="5.85757">
        <ele>1293.2</ele>
        <time>2025-07-12T08:18:53</time>
      </trkpt>
      <trkpt lat="45.32692" lon="5.85757">
        <ele>1293.2</ele>
        <time>2025-07-12T08:18:54</time>
      </trkpt>
      <trkpt lat="45.32691" lon="5.85756">
        <ele>1293.2</ele>
        <time>2025-07-12T08:18:58</time>
      </trkpt>
      <trkpt lat="45.32689" lon="5.85754">
        <ele>1293.2</ele>
        <time>2025-07-12T08:18:59</time>
      </trkpt>
      <trkpt lat="45.32687" lon="5.85754">
        <ele>1293.2</ele>
        <time>2025-07-12T08:18:59</time>
      </trkpt>
      <trkpt lat="45.3268" lon="5.85752">
        <ele>1295.7333</ele>
        <time>2025-07-12T08:19:04</time>
      </trkpt>
      <trkpt lat="45.32678" lon="5.85748">
        <ele>1295.7333</ele>
        <time>2025-07-12T08:19:06</time>
      </trkpt>
      <trkpt lat="45.32677" lon="5.85747">
        <ele>1295.7333</ele>
        <time>2025-07-12T08:19:09</time>
      </trkpt>
      <trkpt lat="45.32677" lon="5.85746">
        <ele>1295.7333</ele>
        <time>2025-07-12T08:19:09</time>
      </trkpt>
      <trkpt lat="45.32677" lon="5.85746">
        <ele>1298.3</ele>
        <time>2025-07-12T08:19:10</time>
      </trkpt>
      <trkpt lat="45.32677" lon="5.85746">
        <ele>1298.3</ele>
        <time>2025-07-12T08:19:11</time>
      </trkpt>
      <trkpt lat="45.32677" lon="5.85746">
        <ele>1298.3</ele>
        <time>2025-07-12T08:19:12</time>
      </trkpt>
      <trkpt lat="45.32677" lon="5.85746">
        <ele>1298.3</ele>
        <time>2025-07-12T08:19:13</time>
      </trkpt>
      <trkpt lat="45.32677" lon="5.85747">
        <ele>1298.3</ele>
        <time>2025-07-12T08:19:13</time>
      </trkpt>
      <trkpt lat="45.32677" lon="5.85747">
        <ele>1298.3</ele>
        <time>2025-07-12T08:19:14</time>
      </trkpt>
      <trkpt lat="45.32677" lon="5.85747">
        <ele>1298.3</ele>
        <time>2025-07-12T08:19:14</time>
      </trkpt>
      <trkpt lat="45.32677" lon="5.85747">
        <ele>1298.3</ele>
        <time>2025-07-12T08:19:17</time>
      </trkpt>
      <trkpt lat="45.32677" lon="5.85747">
        <ele>1299</ele>
        <time>2025-07-12T08:19:18</time>
      </trkpt>
      <trkpt lat="45.32677" lon="5.85747">
        <ele>1299</ele>
        <time>2025-07-12T08:19:19</time>
      </trkpt>
      <trkpt lat="45.32677" lon="5.85747">
        <ele>1299</ele>
        <time>2025-07-12T08:19:26</time>
      </trkpt>
      <trkpt lat="45.32677" lon="5.85747">
        <ele>1299</ele>
        <time>2025-07-12T08:19:29</time>
      </trkpt>
      <trkpt lat="45.32677" lon="5.85747">
        <ele>1299</ele>
        <time>2025-07-12T08:19:30</time>
      </trkpt>
      <trkpt lat="45.32677" lon="5.85747">
        <ele>1299</ele>
        <time>2025-07-12T08:19:32</time>
      </trkpt>
      <trkpt lat="45.32677" lon="5.85747">
        <ele>1299</ele>
        <time>2025-07-12T08:19:33</time>
      </trkpt>
      <trkpt lat="45.32677" lon="5.85747">
        <ele>1299</ele>
        <time>2025-07-12T08:19:34</time>
      </trkpt>
      <trkpt lat="45.32678" lon="5.85747">
        <ele>1299</ele>
        <time>2025-07-12T08:19:35</time>
      </trkpt>
      <trkpt lat="45.32678" lon="5.85748">
        <ele>1299</ele>
        <time>2025-07-12T08:19:37</time>
      </trkpt>
      <trkpt lat="45.32681" lon="5.85755">
        <ele>1299</ele>
        <time>2025-07-12T08:19:39</time>
      </trkpt>
      <trkpt lat="45.32682" lon="5.85758">
        <ele>1299</ele>
        <time>2025-07-12T08:19:41</time>
      </trkpt>
      <trkpt lat="45.32682" lon="5.85758">
        <ele>1299</ele>
        <time>2025-07-12T08:19:42</time>
      </trkpt>
      <trkpt lat="45.32682" lon="5.85759">
        <ele>1299</ele>
        <time>2025-07-12T08:19:44</time>
      </trkpt>
      <trkpt lat="45.32683" lon="5.85759">
        <ele>1299</ele>
        <time>2025-07-12T08:19:44</time>
      </trkpt>
      <trkpt lat="45.32683" lon="5.85759">
        <ele>1299</ele>
        <time>2025-07-12T08:19:45</time>
      </trkpt>
      <trkpt lat="45.32683" lon="5.85759">
        <ele>1299</ele>
        <time>2025-07-12T08:19:46</time>
      </trkpt>
      <trkpt lat="45.32683" lon="5.85759">
        <ele>1299</ele>
        <time>2025-07-12T08:19:47</time>
      </trkpt>
      <trkpt lat="45.32683" lon="5.85759">
        <ele>1299</ele>
        <time>2025-07-12T08:19:47</time>
      </trkpt>
      <trkpt lat="45.32683" lon="5.85759">
        <ele>1299</ele>
        <time>2025-07-12T08:19:48</time>
      </trkpt>
      <trkpt lat="45.32683" lon="5.85759">
        <ele>1301.6</ele>
        <time>2025-07-12T08:19:51</time>
      </trkpt>
      <trkpt lat="45.32683" lon="5.85759">
        <ele>1301.6</ele>
        <time>2025-07-12T08:19:52</time>
      </trkpt>
      <trkpt lat="45.32683" lon="5.85759">
        <ele>1301.6</ele>
        <time>2025-07-12T08:19:53</time>
      </trkpt>
      <trkpt lat="45.32683" lon="5.85759">
        <ele>1301.6</ele>
        <time>2025-07-12T08:19:54</time>
      </trkpt>
      <trkpt lat="45.32683" lon="5.85759">
        <ele>1301.6</ele>
        <time>2025-07-12T08:19:56</time>
      </trkpt>
      <trkpt lat="45.32683" lon="5.85759">
        <ele>1301.6</ele>
        <time>2025-07-12T08:19:56</time>
      </trkpt>
      <trkpt lat="45.32683" lon="5.85759">
        <ele>1301.6</ele>
        <time>2025-07-12T08:19:57</time>
      </trkpt>
      <trkpt lat="45.32683" lon="5.85759">
        <ele>1301.6</ele>
        <time>2025-07-12T08:19:58</time>
      </trkpt>
      <trkpt lat="45.32683" lon="5.85759">
        <ele>1301.6</ele>
        <time>2025-07-12T08:19:59</time>
      </trkpt>
      <trkpt lat="45.32683" lon="5.85759">
        <ele>1301.6</ele>
        <time>2025-07-12T08:20:00</time>
      </trkpt>
      <trkpt lat="45.32683" lon="5.85759">
        <ele>1301.6</ele>
        <time>2025-07-12T08:20:01</time>
      </trkpt>
      <trkpt lat="45.32683" lon="5.85759">
        <ele>1301.6</ele>
        <time>2025-07-12T08:20:02</time>
      </trkpt>
      <trkpt lat="45.32683" lon="5.85759">
        <ele>1301.6</ele>
        <time>2025-07-12T08:20:03</time>
      </trkpt>
      <trkpt lat="45.32683" lon="5.85759">
        <ele>1301.6</ele>
        <time>2025-07-12T08:20:04</time>
      </trkpt>
      <trkpt lat="45.32683" lon="5.85759">
        <ele>1301.6</ele>
        <time>2025-07-12T08:20:06</time>
      </trkpt>
      <trkpt lat="45.32683" lon="5.85759">
        <ele>1301.6</ele>
        <time>2025-07-12T08:20:06</time>
      </trkpt>
      <trkpt lat="45.32683" lon="5.85759">
        <ele>1301.6</ele>
        <time>2025-07-12T08:20:07</time>
      </trkpt>
      <trkpt lat="45.32683" lon="5.85759">
        <ele>1301.6</ele>
        <time>2025-07-12T08:20:08</time>
      </trkpt>
      <trkpt lat="45.32683" lon="5.85759">
        <ele>1301.6</ele>
        <time>2025-07-12T08:20:10</time>
      </trkpt>
      <trkpt lat="45.32683" lon="5.8576">
        <ele>1301.6</ele>
        <time>2025-07-12T08:20:11</time>
      </trkpt>
      <trkpt lat="45.32683" lon="5.8576">
        <ele>1301.6</ele>
        <time>2025-07-12T08:20:12</time>
      </trkpt>
      <trkpt lat="45.32683" lon="5.8576">
        <ele>1301.6</ele>
        <time>2025-07-12T08:20:13</time>
      </trkpt>
      <trkpt lat="45.32681" lon="5.8576">
        <ele>1301.6</ele>
        <time>2025-07-12T08:20:14</time>
      </trkpt>
      <trkpt lat="45.3268" lon="5.8576">
        <ele>1301.6</ele>
        <time>2025-07-12T08:20:15</time>
      </trkpt>
      <trkpt lat="45.32678" lon="5.8576">
        <ele>1301.6</ele>
        <time>2025-07-12T08:20:16</time>
      </trkpt>
      <trkpt lat="45.32677" lon="5.8576">
        <ele>1301.6</ele>
        <time>2025-07-12T08:20:17</time>
      </trkpt>
      <trkpt lat="45.32675" lon="5.8576">
        <ele>1301.6</ele>
        <time>2025-07-12T08:20:18</time>
      </trkpt>
      <trkpt lat="45.32674" lon="5.8576">
        <ele>1301.6</ele>
        <time>2025-07-12T08:20:20</time>
      </trkpt>
      <trkpt lat="45.32674" lon="5.8576">
        <ele>1301.6</ele>
        <time>2025-07-12T08:20:20</time>
      </trkpt>
      <trkpt lat="45.32674" lon="5.8576">
        <ele>1302.4</ele>
        <time>2025-07-12T08:20:23</time>
      </trkpt>
      <trkpt lat="45.32673" lon="5.8576">
        <ele>1302.4</ele>
        <time>2025-07-12T08:20:24</time>
      </trkpt>
      <trkpt lat="45.32673" lon="5.8576">
        <ele>1302.4</ele>
        <time>2025-07-12T08:20:29</time>
      </trkpt>
      <trkpt lat="45.32673" lon="5.8576">
        <ele>1307.6</ele>
        <time>2025-07-12T08:20:30</time>
      </trkpt>
      <trkpt lat="45.32673" lon="5.8576">
        <ele>1307.6</ele>
        <time>2025-07-12T08:20:31</time>
      </trkpt>
      <trkpt lat="45.32673" lon="5.8576">
        <ele>1307.6</ele>
        <time>2025-07-12T08:20:32</time>
      </trkpt>
      <trkpt lat="45.32673" lon="5.8576">
        <ele>1308</ele>
        <time>2025-07-12T08:20:37</time>
      </trkpt>
      <trkpt lat="45.32668" lon="5.85763">
        <ele>1308</ele>
        <time>2025-07-12T08:20:41</time>
      </trkpt>
      <trkpt lat="45.32666" lon="5.85765">
        <ele>1308</ele>
        <time>2025-07-12T08:20:42</time>
      </trkpt>
      <trkpt lat="45.32666" lon="5.85766">
        <ele>1308</ele>
        <time>2025-07-12T08:20:42</time>
      </trkpt>
      <trkpt lat="45.32665" lon="5.85768">
        <ele>1308</ele>
        <time>2025-07-12T08:20:45</time>
      </trkpt>
      <trkpt lat="45.32665" lon="5.8577">
        <ele>1308</ele>
        <time>2025-07-12T08:20:48</time>
      </trkpt>
      <trkpt lat="45.32665" lon="5.8577">
        <ele>1308</ele>
        <time>2025-07-12T08:20:49</time>
      </trkpt>
      <trkpt lat="45.32665" lon="5.8577">
        <ele>1308</ele>
        <time>2025-07-12T08:20:51</time>
      </trkpt>
      <trkpt lat="45.32665" lon="5.8577">
        <ele>1308</ele>
        <time>2025-07-12T08:20:52</time>
      </trkpt>
      <trkpt lat="45.32665" lon="5.8577">
        <ele>1308</ele>
        <time>2025-07-12T08:20:52</time>
      </trkpt>
      <trkpt lat="45.32665" lon="5.8577">
        <ele>1308</ele>
        <time>2025-07-12T08:20:53</time>
      </trkpt>
      <trkpt lat="45.32665" lon="5.8577">
        <ele>1308</ele>
        <time>2025-07-12T08:20:55</time>
      </trkpt>
      <trkpt lat="45.32665" lon="5.85771">
        <ele>1311.1</ele>
        <time>2025-07-12T08:20:56</time>
      </trkpt>
      <trkpt lat="45.32663" lon="5.85772">
        <ele>1311.1</ele>
        <time>2025-07-12T08:20:58</time>
      </trkpt>
      <trkpt lat="45.32656" lon="5.85777">
        <ele>1311.5</ele>
        <time>2025-07-12T08:21:05</time>
      </trkpt>
      <trkpt lat="45.32656" lon="5.85778">
        <ele>1311.5</ele>
        <time>2025-07-12T08:21:08</time>
      </trkpt>
      <trkpt lat="45.32656" lon="5.85778">
        <ele>1311.5</ele>
        <time>2025-07-12T08:21:09</time>
      </trkpt>
      <trkpt lat="45.32651" lon="5.85784">
        <ele>1311.5</ele>
        <time>2025-07-12T08:21:12</time>
      </trkpt>
      <trkpt lat="45.32649" lon="5.85787">
        <ele>1311.5</ele>
        <time>2025-07-12T08:21:13</time>
      </trkpt>
      <trkpt lat="45.32648" lon="5.85788">
        <ele>1311.9</ele>
        <time>2025-07-12T08:21:13</time>
      </trkpt>
      <trkpt lat="45.32648" lon="5.85788">
        <ele>1311.9</ele>
        <time>2025-07-12T08:21:15</time>
      </trkpt>
      <trkpt lat="45.32648" lon="5.85788">
        <ele>1311.9</ele>
        <time>2025-07-12T08:21:17</time>
      </trkpt>
      <trkpt lat="45.32648" lon="5.85788">
        <ele>1312.1</ele>
        <time>2025-07-12T08:21:22</time>
      </trkpt>
      <trkpt lat="45.32648" lon="5.85788">
        <ele>1312.1</ele>
        <time>2025-07-12T08:21:22</time>
      </trkpt>
      <trkpt lat="45.32648" lon="5.85788">
        <ele>1312.1</ele>
        <time>2025-07-12T08:21:24</time>
      </trkpt>
      <trkpt lat="45.32648" lon="5.85788">
        <ele>1312.1</ele>
        <time>2025-07-12T08:21:26</time>
      </trkpt>
      <trkpt lat="45.32648" lon="5.85788">
        <ele>1312.1</ele>
        <time>2025-07-12T08:21:29</time>
      </trkpt>
      <trkpt lat="45.32648" lon="5.85788">
        <ele>1312.1</ele>
        <time>2025-07-12T08:21:29</time>
      </trkpt>
      <trkpt lat="45.32648" lon="5.85788">
        <ele>1312.1</ele>
        <time>2025-07-12T08:21:30</time>
      </trkpt>
      <trkpt lat="45.32648" lon="5.85789">
        <ele>1312.1</ele>
        <time>2025-07-12T08:21:31</time>
      </trkpt>
      <trkpt lat="45.32639" lon="5.8579">
        <ele>1312.1</ele>
        <time>2025-07-12T08:21:32</time>
      </trkpt>
      <trkpt lat="45.32635" lon="5.85791">
        <ele>1312.1</ele>
        <time>2025-07-12T08:21:33</time>
      </trkpt>
      <trkpt lat="45.32635" lon="5.85791">
        <ele>1311.8</ele>
        <time>2025-07-12T08:21:40</time>
      </trkpt>
      <trkpt lat="45.32635" lon="5.85791">
        <ele>1311.8</ele>
        <time>2025-07-12T08:21:41</time>
      </trkpt>
      <trkpt lat="45.32635" lon="5.85791">
        <ele>1311.8</ele>
        <time>2025-07-12T08:21:42</time>
      </trkpt>
      <trkpt lat="45.32635" lon="5.85791">
        <ele>1311.8</ele>
        <time>2025-07-12T08:21:42</time>
      </trkpt>
      <trkpt lat="45.32635" lon="5.85791">
        <ele>1311.8</ele>
        <time>2025-07-12T08:21:43</time>
      </trkpt>
      <trkpt lat="45.32635" lon="5.85791">
        <ele>1311.8</ele>
        <time>2025-07-12T08:21:44</time>
      </trkpt>
      <trkpt lat="45.32635" lon="5.85791">
        <ele>1311.8</ele>
        <time>2025-07-12T08:21:47</time>
      </trkpt>
      <trkpt lat="45.32635" lon="5.85791">
        <ele>1311.8</ele>
        <time>2025-07-12T08:21:53</time>
      </trkpt>
      <trkpt lat="45.32635" lon="5.85791">
        <ele>1311.8</ele>
        <time>2025-07-12T08:22:03</time>
      </trkpt>
      <trkpt lat="45.32635" lon="5.85791">
        <ele>1311.8</ele>
        <time>2025-07-12T08:22:03</time>
      </trkpt>
      <trkpt lat="45.32634" lon="5.85791">
        <ele>1312.3</ele>
        <time>2025-07-12T08:22:17</time>
      </trkpt>
      <trkpt lat="45.32634" lon="5.85792">
        <ele>1312.3</ele>
        <time>2025-07-12T08:22:20</time>
      </trkpt>
      <trkpt lat="45.32629" lon="5.85794">
        <ele>1312.3</ele>
        <time>2025-07-12T08:22:21</time>
      </trkpt>
      <trkpt lat="45.32625" lon="5.85796">
        <ele>1312.3</ele>
        <time>2025-07-12T08:22:23</time>
      </trkpt>
      <trkpt lat="45.32625" lon="5.85796">
        <ele>1312.3</ele>
        <time>2025-07-12T08:22:25</time>
      </trkpt>
      <trkpt lat="45.32617" lon="5.85799">
        <ele>1312.3</ele>
        <time>2025-07-12T08:22:31</time>
      </trkpt>
      <trkpt lat="45.32615" lon="5.85801">
        <ele>1312.3</ele>
        <time>2025-07-12T08:22:32</time>
      </trkpt>
      <trkpt lat="45.32614" lon="5.85801">
        <ele>1312.3</ele>
        <time>2025-07-12T08:22:33</time>
      </trkpt>
      <trkpt lat="45.32613" lon="5.85803">
        <ele>1312.3</ele>
        <time>2025-07-12T08:22:35</time>
      </trkpt>
      <trkpt lat="45.32613" lon="5.85803">
        <ele>1312.3</ele>
        <time>2025-07-12T08:22:36</time>
      </trkpt>
      <trkpt lat="45.32613" lon="5.85803">
        <ele>1312.3</ele>
        <time>2025-07-12T08:22:37</time>
      </trkpt>
      <trkpt lat="45.32614" lon="5.85803">
        <ele>1315.9</ele>
        <time>2025-07-12T08:22:41</time>
      </trkpt>
      <trkpt lat="45.32614" lon="5.85803">
        <ele>1315.9</ele>
        <time>2025-07-12T08:22:42</time>
      </trkpt>
      <trkpt lat="45.32614" lon="5.85803">
        <ele>1315.9</ele>
        <time>2025-07-12T08:22:43</time>
      </trkpt>
      <trkpt lat="45.32614" lon="5.85803">
        <ele>1315.9</ele>
        <time>2025-07-12T08:22:44</time>
      </trkpt>
      <trkpt lat="45.32614" lon="5.85803">
        <ele>1315.9</ele>
        <time>2025-07-12T08:22:45</time>
      </trkpt>
      <trkpt lat="45.32614" lon="5.85803">
        <ele>1315.9</ele>
        <time>2025-07-12T08:22:46</time>
      </trkpt>
      <trkpt lat="45.32614" lon="5.85804">
        <ele>1315.9</ele>
        <time>2025-07-12T08:22:49</time>
      </trkpt>
      <trkpt lat="45.32614" lon="5.85804">
        <ele>1315.9</ele>
        <time>2025-07-12T08:22:50</time>
      </trkpt>
      <trkpt lat="45.32614" lon="5.85803">
        <ele>1315.9</ele>
        <time>2025-07-12T08:22:51</time>
      </trkpt>
      <trkpt lat="45.32614" lon="5.85803">
        <ele>1315.9</ele>
        <time>2025-07-12T08:22:52</time>
      </trkpt>
      <trkpt lat="45.32614" lon="5.85803">
        <ele>1315.9</ele>
        <time>2025-07-12T08:22:54</time>
      </trkpt>
      <trkpt lat="45.32613" lon="5.85803">
        <ele>1315.9</ele>
        <time>2025-07-12T08:22:56</time>
      </trkpt>
      <trkpt lat="45.32608" lon="5.85797">
        <ele>1318.2333</ele>
        <time>2025-07-12T08:22:59</time>
      </trkpt>
      <trkpt lat="45.32607" lon="5.85796">
        <ele>1318.2333</ele>
        <time>2025-07-12T08:23:01</time>
      </trkpt>
      <trkpt lat="45.32607" lon="5.85795">
        <ele>1318.2333</ele>
        <time>2025-07-12T08:23:03</time>
      </trkpt>
      <trkpt lat="45.32606" lon="5.85795">
        <ele>1318.2333</ele>
        <time>2025-07-12T08:23:05</time>
      </trkpt>
      <trkpt lat="45.32606" lon="5.85795">
        <ele>1320</ele>
        <time>2025-07-12T08:23:07</time>
      </trkpt>
      <trkpt lat="45.32606" lon="5.85795">
        <ele>1320</ele>
        <time>2025-07-12T08:23:13</time>
      </trkpt>
      <trkpt lat="45.32606" lon="5.85795">
        <ele>1320</ele>
        <time>2025-07-12T08:23:19</time>
      </trkpt>
      <trkpt lat="45.32606" lon="5.85795">
        <ele>1320</ele>
        <time>2025-07-12T08:23:21</time>
      </trkpt>
      <trkpt lat="45.32606" lon="5.85795">
        <ele>1320</ele>
        <time>2025-07-12T08:23:21</time>
      </trkpt>
      <trkpt lat="45.32606" lon="5.85795">
        <ele>1320</ele>
        <time>2025-07-12T08:23:22</time>
      </trkpt>
      <trkpt lat="45.32606" lon="5.85795">
        <ele>1320</ele>
        <time>2025-07-12T08:23:23</time>
      </trkpt>
      <trkpt lat="45.32606" lon="5.85795">
        <ele>1320</ele>
        <time>2025-07-12T08:23:23</time>
      </trkpt>
      <trkpt lat="45.32605" lon="5.85795">
        <ele>1320</ele>
        <time>2025-07-12T08:23:24</time>
      </trkpt>
      <trkpt lat="45.32605" lon="5.85795">
        <ele>1320</ele>
        <time>2025-07-12T08:23:26</time>
      </trkpt>
      <trkpt lat="45.32605" lon="5.85795">
        <ele>1320</ele>
        <time>2025-07-12T08:23:27</time>
      </trkpt>
      <trkpt lat="45.32605" lon="5.85794">
        <ele>1320</ele>
        <time>2025-07-12T08:23:29</time>
      </trkpt>
      <trkpt lat="45.32602" lon="5.85789">
        <ele>1320</ele>
        <time>2025-07-12T08:23:31</time>
      </trkpt>
      <trkpt lat="45.32602" lon="5.85789">
        <ele>1320</ele>
        <time>2025-07-12T08:23:31</time>
      </trkpt>
      <trkpt lat="45.326" lon="5.85788">
        <ele>1320</ele>
        <time>2025-07-12T08:23:34</time>
      </trkpt>
      <trkpt lat="45.326" lon="5.85788">
        <ele>1320</ele>
        <time>2025-07-12T08:23:35</time>
      </trkpt>
      <trkpt lat="45.32599" lon="5.85788">
        <ele>1320</ele>
        <time>2025-07-12T08:23:36</time>
      </trkpt>
      <trkpt lat="45.32597" lon="5.85785">
        <ele>1320</ele>
        <time>2025-07-12T08:23:38</time>
      </trkpt>
      <trkpt lat="45.32596" lon="5.85784">
        <ele>1320</ele>
        <time>2025-07-12T08:23:39</time>
      </trkpt>
      <trkpt lat="45.32595" lon="5.85784">
        <ele>1320</ele>
        <time>2025-07-12T08:23:40</time>
      </trkpt>
      <trkpt lat="45.32595" lon="5.85784">
        <ele>1320</ele>
        <time>2025-07-12T08:23:41</time>
      </trkpt>
      <trkpt lat="45.32595" lon="5.85782">
        <ele>1324.1</ele>
        <time>2025-07-12T08:23:43</time>
      </trkpt>
      <trkpt lat="45.32595" lon="5.85782">
        <ele>1324.1</ele>
        <time>2025-07-12T08:23:44</time>
      </trkpt>
      <trkpt lat="45.32595" lon="5.85781">
        <ele>1324.1</ele>
        <time>2025-07-12T08:23:45</time>
      </trkpt>
      <trkpt lat="45.32596" lon="5.8578">
        <ele>1324.1</ele>
        <time>2025-07-12T08:23:46</time>
      </trkpt>
      <trkpt lat="45.32596" lon="5.85779">
        <ele>1324.1</ele>
        <time>2025-07-12T08:23:47</time>
      </trkpt>
      <trkpt lat="45.32598" lon="5.85778">
        <ele>1324.1</ele>
        <time>2025-07-12T08:23:48</time>
      </trkpt>
      <trkpt lat="45.32599" lon="5.85778">
        <ele>1324.1</ele>
        <time>2025-07-12T08:23:49</time>
      </trkpt>
      <trkpt lat="45.326" lon="5.85778">
        <ele>1329.5</ele>
        <time>2025-07-12T08:23:52</time>
      </trkpt>
      <trkpt lat="45.32599" lon="5.85777">
        <ele>1329.5</ele>
        <time>2025-07-12T08:23:54</time>
      </trkpt>
      <trkpt lat="45.32608" lon="5.85761">
        <ele>1334</ele>
        <time>2025-07-12T08:24:05</time>
      </trkpt>
      <trkpt lat="45.32608" lon="5.85761">
        <ele>1334</ele>
        <time>2025-07-12T08:24:06</time>
      </trkpt>
      <trkpt lat="45.32617" lon="5.85757">
        <ele>1335</ele>
        <time>2025-07-12T08:24:10</time>
      </trkpt>
      <trkpt lat="45.32621" lon="5.85755">
        <ele>1335</ele>
        <time>2025-07-12T08:24:11</time>
      </trkpt>
      <trkpt lat="45.32628" lon="5.85752">
        <ele>1349.3667</ele>
        <time>2025-07-12T08:24:28</time>
      </trkpt>
      <trkpt lat="45.32627" lon="5.85756">
        <ele>1349.7</ele>
        <time>2025-07-12T08:24:30</time>
      </trkpt>
      <trkpt lat="45.32626" lon="5.85758">
        <ele>1349.7</ele>
        <time>2025-07-12T08:24:31</time>
      </trkpt>
      <trkpt lat="45.32626" lon="5.85757">
        <ele>1349.7</ele>
        <time>2025-07-12T08:24:31</time>
      </trkpt>
      <trkpt lat="45.32626" lon="5.85757">
        <ele>1349.7</ele>
        <time>2025-07-12T08:24:32</time>
      </trkpt>
      <trkpt lat="45.32627" lon="5.85758">
        <ele>1349.7</ele>
        <time>2025-07-12T08:24:34</time>
      </trkpt>
      <trkpt lat="45.32626" lon="5.85758">
        <ele>1349.7</ele>
        <time>2025-07-12T08:24:36</time>
      </trkpt>
      <trkpt lat="45.32626" lon="5.85758">
        <ele>1355.5667</ele>
        <time>2025-07-12T08:24:38</time>
      </trkpt>
      <trkpt lat="45.32626" lon="5.85758">
        <ele>1355.5667</ele>
        <time>2025-07-12T08:24:38</time>
      </trkpt>
      <trkpt lat="45.32627" lon="5.85758">
        <ele>1355.5667</ele>
        <time>2025-07-12T08:24:40</time>
      </trkpt>
      <trkpt lat="45.32627" lon="5.85758">
        <ele>1355.5667</ele>
        <time>2025-07-12T08:24:41</time>
      </trkpt>
      <trkpt lat="45.32627" lon="5.85758">
        <ele>1355.5667</ele>
        <time>2025-07-12T08:24:42</time>
      </trkpt>
      <trkpt lat="45.32626" lon="5.85758">
        <ele>1355.5667</ele>
        <time>2025-07-12T08:24:43</time>
      </trkpt>
      <trkpt lat="45.32626" lon="5.85758">
        <ele>1355.5667</ele>
        <time>2025-07-12T08:24:44</time>
      </trkpt>
      <trkpt lat="45.32626" lon="5.85759">
        <ele>1355.5667</ele>
        <time>2025-07-12T08:24:45</time>
      </trkpt>
      <trkpt lat="45.32626" lon="5.85759">
        <ele>1355.8</ele>
        <time>2025-07-12T08:24:46</time>
      </trkpt>
      <trkpt lat="45.32626" lon="5.85759">
        <ele>1355.8</ele>
        <time>2025-07-12T08:24:47</time>
      </trkpt>
      <trkpt lat="45.32626" lon="5.85763">
        <ele>1355.8</ele>
        <time>2025-07-12T08:24:48</time>
      </trkpt>
      <trkpt lat="45.32626" lon="5.85764">
        <ele>1355.8</ele>
        <time>2025-07-12T08:24:49</time>
      </trkpt>
      <trkpt lat="45.32626" lon="5.85766">
        <ele>1355.8</ele>
        <time>2025-07-12T08:24:50</time>
      </trkpt>
      <trkpt lat="45.32626" lon="5.85768">
        <ele>1355.8</ele>
        <time>2025-07-12T08:24:51</time>
      </trkpt>
      <trkpt lat="45.32626" lon="5.8577">
        <ele>1355.8</ele>
        <time>2025-07-12T08:24:52</time>
      </trkpt>
      <trkpt lat="45.32623" lon="5.85777">
        <ele>1358.6</ele>
        <time>2025-07-12T08:24:55</time>
      </trkpt>
      <trkpt lat="45.32622" lon="5.85779">
        <ele>1358.6</ele>
        <time>2025-07-12T08:24:56</time>
      </trkpt>
      <trkpt lat="45.32621" lon="5.85781">
        <ele>1358.6</ele>
        <time>2025-07-12T08:24:57</time>
      </trkpt>
      <trkpt lat="45.3262" lon="5.85786">
        <ele>1358.6</ele>
        <time>2025-07-12T08:25:00</time>
      </trkpt>
      <trkpt lat="45.32619" lon="5.85787">
        <ele>1358.6</ele>
        <time>2025-07-12T08:25:00</time>
      </trkpt>
      <trkpt lat="45.32618" lon="5.85788">
        <ele>1358.6</ele>
        <time>2025-07-12T08:25:01</time>
      </trkpt>
      <trkpt lat="45.32618" lon="5.85789">
        <ele>1358.6</ele>
        <time>2025-07-12T08:25:02</time>
      </trkpt>
      <trkpt lat="45.32617" lon="5.8579">
        <ele>1358.5</ele>
        <time>2025-07-12T08:25:03</time>
      </trkpt>
      <trkpt lat="45.32617" lon="5.8579">
        <ele>1358.5</ele>
        <time>2025-07-12T08:25:04</time>
      </trkpt>
      <trkpt lat="45.32616" lon="5.8579">
        <ele>1358.5</ele>
        <time>2025-07-12T08:25:05</time>
      </trkpt>
      <trkpt lat="45.32616" lon="5.8579">
        <ele>1358.5</ele>
        <time>2025-07-12T08:25:05</time>
      </trkpt>
      <trkpt lat="45.32616" lon="5.8579">
        <ele>1358.5</ele>
        <time>2025-07-12T08:25:06</time>
      </trkpt>
      <trkpt lat="45.32616" lon="5.8579">
        <ele>1358.5</ele>
        <time>2025-07-12T08:25:09</time>
      </trkpt>
      <trkpt lat="45.32616" lon="5.8579">
        <ele>1358.5</ele>
        <time>2025-07-12T08:25:11</time>
      </trkpt>
      <trkpt lat="45.32616" lon="5.8579">
        <ele>1358.5</ele>
        <time>2025-07-12T08:25:13</time>
      </trkpt>
      <trkpt lat="45.32617" lon="5.85792">
        <ele>1358.5</ele>
        <time>2025-07-12T08:25:15</time>
      </trkpt>
      <trkpt lat="45.32617" lon="5.85793">
        <ele>1358.5</ele>
        <time>2025-07-12T08:25:15</time>
      </trkpt>
      <trkpt lat="45.32635" lon="5.85755">
        <ele>1358.5</ele>
        <time>2025-07-12T08:26:13</time>
      </trkpt>
      <trkpt lat="45.32627" lon="5.85767">
        <ele>1358.5</ele>
        <time>2025-07-12T08:26:14</time>
      </trkpt>
      <trkpt lat="45.32624" lon="5.85765">
        <ele>1358.5</ele>
        <time>2025-07-12T08:26:16</time>
      </trkpt>
      <trkpt lat="45.32622" lon="5.85762">
        <ele>1358.5</ele>
        <time>2025-07-12T08:26:17</time>
      </trkpt>
      <trkpt lat="45.32618" lon="5.85755">
        <ele>1358.5</ele>
        <time>2025-07-12T08:26:18</time>
      </trkpt>
      <trkpt lat="45.32615" lon="5.85752">
        <ele>1347.3</ele>
        <time>2025-07-12T08:26:20</time>
      </trkpt>
      <trkpt lat="45.32614" lon="5.85752">
        <ele>1347.3</ele>
        <time>2025-07-12T08:26:21</time>
      </trkpt>
      <trkpt lat="45.32613" lon="5.85752">
        <ele>1347.3</ele>
        <time>2025-07-12T08:26:22</time>
      </trkpt>
      <trkpt lat="45.32612" lon="5.85752">
        <ele>1347.3</ele>
        <time>2025-07-12T08:26:23</time>
      </trkpt>
      <trkpt lat="45.32611" lon="5.85753">
        <ele>1347.3</ele>
        <time>2025-07-12T08:26:25</time>
      </trkpt>
      <trkpt lat="45.3261" lon="5.85753">
        <ele>1347.3</ele>
        <time>2025-07-12T08:26:28</time>
      </trkpt>
      <trkpt lat="45.3261" lon="5.85753">
        <ele>1345</ele>
        <time>2025-07-12T08:26:31</time>
      </trkpt>
      <trkpt lat="45.3261" lon="5.85753">
        <ele>1345</ele>
        <time>2025-07-12T08:26:32</time>
      </trkpt>
      <trkpt lat="45.3261" lon="5.85753">
        <ele>1345</ele>
        <time>2025-07-12T08:26:33</time>
      </trkpt>
      <trkpt lat="45.3261" lon="5.85753">
        <ele>1345</ele>
        <time>2025-07-12T08:26:34</time>
      </trkpt>
      <trkpt lat="45.3261" lon="5.85753">
        <ele>1345</ele>
        <time>2025-07-12T08:26:36</time>
      </trkpt>
      <trkpt lat="45.32599" lon="5.85768">
        <ele>1345.2</ele>
        <time>2025-07-12T08:26:53</time>
      </trkpt>
      <trkpt lat="45.32592" lon="5.8577">
        <ele>1345.2</ele>
        <time>2025-07-12T08:26:54</time>
      </trkpt>
      <trkpt lat="45.3259" lon="5.85771">
        <ele>1338.7333</ele>
        <time>2025-07-12T08:26:59</time>
      </trkpt>
      <trkpt lat="45.32598" lon="5.8576">
        <ele>1338.7333</ele>
        <time>2025-07-12T08:27:07</time>
      </trkpt>
      <trkpt lat="45.32599" lon="5.85763">
        <ele>1338.7333</ele>
        <time>2025-07-12T08:27:08</time>
      </trkpt>
      <trkpt lat="45.32599" lon="5.85763">
        <ele>1337.9</ele>
        <time>2025-07-12T08:27:13</time>
      </trkpt>
      <trkpt lat="45.32605" lon="5.85759">
        <ele>1337.9</ele>
        <time>2025-07-12T08:27:18</time>
      </trkpt>
      <trkpt lat="45.32608" lon="5.85753">
        <ele>1338.5333</ele>
        <time>2025-07-12T08:27:22</time>
      </trkpt>
      <trkpt lat="45.32605" lon="5.8576">
        <ele>1338.5333</ele>
        <time>2025-07-12T08:27:24</time>
      </trkpt>
      <trkpt lat="45.32605" lon="5.85759">
        <ele>1338.5333</ele>
        <time>2025-07-12T08:27:26</time>
      </trkpt>
      <trkpt lat="45.32606" lon="5.85758">
        <ele>1338.5333</ele>
        <time>2025-07-12T08:27:28</time>
      </trkpt>
      <trkpt lat="45.32607" lon="5.85757">
        <ele>1341.5</ele>
        <time>2025-07-12T08:27:29</time>
      </trkpt>
      <trkpt lat="45.32607" lon="5.85756">
        <ele>1341.5</ele>
        <time>2025-07-12T08:27:30</time>
      </trkpt>
      <trkpt lat="45.32607" lon="5.85755">
        <ele>1341.5</ele>
        <time>2025-07-12T08:27:32</time>
      </trkpt>
      <trkpt lat="45.32607" lon="5.85755">
        <ele>1341.5</ele>
        <time>2025-07-12T08:27:34</time>
      </trkpt>
      <trkpt lat="45.32608" lon="5.85755">
        <ele>1341.5</ele>
        <time>2025-07-12T08:27:35</time>
      </trkpt>
      <trkpt lat="45.32608" lon="5.85754">
        <ele>1341.5</ele>
        <time>2025-07-12T08:27:36</time>
      </trkpt>
      <trkpt lat="45.32608" lon="5.85754">
        <ele>1341.5</ele>
        <time>2025-07-12T08:27:37</time>
      </trkpt>
      <trkpt lat="45.32608" lon="5.85754">
        <ele>1341.5</ele>
        <time>2025-07-12T08:27:38</time>
      </trkpt>
      <trkpt lat="45.32608" lon="5.85754">
        <ele>1341.5</ele>
        <time>2025-07-12T08:27:39</time>
      </trkpt>
      <trkpt lat="45.32608" lon="5.85753">
        <ele>1341.5</ele>
        <time>2025-07-12T08:27:41</time>
      </trkpt>
      <trkpt lat="45.32608" lon="5.85753">
        <ele>1341.5</ele>
        <time>2025-07-12T08:27:42</time>
      </trkpt>
      <trkpt lat="45.32608" lon="5.85753">
        <ele>1341.5</ele>
        <time>2025-07-12T08:27:43</time>
      </trkpt>
      <trkpt lat="45.32608" lon="5.85754">
        <ele>1341.5</ele>
        <time>2025-07-12T08:27:44</time>
      </trkpt>
      <trkpt lat="45.32608" lon="5.85753">
        <ele>1341.5</ele>
        <time>2025-07-12T08:27:45</time>
      </trkpt>
      <trkpt lat="45.32607" lon="5.85753">
        <ele>1341.5</ele>
        <time>2025-07-12T08:27:46</time>
      </trkpt>
      <trkpt lat="45.32607" lon="5.85753">
        <ele>1341.5</ele>
        <time>2025-07-12T08:27:47</time>
      </trkpt>
      <trkpt lat="45.32608" lon="5.85754">
        <ele>1348.4</ele>
        <time>2025-07-12T08:27:49</time>
      </trkpt>
      <trkpt lat="45.32616" lon="5.85769">
        <ele>1348.4</ele>
        <time>2025-07-12T08:28:06</time>
      </trkpt>
      <trkpt lat="45.32615" lon="5.85772">
        <ele>1348.1</ele>
        <time>2025-07-12T08:28:09</time>
      </trkpt>
      <trkpt lat="45.32605" lon="5.85775">
        <ele>1347.8</ele>
        <time>2025-07-12T08:28:58</time>
      </trkpt>
      <trkpt lat="45.32604" lon="5.85775">
        <ele>1341.8</ele>
        <time>2025-07-12T08:28:59</time>
      </trkpt>
      <trkpt lat="45.32604" lon="5.85776">
        <ele>1341.6</ele>
        <time>2025-07-12T08:29:42</time>
      </trkpt>
      <trkpt lat="45.32604" lon="5.85776">
        <ele>1341.6</ele>
        <time>2025-07-12T08:30:13</time>
      </trkpt>
      <trkpt lat="45.32605" lon="5.85777">
        <ele>1338.9</ele>
        <time>2025-07-12T08:31:00</time>
      </trkpt>
      <trkpt lat="45.32605" lon="5.85777">
        <ele>1338.9</ele>
        <time>2025-07-12T08:32:14</time>
      </trkpt>
      <trkpt lat="45.32605" lon="5.85777">
        <ele>1338.9</ele>
        <time>2025-07-12T08:32:26</time>
      </trkpt>
      <trkpt lat="45.32605" lon="5.85777">
        <ele>1338.9</ele>
        <time>2025-07-12T08:32:28</time>
      </trkpt>
      <trkpt lat="45.32605" lon="5.85777">
        <ele>1338.9</ele>
        <time>2025-07-12T08:32:29</time>
      </trkpt>
      <trkpt lat="45.32605" lon="5.85777">
        <ele>1338.9</ele>
        <time>2025-07-12T08:32:30</time>
      </trkpt>
      <trkpt lat="45.32605" lon="5.85777">
        <ele>1338.9</ele>
        <time>2025-07-12T08:32:31</time>
      </trkpt>
      <trkpt lat="45.32605" lon="5.85777">
        <ele>1338.9</ele>
        <time>2025-07-12T08:32:34</time>
      </trkpt>
      <trkpt lat="45.32605" lon="5.85777">
        <ele>1338.9</ele>
        <time>2025-07-12T08:32:35</time>
      </trkpt>
      <trkpt lat="45.32605" lon="5.85777">
        <ele>1338.9</ele>
        <time>2025-07-12T08:32:36</time>
      </trkpt>
      <trkpt lat="45.32605" lon="5.85777">
        <ele>1338.9</ele>
        <time>2025-07-12T08:32:38</time>
      </trkpt>
      <trkpt lat="45.32605" lon="5.85777">
        <ele>1338.9</ele>
        <time>2025-07-12T08:32:39</time>
      </trkpt>
      <trkpt lat="45.32605" lon="5.85777">
        <ele>1338.9</ele>
        <time>2025-07-12T08:32:41</time>
      </trkpt>
      <trkpt lat="45.32605" lon="5.85777">
        <ele>1338.9</ele>
        <time>2025-07-12T08:32:47</time>
      </trkpt>
      <trkpt lat="45.32605" lon="5.85777">
        <ele>1338.9</ele>
        <time>2025-07-12T08:32:54</time>
      </trkpt>
      <trkpt lat="45.32605" lon="5.85777">
        <ele>1338.9</ele>
        <time>2025-07-12T08:32:56</time>
      </trkpt>
      <trkpt lat="45.32605" lon="5.85776">
        <ele>1341.1</ele>
        <time>2025-07-12T08:35:01</time>
      </trkpt>
      <trkpt lat="45.32605" lon="5.85776">
        <ele>1341.1</ele>
        <time>2025-07-12T08:35:49</time>
      </trkpt>
      <trkpt lat="45.32605" lon="5.85776">
        <ele>1341.1</ele>
        <time>2025-07-12T08:36:39</time>
      </trkpt>
      <trkpt lat="45.32603" lon="5.85763">
        <ele>1338.6</ele>
        <time>2025-07-12T08:37:09</time>
      </trkpt>
      <trkpt lat="45.32603" lon="5.85763">
        <ele>1338.6</ele>
        <time>2025-07-12T08:37:17</time>
      </trkpt>
      <trkpt lat="45.32603" lon="5.85763">
        <ele>1338.6</ele>
        <time>2025-07-12T08:37:19</time>
      </trkpt>
      <trkpt lat="45.32603" lon="5.85763">
        <ele>1338.6</ele>
        <time>2025-07-12T08:37:20</time>
      </trkpt>
      <trkpt lat="45.32603" lon="5.85763">
        <ele>1338.6</ele>
        <time>2025-07-12T08:37:21</time>
      </trkpt>
      <trkpt lat="45.32603" lon="5.85763">
        <ele>1338.6</ele>
        <time>2025-07-12T08:37:22</time>
      </trkpt>
      <trkpt lat="45.32603" lon="5.85762">
        <ele>1338.6</ele>
        <time>2025-07-12T08:37:25</time>
      </trkpt>
      <trkpt lat="45.32602" lon="5.85762">
        <ele>1338.6</ele>
        <time>2025-07-12T08:37:26</time>
      </trkpt>
      <trkpt lat="45.32602" lon="5.85762">
        <ele>1338.6</ele>
        <time>2025-07-12T08:37:29</time>
      </trkpt>
      <trkpt lat="45.32602" lon="5.85762">
        <ele>1338.6</ele>
        <time>2025-07-12T08:37:30</time>
      </trkpt>
      <trkpt lat="45.32602" lon="5.85762">
        <ele>1338.6</ele>
        <time>2025-07-12T08:37:31</time>
      </trkpt>
      <trkpt lat="45.32602" lon="5.85762">
        <ele>1338.6</ele>
        <time>2025-07-12T08:37:32</time>
      </trkpt>
      <trkpt lat="45.32602" lon="5.85762">
        <ele>1338.6</ele>
        <time>2025-07-12T08:37:33</time>
      </trkpt>
      <trkpt lat="45.32602" lon="5.85761">
        <ele>1338.6</ele>
        <time>2025-07-12T08:37:34</time>
      </trkpt>
      <trkpt lat="45.32602" lon="5.85761">
        <ele>1337.1</ele>
        <time>2025-07-12T08:37:35</time>
      </trkpt>
      <trkpt lat="45.32602" lon="5.85752">
        <ele>1337.1</ele>
        <time>2025-07-12T08:37:37</time>
      </trkpt>
      <trkpt lat="45.32601" lon="5.85749">
        <ele>1337.1</ele>
        <time>2025-07-12T08:37:39</time>
      </trkpt>
      <trkpt lat="45.32601" lon="5.85749">
        <ele>1337.1</ele>
        <time>2025-07-12T08:37:39</time>
      </trkpt>
      <trkpt lat="45.32601" lon="5.85748">
        <ele>1337.1</ele>
        <time>2025-07-12T08:37:40</time>
      </trkpt>
      <trkpt lat="45.32601" lon="5.85748">
        <ele>1337.1</ele>
        <time>2025-07-12T08:37:41</time>
      </trkpt>
      <trkpt lat="45.32601" lon="5.85748">
        <ele>1337.1</ele>
        <time>2025-07-12T08:37:42</time>
      </trkpt>
      <trkpt lat="45.32601" lon="5.85747">
        <ele>1337.1</ele>
        <time>2025-07-12T08:37:42</time>
      </trkpt>
      <trkpt lat="45.32602" lon="5.85747">
        <ele>1336.8</ele>
        <time>2025-07-12T08:37:44</time>
      </trkpt>
      <trkpt lat="45.32602" lon="5.85747">
        <ele>1336.8</ele>
        <time>2025-07-12T08:37:45</time>
      </trkpt>
      <trkpt lat="45.32602" lon="5.85747">
        <ele>1336.8</ele>
        <time>2025-07-12T08:37:45</time>
      </trkpt>
      <trkpt lat="45.32602" lon="5.85746">
        <ele>1336.8</ele>
        <time>2025-07-12T08:37:47</time>
      </trkpt>
      <trkpt lat="45.32602" lon="5.85746">
        <ele>1336.8</ele>
        <time>2025-07-12T08:37:48</time>
      </trkpt>
      <trkpt lat="45.32602" lon="5.85746">
        <ele>1336.8</ele>
        <time>2025-07-12T08:37:49</time>
      </trkpt>
      <trkpt lat="45.32602" lon="5.85746">
        <ele>1336.8</ele>
        <time>2025-07-12T08:37:50</time>
      </trkpt>
      <trkpt lat="45.32602" lon="5.85746">
        <ele>1336.8</ele>
        <time>2025-07-12T08:37:52</time>
      </trkpt>
      <trkpt lat="45.32602" lon="5.85746">
        <ele>1336.8</ele>
        <time>2025-07-12T08:37:53</time>
      </trkpt>
      <trkpt lat="45.32602" lon="5.85746">
        <ele>1336.8</ele>
        <time>2025-07-12T08:37:54</time>
      </trkpt>
      <trkpt lat="45.32602" lon="5.85746">
        <ele>1336.8</ele>
        <time>2025-07-12T08:37:55</time>
      </trkpt>
      <trkpt lat="45.32602" lon="5.85746">
        <ele>1336.8</ele>
        <time>2025-07-12T08:37:56</time>
      </trkpt>
      <trkpt lat="45.32602" lon="5.85746">
        <ele>1336.8</ele>
        <time>2025-07-12T08:37:57</time>
      </trkpt>
      <trkpt lat="45.32602" lon="5.85746">
        <ele>1336.8</ele>
        <time>2025-07-12T08:37:58</time>
      </trkpt>
      <trkpt lat="45.32602" lon="5.85746">
        <ele>1336.8</ele>
        <time>2025-07-12T08:37:59</time>
      </trkpt>
      <trkpt lat="45.32602" lon="5.85745">
        <ele>1336.8</ele>
        <time>2025-07-12T08:38:01</time>
      </trkpt>
      <trkpt lat="45.32599" lon="5.85734">
        <ele>1336.8</ele>
        <time>2025-07-12T08:38:03</time>
      </trkpt>
      <trkpt lat="45.32598" lon="5.85733">
        <ele>1336.8</ele>
        <time>2025-07-12T08:38:06</time>
      </trkpt>
      <trkpt lat="45.32598" lon="5.85733">
        <ele>1336.8</ele>
        <time>2025-07-12T08:38:07</time>
      </trkpt>
      <trkpt lat="45.32598" lon="5.85732">
        <ele>1334.5</ele>
        <time>2025-07-12T08:38:08</time>
      </trkpt>
      <trkpt lat="45.32598" lon="5.85732">
        <ele>1334.5</ele>
        <time>2025-07-12T08:38:10</time>
      </trkpt>
      <trkpt lat="45.32597" lon="5.85732">
        <ele>1334.5</ele>
        <time>2025-07-12T08:38:13</time>
      </trkpt>
      <trkpt lat="45.32597" lon="5.85732">
        <ele>1334.5</ele>
        <time>2025-07-12T08:38:16</time>
      </trkpt>
      <trkpt lat="45.32598" lon="5.85728">
        <ele>1334.5</ele>
        <time>2025-07-12T08:38:24</time>
      </trkpt>
      <trkpt lat="45.32599" lon="5.85723">
        <ele>1334.5</ele>
        <time>2025-07-12T08:38:24</time>
      </trkpt>
      <trkpt lat="45.326" lon="5.85718">
        <ele>1334.5</ele>
        <time>2025-07-12T08:38:26</time>
      </trkpt>
      <trkpt lat="45.326" lon="5.85717">
        <ele>1334.5</ele>
        <time>2025-07-12T08:38:27</time>
      </trkpt>
      <trkpt lat="45.326" lon="5.85717">
        <ele>1334.5</ele>
        <time>2025-07-12T08:38:28</time>
      </trkpt>
      <trkpt lat="45.326" lon="5.85717">
        <ele>1334.5</ele>
        <time>2025-07-12T08:38:29</time>
      </trkpt>
      <trkpt lat="45.32599" lon="5.85717">
        <ele>1334.5</ele>
        <time>2025-07-12T08:38:30</time>
      </trkpt>
      <trkpt lat="45.32599" lon="5.85717">
        <ele>1334.5</ele>
        <time>2025-07-12T08:38:30</time>
      </trkpt>
      <trkpt lat="45.32599" lon="5.85716">
        <ele>1335.5</ele>
        <time>2025-07-12T08:38:31</time>
      </trkpt>
      <trkpt lat="45.32599" lon="5.85716">
        <ele>1335.5</ele>
        <time>2025-07-12T08:38:33</time>
      </trkpt>
      <trkpt lat="45.32599" lon="5.85716">
        <ele>1335.5</ele>
        <time>2025-07-12T08:38:33</time>
      </trkpt>
      <trkpt lat="45.32599" lon="5.85716">
        <ele>1335.5</ele>
        <time>2025-07-12T08:38:34</time>
      </trkpt>
      <trkpt lat="45.32599" lon="5.85716">
        <ele>1335.5</ele>
        <time>2025-07-12T08:38:35</time>
      </trkpt>
      <trkpt lat="45.32599" lon="5.85716">
        <ele>1335.5</ele>
        <time>2025-07-12T08:38:36</time>
      </trkpt>
      <trkpt lat="45.32598" lon="5.85716">
        <ele>1335.5</ele>
        <time>2025-07-12T08:38:37</time>
      </trkpt>
      <trkpt lat="45.32598" lon="5.85716">
        <ele>1335.5</ele>
        <time>2025-07-12T08:38:41</time>
      </trkpt>
      <trkpt lat="45.32598" lon="5.85716">
        <ele>1335.5</ele>
        <time>2025-07-12T08:38:42</time>
      </trkpt>
      <trkpt lat="45.32598" lon="5.85716">
        <ele>1335.5</ele>
        <time>2025-07-12T08:38:44</time>
      </trkpt>
      <trkpt lat="45.32598" lon="5.85716">
        <ele>1335.5</ele>
        <time>2025-07-12T08:38:45</time>
      </trkpt>
      <trkpt lat="45.32598" lon="5.85716">
        <ele>1335.5</ele>
        <time>2025-07-12T08:38:46</time>
      </trkpt>
      <trkpt lat="45.32598" lon="5.85716">
        <ele>1335.5</ele>
        <time>2025-07-12T08:38:47</time>
      </trkpt>
      <trkpt lat="45.32598" lon="5.85716">
        <ele>1335.5</ele>
        <time>2025-07-12T08:38:48</time>
      </trkpt>
      <trkpt lat="45.32598" lon="5.85716">
        <ele>1335.5</ele>
        <time>2025-07-12T08:38:49</time>
      </trkpt>
      <trkpt lat="45.32598" lon="5.85716">
        <ele>1335.5</ele>
        <time>2025-07-12T08:38:50</time>
      </trkpt>
      <trkpt lat="45.32598" lon="5.85715">
        <ele>1335.5</ele>
        <time>2025-07-12T08:38:52</time>
      </trkpt>
      <trkpt lat="45.32598" lon="5.85715">
        <ele>1335.5</ele>
        <time>2025-07-12T08:38:53</time>
      </trkpt>
      <trkpt lat="45.32598" lon="5.85715">
        <ele>1335.5</ele>
        <time>2025-07-12T08:38:55</time>
      </trkpt>
      <trkpt lat="45.32598" lon="5.85715">
        <ele>1335.5</ele>
        <time>2025-07-12T08:38:56</time>
      </trkpt>
      <trkpt lat="45.32598" lon="5.85715">
        <ele>1335.5</ele>
        <time>2025-07-12T08:38:58</time>
      </trkpt>
      <trkpt lat="45.32598" lon="5.85715">
        <ele>1335.5</ele>
        <time>2025-07-12T08:38:58</time>
      </trkpt>
      <trkpt lat="45.32598" lon="5.85715">
        <ele>1335.5</ele>
        <time>2025-07-12T08:39:01</time>
      </trkpt>
      <trkpt lat="45.32598" lon="5.85715">
        <ele>1335.5</ele>
        <time>2025-07-12T08:39:02</time>
      </trkpt>
      <trkpt lat="45.32598" lon="5.85715">
        <ele>1335.5</ele>
        <time>2025-07-12T08:39:03</time>
      </trkpt>
      <trkpt lat="45.32598" lon="5.85715">
        <ele>1335.5</ele>
        <time>2025-07-12T08:39:04</time>
      </trkpt>
      <trkpt lat="45.32598" lon="5.85715">
        <ele>1335.5</ele>
        <time>2025-07-12T08:39:05</time>
      </trkpt>
      <trkpt lat="45.32598" lon="5.85715">
        <ele>1335.5</ele>
        <time>2025-07-12T08:39:06</time>
      </trkpt>
      <trkpt lat="45.32598" lon="5.85715">
        <ele>1335.5</ele>
        <time>2025-07-12T08:39:07</time>
      </trkpt>
      <trkpt lat="45.32598" lon="5.85715">
        <ele>1335.5</ele>
        <time>2025-07-12T08:39:08</time>
      </trkpt>
      <trkpt lat="45.32598" lon="5.85715">
        <ele>1335.5</ele>
        <time>2025-07-12T08:39:09</time>
      </trkpt>
      <trkpt lat="45.32598" lon="5.85715">
        <ele>1335.5</ele>
        <time>2025-07-12T08:39:11</time>
      </trkpt>
      <trkpt lat="45.32598" lon="5.85715">
        <ele>1335.5</ele>
        <time>2025-07-12T08:39:12</time>
      </trkpt>
      <trkpt lat="45.32598" lon="5.85715">
        <ele>1335.5</ele>
        <time>2025-07-12T08:39:12</time>
      </trkpt>
      <trkpt lat="45.32598" lon="5.85715">
        <ele>1335.5</ele>
        <time>2025-07-12T08:39:14</time>
      </trkpt>
      <trkpt lat="45.32598" lon="5.85715">
        <ele>1335.5</ele>
        <time>2025-07-12T08:39:15</time>
      </trkpt>
      <trkpt lat="45.32598" lon="5.85715">
        <ele>1335.5</ele>
        <time>2025-07-12T08:39:16</time>
      </trkpt>
      <trkpt lat="45.32598" lon="5.85714">
        <ele>1335.5</ele>
        <time>2025-07-12T08:39:19</time>
      </trkpt>
      <trkpt lat="45.32598" lon="5.85714">
        <ele>1335.5</ele>
        <time>2025-07-12T08:39:20</time>
      </trkpt>
      <trkpt lat="45.32597" lon="5.85713">
        <ele>1335.5</ele>
        <time>2025-07-12T08:39:21</time>
      </trkpt>
      <trkpt lat="45.32594" lon="5.85711">
        <ele>1339.7</ele>
        <time>2025-07-12T08:39:21</time>
      </trkpt>
      <trkpt lat="45.32592" lon="5.8571">
        <ele>1339.7</ele>
        <time>2025-07-12T08:39:22</time>
      </trkpt>
      <trkpt lat="45.32591" lon="5.8571">
        <ele>1339.7</ele>
        <time>2025-07-12T08:39:23</time>
      </trkpt>
      <trkpt lat="45.32591" lon="5.8571">
        <ele>1339.7</ele>
        <time>2025-07-12T08:39:24</time>
      </trkpt>
      <trkpt lat="45.3259" lon="5.85709">
        <ele>1339.7</ele>
        <time>2025-07-12T08:39:24</time>
      </trkpt>
      <trkpt lat="45.32589" lon="5.85708">
        <ele>1339.7</ele>
        <time>2025-07-12T08:39:28</time>
      </trkpt>
      <trkpt lat="45.32589" lon="5.85707">
        <ele>1340</ele>
        <time>2025-07-12T08:39:30</time>
      </trkpt>
      <trkpt lat="45.32589" lon="5.85707">
        <ele>1340</ele>
        <time>2025-07-12T08:39:31</time>
      </trkpt>
      <trkpt lat="45.32589" lon="5.85707">
        <ele>1340</ele>
        <time>2025-07-12T08:39:33</time>
      </trkpt>
      <trkpt lat="45.32589" lon="5.85707">
        <ele>1340</ele>
        <time>2025-07-12T08:39:34</time>
      </trkpt>
      <trkpt lat="45.32589" lon="5.85707">
        <ele>1340</ele>
        <time>2025-07-12T08:39:36</time>
      </trkpt>
      <trkpt lat="45.32589" lon="5.85707">
        <ele>1340</ele>
        <time>2025-07-12T08:39:38</time>
      </trkpt>
      <trkpt lat="45.32589" lon="5.85707">
        <ele>1340</ele>
        <time>2025-07-12T08:39:41</time>
      </trkpt>
      <trkpt lat="45.32589" lon="5.85706">
        <ele>1340</ele>
        <time>2025-07-12T08:39:42</time>
      </trkpt>
      <trkpt lat="45.32589" lon="5.85706">
        <ele>1340</ele>
        <time>2025-07-12T08:39:43</time>
      </trkpt>
      <trkpt lat="45.32589" lon="5.857">
        <ele>1340</ele>
        <time>2025-07-12T08:39:44</time>
      </trkpt>
      <trkpt lat="45.3259" lon="5.85696">
        <ele>1342.8</ele>
        <time>2025-07-12T08:39:46</time>
      </trkpt>
      <trkpt lat="45.32589" lon="5.85693">
        <ele>1342.8</ele>
        <time>2025-07-12T08:39:50</time>
      </trkpt>
      <trkpt lat="45.32589" lon="5.85692">
        <ele>1342.8</ele>
        <time>2025-07-12T08:39:55</time>
      </trkpt>
      <trkpt lat="45.32589" lon="5.85692">
        <ele>1342.8</ele>
        <time>2025-07-12T08:39:55</time>
      </trkpt>
      <trkpt lat="45.32586" lon="5.85684">
        <ele>1342.8</ele>
        <time>2025-07-12T08:40:00</time>
      </trkpt>
      <trkpt lat="45.32585" lon="5.85682">
        <ele>1342.8</ele>
        <time>2025-07-12T08:40:01</time>
      </trkpt>
      <trkpt lat="45.32584" lon="5.85681">
        <ele>1342.8</ele>
        <time>2025-07-12T08:40:03</time>
      </trkpt>
      <trkpt lat="45.32584" lon="5.85681">
        <ele>1344.6</ele>
        <time>2025-07-12T08:40:04</time>
      </trkpt>
      <trkpt lat="45.32584" lon="5.85681">
        <ele>1344.6</ele>
        <time>2025-07-12T08:40:05</time>
      </trkpt>
      <trkpt lat="45.32584" lon="5.8568">
        <ele>1344.6</ele>
        <time>2025-07-12T08:40:06</time>
      </trkpt>
      <trkpt lat="45.32583" lon="5.8568">
        <ele>1344.6</ele>
        <time>2025-07-12T08:40:07</time>
      </trkpt>
      <trkpt lat="45.32583" lon="5.8568">
        <ele>1344.6</ele>
        <time>2025-07-12T08:40:08</time>
      </trkpt>
      <trkpt lat="45.32583" lon="5.8568">
        <ele>1344.6</ele>
        <time>2025-07-12T08:40:10</time>
      </trkpt>
      <trkpt lat="45.32583" lon="5.8568">
        <ele>1344.6</ele>
        <time>2025-07-12T08:40:12</time>
      </trkpt>
      <trkpt lat="45.32583" lon="5.8568">
        <ele>1344.9</ele>
        <time>2025-07-12T08:40:13</time>
      </trkpt>
      <trkpt lat="45.32583" lon="5.8568">
        <ele>1344.9</ele>
        <time>2025-07-12T08:40:14</time>
      </trkpt>
      <trkpt lat="45.32583" lon="5.8568">
        <ele>1344.9</ele>
        <time>2025-07-12T08:40:15</time>
      </trkpt>
      <trkpt lat="45.32583" lon="5.8568">
        <ele>1344.9</ele>
        <time>2025-07-12T08:40:16</time>
      </trkpt>
      <trkpt lat="45.32583" lon="5.8568">
        <ele>1344.9</ele>
        <time>2025-07-12T08:40:17</time>
      </trkpt>
      <trkpt lat="45.32583" lon="5.8568">
        <ele>1344.9</ele>
        <time>2025-07-12T08:40:23</time>
      </trkpt>
      <trkpt lat="45.32583" lon="5.8568">
        <ele>1344.9</ele>
        <time>2025-07-12T08:40:24</time>
      </trkpt>
      <trkpt lat="45.32583" lon="5.8568">
        <ele>1344.9</ele>
        <time>2025-07-12T08:40:25</time>
      </trkpt>
      <trkpt lat="45.32583" lon="5.8568">
        <ele>1344.9</ele>
        <time>2025-07-12T08:40:26</time>
      </trkpt>
      <trkpt lat="45.32583" lon="5.8568">
        <ele>1344.9</ele>
        <time>2025-07-12T08:40:27</time>
      </trkpt>
      <trkpt lat="45.32583" lon="5.8568">
        <ele>1344.9</ele>
        <time>2025-07-12T08:40:30</time>
      </trkpt>
      <trkpt lat="45.32583" lon="5.85679">
        <ele>1344.9</ele>
        <time>2025-07-12T08:40:33</time>
      </trkpt>
      <trkpt lat="45.3258" lon="5.85676">
        <ele>1344.9</ele>
        <time>2025-07-12T08:40:36</time>
      </trkpt>
      <trkpt lat="45.32578" lon="5.85672">
        <ele>1344.9</ele>
        <time>2025-07-12T08:40:38</time>
      </trkpt>
      <trkpt lat="45.32577" lon="5.85671">
        <ele>1344.9</ele>
        <time>2025-07-12T08:40:40</time>
      </trkpt>
      <trkpt lat="45.32577" lon="5.8567">
        <ele>1352</ele>
        <time>2025-07-12T08:40:41</time>
      </trkpt>
      <trkpt lat="45.32576" lon="5.8567">
        <ele>1352</ele>
        <time>2025-07-12T08:40:42</time>
      </trkpt>
      <trkpt lat="45.32576" lon="5.8567">
        <ele>1352</ele>
        <time>2025-07-12T08:40:44</time>
      </trkpt>
      <trkpt lat="45.32576" lon="5.8567">
        <ele>1352</ele>
        <time>2025-07-12T08:40:45</time>
      </trkpt>
      <trkpt lat="45.32575" lon="5.8567">
        <ele>1352</ele>
        <time>2025-07-12T08:40:55</time>
      </trkpt>
      <trkpt lat="45.32575" lon="5.8567">
        <ele>1352</ele>
        <time>2025-07-12T08:40:56</time>
      </trkpt>
      <trkpt lat="45.32575" lon="5.8567">
        <ele>1352</ele>
        <time>2025-07-12T08:40:56</time>
      </trkpt>
      <trkpt lat="45.32575" lon="5.8567">
        <ele>1352</ele>
        <time>2025-07-12T08:40:57</time>
      </trkpt>
      <trkpt lat="45.32575" lon="5.8567">
        <ele>1352</ele>
        <time>2025-07-12T08:40:58</time>
      </trkpt>
      <trkpt lat="45.32575" lon="5.8567">
        <ele>1352</ele>
        <time>2025-07-12T08:40:59</time>
      </trkpt>
      <trkpt lat="45.32575" lon="5.8567">
        <ele>1352</ele>
        <time>2025-07-12T08:41:00</time>
      </trkpt>
      <trkpt lat="45.32575" lon="5.8567">
        <ele>1352</ele>
        <time>2025-07-12T08:41:01</time>
      </trkpt>
      <trkpt lat="45.32575" lon="5.8567">
        <ele>1352</ele>
        <time>2025-07-12T08:41:03</time>
      </trkpt>
      <trkpt lat="45.32574" lon="5.85668">
        <ele>1353.2</ele>
        <time>2025-07-12T08:41:08</time>
      </trkpt>
      <trkpt lat="45.32571" lon="5.85664">
        <ele>1353.2</ele>
        <time>2025-07-12T08:41:09</time>
      </trkpt>
      <trkpt lat="45.3257" lon="5.85662">
        <ele>1353.2</ele>
        <time>2025-07-12T08:41:10</time>
      </trkpt>
      <trkpt lat="45.32569" lon="5.85661">
        <ele>1353.2</ele>
        <time>2025-07-12T08:41:13</time>
      </trkpt>
      <trkpt lat="45.32568" lon="5.85661">
        <ele>1353.2</ele>
        <time>2025-07-12T08:41:15</time>
      </trkpt>
      <trkpt lat="45.32568" lon="5.85661">
        <ele>1353.2</ele>
        <time>2025-07-12T08:41:16</time>
      </trkpt>
      <trkpt lat="45.32568" lon="5.85661">
        <ele>1353.2</ele>
        <time>2025-07-12T08:41:17</time>
      </trkpt>
      <trkpt lat="45.32568" lon="5.85661">
        <ele>1353.2</ele>
        <time>2025-07-12T08:41:20</time>
      </trkpt>
      <trkpt lat="45.32568" lon="5.85661">
        <ele>1353.2</ele>
        <time>2025-07-12T08:41:21</time>
      </trkpt>
      <trkpt lat="45.32567" lon="5.8566">
        <ele>1353.2</ele>
        <time>2025-07-12T08:41:22</time>
      </trkpt>
      <trkpt lat="45.32563" lon="5.85656">
        <ele>1353.2</ele>
        <time>2025-07-12T08:41:23</time>
      </trkpt>
      <trkpt lat="45.32559" lon="5.85654">
        <ele>1353.1</ele>
        <time>2025-07-12T08:41:25</time>
      </trkpt>
      <trkpt lat="45.32559" lon="5.85653">
        <ele>1353.1</ele>
        <time>2025-07-12T08:41:25</time>
      </trkpt>
      <trkpt lat="45.32558" lon="5.85653">
        <ele>1353.1</ele>
        <time>2025-07-12T08:41:26</time>
      </trkpt>
      <trkpt lat="45.32558" lon="5.85653">
        <ele>1353.1</ele>
        <time>2025-07-12T08:41:29</time>
      </trkpt>
      <trkpt lat="45.32558" lon="5.85653">
        <ele>1353.1</ele>
        <time>2025-07-12T08:41:31</time>
      </trkpt>
      <trkpt lat="45.32558" lon="5.85653">
        <ele>1353.1</ele>
        <time>2025-07-12T08:41:35</time>
      </trkpt>
      <trkpt lat="45.32558" lon="5.85654">
        <ele>1353.1</ele>
        <time>2025-07-12T08:41:38</time>
      </trkpt>
      <trkpt lat="45.32557" lon="5.85654">
        <ele>1353.1</ele>
        <time>2025-07-12T08:41:40</time>
      </trkpt>
      <trkpt lat="45.32557" lon="5.85653">
        <ele>1353.1</ele>
        <time>2025-07-12T08:41:42</time>
      </trkpt>
      <trkpt lat="45.32557" lon="5.85653">
        <ele>1353.1</ele>
        <time>2025-07-12T08:41:42</time>
      </trkpt>
      <trkpt lat="45.32557" lon="5.85653">
        <ele>1353.1</ele>
        <time>2025-07-12T08:41:44</time>
      </trkpt>
      <trkpt lat="45.32554" lon="5.8565">
        <ele>1355.6333</ele>
        <time>2025-07-12T08:41:48</time>
      </trkpt>
      <trkpt lat="45.32551" lon="5.85648">
        <ele>1355.6333</ele>
        <time>2025-07-12T08:41:51</time>
      </trkpt>
      <trkpt lat="45.3255" lon="5.85648">
        <ele>1355.6333</ele>
        <time>2025-07-12T08:41:53</time>
      </trkpt>
      <trkpt lat="45.3255" lon="5.85647">
        <ele>1355.6333</ele>
        <time>2025-07-12T08:41:54</time>
      </trkpt>
      <trkpt lat="45.32549" lon="5.85647">
        <ele>1355.6333</ele>
        <time>2025-07-12T08:41:55</time>
      </trkpt>
      <trkpt lat="45.32549" lon="5.85647">
        <ele>1355.6333</ele>
        <time>2025-07-12T08:41:56</time>
      </trkpt>
      <trkpt lat="45.32549" lon="5.85647">
        <ele>1357.2</ele>
        <time>2025-07-12T08:41:58</time>
      </trkpt>
      <trkpt lat="45.32549" lon="5.85647">
        <ele>1357.2</ele>
        <time>2025-07-12T08:42:00</time>
      </trkpt>
      <trkpt lat="45.32549" lon="5.85647">
        <ele>1357.2</ele>
        <time>2025-07-12T08:42:01</time>
      </trkpt>
      <trkpt lat="45.32549" lon="5.85647">
        <ele>1357.2</ele>
        <time>2025-07-12T08:42:02</time>
      </trkpt>
      <trkpt lat="45.32549" lon="5.85647">
        <ele>1357.3</ele>
        <time>2025-07-12T08:42:05</time>
      </trkpt>
      <trkpt lat="45.32549" lon="5.85647">
        <ele>1357.3</ele>
        <time>2025-07-12T08:42:07</time>
      </trkpt>
      <trkpt lat="45.32549" lon="5.85646">
        <ele>1357.3</ele>
        <time>2025-07-12T08:42:11</time>
      </trkpt>
      <trkpt lat="45.32549" lon="5.85646">
        <ele>1357.3</ele>
        <time>2025-07-12T08:42:12</time>
      </trkpt>
      <trkpt lat="45.32549" lon="5.85646">
        <ele>1357.3</ele>
        <time>2025-07-12T08:42:14</time>
      </trkpt>
      <trkpt lat="45.32549" lon="5.85646">
        <ele>1357.3</ele>
        <time>2025-07-12T08:42:14</time>
      </trkpt>
      <trkpt lat="45.32549" lon="5.85647">
        <ele>1357.3</ele>
        <time>2025-07-12T08:42:16</time>
      </trkpt>
      <trkpt lat="45.3255" lon="5.85647">
        <ele>1357.3</ele>
        <time>2025-07-12T08:42:17</time>
      </trkpt>
      <trkpt lat="45.3255" lon="5.85646">
        <ele>1357.3</ele>
        <time>2025-07-12T08:42:20</time>
      </trkpt>
      <trkpt lat="45.3255" lon="5.85646">
        <ele>1357.3</ele>
        <time>2025-07-12T08:42:21</time>
      </trkpt>
      <trkpt lat="45.3255" lon="5.85646">
        <ele>1357.3</ele>
        <time>2025-07-12T08:42:24</time>
      </trkpt>
      <trkpt lat="45.3255" lon="5.85646">
        <ele>1357.3</ele>
        <time>2025-07-12T08:42:25</time>
      </trkpt>
      <trkpt lat="45.3255" lon="5.85646">
        <ele>1357.3</ele>
        <time>2025-07-12T08:42:26</time>
      </trkpt>
      <trkpt lat="45.32549" lon="5.85644">
        <ele>1357.3</ele>
        <time>2025-07-12T08:42:27</time>
      </trkpt>
      <trkpt lat="45.32548" lon="5.85639">
        <ele>1357.3</ele>
        <time>2025-07-12T08:42:28</time>
      </trkpt>
      <trkpt lat="45.32547" lon="5.85636">
        <ele>1357.3</ele>
        <time>2025-07-12T08:42:30</time>
      </trkpt>
      <trkpt lat="45.32545" lon="5.85633">
        <ele>1363.6</ele>
        <time>2025-07-12T08:42:34</time>
      </trkpt>
      <trkpt lat="45.32545" lon="5.85633">
        <ele>1363.6</ele>
        <time>2025-07-12T08:42:35</time>
      </trkpt>
      <trkpt lat="45.32545" lon="5.85632">
        <ele>1363.6</ele>
        <time>2025-07-12T08:42:36</time>
      </trkpt>
      <trkpt lat="45.32545" lon="5.85632">
        <ele>1363.6</ele>
        <time>2025-07-12T08:42:39</time>
      </trkpt>
      <trkpt lat="45.32545" lon="5.85632">
        <ele>1363.6</ele>
        <time>2025-07-12T08:42:45</time>
      </trkpt>
      <trkpt lat="45.32545" lon="5.85632">
        <ele>1363.6</ele>
        <time>2025-07-12T08:42:46</time>
      </trkpt>
      <trkpt lat="45.32545" lon="5.85632">
        <ele>1363.6</ele>
        <time>2025-07-12T08:42:47</time>
      </trkpt>
      <trkpt lat="45.32545" lon="5.85632">
        <ele>1363.6</ele>
        <time>2025-07-12T08:42:47</time>
      </trkpt>
      <trkpt lat="45.32545" lon="5.85632">
        <ele>1363.6</ele>
        <time>2025-07-12T08:42:49</time>
      </trkpt>
      <trkpt lat="45.32545" lon="5.85632">
        <ele>1363.6</ele>
        <time>2025-07-12T08:42:50</time>
      </trkpt>
      <trkpt lat="45.32545" lon="5.85632">
        <ele>1363.6</ele>
        <time>2025-07-12T08:42:52</time>
      </trkpt>
      <trkpt lat="45.32545" lon="5.85632">
        <ele>1363.6</ele>
        <time>2025-07-12T08:42:54</time>
      </trkpt>
      <trkpt lat="45.32545" lon="5.85632">
        <ele>1363.6</ele>
        <time>2025-07-12T08:42:55</time>
      </trkpt>
      <trkpt lat="45.32545" lon="5.85632">
        <ele>1363.6</ele>
        <time>2025-07-12T08:42:56</time>
      </trkpt>
      <trkpt lat="45.32545" lon="5.85632">
        <ele>1363.6</ele>
        <time>2025-07-12T08:42:56</time>
      </trkpt>
      <trkpt lat="45.32545" lon="5.85632">
        <ele>1363.6</ele>
        <time>2025-07-12T08:43:00</time>
      </trkpt>
      <trkpt lat="45.32545" lon="5.85632">
        <ele>1363.6</ele>
        <time>2025-07-12T08:43:01</time>
      </trkpt>
      <trkpt lat="45.32543" lon="5.85622">
        <ele>1363.6</ele>
        <time>2025-07-12T08:43:01</time>
      </trkpt>
      <trkpt lat="45.32542" lon="5.8562">
        <ele>1363.6</ele>
        <time>2025-07-12T08:43:02</time>
      </trkpt>
      <trkpt lat="45.32542" lon="5.8562">
        <ele>1363.6</ele>
        <time>2025-07-12T08:43:03</time>
      </trkpt>
      <trkpt lat="45.32542" lon="5.8562">
        <ele>1363.6</ele>
        <time>2025-07-12T08:43:04</time>
      </trkpt>
      <trkpt lat="45.32542" lon="5.85619">
        <ele>1363.6</ele>
        <time>2025-07-12T08:43:05</time>
      </trkpt>
      <trkpt lat="45.32542" lon="5.85619">
        <ele>1363.6</ele>
        <time>2025-07-12T08:43:06</time>
      </trkpt>
      <trkpt lat="45.32542" lon="5.8562">
        <ele>1363.6</ele>
        <time>2025-07-12T08:43:07</time>
      </trkpt>
      <trkpt lat="45.32542" lon="5.85619">
        <ele>1376.4333</ele>
        <time>2025-07-12T08:43:09</time>
      </trkpt>
      <trkpt lat="45.32542" lon="5.85619">
        <ele>1376.4333</ele>
        <time>2025-07-12T08:43:10</time>
      </trkpt>
      <trkpt lat="45.32542" lon="5.85619">
        <ele>1376.4333</ele>
        <time>2025-07-12T08:43:10</time>
      </trkpt>
      <trkpt lat="45.32542" lon="5.85619">
        <ele>1376.4333</ele>
        <time>2025-07-12T08:43:13</time>
      </trkpt>
      <trkpt lat="45.32542" lon="5.85619">
        <ele>1376.4333</ele>
        <time>2025-07-12T08:43:15</time>
      </trkpt>
      <trkpt lat="45.32542" lon="5.85619">
        <ele>1376.4333</ele>
        <time>2025-07-12T08:43:16</time>
      </trkpt>
      <trkpt lat="45.32542" lon="5.85619">
        <ele>1376.4</ele>
        <time>2025-07-12T08:43:20</time>
      </trkpt>
      <trkpt lat="45.32542" lon="5.85619">
        <ele>1376.4</ele>
        <time>2025-07-12T08:43:20</time>
      </trkpt>
      <trkpt lat="45.32542" lon="5.85619">
        <ele>1376.4</ele>
        <time>2025-07-12T08:43:21</time>
      </trkpt>
      <trkpt lat="45.32542" lon="5.85619">
        <ele>1376.4</ele>
        <time>2025-07-12T08:43:22</time>
      </trkpt>
      <trkpt lat="45.32542" lon="5.85619">
        <ele>1376.4</ele>
        <time>2025-07-12T08:43:23</time>
      </trkpt>
      <trkpt lat="45.32542" lon="5.85619">
        <ele>1376.4</ele>
        <time>2025-07-12T08:43:25</time>
      </trkpt>
      <trkpt lat="45.32542" lon="5.85619">
        <ele>1376.4</ele>
        <time>2025-07-12T08:43:26</time>
      </trkpt>
      <trkpt lat="45.32542" lon="5.85619">
        <ele>1376.4</ele>
        <time>2025-07-12T08:43:27</time>
      </trkpt>
      <trkpt lat="45.32542" lon="5.85619">
        <ele>1376.4</ele>
        <time>2025-07-12T08:43:27</time>
      </trkpt>
      <trkpt lat="45.32542" lon="5.85619">
        <ele>1376.4</ele>
        <time>2025-07-12T08:43:28</time>
      </trkpt>
      <trkpt lat="45.32542" lon="5.85619">
        <ele>1376.4</ele>
        <time>2025-07-12T08:43:29</time>
      </trkpt>
      <trkpt lat="45.32542" lon="5.85619">
        <ele>1376.4</ele>
        <time>2025-07-12T08:43:30</time>
      </trkpt>
      <trkpt lat="45.32542" lon="5.85619">
        <ele>1376.4</ele>
        <time>2025-07-12T08:43:30</time>
      </trkpt>
      <trkpt lat="45.32542" lon="5.85619">
        <ele>1376.4</ele>
        <time>2025-07-12T08:43:31</time>
      </trkpt>
      <trkpt lat="45.32542" lon="5.85619">
        <ele>1376.4</ele>
        <time>2025-07-12T08:43:32</time>
      </trkpt>
      <trkpt lat="45.32542" lon="5.85619">
        <ele>1376.4</ele>
        <time>2025-07-12T08:43:33</time>
      </trkpt>
      <trkpt lat="45.32542" lon="5.85619">
        <ele>1376.4</ele>
        <time>2025-07-12T08:43:34</time>
      </trkpt>
      <trkpt lat="45.32542" lon="5.85619">
        <ele>1376.4</ele>
        <time>2025-07-12T08:43:35</time>
      </trkpt>
      <trkpt lat="45.32542" lon="5.85619">
        <ele>1376.4</ele>
        <time>2025-07-12T08:43:35</time>
      </trkpt>
      <trkpt lat="45.32542" lon="5.8562">
        <ele>1376.4</ele>
        <time>2025-07-12T08:43:40</time>
      </trkpt>
      <trkpt lat="45.32542" lon="5.8562">
        <ele>1376.4</ele>
        <time>2025-07-12T08:43:41</time>
      </trkpt>
      <trkpt lat="45.32542" lon="5.8562">
        <ele>1376.4</ele>
        <time>2025-07-12T08:43:41</time>
      </trkpt>
      <trkpt lat="45.32542" lon="5.8562">
        <ele>1376.4</ele>
        <time>2025-07-12T08:43:42</time>
      </trkpt>
      <trkpt lat="45.32542" lon="5.8562">
        <ele>1376.4</ele>
        <time>2025-07-12T08:43:43</time>
      </trkpt>
      <trkpt lat="45.32542" lon="5.8562">
        <ele>1376.4</ele>
        <time>2025-07-12T08:43:44</time>
      </trkpt>
      <trkpt lat="45.32542" lon="5.8562">
        <ele>1376.4</ele>
        <time>2025-07-12T08:43:47</time>
      </trkpt>
      <trkpt lat="45.32542" lon="5.8562">
        <ele>1377.7</ele>
        <time>2025-07-12T08:43:49</time>
      </trkpt>
      <trkpt lat="45.32542" lon="5.85621">
        <ele>1377.7</ele>
        <time>2025-07-12T08:43:51</time>
      </trkpt>
      <trkpt lat="45.32542" lon="5.85621">
        <ele>1377.7</ele>
        <time>2025-07-12T08:43:52</time>
      </trkpt>
      <trkpt lat="45.32542" lon="5.85621">
        <ele>1377.7</ele>
        <time>2025-07-12T08:43:53</time>
      </trkpt>
      <trkpt lat="45.32542" lon="5.85621">
        <ele>1377.7</ele>
        <time>2025-07-12T08:43:54</time>
      </trkpt>
      <trkpt lat="45.32542" lon="5.85621">
        <ele>1378.1</ele>
        <time>2025-07-12T08:43:57</time>
      </trkpt>
      <trkpt lat="45.32542" lon="5.85621">
        <ele>1378.1</ele>
        <time>2025-07-12T08:43:58</time>
      </trkpt>
      <trkpt lat="45.32543" lon="5.85621">
        <ele>1378.1</ele>
        <time>2025-07-12T08:43:59</time>
      </trkpt>
      <trkpt lat="45.32543" lon="5.85621">
        <ele>1378.1</ele>
        <time>2025-07-12T08:44:00</time>
      </trkpt>
      <trkpt lat="45.32543" lon="5.85621">
        <ele>1378.1</ele>
        <time>2025-07-12T08:44:00</time>
      </trkpt>
      <trkpt lat="45.32543" lon="5.85622">
        <ele>1378.1</ele>
        <time>2025-07-12T08:44:03</time>
      </trkpt>
      <trkpt lat="45.32543" lon="5.85622">
        <ele>1378.1</ele>
        <time>2025-07-12T08:44:04</time>
      </trkpt>
      <trkpt lat="45.32543" lon="5.85622">
        <ele>1378.1</ele>
        <time>2025-07-12T08:44:05</time>
      </trkpt>
      <trkpt lat="45.3254" lon="5.8562">
        <ele>1378.1</ele>
        <time>2025-07-12T08:44:07</time>
      </trkpt>
      <trkpt lat="45.32536" lon="5.85616">
        <ele>1378.1</ele>
        <time>2025-07-12T08:44:09</time>
      </trkpt>
      <trkpt lat="45.32533" lon="5.85615">
        <ele>1378.1</ele>
        <time>2025-07-12T08:44:11</time>
      </trkpt>
      <trkpt lat="45.32532" lon="5.85614">
        <ele>1378.1</ele>
        <time>2025-07-12T08:44:13</time>
      </trkpt>
      <trkpt lat="45.32532" lon="5.85614">
        <ele>1378.1</ele>
        <time>2025-07-12T08:44:14</time>
      </trkpt>
      <trkpt lat="45.32532" lon="5.85614">
        <ele>1378.1</ele>
        <time>2025-07-12T08:44:15</time>
      </trkpt>
      <trkpt lat="45.32532" lon="5.85614">
        <ele>1378.1</ele>
        <time>2025-07-12T08:44:17</time>
      </trkpt>
      <trkpt lat="45.32532" lon="5.85614">
        <ele>1378.1</ele>
        <time>2025-07-12T08:44:20</time>
      </trkpt>
      <trkpt lat="45.32532" lon="5.85614">
        <ele>1378.1</ele>
        <time>2025-07-12T08:44:21</time>
      </trkpt>
      <trkpt lat="45.32532" lon="5.85615">
        <ele>1378.1</ele>
        <time>2025-07-12T08:44:22</time>
      </trkpt>
      <trkpt lat="45.32532" lon="5.85615">
        <ele>1378.1</ele>
        <time>2025-07-12T08:44:23</time>
      </trkpt>
      <trkpt lat="45.32532" lon="5.85615">
        <ele>1378.1</ele>
        <time>2025-07-12T08:44:24</time>
      </trkpt>
      <trkpt lat="45.32532" lon="5.85615">
        <ele>1378.1</ele>
        <time>2025-07-12T08:44:26</time>
      </trkpt>
      <trkpt lat="45.32532" lon="5.85615">
        <ele>1378.1</ele>
        <time>2025-07-12T08:44:26</time>
      </trkpt>
      <trkpt lat="45.32532" lon="5.85615">
        <ele>1378.1</ele>
        <time>2025-07-12T08:44:27</time>
      </trkpt>
      <trkpt lat="45.32532" lon="5.85615">
        <ele>1378.1</ele>
        <time>2025-07-12T08:44:27</time>
      </trkpt>
      <trkpt lat="45.32532" lon="5.85615">
        <ele>1378.1</ele>
        <time>2025-07-12T08:44:28</time>
      </trkpt>
      <trkpt lat="45.32532" lon="5.85615">
        <ele>1380.1</ele>
        <time>2025-07-12T08:44:32</time>
      </trkpt>
      <trkpt lat="45.32532" lon="5.85615">
        <ele>1380.1</ele>
        <time>2025-07-12T08:44:32</time>
      </trkpt>
      <trkpt lat="45.32532" lon="5.85615">
        <ele>1380.1</ele>
        <time>2025-07-12T08:44:33</time>
      </trkpt>
      <trkpt lat="45.32531" lon="5.85616">
        <ele>1380.1</ele>
        <time>2025-07-12T08:44:35</time>
      </trkpt>
      <trkpt lat="45.32525" lon="5.85617">
        <ele>1380.1</ele>
        <time>2025-07-12T08:44:36</time>
      </trkpt>
      <trkpt lat="45.32524" lon="5.85617">
        <ele>1380.7</ele>
        <time>2025-07-12T08:44:37</time>
      </trkpt>
      <trkpt lat="45.32523" lon="5.85617">
        <ele>1380.7</ele>
        <time>2025-07-12T08:44:40</time>
      </trkpt>
      <trkpt lat="45.32522" lon="5.85617">
        <ele>1380.7</ele>
        <time>2025-07-12T08:44:41</time>
      </trkpt>
      <trkpt lat="45.32522" lon="5.85617">
        <ele>1380.7</ele>
        <time>2025-07-12T08:44:42</time>
      </trkpt>
      <trkpt lat="45.32522" lon="5.85617">
        <ele>1380.7</ele>
        <time>2025-07-12T08:44:43</time>
      </trkpt>
      <trkpt lat="45.32522" lon="5.85617">
        <ele>1380.7</ele>
        <time>2025-07-12T08:44:44</time>
      </trkpt>
      <trkpt lat="45.32521" lon="5.85617">
        <ele>1380.7</ele>
        <time>2025-07-12T08:44:45</time>
      </trkpt>
      <trkpt lat="45.32521" lon="5.85617">
        <ele>1380.7</ele>
        <time>2025-07-12T08:44:46</time>
      </trkpt>
      <trkpt lat="45.32521" lon="5.85616">
        <ele>1380.7</ele>
        <time>2025-07-12T08:44:48</time>
      </trkpt>
      <trkpt lat="45.32521" lon="5.85616">
        <ele>1380.7</ele>
        <time>2025-07-12T08:44:49</time>
      </trkpt>
      <trkpt lat="45.32521" lon="5.85616">
        <ele>1380.7</ele>
        <time>2025-07-12T08:44:51</time>
      </trkpt>
      <trkpt lat="45.32521" lon="5.85616">
        <ele>1380.7</ele>
        <time>2025-07-12T08:44:52</time>
      </trkpt>
      <trkpt lat="45.32521" lon="5.85616">
        <ele>1380.7</ele>
        <time>2025-07-12T08:44:53</time>
      </trkpt>
      <trkpt lat="45.32521" lon="5.85616">
        <ele>1380.7</ele>
        <time>2025-07-12T08:44:53</time>
      </trkpt>
      <trkpt lat="45.32521" lon="5.85615">
        <ele>1380.7</ele>
        <time>2025-07-12T08:44:54</time>
      </trkpt>
      <trkpt lat="45.32521" lon="5.85615">
        <ele>1380.7</ele>
        <time>2025-07-12T08:44:56</time>
      </trkpt>
      <trkpt lat="45.32521" lon="5.85615">
        <ele>1380.7</ele>
        <time>2025-07-12T08:44:57</time>
      </trkpt>
      <trkpt lat="45.32521" lon="5.85615">
        <ele>1380.7</ele>
        <time>2025-07-12T08:44:58</time>
      </trkpt>
      <trkpt lat="45.32521" lon="5.85615">
        <ele>1380.7</ele>
        <time>2025-07-12T08:44:58</time>
      </trkpt>
      <trkpt lat="45.32521" lon="5.85616">
        <ele>1380.7</ele>
        <time>2025-07-12T08:44:59</time>
      </trkpt>
      <trkpt lat="45.32521" lon="5.85616">
        <ele>1380.7</ele>
        <time>2025-07-12T08:45:00</time>
      </trkpt>
      <trkpt lat="45.32521" lon="5.85616">
        <ele>1380.7</ele>
        <time>2025-07-12T08:45:02</time>
      </trkpt>
      <trkpt lat="45.32521" lon="5.85616">
        <ele>1380.7</ele>
        <time>2025-07-12T08:45:03</time>
      </trkpt>
      <trkpt lat="45.32521" lon="5.85616">
        <ele>1380.7</ele>
        <time>2025-07-12T08:45:04</time>
      </trkpt>
      <trkpt lat="45.32521" lon="5.85616">
        <ele>1380.7</ele>
        <time>2025-07-12T08:45:05</time>
      </trkpt>
      <trkpt lat="45.32521" lon="5.85615">
        <ele>1380.7</ele>
        <time>2025-07-12T08:45:06</time>
      </trkpt>
      <trkpt lat="45.32519" lon="5.85612">
        <ele>1380.7</ele>
        <time>2025-07-12T08:45:07</time>
      </trkpt>
      <trkpt lat="45.32517" lon="5.85609">
        <ele>1380.7</ele>
        <time>2025-07-12T08:45:09</time>
      </trkpt>
      <trkpt lat="45.32517" lon="5.85608">
        <ele>1380.7</ele>
        <time>2025-07-12T08:45:10</time>
      </trkpt>
      <trkpt lat="45.32516" lon="5.85607">
        <ele>1380.7</ele>
        <time>2025-07-12T08:45:10</time>
      </trkpt>
      <trkpt lat="45.32515" lon="5.85606">
        <ele>1386.7</ele>
        <time>2025-07-12T08:45:12</time>
      </trkpt>
      <trkpt lat="45.32515" lon="5.85606">
        <ele>1386.7</ele>
        <time>2025-07-12T08:45:13</time>
      </trkpt>
      <trkpt lat="45.32515" lon="5.85606">
        <ele>1386.7</ele>
        <time>2025-07-12T08:45:15</time>
      </trkpt>
      <trkpt lat="45.32515" lon="5.85605">
        <ele>1386.7</ele>
        <time>2025-07-12T08:45:16</time>
      </trkpt>
      <trkpt lat="45.32514" lon="5.85605">
        <ele>1386.7</ele>
        <time>2025-07-12T08:45:20</time>
      </trkpt>
      <trkpt lat="45.32514" lon="5.85605">
        <ele>1386.7</ele>
        <time>2025-07-12T08:45:20</time>
      </trkpt>
      <trkpt lat="45.32514" lon="5.85605">
        <ele>1399.2</ele>
        <time>2025-07-12T08:45:21</time>
      </trkpt>
      <trkpt lat="45.32514" lon="5.85604">
        <ele>1399.2</ele>
        <time>2025-07-12T08:45:25</time>
      </trkpt>
      <trkpt lat="45.32514" lon="5.85604">
        <ele>1399.2</ele>
        <time>2025-07-12T08:45:27</time>
      </trkpt>
      <trkpt lat="45.32514" lon="5.85604">
        <ele>1399.2</ele>
        <time>2025-07-12T08:45:28</time>
      </trkpt>
      <trkpt lat="45.32514" lon="5.85604">
        <ele>1399.2</ele>
        <time>2025-07-12T08:45:29</time>
      </trkpt>
      <trkpt lat="45.32514" lon="5.85604">
        <ele>1399.2</ele>
        <time>2025-07-12T08:45:31</time>
      </trkpt>
      <trkpt lat="45.32514" lon="5.85604">
        <ele>1399.2</ele>
        <time>2025-07-12T08:45:32</time>
      </trkpt>
      <trkpt lat="45.3251" lon="5.85601">
        <ele>1399.2</ele>
        <time>2025-07-12T08:45:36</time>
      </trkpt>
      <trkpt lat="45.32506" lon="5.856">
        <ele>1399.2</ele>
        <time>2025-07-12T08:45:40</time>
      </trkpt>
      <trkpt lat="45.32505" lon="5.85599">
        <ele>1399.2</ele>
        <time>2025-07-12T08:45:43</time>
      </trkpt>
      <trkpt lat="45.32503" lon="5.85599">
        <ele>1405.2333</ele>
        <time>2025-07-12T08:45:45</time>
      </trkpt>
      <trkpt lat="45.325" lon="5.85599">
        <ele>1405.2333</ele>
        <time>2025-07-12T08:45:50</time>
      </trkpt>
      <trkpt lat="45.325" lon="5.85599">
        <ele>1405.9</ele>
        <time>2025-07-12T08:46:03</time>
      </trkpt>
      <trkpt lat="45.325" lon="5.85599">
        <ele>1405.9</ele>
        <time>2025-07-12T08:46:04</time>
      </trkpt>
      <trkpt lat="45.325" lon="5.85599">
        <ele>1405.9</ele>
        <time>2025-07-12T08:46:05</time>
      </trkpt>
      <trkpt lat="45.325" lon="5.85599">
        <ele>1405.9</ele>
        <time>2025-07-12T08:46:06</time>
      </trkpt>
      <trkpt lat="45.325" lon="5.856">
        <ele>1405.9</ele>
        <time>2025-07-12T08:46:09</time>
      </trkpt>
      <trkpt lat="45.325" lon="5.856">
        <ele>1405.9</ele>
        <time>2025-07-12T08:46:09</time>
      </trkpt>
      <trkpt lat="45.325" lon="5.85599">
        <ele>1405.9</ele>
        <time>2025-07-12T08:46:11</time>
      </trkpt>
      <trkpt lat="45.325" lon="5.85599">
        <ele>1405.9</ele>
        <time>2025-07-12T08:46:11</time>
      </trkpt>
      <trkpt lat="45.325" lon="5.85599">
        <ele>1405.9</ele>
        <time>2025-07-12T08:46:16</time>
      </trkpt>
      <trkpt lat="45.325" lon="5.85599">
        <ele>1405.9</ele>
        <time>2025-07-12T08:46:17</time>
      </trkpt>
      <trkpt lat="45.32493" lon="5.85593">
        <ele>1405.9</ele>
        <time>2025-07-12T08:46:22</time>
      </trkpt>
      <trkpt lat="45.32493" lon="5.85592">
        <ele>1405.9</ele>
        <time>2025-07-12T08:46:23</time>
      </trkpt>
      <trkpt lat="45.32492" lon="5.85591">
        <ele>1405.9</ele>
        <time>2025-07-12T08:46:25</time>
      </trkpt>
      <trkpt lat="45.32492" lon="5.85591">
        <ele>1405.9</ele>
        <time>2025-07-12T08:46:26</time>
      </trkpt>
      <trkpt lat="45.32491" lon="5.85591">
        <ele>1413.8334</ele>
        <time>2025-07-12T08:46:28</time>
      </trkpt>
      <trkpt lat="45.32491" lon="5.85591">
        <ele>1413.8334</ele>
        <time>2025-07-12T08:46:31</time>
      </trkpt>
      <trkpt lat="45.32491" lon="5.85591">
        <ele>1413.8334</ele>
        <time>2025-07-12T08:46:33</time>
      </trkpt>
      <trkpt lat="45.32491" lon="5.85591">
        <ele>1413.8334</ele>
        <time>2025-07-12T08:46:34</time>
      </trkpt>
      <trkpt lat="45.32491" lon="5.85591">
        <ele>1413.9</ele>
        <time>2025-07-12T08:46:40</time>
      </trkpt>
      <trkpt lat="45.32491" lon="5.85591">
        <ele>1413.9</ele>
        <time>2025-07-12T08:46:42</time>
      </trkpt>
      <trkpt lat="45.32491" lon="5.85591">
        <ele>1413.9</ele>
        <time>2025-07-12T08:46:43</time>
      </trkpt>
      <trkpt lat="45.32491" lon="5.8559">
        <ele>1413.9</ele>
        <time>2025-07-12T08:46:46</time>
      </trkpt>
      <trkpt lat="45.32491" lon="5.8559">
        <ele>1413.9</ele>
        <time>2025-07-12T08:46:46</time>
      </trkpt>
      <trkpt lat="45.32491" lon="5.85591">
        <ele>1413.9</ele>
        <time>2025-07-12T08:46:47</time>
      </trkpt>
      <trkpt lat="45.32491" lon="5.85591">
        <ele>1413.9</ele>
        <time>2025-07-12T08:46:48</time>
      </trkpt>
      <trkpt lat="45.32491" lon="5.85591">
        <ele>1413.9</ele>
        <time>2025-07-12T08:46:49</time>
      </trkpt>
      <trkpt lat="45.32491" lon="5.85591">
        <ele>1413.9</ele>
        <time>2025-07-12T08:46:50</time>
      </trkpt>
      <trkpt lat="45.32491" lon="5.85591">
        <ele>1413.9</ele>
        <time>2025-07-12T08:46:50</time>
      </trkpt>
      <trkpt lat="45.32491" lon="5.85591">
        <ele>1415.1</ele>
        <time>2025-07-12T08:46:51</time>
      </trkpt>
      <trkpt lat="45.32491" lon="5.85591">
        <ele>1415.1</ele>
        <time>2025-07-12T08:46:51</time>
      </trkpt>
      <trkpt lat="45.3249" lon="5.85591">
        <ele>1415.1</ele>
        <time>2025-07-12T08:46:54</time>
      </trkpt>
      <trkpt lat="45.3249" lon="5.8559">
        <ele>1415.1</ele>
        <time>2025-07-12T08:46:56</time>
      </trkpt>
      <trkpt lat="45.32483" lon="5.85584">
        <ele>1415.1</ele>
        <time>2025-07-12T08:46:57</time>
      </trkpt>
      <trkpt lat="45.32479" lon="5.85575">
        <ele>1417.8</ele>
        <time>2025-07-12T08:47:19</time>
      </trkpt>
      <trkpt lat="45.32478" lon="5.85572">
        <ele>1417.8</ele>
        <time>2025-07-12T08:47:20</time>
      </trkpt>
      <trkpt lat="45.32475" lon="5.85561">
        <ele>1418.9333</ele>
        <time>2025-07-12T08:47:37</time>
      </trkpt>
      <trkpt lat="45.32474" lon="5.85557">
        <ele>1418.9333</ele>
        <time>2025-07-12T08:47:38</time>
      </trkpt>
      <trkpt lat="45.32473" lon="5.85553">
        <ele>1419</ele>
        <time>2025-07-12T08:47:41</time>
      </trkpt>
      <trkpt lat="45.32474" lon="5.85556">
        <ele>1419</ele>
        <time>2025-07-12T08:47:42</time>
      </trkpt>
      <trkpt lat="45.32473" lon="5.85554">
        <ele>1419</ele>
        <time>2025-07-12T08:47:43</time>
      </trkpt>
      <trkpt lat="45.32473" lon="5.85553">
        <ele>1419</ele>
        <time>2025-07-12T08:47:44</time>
      </trkpt>
      <trkpt lat="45.32472" lon="5.85553">
        <ele>1419</ele>
        <time>2025-07-12T08:47:45</time>
      </trkpt>
      <trkpt lat="45.32472" lon="5.85553">
        <ele>1419</ele>
        <time>2025-07-12T08:47:46</time>
      </trkpt>
      <trkpt lat="45.3247" lon="5.85549">
        <ele>1423.4</ele>
        <time>2025-07-12T08:47:48</time>
      </trkpt>
      <trkpt lat="45.32468" lon="5.85547">
        <ele>1423.4</ele>
        <time>2025-07-12T08:47:50</time>
      </trkpt>
      <trkpt lat="45.32467" lon="5.85546">
        <ele>1423.4</ele>
        <time>2025-07-12T08:47:51</time>
      </trkpt>
      <trkpt lat="45.32466" lon="5.85545">
        <ele>1423.4</ele>
        <time>2025-07-12T08:47:51</time>
      </trkpt>
      <trkpt lat="45.32466" lon="5.85544">
        <ele>1423.4</ele>
        <time>2025-07-12T08:47:53</time>
      </trkpt>
      <trkpt lat="45.32465" lon="5.85543">
        <ele>1423.4</ele>
        <time>2025-07-12T08:47:53</time>
      </trkpt>
      <trkpt lat="45.32465" lon="5.85543">
        <ele>1426.4333</ele>
        <time>2025-07-12T08:47:55</time>
      </trkpt>
      <trkpt lat="45.32465" lon="5.85542">
        <ele>1426.4333</ele>
        <time>2025-07-12T08:47:58</time>
      </trkpt>
      <trkpt lat="45.32465" lon="5.85542">
        <ele>1426.4333</ele>
        <time>2025-07-12T08:47:59</time>
      </trkpt>
      <trkpt lat="45.32465" lon="5.85542">
        <ele>1426.4333</ele>
        <time>2025-07-12T08:48:01</time>
      </trkpt>
      <trkpt lat="45.32465" lon="5.85542">
        <ele>1426.4333</ele>
        <time>2025-07-12T08:48:02</time>
      </trkpt>
      <trkpt lat="45.32465" lon="5.85542">
        <ele>1427.6</ele>
        <time>2025-07-12T08:48:03</time>
      </trkpt>
      <trkpt lat="45.32465" lon="5.85542">
        <ele>1427.6</ele>
        <time>2025-07-12T08:48:04</time>
      </trkpt>
      <trkpt lat="45.32465" lon="5.85542">
        <ele>1427.6</ele>
        <time>2025-07-12T08:48:05</time>
      </trkpt>
      <trkpt lat="45.32465" lon="5.85542">
        <ele>1427.6</ele>
        <time>2025-07-12T08:48:07</time>
      </trkpt>
      <trkpt lat="45.32465" lon="5.85542">
        <ele>1427.6</ele>
        <time>2025-07-12T08:48:08</time>
      </trkpt>
      <trkpt lat="45.32465" lon="5.85543">
        <ele>1427.6</ele>
        <time>2025-07-12T08:48:10</time>
      </trkpt>
      <trkpt lat="45.32465" lon="5.85542">
        <ele>1431.7333</ele>
        <time>2025-07-12T08:48:12</time>
      </trkpt>
      <trkpt lat="45.32464" lon="5.85542">
        <ele>1431.7333</ele>
        <time>2025-07-12T08:48:13</time>
      </trkpt>
      <trkpt lat="45.32464" lon="5.85542">
        <ele>1431.7333</ele>
        <time>2025-07-12T08:48:13</time>
      </trkpt>
      <trkpt lat="45.32464" lon="5.85542">
        <ele>1431.7333</ele>
        <time>2025-07-12T08:48:14</time>
      </trkpt>
      <trkpt lat="45.32464" lon="5.85542">
        <ele>1431.7333</ele>
        <time>2025-07-12T08:48:16</time>
      </trkpt>
      <trkpt lat="45.32464" lon="5.85542">
        <ele>1431.7333</ele>
        <time>2025-07-12T08:48:17</time>
      </trkpt>
      <trkpt lat="45.32458" lon="5.85525">
        <ele>1431.7333</ele>
        <time>2025-07-12T08:48:18</time>
      </trkpt>
      <trkpt lat="45.32455" lon="5.85518">
        <ele>1432</ele>
        <time>2025-07-12T08:48:20</time>
      </trkpt>
      <trkpt lat="45.32455" lon="5.85516">
        <ele>1432</ele>
        <time>2025-07-12T08:48:24</time>
      </trkpt>
      <trkpt lat="45.32455" lon="5.85516">
        <ele>1432</ele>
        <time>2025-07-12T08:48:24</time>
      </trkpt>
      <trkpt lat="45.32455" lon="5.85516">
        <ele>1432</ele>
        <time>2025-07-12T08:48:25</time>
      </trkpt>
      <trkpt lat="45.32455" lon="5.85516">
        <ele>1432</ele>
        <time>2025-07-12T08:48:26</time>
      </trkpt>
      <trkpt lat="45.32455" lon="5.85516">
        <ele>1432</ele>
        <time>2025-07-12T08:48:27</time>
      </trkpt>
      <trkpt lat="45.32455" lon="5.85516">
        <ele>1432</ele>
        <time>2025-07-12T08:48:28</time>
      </trkpt>
      <trkpt lat="45.32455" lon="5.85516">
        <ele>1436.5</ele>
        <time>2025-07-12T08:48:28</time>
      </trkpt>
      <trkpt lat="45.32455" lon="5.85516">
        <ele>1436.5</ele>
        <time>2025-07-12T08:48:29</time>
      </trkpt>
      <trkpt lat="45.32455" lon="5.85516">
        <ele>1436.5</ele>
        <time>2025-07-12T08:48:31</time>
      </trkpt>
      <trkpt lat="45.32455" lon="5.85516">
        <ele>1436.5</ele>
        <time>2025-07-12T08:48:36</time>
      </trkpt>
      <trkpt lat="45.32455" lon="5.85516">
        <ele>1436.5</ele>
        <time>2025-07-12T08:48:36</time>
      </trkpt>
      <trkpt lat="45.32455" lon="5.85516">
        <ele>1436.6</ele>
        <time>2025-07-12T08:48:37</time>
      </trkpt>
      <trkpt lat="45.32455" lon="5.85516">
        <ele>1436.6</ele>
        <time>2025-07-12T08:48:38</time>
      </trkpt>
      <trkpt lat="45.32455" lon="5.85516">
        <ele>1436.6</ele>
        <time>2025-07-12T08:48:40</time>
      </trkpt>
      <trkpt lat="45.32455" lon="5.85516">
        <ele>1436.6</ele>
        <time>2025-07-12T08:48:40</time>
      </trkpt>
      <trkpt lat="45.32455" lon="5.85516">
        <ele>1436.6</ele>
        <time>2025-07-12T08:48:41</time>
      </trkpt>
      <trkpt lat="45.32455" lon="5.85516">
        <ele>1436.6</ele>
        <time>2025-07-12T08:48:42</time>
      </trkpt>
      <trkpt lat="45.32455" lon="5.85516">
        <ele>1436.6</ele>
        <time>2025-07-12T08:48:42</time>
      </trkpt>
      <trkpt lat="45.32455" lon="5.85515">
        <ele>1436.6</ele>
        <time>2025-07-12T08:48:44</time>
      </trkpt>
      <trkpt lat="45.32455" lon="5.85516">
        <ele>1436.6</ele>
        <time>2025-07-12T08:48:45</time>
      </trkpt>
      <trkpt lat="45.32455" lon="5.85516">
        <ele>1436.6</ele>
        <time>2025-07-12T08:48:49</time>
      </trkpt>
      <trkpt lat="45.32455" lon="5.85515">
        <ele>1436.6</ele>
        <time>2025-07-12T08:48:52</time>
      </trkpt>
      <trkpt lat="45.32455" lon="5.85515">
        <ele>1438.6333</ele>
        <time>2025-07-12T08:48:57</time>
      </trkpt>
      <trkpt lat="45.32455" lon="5.85515">
        <ele>1438.6333</ele>
        <time>2025-07-12T08:48:58</time>
      </trkpt>
      <trkpt lat="45.32455" lon="5.85515">
        <ele>1438.6333</ele>
        <time>2025-07-12T08:48:59</time>
      </trkpt>
      <trkpt lat="45.32455" lon="5.85515">
        <ele>1438.6333</ele>
        <time>2025-07-12T08:49:00</time>
      </trkpt>
      <trkpt lat="45.32453" lon="5.85509">
        <ele>1442.7</ele>
        <time>2025-07-12T08:49:04</time>
      </trkpt>
      <trkpt lat="45.32451" lon="5.85506">
        <ele>1442.7</ele>
        <time>2025-07-12T08:49:06</time>
      </trkpt>
      <trkpt lat="45.32451" lon="5.85505">
        <ele>1442.7</ele>
        <time>2025-07-12T08:49:07</time>
      </trkpt>
      <trkpt lat="45.32449" lon="5.85504">
        <ele>1443.8</ele>
        <time>2025-07-12T08:49:12</time>
      </trkpt>
      <trkpt lat="45.32449" lon="5.85503">
        <ele>1443.8</ele>
        <time>2025-07-12T08:49:13</time>
      </trkpt>
      <trkpt lat="45.32449" lon="5.85503">
        <ele>1443.8</ele>
        <time>2025-07-12T08:49:14</time>
      </trkpt>
      <trkpt lat="45.32449" lon="5.85503">
        <ele>1443.8</ele>
        <time>2025-07-12T08:49:15</time>
      </trkpt>
      <trkpt lat="45.32449" lon="5.85503">
        <ele>1443.8</ele>
        <time>2025-07-12T08:49:16</time>
      </trkpt>
      <trkpt lat="45.32449" lon="5.85503">
        <ele>1443.8</ele>
        <time>2025-07-12T08:49:17</time>
      </trkpt>
      <trkpt lat="45.32449" lon="5.85503">
        <ele>1443.8</ele>
        <time>2025-07-12T08:49:18</time>
      </trkpt>
      <trkpt lat="45.32449" lon="5.85503">
        <ele>1443.8</ele>
        <time>2025-07-12T08:49:18</time>
      </trkpt>
      <trkpt lat="45.32449" lon="5.85503">
        <ele>1443.8</ele>
        <time>2025-07-12T08:49:22</time>
      </trkpt>
      <trkpt lat="45.32447" lon="5.855">
        <ele>1443.8</ele>
        <time>2025-07-12T08:49:24</time>
      </trkpt>
      <trkpt lat="45.32445" lon="5.85498">
        <ele>1443.8</ele>
        <time>2025-07-12T08:49:25</time>
      </trkpt>
      <trkpt lat="45.32444" lon="5.85496">
        <ele>1443.8</ele>
        <time>2025-07-12T08:49:26</time>
      </trkpt>
      <trkpt lat="45.32444" lon="5.85496">
        <ele>1443.8</ele>
        <time>2025-07-12T08:49:26</time>
      </trkpt>
      <trkpt lat="45.32444" lon="5.85496">
        <ele>1448.7333</ele>
        <time>2025-07-12T08:49:27</time>
      </trkpt>
      <trkpt lat="45.32444" lon="5.85495">
        <ele>1448.7333</ele>
        <time>2025-07-12T08:49:27</time>
      </trkpt>
      <trkpt lat="45.32443" lon="5.85495">
        <ele>1448.7333</ele>
        <time>2025-07-12T08:49:28</time>
      </trkpt>
      <trkpt lat="45.32443" lon="5.85495">
        <ele>1448.7333</ele>
        <time>2025-07-12T08:49:29</time>
      </trkpt>
      <trkpt lat="45.32443" lon="5.85495">
        <ele>1448.7333</ele>
        <time>2025-07-12T08:49:30</time>
      </trkpt>
      <trkpt lat="45.32443" lon="5.85494">
        <ele>1448.7333</ele>
        <time>2025-07-12T08:49:31</time>
      </trkpt>
      <trkpt lat="45.32443" lon="5.85494">
        <ele>1448.7333</ele>
        <time>2025-07-12T08:49:31</time>
      </trkpt>
      <trkpt lat="45.32443" lon="5.85494">
        <ele>1448.7333</ele>
        <time>2025-07-12T08:49:33</time>
      </trkpt>
      <trkpt lat="45.32443" lon="5.85494">
        <ele>1448.7333</ele>
        <time>2025-07-12T08:49:34</time>
      </trkpt>
      <trkpt lat="45.32442" lon="5.85494">
        <ele>1448.7333</ele>
        <time>2025-07-12T08:49:35</time>
      </trkpt>
      <trkpt lat="45.32442" lon="5.85494">
        <ele>1448.7</ele>
        <time>2025-07-12T08:49:36</time>
      </trkpt>
      <trkpt lat="45.32442" lon="5.85494">
        <ele>1448.7</ele>
        <time>2025-07-12T08:49:37</time>
      </trkpt>
      <trkpt lat="45.32442" lon="5.85494">
        <ele>1448.7</ele>
        <time>2025-07-12T08:49:37</time>
      </trkpt>
      <trkpt lat="45.32442" lon="5.85494">
        <ele>1448.7</ele>
        <time>2025-07-12T08:49:38</time>
      </trkpt>
      <trkpt lat="45.32442" lon="5.85494">
        <ele>1448.7</ele>
        <time>2025-07-12T08:49:39</time>
      </trkpt>
      <trkpt lat="45.32442" lon="5.85495">
        <ele>1448.7</ele>
        <time>2025-07-12T08:49:42</time>
      </trkpt>
      <trkpt lat="45.32442" lon="5.85495">
        <ele>1448.7</ele>
        <time>2025-07-12T08:49:45</time>
      </trkpt>
      <trkpt lat="45.32442" lon="5.85495">
        <ele>1448.7</ele>
        <time>2025-07-12T08:49:46</time>
      </trkpt>
      <trkpt lat="45.32442" lon="5.85495">
        <ele>1448.7</ele>
        <time>2025-07-12T08:49:46</time>
      </trkpt>
      <trkpt lat="45.32442" lon="5.85495">
        <ele>1448.7</ele>
        <time>2025-07-12T08:49:47</time>
      </trkpt>
      <trkpt lat="45.32442" lon="5.85494">
        <ele>1448.7</ele>
        <time>2025-07-12T08:49:48</time>
      </trkpt>
      <trkpt lat="45.32442" lon="5.85494">
        <ele>1448.7</ele>
        <time>2025-07-12T08:49:49</time>
      </trkpt>
      <trkpt lat="45.32442" lon="5.85494">
        <ele>1448.7</ele>
        <time>2025-07-12T08:49:50</time>
      </trkpt>
      <trkpt lat="45.32442" lon="5.85494">
        <ele>1448.7</ele>
        <time>2025-07-12T08:49:54</time>
      </trkpt>
      <trkpt lat="45.32442" lon="5.85494">
        <ele>1448.7</ele>
        <time>2025-07-12T08:49:57</time>
      </trkpt>
      <trkpt lat="45.32442" lon="5.85494">
        <ele>1448.7</ele>
        <time>2025-07-12T08:49:57</time>
      </trkpt>
      <trkpt lat="45.32442" lon="5.85494">
        <ele>1448.7</ele>
        <time>2025-07-12T08:49:58</time>
      </trkpt>
      <trkpt lat="45.32442" lon="5.85494">
        <ele>1448.7</ele>
        <time>2025-07-12T08:50:00</time>
      </trkpt>
      <trkpt lat="45.32442" lon="5.85494">
        <ele>1448.7</ele>
        <time>2025-07-12T08:50:00</time>
      </trkpt>
      <trkpt lat="45.32442" lon="5.85494">
        <ele>1448.7</ele>
        <time>2025-07-12T08:50:02</time>
      </trkpt>
      <trkpt lat="45.32442" lon="5.85494">
        <ele>1448.7</ele>
        <time>2025-07-12T08:50:03</time>
      </trkpt>
      <trkpt lat="45.32442" lon="5.85494">
        <ele>1448.7</ele>
        <time>2025-07-12T08:50:05</time>
      </trkpt>
      <trkpt lat="45.32442" lon="5.85494">
        <ele>1448.7</ele>
        <time>2025-07-12T08:50:06</time>
      </trkpt>
      <trkpt lat="45.32442" lon="5.85494">
        <ele>1451.4</ele>
        <time>2025-07-12T08:50:07</time>
      </trkpt>
      <trkpt lat="45.32442" lon="5.85494">
        <ele>1451.4</ele>
        <time>2025-07-12T08:50:08</time>
      </trkpt>
      <trkpt lat="45.32441" lon="5.85494">
        <ele>1451.4</ele>
        <time>2025-07-12T08:50:09</time>
      </trkpt>
      <trkpt lat="45.32441" lon="5.85494">
        <ele>1451.4</ele>
        <time>2025-07-12T08:50:10</time>
      </trkpt>
      <trkpt lat="45.32441" lon="5.85494">
        <ele>1451.4</ele>
        <time>2025-07-12T08:50:12</time>
      </trkpt>
      <trkpt lat="45.32441" lon="5.85494">
        <ele>1451.4</ele>
        <time>2025-07-12T08:50:13</time>
      </trkpt>
      <trkpt lat="45.3244" lon="5.85494">
        <ele>1451.4</ele>
        <time>2025-07-12T08:50:13</time>
      </trkpt>
      <trkpt lat="45.32436" lon="5.85494">
        <ele>1451.4</ele>
        <time>2025-07-12T08:50:14</time>
      </trkpt>
      <trkpt lat="45.32435" lon="5.85494">
        <ele>1451.4</ele>
        <time>2025-07-12T08:50:15</time>
      </trkpt>
      <trkpt lat="45.32434" lon="5.85494">
        <ele>1451.5</ele>
        <time>2025-07-12T08:50:16</time>
      </trkpt>
      <trkpt lat="45.32432" lon="5.85494">
        <ele>1451.5</ele>
        <time>2025-07-12T08:50:19</time>
      </trkpt>
      <trkpt lat="45.32432" lon="5.85494">
        <ele>1451.5</ele>
        <time>2025-07-12T08:50:20</time>
      </trkpt>
      <trkpt lat="45.32432" lon="5.85495">
        <ele>1451.5</ele>
        <time>2025-07-12T08:50:23</time>
      </trkpt>
      <trkpt lat="45.32432" lon="5.85495">
        <ele>1451.5</ele>
        <time>2025-07-12T08:50:24</time>
      </trkpt>
      <trkpt lat="45.32432" lon="5.85495">
        <ele>1451.5</ele>
        <time>2025-07-12T08:50:25</time>
      </trkpt>
      <trkpt lat="45.32432" lon="5.85495">
        <ele>1451.5</ele>
        <time>2025-07-12T08:50:26</time>
      </trkpt>
      <trkpt lat="45.32432" lon="5.85496">
        <ele>1451.5</ele>
        <time>2025-07-12T08:50:27</time>
      </trkpt>
      <trkpt lat="45.32432" lon="5.85496">
        <ele>1451.5</ele>
        <time>2025-07-12T08:50:28</time>
      </trkpt>
      <trkpt lat="45.32432" lon="5.85495">
        <ele>1451.5</ele>
        <time>2025-07-12T08:50:29</time>
      </trkpt>
      <trkpt lat="45.32432" lon="5.85495">
        <ele>1451.5</ele>
        <time>2025-07-12T08:50:30</time>
      </trkpt>
      <trkpt lat="45.32432" lon="5.85495">
        <ele>1451.5</ele>
        <time>2025-07-12T08:50:32</time>
      </trkpt>
      <trkpt lat="45.32432" lon="5.85495">
        <ele>1451.5</ele>
        <time>2025-07-12T08:50:35</time>
      </trkpt>
      <trkpt lat="45.32432" lon="5.85495">
        <ele>1451.5</ele>
        <time>2025-07-12T08:50:36</time>
      </trkpt>
      <trkpt lat="45.32432" lon="5.85495">
        <ele>1451.5</ele>
        <time>2025-07-12T08:50:37</time>
      </trkpt>
      <trkpt lat="45.32432" lon="5.85495">
        <ele>1451.5</ele>
        <time>2025-07-12T08:50:40</time>
      </trkpt>
      <trkpt lat="45.32432" lon="5.85495">
        <ele>1451.5</ele>
        <time>2025-07-12T08:50:41</time>
      </trkpt>
      <trkpt lat="45.32432" lon="5.85495">
        <ele>1451.5</ele>
        <time>2025-07-12T08:50:42</time>
      </trkpt>
      <trkpt lat="45.32432" lon="5.85495">
        <ele>1451.5</ele>
        <time>2025-07-12T08:50:45</time>
      </trkpt>
      <trkpt lat="45.32432" lon="5.85495">
        <ele>1451.5</ele>
        <time>2025-07-12T08:50:46</time>
      </trkpt>
      <trkpt lat="45.32432" lon="5.85495">
        <ele>1451.5</ele>
        <time>2025-07-12T08:50:47</time>
      </trkpt>
      <trkpt lat="45.32432" lon="5.85495">
        <ele>1451.5</ele>
        <time>2025-07-12T08:50:47</time>
      </trkpt>
      <trkpt lat="45.32432" lon="5.85494">
        <ele>1451.5</ele>
        <time>2025-07-12T08:50:49</time>
      </trkpt>
      <trkpt lat="45.32432" lon="5.85494">
        <ele>1453.5333</ele>
        <time>2025-07-12T08:50:50</time>
      </trkpt>
      <trkpt lat="45.32432" lon="5.85494">
        <ele>1453.5333</ele>
        <time>2025-07-12T08:50:51</time>
      </trkpt>
      <trkpt lat="45.32432" lon="5.85494">
        <ele>1453.5333</ele>
        <time>2025-07-12T08:50:56</time>
      </trkpt>
      <trkpt lat="45.32432" lon="5.85494">
        <ele>1453.5333</ele>
        <time>2025-07-12T08:50:57</time>
      </trkpt>
      <trkpt lat="45.32432" lon="5.85494">
        <ele>1453.5333</ele>
        <time>2025-07-12T08:50:58</time>
      </trkpt>
      <trkpt lat="45.32432" lon="5.85494">
        <ele>1457.9</ele>
        <time>2025-07-12T08:50:58</time>
      </trkpt>
      <trkpt lat="45.32432" lon="5.85494">
        <ele>1457.9</ele>
        <time>2025-07-12T08:51:00</time>
      </trkpt>
      <trkpt lat="45.32423" lon="5.85489">
        <ele>1457.9</ele>
        <time>2025-07-12T08:51:03</time>
      </trkpt>
      <trkpt lat="45.3242" lon="5.85488">
        <ele>1457.9</ele>
        <time>2025-07-12T08:51:04</time>
      </trkpt>
      <trkpt lat="45.32419" lon="5.85487">
        <ele>1457.9</ele>
        <time>2025-07-12T08:51:07</time>
      </trkpt>
      <trkpt lat="45.32419" lon="5.85487">
        <ele>1457.9</ele>
        <time>2025-07-12T08:51:07</time>
      </trkpt>
      <trkpt lat="45.32419" lon="5.85487">
        <ele>1459.6333</ele>
        <time>2025-07-12T08:51:08</time>
      </trkpt>
      <trkpt lat="45.32419" lon="5.85487">
        <ele>1459.6333</ele>
        <time>2025-07-12T08:51:10</time>
      </trkpt>
      <trkpt lat="45.32419" lon="5.85487">
        <ele>1459.6333</ele>
        <time>2025-07-12T08:51:10</time>
      </trkpt>
      <trkpt lat="45.32419" lon="5.85487">
        <ele>1459.6333</ele>
        <time>2025-07-12T08:51:12</time>
      </trkpt>
      <trkpt lat="45.32419" lon="5.85487">
        <ele>1459.6333</ele>
        <time>2025-07-12T08:51:13</time>
      </trkpt>
      <trkpt lat="45.32419" lon="5.85487">
        <ele>1459.6333</ele>
        <time>2025-07-12T08:51:14</time>
      </trkpt>
      <trkpt lat="45.32419" lon="5.85487">
        <ele>1459.6333</ele>
        <time>2025-07-12T08:51:15</time>
      </trkpt>
      <trkpt lat="45.32419" lon="5.85487">
        <ele>1463.1</ele>
        <time>2025-07-12T08:51:16</time>
      </trkpt>
      <trkpt lat="45.32419" lon="5.85487">
        <ele>1463.1</ele>
        <time>2025-07-12T08:51:17</time>
      </trkpt>
      <trkpt lat="45.32419" lon="5.85487">
        <ele>1463.1</ele>
        <time>2025-07-12T08:51:18</time>
      </trkpt>
      <trkpt lat="45.32419" lon="5.85487">
        <ele>1463.1</ele>
        <time>2025-07-12T08:51:19</time>
      </trkpt>
      <trkpt lat="45.32419" lon="5.85487">
        <ele>1463.1</ele>
        <time>2025-07-12T08:51:20</time>
      </trkpt>
      <trkpt lat="45.32419" lon="5.85487">
        <ele>1463.1</ele>
        <time>2025-07-12T08:51:21</time>
      </trkpt>
      <trkpt lat="45.32419" lon="5.85487">
        <ele>1463.1</ele>
        <time>2025-07-12T08:51:21</time>
      </trkpt>
      <trkpt lat="45.32419" lon="5.85487">
        <ele>1463.1</ele>
        <time>2025-07-12T08:51:22</time>
      </trkpt>
      <trkpt lat="45.32419" lon="5.85487">
        <ele>1463.1</ele>
        <time>2025-07-12T08:51:23</time>
      </trkpt>
      <trkpt lat="45.32419" lon="5.85487">
        <ele>1463.1</ele>
        <time>2025-07-12T08:51:24</time>
      </trkpt>
      <trkpt lat="45.32419" lon="5.85487">
        <ele>1463.1</ele>
        <time>2025-07-12T08:51:25</time>
      </trkpt>
      <trkpt lat="45.32419" lon="5.85487">
        <ele>1463.1</ele>
        <time>2025-07-12T08:51:26</time>
      </trkpt>
      <trkpt lat="45.32419" lon="5.85487">
        <ele>1463.1</ele>
        <time>2025-07-12T08:51:29</time>
      </trkpt>
      <trkpt lat="45.32419" lon="5.85487">
        <ele>1463.1</ele>
        <time>2025-07-12T08:51:29</time>
      </trkpt>
      <trkpt lat="45.32418" lon="5.85486">
        <ele>1463.1</ele>
        <time>2025-07-12T08:51:31</time>
      </trkpt>
      <trkpt lat="45.32418" lon="5.85487">
        <ele>1463.1</ele>
        <time>2025-07-12T08:51:32</time>
      </trkpt>
      <trkpt lat="45.32418" lon="5.85486">
        <ele>1463.1</ele>
        <time>2025-07-12T08:51:33</time>
      </trkpt>
      <trkpt lat="45.32418" lon="5.85486">
        <ele>1463.1</ele>
        <time>2025-07-12T08:51:36</time>
      </trkpt>
      <trkpt lat="45.32413" lon="5.85484">
        <ele>1463.1</ele>
        <time>2025-07-12T08:51:37</time>
      </trkpt>
      <trkpt lat="45.32409" lon="5.85482">
        <ele>1463.1</ele>
        <time>2025-07-12T08:51:38</time>
      </trkpt>
      <trkpt lat="45.32408" lon="5.85482">
        <ele>1463.5</ele>
        <time>2025-07-12T08:51:39</time>
      </trkpt>
      <trkpt lat="45.32407" lon="5.85482">
        <ele>1463.5</ele>
        <time>2025-07-12T08:51:41</time>
      </trkpt>
      <trkpt lat="45.32407" lon="5.85483">
        <ele>1463.5</ele>
        <time>2025-07-12T08:51:43</time>
      </trkpt>
      <trkpt lat="45.32406" lon="5.85482">
        <ele>1463.5</ele>
        <time>2025-07-12T08:51:45</time>
      </trkpt>
      <trkpt lat="45.32406" lon="5.85482">
        <ele>1463.5</ele>
        <time>2025-07-12T08:51:45</time>
      </trkpt>
      <trkpt lat="45.32406" lon="5.85482">
        <ele>1463.5</ele>
        <time>2025-07-12T08:51:46</time>
      </trkpt>
      <trkpt lat="45.32406" lon="5.85482">
        <ele>1463.5</ele>
        <time>2025-07-12T08:51:47</time>
      </trkpt>
      <trkpt lat="45.32406" lon="5.85482">
        <ele>1463.5</ele>
        <time>2025-07-12T08:51:47</time>
      </trkpt>
      <trkpt lat="45.32406" lon="5.85482">
        <ele>1463.5</ele>
        <time>2025-07-12T08:51:48</time>
      </trkpt>
      <trkpt lat="45.32405" lon="5.85481">
        <ele>1463.5</ele>
        <time>2025-07-12T08:51:50</time>
      </trkpt>
      <trkpt lat="45.324" lon="5.85477">
        <ele>1463.5</ele>
        <time>2025-07-12T08:51:51</time>
      </trkpt>
      <trkpt lat="45.32399" lon="5.85475">
        <ele>1463.9667</ele>
        <time>2025-07-12T08:51:54</time>
      </trkpt>
      <trkpt lat="45.32399" lon="5.85475">
        <ele>1463.9667</ele>
        <time>2025-07-12T08:51:54</time>
      </trkpt>
      <trkpt lat="45.32399" lon="5.85475">
        <ele>1463.9667</ele>
        <time>2025-07-12T08:51:55</time>
      </trkpt>
      <trkpt lat="45.32399" lon="5.85474">
        <ele>1463.9667</ele>
        <time>2025-07-12T08:51:56</time>
      </trkpt>
      <trkpt lat="45.32398" lon="5.85474">
        <ele>1463.9667</ele>
        <time>2025-07-12T08:51:57</time>
      </trkpt>
      <trkpt lat="45.32393" lon="5.85466">
        <ele>1463.9667</ele>
        <time>2025-07-12T08:51:59</time>
      </trkpt>
      <trkpt lat="45.32391" lon="5.85462">
        <ele>1464</ele>
        <time>2025-07-12T08:52:00</time>
      </trkpt>
      <trkpt lat="45.32391" lon="5.85461">
        <ele>1464</ele>
        <time>2025-07-12T08:52:01</time>
      </trkpt>
      <trkpt lat="45.32391" lon="5.85461">
        <ele>1464</ele>
        <time>2025-07-12T08:52:01</time>
      </trkpt>
      <trkpt lat="45.3239" lon="5.85461">
        <ele>1464</ele>
        <time>2025-07-12T08:52:02</time>
      </trkpt>
      <trkpt lat="45.3239" lon="5.85461">
        <ele>1464</ele>
        <time>2025-07-12T08:52:03</time>
      </trkpt>
      <trkpt lat="45.3239" lon="5.85461">
        <ele>1466.8</ele>
        <time>2025-07-12T08:52:08</time>
      </trkpt>
      <trkpt lat="45.3239" lon="5.85461">
        <ele>1466.8</ele>
        <time>2025-07-12T08:52:10</time>
      </trkpt>
      <trkpt lat="45.32391" lon="5.85461">
        <ele>1466.8</ele>
        <time>2025-07-12T08:52:11</time>
      </trkpt>
      <trkpt lat="45.3239" lon="5.85461">
        <ele>1466.8</ele>
        <time>2025-07-12T08:52:12</time>
      </trkpt>
      <trkpt lat="45.32391" lon="5.85461">
        <ele>1466.8</ele>
        <time>2025-07-12T08:52:13</time>
      </trkpt>
      <trkpt lat="45.32391" lon="5.85461">
        <ele>1466.8</ele>
        <time>2025-07-12T08:52:14</time>
      </trkpt>
      <trkpt lat="45.3239" lon="5.85461">
        <ele>1466.8</ele>
        <time>2025-07-12T08:52:15</time>
      </trkpt>
      <trkpt lat="45.32391" lon="5.85461">
        <ele>1466.8</ele>
        <time>2025-07-12T08:52:19</time>
      </trkpt>
      <trkpt lat="45.32391" lon="5.85461">
        <ele>1466.8</ele>
        <time>2025-07-12T08:52:20</time>
      </trkpt>
      <trkpt lat="45.32391" lon="5.85461">
        <ele>1466.8</ele>
        <time>2025-07-12T08:52:21</time>
      </trkpt>
      <trkpt lat="45.3239" lon="5.85461">
        <ele>1466.8</ele>
        <time>2025-07-12T08:52:22</time>
      </trkpt>
      <trkpt lat="45.3239" lon="5.85461">
        <ele>1466.8</ele>
        <time>2025-07-12T08:52:24</time>
      </trkpt>
      <trkpt lat="45.3239" lon="5.85461">
        <ele>1466.8</ele>
        <time>2025-07-12T08:52:25</time>
      </trkpt>
      <trkpt lat="45.3239" lon="5.85461">
        <ele>1466.8</ele>
        <time>2025-07-12T08:52:26</time>
      </trkpt>
      <trkpt lat="45.3239" lon="5.85461">
        <ele>1466.8</ele>
        <time>2025-07-12T08:52:28</time>
      </trkpt>
      <trkpt lat="45.3239" lon="5.85461">
        <ele>1466.8</ele>
        <time>2025-07-12T08:52:30</time>
      </trkpt>
      <trkpt lat="45.3239" lon="5.85461">
        <ele>1466.8</ele>
        <time>2025-07-12T08:52:31</time>
      </trkpt>
      <trkpt lat="45.32389" lon="5.85461">
        <ele>1470.5</ele>
        <time>2025-07-12T08:52:35</time>
      </trkpt>
      <trkpt lat="45.32387" lon="5.8546">
        <ele>1470.5</ele>
        <time>2025-07-12T08:52:36</time>
      </trkpt>
      <trkpt lat="45.32384" lon="5.85459">
        <ele>1470.5</ele>
        <time>2025-07-12T08:52:36</time>
      </trkpt>
      <trkpt lat="45.32383" lon="5.85458">
        <ele>1470.5</ele>
        <time>2025-07-12T08:52:37</time>
      </trkpt>
      <trkpt lat="45.32382" lon="5.85457">
        <ele>1470.5</ele>
        <time>2025-07-12T08:52:39</time>
      </trkpt>
      <trkpt lat="45.32382" lon="5.85457">
        <ele>1470.5</ele>
        <time>2025-07-12T08:52:39</time>
      </trkpt>
      <trkpt lat="45.32377" lon="5.85449">
        <ele>1470.5</ele>
        <time>2025-07-12T08:52:40</time>
      </trkpt>
      <trkpt lat="45.32375" lon="5.85446">
        <ele>1470.5</ele>
        <time>2025-07-12T08:52:41</time>
      </trkpt>
      <trkpt lat="45.32374" lon="5.85444">
        <ele>1470.5</ele>
        <time>2025-07-12T08:52:42</time>
      </trkpt>
      <trkpt lat="45.32373" lon="5.85443">
        <ele>1470.5</ele>
        <time>2025-07-12T08:52:42</time>
      </trkpt>
      <trkpt lat="45.32373" lon="5.85443">
        <ele>1470.5</ele>
        <time>2025-07-12T08:52:44</time>
      </trkpt>
      <trkpt lat="45.32373" lon="5.85443">
        <ele>1470.5</ele>
        <time>2025-07-12T08:52:45</time>
      </trkpt>
      <trkpt lat="45.32373" lon="5.85443">
        <ele>1470.5</ele>
        <time>2025-07-12T08:52:47</time>
      </trkpt>
      <trkpt lat="45.32373" lon="5.85443">
        <ele>1472.2</ele>
        <time>2025-07-12T08:52:48</time>
      </trkpt>
      <trkpt lat="45.32373" lon="5.85443">
        <ele>1472.2</ele>
        <time>2025-07-12T08:52:49</time>
      </trkpt>
      <trkpt lat="45.32373" lon="5.85443">
        <ele>1472.2</ele>
        <time>2025-07-12T08:52:49</time>
      </trkpt>
      <trkpt lat="45.32373" lon="5.85443">
        <ele>1472.2</ele>
        <time>2025-07-12T08:52:50</time>
      </trkpt>
      <trkpt lat="45.32373" lon="5.85443">
        <ele>1472.2</ele>
        <time>2025-07-12T08:52:53</time>
      </trkpt>
      <trkpt lat="45.32373" lon="5.85442">
        <ele>1472.2</ele>
        <time>2025-07-12T08:52:53</time>
      </trkpt>
      <trkpt lat="45.32371" lon="5.85435">
        <ele>1472.2</ele>
        <time>2025-07-12T08:52:54</time>
      </trkpt>
      <trkpt lat="45.3237" lon="5.8543">
        <ele>1474.9</ele>
        <time>2025-07-12T08:52:55</time>
      </trkpt>
      <trkpt lat="45.32369" lon="5.85427">
        <ele>1474.9</ele>
        <time>2025-07-12T08:52:55</time>
      </trkpt>
      <trkpt lat="45.32369" lon="5.85427">
        <ele>1474.9</ele>
        <time>2025-07-12T08:52:56</time>
      </trkpt>
      <trkpt lat="45.32369" lon="5.85426">
        <ele>1474.9</ele>
        <time>2025-07-12T08:52:56</time>
      </trkpt>
      <trkpt lat="45.32368" lon="5.85425">
        <ele>1474.9</ele>
        <time>2025-07-12T08:52:58</time>
      </trkpt>
      <trkpt lat="45.32368" lon="5.85425">
        <ele>1474.9</ele>
        <time>2025-07-12T08:52:59</time>
      </trkpt>
      <trkpt lat="45.32368" lon="5.85425">
        <ele>1474.9</ele>
        <time>2025-07-12T08:53:00</time>
      </trkpt>
      <trkpt lat="45.32368" lon="5.85425">
        <ele>1476.9667</ele>
        <time>2025-07-12T08:53:01</time>
      </trkpt>
      <trkpt lat="45.32368" lon="5.85425">
        <ele>1476.9667</ele>
        <time>2025-07-12T08:53:02</time>
      </trkpt>
      <trkpt lat="45.32368" lon="5.85425">
        <ele>1476.9667</ele>
        <time>2025-07-12T08:53:03</time>
      </trkpt>
      <trkpt lat="45.32368" lon="5.85425">
        <ele>1476.9667</ele>
        <time>2025-07-12T08:53:05</time>
      </trkpt>
      <trkpt lat="45.32368" lon="5.85424">
        <ele>1476.9667</ele>
        <time>2025-07-12T08:53:09</time>
      </trkpt>
      <trkpt lat="45.32368" lon="5.85424">
        <ele>1476.9667</ele>
        <time>2025-07-12T08:53:09</time>
      </trkpt>
      <trkpt lat="45.32368" lon="5.85424">
        <ele>1477.3334</ele>
        <time>2025-07-12T08:53:11</time>
      </trkpt>
      <trkpt lat="45.32368" lon="5.85424">
        <ele>1477.3334</ele>
        <time>2025-07-12T08:53:11</time>
      </trkpt>
      <trkpt lat="45.32368" lon="5.85424">
        <ele>1477.3334</ele>
        <time>2025-07-12T08:53:15</time>
      </trkpt>
      <trkpt lat="45.32365" lon="5.85417">
        <ele>1477.3334</ele>
        <time>2025-07-12T08:53:16</time>
      </trkpt>
      <trkpt lat="45.32363" lon="5.85413">
        <ele>1477.3334</ele>
        <time>2025-07-12T08:53:17</time>
      </trkpt>
      <trkpt lat="45.32363" lon="5.85413">
        <ele>1477.3334</ele>
        <time>2025-07-12T08:53:18</time>
      </trkpt>
      <trkpt lat="45.32362" lon="5.85412">
        <ele>1477.3334</ele>
        <time>2025-07-12T08:53:18</time>
      </trkpt>
      <trkpt lat="45.32362" lon="5.85412">
        <ele>1478.9</ele>
        <time>2025-07-12T08:53:20</time>
      </trkpt>
      <trkpt lat="45.32362" lon="5.85412">
        <ele>1478.9</ele>
        <time>2025-07-12T08:53:22</time>
      </trkpt>
      <trkpt lat="45.32362" lon="5.85412">
        <ele>1478.9</ele>
        <time>2025-07-12T08:53:24</time>
      </trkpt>
      <trkpt lat="45.32362" lon="5.85412">
        <ele>1478.9</ele>
        <time>2025-07-12T08:53:27</time>
      </trkpt>
      <trkpt lat="45.32362" lon="5.85412">
        <ele>1478.9</ele>
        <time>2025-07-12T08:53:28</time>
      </trkpt>
      <trkpt lat="45.32362" lon="5.85405">
        <ele>1478.9</ele>
        <time>2025-07-12T08:53:29</time>
      </trkpt>
      <trkpt lat="45.32362" lon="5.85402">
        <ele>1478.9</ele>
        <time>2025-07-12T08:53:30</time>
      </trkpt>
      <trkpt lat="45.32362" lon="5.854">
        <ele>1478.9</ele>
        <time>2025-07-12T08:53:31</time>
      </trkpt>
      <trkpt lat="45.32361" lon="5.85399">
        <ele>1478.9</ele>
        <time>2025-07-12T08:53:33</time>
      </trkpt>
      <trkpt lat="45.32361" lon="5.85398">
        <ele>1478.9</ele>
        <time>2025-07-12T08:53:34</time>
      </trkpt>
      <trkpt lat="45.32361" lon="5.85398">
        <ele>1478.9</ele>
        <time>2025-07-12T08:53:35</time>
      </trkpt>
      <trkpt lat="45.32361" lon="5.85398">
        <ele>1478.9</ele>
        <time>2025-07-12T08:53:36</time>
      </trkpt>
      <trkpt lat="45.32361" lon="5.85398">
        <ele>1478.9</ele>
        <time>2025-07-12T08:53:36</time>
      </trkpt>
      <trkpt lat="45.32361" lon="5.85398">
        <ele>1478.9</ele>
        <time>2025-07-12T08:53:37</time>
      </trkpt>
      <trkpt lat="45.32361" lon="5.85398">
        <ele>1478.9</ele>
        <time>2025-07-12T08:53:38</time>
      </trkpt>
      <trkpt lat="45.32361" lon="5.85397">
        <ele>1478.9</ele>
        <time>2025-07-12T08:53:39</time>
      </trkpt>
      <trkpt lat="45.32361" lon="5.85397">
        <ele>1487.3</ele>
        <time>2025-07-12T08:53:43</time>
      </trkpt>
      <trkpt lat="45.32361" lon="5.85397">
        <ele>1487.3</ele>
        <time>2025-07-12T08:53:44</time>
      </trkpt>
      <trkpt lat="45.32361" lon="5.85397">
        <ele>1487.3</ele>
        <time>2025-07-12T08:53:44</time>
      </trkpt>
      <trkpt lat="45.32361" lon="5.85397">
        <ele>1487.3</ele>
        <time>2025-07-12T08:53:45</time>
      </trkpt>
      <trkpt lat="45.32361" lon="5.85397">
        <ele>1487.3</ele>
        <time>2025-07-12T08:53:46</time>
      </trkpt>
      <trkpt lat="45.32355" lon="5.85388">
        <ele>1487.3</ele>
        <time>2025-07-12T08:53:47</time>
      </trkpt>
      <trkpt lat="45.32353" lon="5.85386">
        <ele>1487.3</ele>
        <time>2025-07-12T08:53:50</time>
      </trkpt>
      <trkpt lat="45.32353" lon="5.85385">
        <ele>1487.3</ele>
        <time>2025-07-12T08:53:52</time>
      </trkpt>
      <trkpt lat="45.32353" lon="5.85385">
        <ele>1487.3</ele>
        <time>2025-07-12T08:53:54</time>
      </trkpt>
      <trkpt lat="45.32353" lon="5.85385">
        <ele>1487.3</ele>
        <time>2025-07-12T08:53:55</time>
      </trkpt>
      <trkpt lat="45.32353" lon="5.85385">
        <ele>1488</ele>
        <time>2025-07-12T08:53:57</time>
      </trkpt>
      <trkpt lat="45.32353" lon="5.85385">
        <ele>1488</ele>
        <time>2025-07-12T08:53:59</time>
      </trkpt>
      <trkpt lat="45.32353" lon="5.85385">
        <ele>1488</ele>
        <time>2025-07-12T08:54:01</time>
      </trkpt>
      <trkpt lat="45.32353" lon="5.85385">
        <ele>1488</ele>
        <time>2025-07-12T08:54:03</time>
      </trkpt>
      <trkpt lat="45.32353" lon="5.85385">
        <ele>1488</ele>
        <time>2025-07-12T08:54:03</time>
      </trkpt>
      <trkpt lat="45.32353" lon="5.85385">
        <ele>1488</ele>
        <time>2025-07-12T08:54:04</time>
      </trkpt>
      <trkpt lat="45.32353" lon="5.85385">
        <ele>1488</ele>
        <time>2025-07-12T08:54:05</time>
      </trkpt>
      <trkpt lat="45.32352" lon="5.85384">
        <ele>1488</ele>
        <time>2025-07-12T08:54:08</time>
      </trkpt>
      <trkpt lat="45.3235" lon="5.85381">
        <ele>1488</ele>
        <time>2025-07-12T08:54:09</time>
      </trkpt>
      <trkpt lat="45.32348" lon="5.85377">
        <ele>1488</ele>
        <time>2025-07-12T08:54:11</time>
      </trkpt>
      <trkpt lat="45.32348" lon="5.85376">
        <ele>1488</ele>
        <time>2025-07-12T08:54:12</time>
      </trkpt>
      <trkpt lat="45.32347" lon="5.85375">
        <ele>1488.3</ele>
        <time>2025-07-12T08:54:15</time>
      </trkpt>
      <trkpt lat="45.32347" lon="5.85375">
        <ele>1488.3</ele>
        <time>2025-07-12T08:54:15</time>
      </trkpt>
      <trkpt lat="45.32346" lon="5.85375">
        <ele>1488.3</ele>
        <time>2025-07-12T08:54:19</time>
      </trkpt>
      <trkpt lat="45.32346" lon="5.85375">
        <ele>1488.3</ele>
        <time>2025-07-12T08:54:21</time>
      </trkpt>
      <trkpt lat="45.32345" lon="5.85375">
        <ele>1488.3</ele>
        <time>2025-07-12T08:54:22</time>
      </trkpt>
      <trkpt lat="45.32345" lon="5.85375">
        <ele>1488.3</ele>
        <time>2025-07-12T08:54:23</time>
      </trkpt>
      <trkpt lat="45.32345" lon="5.85375">
        <ele>1488.3</ele>
        <time>2025-07-12T08:54:24</time>
      </trkpt>
      <trkpt lat="45.32345" lon="5.85375">
        <ele>1488.3</ele>
        <time>2025-07-12T08:54:25</time>
      </trkpt>
      <trkpt lat="45.32345" lon="5.85375">
        <ele>1488.3</ele>
        <time>2025-07-12T08:54:26</time>
      </trkpt>
      <trkpt lat="45.32344" lon="5.85367">
        <ele>1488.3</ele>
        <time>2025-07-12T08:54:27</time>
      </trkpt>
      <trkpt lat="45.32344" lon="5.85362">
        <ele>1488.3</ele>
        <time>2025-07-12T08:54:29</time>
      </trkpt>
      <trkpt lat="45.32344" lon="5.85362">
        <ele>1488.3</ele>
        <time>2025-07-12T08:54:30</time>
      </trkpt>
      <trkpt lat="45.32344" lon="5.85362">
        <ele>1488.3</ele>
        <time>2025-07-12T08:54:32</time>
      </trkpt>
      <trkpt lat="45.32344" lon="5.85362">
        <ele>1488.3</ele>
        <time>2025-07-12T08:54:33</time>
      </trkpt>
      <trkpt lat="45.32344" lon="5.85362">
        <ele>1488.3</ele>
        <time>2025-07-12T08:54:34</time>
      </trkpt>
      <trkpt lat="45.32344" lon="5.85362">
        <ele>1488.3</ele>
        <time>2025-07-12T08:54:36</time>
      </trkpt>
      <trkpt lat="45.32344" lon="5.85362">
        <ele>1488.3</ele>
        <time>2025-07-12T08:54:36</time>
      </trkpt>
      <trkpt lat="45.32344" lon="5.85361">
        <ele>1489.9</ele>
        <time>2025-07-12T08:54:38</time>
      </trkpt>
      <trkpt lat="45.32344" lon="5.85361">
        <ele>1489.9</ele>
        <time>2025-07-12T08:54:40</time>
      </trkpt>
      <trkpt lat="45.32344" lon="5.85361">
        <ele>1489.9</ele>
        <time>2025-07-12T08:54:41</time>
      </trkpt>
      <trkpt lat="45.32344" lon="5.85361">
        <ele>1489.9</ele>
        <time>2025-07-12T08:54:42</time>
      </trkpt>
      <trkpt lat="45.32344" lon="5.85361">
        <ele>1489.9</ele>
        <time>2025-07-12T08:54:43</time>
      </trkpt>
      <trkpt lat="45.32344" lon="5.85361">
        <ele>1489.9</ele>
        <time>2025-07-12T08:54:45</time>
      </trkpt>
      <trkpt lat="45.32344" lon="5.85361">
        <ele>1489.9</ele>
        <time>2025-07-12T08:54:49</time>
      </trkpt>
      <trkpt lat="45.32344" lon="5.85361">
        <ele>1489.9</ele>
        <time>2025-07-12T08:54:50</time>
      </trkpt>
      <trkpt lat="45.32344" lon="5.85361">
        <ele>1489.9</ele>
        <time>2025-07-12T08:54:52</time>
      </trkpt>
      <trkpt lat="45.32344" lon="5.85361">
        <ele>1489.9</ele>
        <time>2025-07-12T08:54:56</time>
      </trkpt>
      <trkpt lat="45.32344" lon="5.85361">
        <ele>1489.9</ele>
        <time>2025-07-12T08:54:58</time>
      </trkpt>
      <trkpt lat="45.32344" lon="5.85361">
        <ele>1489.9</ele>
        <time>2025-07-12T08:54:59</time>
      </trkpt>
      <trkpt lat="45.32344" lon="5.85361">
        <ele>1489.9</ele>
        <time>2025-07-12T08:55:00</time>
      </trkpt>
      <trkpt lat="45.32344" lon="5.85361">
        <ele>1489.9</ele>
        <time>2025-07-12T08:55:01</time>
      </trkpt>
      <trkpt lat="45.32344" lon="5.85361">
        <ele>1489.9</ele>
        <time>2025-07-12T08:55:03</time>
      </trkpt>
      <trkpt lat="45.32344" lon="5.85361">
        <ele>1488.9</ele>
        <time>2025-07-12T08:55:04</time>
      </trkpt>
      <trkpt lat="45.32339" lon="5.85352">
        <ele>1488.9</ele>
        <time>2025-07-12T08:55:05</time>
      </trkpt>
      <trkpt lat="45.32336" lon="5.85349">
        <ele>1488.9</ele>
        <time>2025-07-12T08:55:06</time>
      </trkpt>
      <trkpt lat="45.32336" lon="5.85349">
        <ele>1488.9</ele>
        <time>2025-07-12T08:55:09</time>
      </trkpt>
      <trkpt lat="45.32336" lon="5.85349">
        <ele>1488.9</ele>
        <time>2025-07-12T08:55:11</time>
      </trkpt>
      <trkpt lat="45.32336" lon="5.85349">
        <ele>1488.9</ele>
        <time>2025-07-12T08:55:12</time>
      </trkpt>
      <trkpt lat="45.32336" lon="5.85349">
        <ele>1488.6</ele>
        <time>2025-07-12T08:55:15</time>
      </trkpt>
      <trkpt lat="45.32336" lon="5.85349">
        <ele>1488.6</ele>
        <time>2025-07-12T08:55:16</time>
      </trkpt>
      <trkpt lat="45.32336" lon="5.85349">
        <ele>1488.6</ele>
        <time>2025-07-12T08:55:17</time>
      </trkpt>
      <trkpt lat="45.32336" lon="5.85349">
        <ele>1488.6</ele>
        <time>2025-07-12T08:55:18</time>
      </trkpt>
      <trkpt lat="45.32336" lon="5.85349">
        <ele>1488.6</ele>
        <time>2025-07-12T08:55:20</time>
      </trkpt>
      <trkpt lat="45.32336" lon="5.85349">
        <ele>1488.6</ele>
        <time>2025-07-12T08:55:20</time>
      </trkpt>
      <trkpt lat="45.32336" lon="5.85349">
        <ele>1488.6</ele>
        <time>2025-07-12T08:55:21</time>
      </trkpt>
      <trkpt lat="45.32336" lon="5.85349">
        <ele>1488.6</ele>
        <time>2025-07-12T08:55:22</time>
      </trkpt>
      <trkpt lat="45.32336" lon="5.85349">
        <ele>1488.6</ele>
        <time>2025-07-12T08:55:23</time>
      </trkpt>
      <trkpt lat="45.32335" lon="5.85348">
        <ele>1488.6</ele>
        <time>2025-07-12T08:55:23</time>
      </trkpt>
      <trkpt lat="45.3233" lon="5.85346">
        <ele>1488.6</ele>
        <time>2025-07-12T08:55:24</time>
      </trkpt>
      <trkpt lat="45.32329" lon="5.85345">
        <ele>1488.6</ele>
        <time>2025-07-12T08:55:25</time>
      </trkpt>
      <trkpt lat="45.32326" lon="5.85344">
        <ele>1488.9</ele>
        <time>2025-07-12T08:55:29</time>
      </trkpt>
      <trkpt lat="45.32326" lon="5.85344">
        <ele>1488.9</ele>
        <time>2025-07-12T08:55:30</time>
      </trkpt>
      <trkpt lat="45.32326" lon="5.85344">
        <ele>1488.9</ele>
        <time>2025-07-12T08:55:31</time>
      </trkpt>
      <trkpt lat="45.32326" lon="5.85343">
        <ele>1488.9</ele>
        <time>2025-07-12T08:55:32</time>
      </trkpt>
      <trkpt lat="45.32326" lon="5.85343">
        <ele>1488.9</ele>
        <time>2025-07-12T08:55:32</time>
      </trkpt>
      <trkpt lat="45.32326" lon="5.85343">
        <ele>1488.9</ele>
        <time>2025-07-12T08:55:33</time>
      </trkpt>
      <trkpt lat="45.32326" lon="5.85343">
        <ele>1488.9</ele>
        <time>2025-07-12T08:55:34</time>
      </trkpt>
      <trkpt lat="45.32326" lon="5.85343">
        <ele>1488.9</ele>
        <time>2025-07-12T08:55:35</time>
      </trkpt>
      <trkpt lat="45.32326" lon="5.85343">
        <ele>1488.9</ele>
        <time>2025-07-12T08:55:36</time>
      </trkpt>
      <trkpt lat="45.32326" lon="5.85343">
        <ele>1488.9</ele>
        <time>2025-07-12T08:55:38</time>
      </trkpt>
      <trkpt lat="45.32326" lon="5.85343">
        <ele>1488.9</ele>
        <time>2025-07-12T08:55:39</time>
      </trkpt>
      <trkpt lat="45.32325" lon="5.85343">
        <ele>1488.9</ele>
        <time>2025-07-12T08:55:42</time>
      </trkpt>
      <trkpt lat="45.32325" lon="5.85343">
        <ele>1488.9</ele>
        <time>2025-07-12T08:55:45</time>
      </trkpt>
      <trkpt lat="45.32325" lon="5.85343">
        <ele>1488.9</ele>
        <time>2025-07-12T08:55:47</time>
      </trkpt>
      <trkpt lat="45.32325" lon="5.85343">
        <ele>1488.9</ele>
        <time>2025-07-12T08:55:48</time>
      </trkpt>
      <trkpt lat="45.32325" lon="5.85343">
        <ele>1488.9</ele>
        <time>2025-07-12T08:55:48</time>
      </trkpt>
      <trkpt lat="45.32325" lon="5.85343">
        <ele>1488.9</ele>
        <time>2025-07-12T08:55:49</time>
      </trkpt>
      <trkpt lat="45.32325" lon="5.85343">
        <ele>1488.9</ele>
        <time>2025-07-12T08:55:50</time>
      </trkpt>
      <trkpt lat="45.32325" lon="5.85342">
        <ele>1488.9</ele>
        <time>2025-07-12T08:55:51</time>
      </trkpt>
      <trkpt lat="45.32325" lon="5.85342">
        <ele>1496.8</ele>
        <time>2025-07-12T08:55:52</time>
      </trkpt>
      <trkpt lat="45.32324" lon="5.85341">
        <ele>1496.8</ele>
        <time>2025-07-12T08:55:53</time>
      </trkpt>
      <trkpt lat="45.32321" lon="5.85336">
        <ele>1496.8</ele>
        <time>2025-07-12T08:55:54</time>
      </trkpt>
      <trkpt lat="45.32319" lon="5.85333">
        <ele>1496.8</ele>
        <time>2025-07-12T08:55:58</time>
      </trkpt>
      <trkpt lat="45.32319" lon="5.85332">
        <ele>1496.8</ele>
        <time>2025-07-12T08:56:02</time>
      </trkpt>
      <trkpt lat="45.32319" lon="5.85332">
        <ele>1496.8</ele>
        <time>2025-07-12T08:56:03</time>
      </trkpt>
      <trkpt lat="45.32319" lon="5.85332">
        <ele>1496.8</ele>
        <time>2025-07-12T08:56:04</time>
      </trkpt>
      <trkpt lat="45.32319" lon="5.85332">
        <ele>1496.8</ele>
        <time>2025-07-12T08:56:05</time>
      </trkpt>
      <trkpt lat="45.32318" lon="5.85332">
        <ele>1496.8</ele>
        <time>2025-07-12T08:56:06</time>
      </trkpt>
      <trkpt lat="45.32318" lon="5.85332">
        <ele>1496.8</ele>
        <time>2025-07-12T08:56:07</time>
      </trkpt>
      <trkpt lat="45.32318" lon="5.85332">
        <ele>1496.8</ele>
        <time>2025-07-12T08:56:07</time>
      </trkpt>
      <trkpt lat="45.32319" lon="5.85332">
        <ele>1496.8</ele>
        <time>2025-07-12T08:56:09</time>
      </trkpt>
      <trkpt lat="45.32318" lon="5.85332">
        <ele>1496.8</ele>
        <time>2025-07-12T08:56:10</time>
      </trkpt>
      <trkpt lat="45.32316" lon="5.85327">
        <ele>1496.8</ele>
        <time>2025-07-12T08:56:17</time>
      </trkpt>
      <trkpt lat="45.32315" lon="5.85324">
        <ele>1502.2</ele>
        <time>2025-07-12T08:56:18</time>
      </trkpt>
      <trkpt lat="45.32314" lon="5.85323">
        <ele>1502.2</ele>
        <time>2025-07-12T08:56:19</time>
      </trkpt>
      <trkpt lat="45.32314" lon="5.85322">
        <ele>1502.2</ele>
        <time>2025-07-12T08:56:21</time>
      </trkpt>
      <trkpt lat="45.32313" lon="5.85321">
        <ele>1502.2</ele>
        <time>2025-07-12T08:56:23</time>
      </trkpt>
      <trkpt lat="45.32313" lon="5.85321">
        <ele>1502.2</ele>
        <time>2025-07-12T08:56:25</time>
      </trkpt>
      <trkpt lat="45.32312" lon="5.85321">
        <ele>1502.2</ele>
        <time>2025-07-12T08:56:27</time>
      </trkpt>
      <trkpt lat="45.32312" lon="5.8532">
        <ele>1502.4</ele>
        <time>2025-07-12T08:56:31</time>
      </trkpt>
      <trkpt lat="45.32312" lon="5.8532">
        <ele>1502.4</ele>
        <time>2025-07-12T08:56:36</time>
      </trkpt>
      <trkpt lat="45.32312" lon="5.8532">
        <ele>1502.4</ele>
        <time>2025-07-12T08:56:39</time>
      </trkpt>
      <trkpt lat="45.32312" lon="5.8532">
        <ele>1502.4</ele>
        <time>2025-07-12T08:56:41</time>
      </trkpt>
      <trkpt lat="45.32311" lon="5.85319">
        <ele>1502.4</ele>
        <time>2025-07-12T08:56:42</time>
      </trkpt>
      <trkpt lat="45.32308" lon="5.85314">
        <ele>1502.4</ele>
        <time>2025-07-12T08:56:43</time>
      </trkpt>
      <trkpt lat="45.32307" lon="5.85312">
        <ele>1502.4</ele>
        <time>2025-07-12T08:56:44</time>
      </trkpt>
      <trkpt lat="45.32306" lon="5.85311">
        <ele>1502.4</ele>
        <time>2025-07-12T08:56:46</time>
      </trkpt>
      <trkpt lat="45.32305" lon="5.85311">
        <ele>1508.4</ele>
        <time>2025-07-12T08:56:47</time>
      </trkpt>
      <trkpt lat="45.32305" lon="5.8531">
        <ele>1508.4</ele>
        <time>2025-07-12T08:56:48</time>
      </trkpt>
      <trkpt lat="45.32305" lon="5.8531">
        <ele>1508.4</ele>
        <time>2025-07-12T08:56:49</time>
      </trkpt>
      <trkpt lat="45.32305" lon="5.85309">
        <ele>1508.4</ele>
        <time>2025-07-12T08:56:50</time>
      </trkpt>
      <trkpt lat="45.32305" lon="5.85309">
        <ele>1508.4</ele>
        <time>2025-07-12T08:56:50</time>
      </trkpt>
      <trkpt lat="45.32305" lon="5.85309">
        <ele>1508.4</ele>
        <time>2025-07-12T08:56:52</time>
      </trkpt>
      <trkpt lat="45.32305" lon="5.85309">
        <ele>1508.4</ele>
        <time>2025-07-12T08:56:53</time>
      </trkpt>
      <trkpt lat="45.32305" lon="5.85309">
        <ele>1508.4</ele>
        <time>2025-07-12T08:56:54</time>
      </trkpt>
      <trkpt lat="45.32305" lon="5.85308">
        <ele>1508.4</ele>
        <time>2025-07-12T08:56:55</time>
      </trkpt>
      <trkpt lat="45.32305" lon="5.85308">
        <ele>1508.4</ele>
        <time>2025-07-12T08:56:58</time>
      </trkpt>
      <trkpt lat="45.32305" lon="5.85308">
        <ele>1508.4</ele>
        <time>2025-07-12T08:56:59</time>
      </trkpt>
      <trkpt lat="45.32305" lon="5.85308">
        <ele>1508.4</ele>
        <time>2025-07-12T08:56:59</time>
      </trkpt>
      <trkpt lat="45.32305" lon="5.85308">
        <ele>1508.4</ele>
        <time>2025-07-12T08:57:00</time>
      </trkpt>
      <trkpt lat="45.32305" lon="5.85308">
        <ele>1508.4</ele>
        <time>2025-07-12T08:57:01</time>
      </trkpt>
      <trkpt lat="45.32305" lon="5.85308">
        <ele>1508.4</ele>
        <time>2025-07-12T08:57:02</time>
      </trkpt>
      <trkpt lat="45.32305" lon="5.85308">
        <ele>1508.4</ele>
        <time>2025-07-12T08:57:03</time>
      </trkpt>
      <trkpt lat="45.32305" lon="5.85308">
        <ele>1508.4</ele>
        <time>2025-07-12T08:57:06</time>
      </trkpt>
      <trkpt lat="45.32305" lon="5.85308">
        <ele>1508.4</ele>
        <time>2025-07-12T08:57:07</time>
      </trkpt>
      <trkpt lat="45.32305" lon="5.85308">
        <ele>1508.4</ele>
        <time>2025-07-12T08:57:09</time>
      </trkpt>
      <trkpt lat="45.32305" lon="5.85308">
        <ele>1508.4</ele>
        <time>2025-07-12T08:57:10</time>
      </trkpt>
      <trkpt lat="45.32305" lon="5.85308">
        <ele>1508.4</ele>
        <time>2025-07-12T08:57:12</time>
      </trkpt>
      <trkpt lat="45.32305" lon="5.85308">
        <ele>1508.4</ele>
        <time>2025-07-12T08:57:17</time>
      </trkpt>
      <trkpt lat="45.32304" lon="5.85305">
        <ele>1508.4</ele>
        <time>2025-07-12T08:57:18</time>
      </trkpt>
      <trkpt lat="45.32301" lon="5.853">
        <ele>1508.4</ele>
        <time>2025-07-12T08:57:19</time>
      </trkpt>
      <trkpt lat="45.323" lon="5.85298">
        <ele>1508.4</ele>
        <time>2025-07-12T08:57:20</time>
      </trkpt>
      <trkpt lat="45.32299" lon="5.85298">
        <ele>1508.4</ele>
        <time>2025-07-12T08:57:21</time>
      </trkpt>
      <trkpt lat="45.32298" lon="5.85298">
        <ele>1508.4</ele>
        <time>2025-07-12T08:57:22</time>
      </trkpt>
      <trkpt lat="45.32298" lon="5.85298">
        <ele>1508.4</ele>
        <time>2025-07-12T08:57:23</time>
      </trkpt>
      <trkpt lat="45.32298" lon="5.85298">
        <ele>1508.4</ele>
        <time>2025-07-12T08:57:24</time>
      </trkpt>
      <trkpt lat="45.32297" lon="5.85298">
        <ele>1508.4</ele>
        <time>2025-07-12T08:57:25</time>
      </trkpt>
      <trkpt lat="45.32297" lon="5.85298">
        <ele>1517.1</ele>
        <time>2025-07-12T08:57:28</time>
      </trkpt>
      <trkpt lat="45.32297" lon="5.85298">
        <ele>1517.1</ele>
        <time>2025-07-12T08:57:30</time>
      </trkpt>
      <trkpt lat="45.32297" lon="5.85298">
        <ele>1517.1</ele>
        <time>2025-07-12T08:57:33</time>
      </trkpt>
      <trkpt lat="45.32297" lon="5.85298">
        <ele>1517.1</ele>
        <time>2025-07-12T08:57:34</time>
      </trkpt>
      <trkpt lat="45.32297" lon="5.85299">
        <ele>1517.1</ele>
        <time>2025-07-12T08:57:39</time>
      </trkpt>
      <trkpt lat="45.32297" lon="5.85299">
        <ele>1517.1</ele>
        <time>2025-07-12T08:57:39</time>
      </trkpt>
      <trkpt lat="45.32297" lon="5.85299">
        <ele>1517.1</ele>
        <time>2025-07-12T08:57:40</time>
      </trkpt>
      <trkpt lat="45.32297" lon="5.85299">
        <ele>1517.1</ele>
        <time>2025-07-12T08:57:41</time>
      </trkpt>
      <trkpt lat="45.32297" lon="5.85299">
        <ele>1517.1</ele>
        <time>2025-07-12T08:57:42</time>
      </trkpt>
      <trkpt lat="45.32297" lon="5.85298">
        <ele>1517.1</ele>
        <time>2025-07-12T08:57:43</time>
      </trkpt>
      <trkpt lat="45.32297" lon="5.85298">
        <ele>1517.1</ele>
        <time>2025-07-12T08:57:44</time>
      </trkpt>
      <trkpt lat="45.32297" lon="5.85298">
        <ele>1517.1</ele>
        <time>2025-07-12T08:57:45</time>
      </trkpt>
      <trkpt lat="45.32297" lon="5.85298">
        <ele>1517.1</ele>
        <time>2025-07-12T08:57:46</time>
      </trkpt>
      <trkpt lat="45.32297" lon="5.85298">
        <ele>1517.1</ele>
        <time>2025-07-12T08:57:47</time>
      </trkpt>
      <trkpt lat="45.32297" lon="5.85298">
        <ele>1517.1</ele>
        <time>2025-07-12T08:57:50</time>
      </trkpt>
      <trkpt lat="45.32296" lon="5.85298">
        <ele>1517.1</ele>
        <time>2025-07-12T08:57:50</time>
      </trkpt>
      <trkpt lat="45.32294" lon="5.85298">
        <ele>1517.1</ele>
        <time>2025-07-12T08:57:51</time>
      </trkpt>
      <trkpt lat="45.32293" lon="5.85298">
        <ele>1517.1</ele>
        <time>2025-07-12T08:57:52</time>
      </trkpt>
      <trkpt lat="45.3229" lon="5.85298">
        <ele>1517.1</ele>
        <time>2025-07-12T08:57:53</time>
      </trkpt>
      <trkpt lat="45.32288" lon="5.85298">
        <ele>1519.9</ele>
        <time>2025-07-12T08:57:55</time>
      </trkpt>
      <trkpt lat="45.32287" lon="5.85298">
        <ele>1519.9</ele>
        <time>2025-07-12T08:57:56</time>
      </trkpt>
      <trkpt lat="45.32287" lon="5.85297">
        <ele>1519.9</ele>
        <time>2025-07-12T08:57:59</time>
      </trkpt>
      <trkpt lat="45.32287" lon="5.85297">
        <ele>1519.9</ele>
        <time>2025-07-12T08:58:00</time>
      </trkpt>
      <trkpt lat="45.32286" lon="5.85297">
        <ele>1519.9</ele>
        <time>2025-07-12T08:58:06</time>
      </trkpt>
      <trkpt lat="45.32286" lon="5.85297">
        <ele>1519.9</ele>
        <time>2025-07-12T08:58:07</time>
      </trkpt>
      <trkpt lat="45.32286" lon="5.85297">
        <ele>1519.9</ele>
        <time>2025-07-12T08:58:08</time>
      </trkpt>
      <trkpt lat="45.32286" lon="5.85297">
        <ele>1519.9</ele>
        <time>2025-07-12T08:58:09</time>
      </trkpt>
      <trkpt lat="45.32286" lon="5.85297">
        <ele>1519.9</ele>
        <time>2025-07-12T08:58:10</time>
      </trkpt>
      <trkpt lat="45.32286" lon="5.85296">
        <ele>1519.9</ele>
        <time>2025-07-12T08:58:12</time>
      </trkpt>
      <trkpt lat="45.32286" lon="5.85296">
        <ele>1519.9</ele>
        <time>2025-07-12T08:58:13</time>
      </trkpt>
      <trkpt lat="45.32286" lon="5.85296">
        <ele>1519.9</ele>
        <time>2025-07-12T08:58:16</time>
      </trkpt>
      <trkpt lat="45.32279" lon="5.85292">
        <ele>1519.9</ele>
        <time>2025-07-12T08:58:17</time>
      </trkpt>
      <trkpt lat="45.32277" lon="5.85292">
        <ele>1519.9</ele>
        <time>2025-07-12T08:58:18</time>
      </trkpt>
      <trkpt lat="45.32277" lon="5.85292">
        <ele>1519.9</ele>
        <time>2025-07-12T08:58:19</time>
      </trkpt>
      <trkpt lat="45.32277" lon="5.85292">
        <ele>1519.9</ele>
        <time>2025-07-12T08:58:20</time>
      </trkpt>
      <trkpt lat="45.32277" lon="5.85292">
        <ele>1519.9</ele>
        <time>2025-07-12T08:58:21</time>
      </trkpt>
      <trkpt lat="45.32277" lon="5.85292">
        <ele>1522.6666</ele>
        <time>2025-07-12T08:58:30</time>
      </trkpt>
      <trkpt lat="45.32277" lon="5.85291">
        <ele>1528.4</ele>
        <time>2025-07-12T08:58:32</time>
      </trkpt>
      <trkpt lat="45.32277" lon="5.85291">
        <ele>1528.4</ele>
        <time>2025-07-12T08:58:34</time>
      </trkpt>
      <trkpt lat="45.32277" lon="5.85291">
        <ele>1528.4</ele>
        <time>2025-07-12T08:58:35</time>
      </trkpt>
      <trkpt lat="45.32277" lon="5.85291">
        <ele>1528.4</ele>
        <time>2025-07-12T08:58:36</time>
      </trkpt>
      <trkpt lat="45.32277" lon="5.85291">
        <ele>1528.4</ele>
        <time>2025-07-12T08:58:37</time>
      </trkpt>
      <trkpt lat="45.32277" lon="5.85291">
        <ele>1528.4</ele>
        <time>2025-07-12T08:58:38</time>
      </trkpt>
      <trkpt lat="45.32277" lon="5.85291">
        <ele>1528.4</ele>
        <time>2025-07-12T08:58:46</time>
      </trkpt>
      <trkpt lat="45.32277" lon="5.85291">
        <ele>1528.4</ele>
        <time>2025-07-12T08:58:47</time>
      </trkpt>
      <trkpt lat="45.32277" lon="5.85291">
        <ele>1528.4</ele>
        <time>2025-07-12T08:58:47</time>
      </trkpt>
      <trkpt lat="45.32276" lon="5.85291">
        <ele>1528.4</ele>
        <time>2025-07-12T08:58:49</time>
      </trkpt>
      <trkpt lat="45.32276" lon="5.85291">
        <ele>1528.4</ele>
        <time>2025-07-12T08:58:50</time>
      </trkpt>
      <trkpt lat="45.32276" lon="5.85291">
        <ele>1528.4</ele>
        <time>2025-07-12T08:58:51</time>
      </trkpt>
      <trkpt lat="45.32276" lon="5.85291">
        <ele>1528.4</ele>
        <time>2025-07-12T08:58:53</time>
      </trkpt>
      <trkpt lat="45.32276" lon="5.85291">
        <ele>1528.4</ele>
        <time>2025-07-12T08:58:54</time>
      </trkpt>
      <trkpt lat="45.32276" lon="5.85291">
        <ele>1533</ele>
        <time>2025-07-12T08:58:54</time>
      </trkpt>
      <trkpt lat="45.32276" lon="5.85291">
        <ele>1533</ele>
        <time>2025-07-12T08:58:55</time>
      </trkpt>
      <trkpt lat="45.32276" lon="5.85291">
        <ele>1533</ele>
        <time>2025-07-12T08:58:57</time>
      </trkpt>
      <trkpt lat="45.32275" lon="5.85288">
        <ele>1533</ele>
        <time>2025-07-12T08:59:02</time>
      </trkpt>
      <trkpt lat="45.32265" lon="5.85274">
        <ele>1533</ele>
        <time>2025-07-12T08:59:03</time>
      </trkpt>
      <trkpt lat="45.32263" lon="5.85272">
        <ele>1533</ele>
        <time>2025-07-12T08:59:04</time>
      </trkpt>
      <trkpt lat="45.32263" lon="5.85272">
        <ele>1533</ele>
        <time>2025-07-12T08:59:05</time>
      </trkpt>
      <trkpt lat="45.32263" lon="5.85271">
        <ele>1533</ele>
        <time>2025-07-12T08:59:06</time>
      </trkpt>
      <trkpt lat="45.32262" lon="5.85271">
        <ele>1533</ele>
        <time>2025-07-12T08:59:07</time>
      </trkpt>
      <trkpt lat="45.32262" lon="5.85271">
        <ele>1533</ele>
        <time>2025-07-12T08:59:07</time>
      </trkpt>
      <trkpt lat="45.32262" lon="5.85271">
        <ele>1533</ele>
        <time>2025-07-12T08:59:09</time>
      </trkpt>
      <trkpt lat="45.32262" lon="5.85271">
        <ele>1532.2</ele>
        <time>2025-07-12T08:59:10</time>
      </trkpt>
      <trkpt lat="45.32262" lon="5.85271">
        <ele>1532.2</ele>
        <time>2025-07-12T08:59:12</time>
      </trkpt>
      <trkpt lat="45.32262" lon="5.85271">
        <ele>1532.2</ele>
        <time>2025-07-12T08:59:12</time>
      </trkpt>
      <trkpt lat="45.32262" lon="5.85271">
        <ele>1532.2</ele>
        <time>2025-07-12T08:59:14</time>
      </trkpt>
      <trkpt lat="45.32262" lon="5.85271">
        <ele>1532.2</ele>
        <time>2025-07-12T08:59:15</time>
      </trkpt>
      <trkpt lat="45.32262" lon="5.85271">
        <ele>1532.2</ele>
        <time>2025-07-12T08:59:15</time>
      </trkpt>
      <trkpt lat="45.32262" lon="5.85271">
        <ele>1532.2</ele>
        <time>2025-07-12T08:59:16</time>
      </trkpt>
      <trkpt lat="45.32262" lon="5.85271">
        <ele>1532</ele>
        <time>2025-07-12T08:59:19</time>
      </trkpt>
      <trkpt lat="45.32262" lon="5.85271">
        <ele>1532</ele>
        <time>2025-07-12T08:59:20</time>
      </trkpt>
      <trkpt lat="45.32262" lon="5.85271">
        <ele>1532</ele>
        <time>2025-07-12T08:59:21</time>
      </trkpt>
      <trkpt lat="45.32262" lon="5.85271">
        <ele>1532</ele>
        <time>2025-07-12T08:59:22</time>
      </trkpt>
      <trkpt lat="45.32262" lon="5.85271">
        <ele>1532</ele>
        <time>2025-07-12T08:59:22</time>
      </trkpt>
      <trkpt lat="45.32262" lon="5.85271">
        <ele>1532</ele>
        <time>2025-07-12T08:59:23</time>
      </trkpt>
      <trkpt lat="45.32262" lon="5.85271">
        <ele>1532</ele>
        <time>2025-07-12T08:59:24</time>
      </trkpt>
      <trkpt lat="45.32262" lon="5.85271">
        <ele>1532</ele>
        <time>2025-07-12T08:59:26</time>
      </trkpt>
      <trkpt lat="45.32262" lon="5.8527">
        <ele>1532</ele>
        <time>2025-07-12T08:59:33</time>
      </trkpt>
      <trkpt lat="45.32254" lon="5.85267">
        <ele>1527.4333</ele>
        <time>2025-07-12T08:59:35</time>
      </trkpt>
      <trkpt lat="45.32252" lon="5.85267">
        <ele>1527.4333</ele>
        <time>2025-07-12T08:59:37</time>
      </trkpt>
      <trkpt lat="45.32252" lon="5.85267">
        <ele>1527.4333</ele>
        <time>2025-07-12T08:59:39</time>
      </trkpt>
      <trkpt lat="45.32252" lon="5.85267">
        <ele>1527.4333</ele>
        <time>2025-07-12T08:59:40</time>
      </trkpt>
      <trkpt lat="45.32252" lon="5.85267">
        <ele>1526.8</ele>
        <time>2025-07-12T08:59:43</time>
      </trkpt>
      <trkpt lat="45.32252" lon="5.85267">
        <ele>1526.8</ele>
        <time>2025-07-12T08:59:45</time>
      </trkpt>
      <trkpt lat="45.32252" lon="5.85267">
        <ele>1526.8</ele>
        <time>2025-07-12T08:59:45</time>
      </trkpt>
      <trkpt lat="45.32252" lon="5.85267">
        <ele>1526.8</ele>
        <time>2025-07-12T08:59:46</time>
      </trkpt>
      <trkpt lat="45.32252" lon="5.85267">
        <ele>1526.8</ele>
        <time>2025-07-12T08:59:47</time>
      </trkpt>
      <trkpt lat="45.3225" lon="5.85265">
        <ele>1526.8</ele>
        <time>2025-07-12T08:59:50</time>
      </trkpt>
      <trkpt lat="45.3225" lon="5.85265">
        <ele>1525.5333</ele>
        <time>2025-07-12T08:59:50</time>
      </trkpt>
      <trkpt lat="45.3225" lon="5.85265">
        <ele>1525.5333</ele>
        <time>2025-07-12T08:59:52</time>
      </trkpt>
      <trkpt lat="45.3225" lon="5.85265">
        <ele>1525.5333</ele>
        <time>2025-07-12T08:59:53</time>
      </trkpt>
      <trkpt lat="45.32249" lon="5.85265">
        <ele>1525.5333</ele>
        <time>2025-07-12T08:59:54</time>
      </trkpt>
      <trkpt lat="45.32245" lon="5.85264">
        <ele>1525.5333</ele>
        <time>2025-07-12T08:59:55</time>
      </trkpt>
      <trkpt lat="45.32244" lon="5.85264">
        <ele>1525.5333</ele>
        <time>2025-07-12T08:59:56</time>
      </trkpt>
      <trkpt lat="45.32242" lon="5.85264">
        <ele>1525</ele>
        <time>2025-07-12T08:59:58</time>
      </trkpt>
      <trkpt lat="45.32242" lon="5.85264">
        <ele>1525</ele>
        <time>2025-07-12T09:00:00</time>
      </trkpt>
      <trkpt lat="45.32242" lon="5.85264">
        <ele>1525</ele>
        <time>2025-07-12T09:00:01</time>
      </trkpt>
      <trkpt lat="45.32241" lon="5.85264">
        <ele>1525</ele>
        <time>2025-07-12T09:00:02</time>
      </trkpt>
      <trkpt lat="45.32241" lon="5.85263">
        <ele>1524.9</ele>
        <time>2025-07-12T09:00:06</time>
      </trkpt>
      <trkpt lat="45.32241" lon="5.85263">
        <ele>1524.9</ele>
        <time>2025-07-12T09:00:07</time>
      </trkpt>
      <trkpt lat="45.32241" lon="5.85263">
        <ele>1524.9</ele>
        <time>2025-07-12T09:00:07</time>
      </trkpt>
      <trkpt lat="45.32236" lon="5.85261">
        <ele>1524.9</ele>
        <time>2025-07-12T09:00:09</time>
      </trkpt>
      <trkpt lat="45.32234" lon="5.85261">
        <ele>1524.9</ele>
        <time>2025-07-12T09:00:10</time>
      </trkpt>
      <trkpt lat="45.32232" lon="5.8526">
        <ele>1524.9</ele>
        <time>2025-07-12T09:00:11</time>
      </trkpt>
      <trkpt lat="45.32231" lon="5.8526">
        <ele>1524.9</ele>
        <time>2025-07-12T09:00:11</time>
      </trkpt>
      <trkpt lat="45.3223" lon="5.8526">
        <ele>1524.9</ele>
        <time>2025-07-12T09:00:15</time>
      </trkpt>
      <trkpt lat="45.3223" lon="5.8526">
        <ele>1524.9</ele>
        <time>2025-07-12T09:00:16</time>
      </trkpt>
      <trkpt lat="45.3223" lon="5.8526">
        <ele>1524.9</ele>
        <time>2025-07-12T09:00:17</time>
      </trkpt>
      <trkpt lat="45.3223" lon="5.8526">
        <ele>1524.9</ele>
        <time>2025-07-12T09:00:18</time>
      </trkpt>
      <trkpt lat="45.3223" lon="5.8526">
        <ele>1524.9</ele>
        <time>2025-07-12T09:00:19</time>
      </trkpt>
      <trkpt lat="45.3223" lon="5.8526">
        <ele>1524.9</ele>
        <time>2025-07-12T09:00:20</time>
      </trkpt>
      <trkpt lat="45.3223" lon="5.8526">
        <ele>1524.9</ele>
        <time>2025-07-12T09:00:20</time>
      </trkpt>
      <trkpt lat="45.3223" lon="5.85261">
        <ele>1525.2</ele>
        <time>2025-07-12T09:00:23</time>
      </trkpt>
      <trkpt lat="45.3223" lon="5.8526">
        <ele>1525.2</ele>
        <time>2025-07-12T09:00:24</time>
      </trkpt>
      <trkpt lat="45.3223" lon="5.8526">
        <ele>1525.2</ele>
        <time>2025-07-12T09:00:26</time>
      </trkpt>
      <trkpt lat="45.3223" lon="5.8526">
        <ele>1525.2</ele>
        <time>2025-07-12T09:00:27</time>
      </trkpt>
      <trkpt lat="45.3223" lon="5.85261">
        <ele>1525.2</ele>
        <time>2025-07-12T09:00:28</time>
      </trkpt>
      <trkpt lat="45.3223" lon="5.85261">
        <ele>1525.2</ele>
        <time>2025-07-12T09:00:29</time>
      </trkpt>
      <trkpt lat="45.32222" lon="5.85259">
        <ele>1525.2</ele>
        <time>2025-07-12T09:00:31</time>
      </trkpt>
      <trkpt lat="45.32219" lon="5.85259">
        <ele>1525.2</ele>
        <time>2025-07-12T09:00:32</time>
      </trkpt>
      <trkpt lat="45.32219" lon="5.85259">
        <ele>1525.2</ele>
        <time>2025-07-12T09:00:37</time>
      </trkpt>
      <trkpt lat="45.32219" lon="5.85259">
        <ele>1527.2</ele>
        <time>2025-07-12T09:00:41</time>
      </trkpt>
      <trkpt lat="45.32219" lon="5.85259">
        <ele>1527.2</ele>
        <time>2025-07-12T09:00:41</time>
      </trkpt>
      <trkpt lat="45.32219" lon="5.85259">
        <ele>1527.2</ele>
        <time>2025-07-12T09:00:42</time>
      </trkpt>
      <trkpt lat="45.32219" lon="5.85259">
        <ele>1527.2</ele>
        <time>2025-07-12T09:00:43</time>
      </trkpt>
      <trkpt lat="45.32219" lon="5.85259">
        <ele>1527.2</ele>
        <time>2025-07-12T09:00:44</time>
      </trkpt>
      <trkpt lat="45.32219" lon="5.85259">
        <ele>1527.7</ele>
        <time>2025-07-12T09:00:45</time>
      </trkpt>
      <trkpt lat="45.32219" lon="5.85259">
        <ele>1527.7</ele>
        <time>2025-07-12T09:00:46</time>
      </trkpt>
      <trkpt lat="45.32219" lon="5.85259">
        <ele>1527.7</ele>
        <time>2025-07-12T09:00:46</time>
      </trkpt>
      <trkpt lat="45.32219" lon="5.85259">
        <ele>1527.7</ele>
        <time>2025-07-12T09:00:47</time>
      </trkpt>
      <trkpt lat="45.32219" lon="5.85259">
        <ele>1527.7</ele>
        <time>2025-07-12T09:00:48</time>
      </trkpt>
      <trkpt lat="45.32219" lon="5.85259">
        <ele>1527.7</ele>
        <time>2025-07-12T09:00:49</time>
      </trkpt>
      <trkpt lat="45.32219" lon="5.85259">
        <ele>1527.7</ele>
        <time>2025-07-12T09:00:53</time>
      </trkpt>
      <trkpt lat="45.32219" lon="5.85259">
        <ele>1527.7</ele>
        <time>2025-07-12T09:00:53</time>
      </trkpt>
      <trkpt lat="45.32212" lon="5.85257">
        <ele>1527.7</ele>
        <time>2025-07-12T09:00:56</time>
      </trkpt>
      <trkpt lat="45.3221" lon="5.85256">
        <ele>1527.7</ele>
        <time>2025-07-12T09:00:56</time>
      </trkpt>
      <trkpt lat="45.32209" lon="5.85256">
        <ele>1527.7</ele>
        <time>2025-07-12T09:00:57</time>
      </trkpt>
      <trkpt lat="45.32209" lon="5.85256">
        <ele>1527.7</ele>
        <time>2025-07-12T09:00:58</time>
      </trkpt>
      <trkpt lat="45.32209" lon="5.85255">
        <ele>1532.3667</ele>
        <time>2025-07-12T09:01:00</time>
      </trkpt>
      <trkpt lat="45.32209" lon="5.85255">
        <ele>1532.3667</ele>
        <time>2025-07-12T09:01:02</time>
      </trkpt>
      <trkpt lat="45.32208" lon="5.85255">
        <ele>1532.3667</ele>
        <time>2025-07-12T09:01:04</time>
      </trkpt>
      <trkpt lat="45.32208" lon="5.85255">
        <ele>1532.3667</ele>
        <time>2025-07-12T09:01:04</time>
      </trkpt>
      <trkpt lat="45.32208" lon="5.85255">
        <ele>1532.3667</ele>
        <time>2025-07-12T09:01:05</time>
      </trkpt>
      <trkpt lat="45.32208" lon="5.85255">
        <ele>1532.3667</ele>
        <time>2025-07-12T09:01:06</time>
      </trkpt>
      <trkpt lat="45.32208" lon="5.85255">
        <ele>1534.6</ele>
        <time>2025-07-12T09:01:07</time>
      </trkpt>
      <trkpt lat="45.32208" lon="5.85255">
        <ele>1534.6</ele>
        <time>2025-07-12T09:01:08</time>
      </trkpt>
      <trkpt lat="45.32208" lon="5.85255">
        <ele>1534.6</ele>
        <time>2025-07-12T09:01:09</time>
      </trkpt>
      <trkpt lat="45.32208" lon="5.85255">
        <ele>1534.6</ele>
        <time>2025-07-12T09:01:11</time>
      </trkpt>
      <trkpt lat="45.32208" lon="5.85255">
        <ele>1534.6</ele>
        <time>2025-07-12T09:01:12</time>
      </trkpt>
      <trkpt lat="45.32208" lon="5.85255">
        <ele>1534.6</ele>
        <time>2025-07-12T09:01:13</time>
      </trkpt>
      <trkpt lat="45.32208" lon="5.85255">
        <ele>1534.6</ele>
        <time>2025-07-12T09:01:16</time>
      </trkpt>
      <trkpt lat="45.32202" lon="5.85256">
        <ele>1534.6</ele>
        <time>2025-07-12T09:01:19</time>
      </trkpt>
      <trkpt lat="45.32199" lon="5.85257">
        <ele>1534.6</ele>
        <time>2025-07-12T09:01:20</time>
      </trkpt>
      <trkpt lat="45.32198" lon="5.85257">
        <ele>1534.6</ele>
        <time>2025-07-12T09:01:22</time>
      </trkpt>
      <trkpt lat="45.32198" lon="5.85257">
        <ele>1534.6</ele>
        <time>2025-07-12T09:01:23</time>
      </trkpt>
      <trkpt lat="45.32198" lon="5.85257">
        <ele>1534.6</ele>
        <time>2025-07-12T09:01:24</time>
      </trkpt>
      <trkpt lat="45.32198" lon="5.85257">
        <ele>1534.6</ele>
        <time>2025-07-12T09:01:25</time>
      </trkpt>
      <trkpt lat="45.32198" lon="5.85257">
        <ele>1534.6</ele>
        <time>2025-07-12T09:01:26</time>
      </trkpt>
      <trkpt lat="45.32198" lon="5.85257">
        <ele>1534.6</ele>
        <time>2025-07-12T09:01:27</time>
      </trkpt>
      <trkpt lat="45.32198" lon="5.85257">
        <ele>1534.6</ele>
        <time>2025-07-12T09:01:28</time>
      </trkpt>
      <trkpt lat="45.32198" lon="5.85257">
        <ele>1534.6</ele>
        <time>2025-07-12T09:01:29</time>
      </trkpt>
      <trkpt lat="45.32198" lon="5.85257">
        <ele>1534.6</ele>
        <time>2025-07-12T09:01:30</time>
      </trkpt>
      <trkpt lat="45.32198" lon="5.85257">
        <ele>1534.6</ele>
        <time>2025-07-12T09:01:31</time>
      </trkpt>
      <trkpt lat="45.32198" lon="5.85257">
        <ele>1534.6</ele>
        <time>2025-07-12T09:01:32</time>
      </trkpt>
      <trkpt lat="45.32198" lon="5.85257">
        <ele>1534.6</ele>
        <time>2025-07-12T09:01:37</time>
      </trkpt>
      <trkpt lat="45.32198" lon="5.85257">
        <ele>1534.6</ele>
        <time>2025-07-12T09:01:38</time>
      </trkpt>
      <trkpt lat="45.32198" lon="5.85257">
        <ele>1534.6</ele>
        <time>2025-07-12T09:01:39</time>
      </trkpt>
      <trkpt lat="45.32198" lon="5.85257">
        <ele>1534.6</ele>
        <time>2025-07-12T09:01:42</time>
      </trkpt>
      <trkpt lat="45.3219" lon="5.85253">
        <ele>1534.6</ele>
        <time>2025-07-12T09:01:43</time>
      </trkpt>
      <trkpt lat="45.32186" lon="5.85252">
        <ele>1536.6</ele>
        <time>2025-07-12T09:01:55</time>
      </trkpt>
      <trkpt lat="45.32186" lon="5.85252">
        <ele>1536.6</ele>
        <time>2025-07-12T09:01:56</time>
      </trkpt>
      <trkpt lat="45.32186" lon="5.85252">
        <ele>1536.6</ele>
        <time>2025-07-12T09:02:02</time>
      </trkpt>
      <trkpt lat="45.32186" lon="5.85251">
        <ele>1536.6</ele>
        <time>2025-07-12T09:02:03</time>
      </trkpt>
      <trkpt lat="45.32181" lon="5.85248">
        <ele>1536.6</ele>
        <time>2025-07-12T09:02:04</time>
      </trkpt>
      <trkpt lat="45.32177" lon="5.85245">
        <ele>1536.6</ele>
        <time>2025-07-12T09:02:05</time>
      </trkpt>
      <trkpt lat="45.32177" lon="5.85245">
        <ele>1536.6</ele>
        <time>2025-07-12T09:02:06</time>
      </trkpt>
      <trkpt lat="45.32177" lon="5.85245">
        <ele>1536.6</ele>
        <time>2025-07-12T09:02:07</time>
      </trkpt>
      <trkpt lat="45.32177" lon="5.85245">
        <ele>1536.6</ele>
        <time>2025-07-12T09:02:08</time>
      </trkpt>
      <trkpt lat="45.32177" lon="5.85245">
        <ele>1538.5</ele>
        <time>2025-07-12T09:02:12</time>
      </trkpt>
      <trkpt lat="45.32177" lon="5.85245">
        <ele>1538.5</ele>
        <time>2025-07-12T09:02:15</time>
      </trkpt>
      <trkpt lat="45.32177" lon="5.85245">
        <ele>1538.5</ele>
        <time>2025-07-12T09:02:17</time>
      </trkpt>
      <trkpt lat="45.32177" lon="5.85245">
        <ele>1538.5</ele>
        <time>2025-07-12T09:02:20</time>
      </trkpt>
      <trkpt lat="45.32177" lon="5.85245">
        <ele>1538.5</ele>
        <time>2025-07-12T09:02:22</time>
      </trkpt>
      <trkpt lat="45.32177" lon="5.85245">
        <ele>1538.5</ele>
        <time>2025-07-12T09:02:22</time>
      </trkpt>
      <trkpt lat="45.32177" lon="5.85245">
        <ele>1538.5</ele>
        <time>2025-07-12T09:02:23</time>
      </trkpt>
      <trkpt lat="45.32177" lon="5.85245">
        <ele>1538.5</ele>
        <time>2025-07-12T09:02:24</time>
      </trkpt>
      <trkpt lat="45.32177" lon="5.85245">
        <ele>1538.5</ele>
        <time>2025-07-12T09:02:26</time>
      </trkpt>
      <trkpt lat="45.32177" lon="5.85245">
        <ele>1538.5</ele>
        <time>2025-07-12T09:02:27</time>
      </trkpt>
      <trkpt lat="45.32177" lon="5.85245">
        <ele>1538.5</ele>
        <time>2025-07-12T09:02:28</time>
      </trkpt>
      <trkpt lat="45.32177" lon="5.85245">
        <ele>1538.5</ele>
        <time>2025-07-12T09:02:29</time>
      </trkpt>
      <trkpt lat="45.32177" lon="5.85245">
        <ele>1538.5</ele>
        <time>2025-07-12T09:02:30</time>
      </trkpt>
      <trkpt lat="45.32177" lon="5.85245">
        <ele>1538.5</ele>
        <time>2025-07-12T09:02:31</time>
      </trkpt>
      <trkpt lat="45.32176" lon="5.85245">
        <ele>1538.5</ele>
        <time>2025-07-12T09:02:34</time>
      </trkpt>
      <trkpt lat="45.32166" lon="5.85241">
        <ele>1538.5</ele>
        <time>2025-07-12T09:02:36</time>
      </trkpt>
      <trkpt lat="45.32165" lon="5.8524">
        <ele>1538.5</ele>
        <time>2025-07-12T09:02:38</time>
      </trkpt>
      <trkpt lat="45.32165" lon="5.8524">
        <ele>1538.5</ele>
        <time>2025-07-12T09:02:39</time>
      </trkpt>
      <trkpt lat="45.32165" lon="5.8524">
        <ele>1538.5</ele>
        <time>2025-07-12T09:02:41</time>
      </trkpt>
      <trkpt lat="45.32165" lon="5.8524">
        <ele>1538.5</ele>
        <time>2025-07-12T09:02:42</time>
      </trkpt>
      <trkpt lat="45.32164" lon="5.8524">
        <ele>1539.6</ele>
        <time>2025-07-12T09:02:43</time>
      </trkpt>
      <trkpt lat="45.32157" lon="5.85237">
        <ele>1539.6</ele>
        <time>2025-07-12T09:02:44</time>
      </trkpt>
      <trkpt lat="45.32154" lon="5.85237">
        <ele>1539.6</ele>
        <time>2025-07-12T09:02:45</time>
      </trkpt>
      <trkpt lat="45.32153" lon="5.85237">
        <ele>1539.6</ele>
        <time>2025-07-12T09:02:46</time>
      </trkpt>
      <trkpt lat="45.32152" lon="5.85237">
        <ele>1539.6</ele>
        <time>2025-07-12T09:02:47</time>
      </trkpt>
      <trkpt lat="45.32152" lon="5.85237">
        <ele>1539.6</ele>
        <time>2025-07-12T09:02:47</time>
      </trkpt>
      <trkpt lat="45.32152" lon="5.85237">
        <ele>1539.6</ele>
        <time>2025-07-12T09:02:49</time>
      </trkpt>
      <trkpt lat="45.32151" lon="5.85237">
        <ele>1542.5</ele>
        <time>2025-07-12T09:02:51</time>
      </trkpt>
      <trkpt lat="45.32151" lon="5.85237">
        <ele>1542.5</ele>
        <time>2025-07-12T09:02:53</time>
      </trkpt>
      <trkpt lat="45.32151" lon="5.85237">
        <ele>1542.5</ele>
        <time>2025-07-12T09:02:53</time>
      </trkpt>
      <trkpt lat="45.32151" lon="5.85237">
        <ele>1542.5</ele>
        <time>2025-07-12T09:02:56</time>
      </trkpt>
      <trkpt lat="45.32143" lon="5.85234">
        <ele>1542.5</ele>
        <time>2025-07-12T09:03:00</time>
      </trkpt>
      <trkpt lat="45.32141" lon="5.85234">
        <ele>1542.5</ele>
        <time>2025-07-12T09:03:00</time>
      </trkpt>
      <trkpt lat="45.3214" lon="5.85233">
        <ele>1542.5</ele>
        <time>2025-07-12T09:03:04</time>
      </trkpt>
      <trkpt lat="45.3214" lon="5.85233">
        <ele>1542.5</ele>
        <time>2025-07-12T09:03:06</time>
      </trkpt>
      <trkpt lat="45.3214" lon="5.85233">
        <ele>1547.1666</ele>
        <time>2025-07-12T09:03:09</time>
      </trkpt>
      <trkpt lat="45.3214" lon="5.85233">
        <ele>1547.1666</ele>
        <time>2025-07-12T09:03:09</time>
      </trkpt>
      <trkpt lat="45.3214" lon="5.85233">
        <ele>1547.1666</ele>
        <time>2025-07-12T09:03:11</time>
      </trkpt>
      <trkpt lat="45.3214" lon="5.85234">
        <ele>1547.1666</ele>
        <time>2025-07-12T09:03:12</time>
      </trkpt>
      <trkpt lat="45.3214" lon="5.85234">
        <ele>1547.1666</ele>
        <time>2025-07-12T09:03:16</time>
      </trkpt>
      <trkpt lat="45.3214" lon="5.85234">
        <ele>1547.1</ele>
        <time>2025-07-12T09:03:19</time>
      </trkpt>
      <trkpt lat="45.3214" lon="5.85234">
        <ele>1547.1</ele>
        <time>2025-07-12T09:03:20</time>
      </trkpt>
      <trkpt lat="45.3214" lon="5.85234">
        <ele>1547.1</ele>
        <time>2025-07-12T09:03:21</time>
      </trkpt>
      <trkpt lat="45.3214" lon="5.85234">
        <ele>1547.1</ele>
        <time>2025-07-12T09:03:22</time>
      </trkpt>
      <trkpt lat="45.3214" lon="5.85234">
        <ele>1547.1</ele>
        <time>2025-07-12T09:03:23</time>
      </trkpt>
      <trkpt lat="45.3214" lon="5.85233">
        <ele>1547.1</ele>
        <time>2025-07-12T09:03:23</time>
      </trkpt>
      <trkpt lat="45.3214" lon="5.85234">
        <ele>1547.1</ele>
        <time>2025-07-12T09:03:27</time>
      </trkpt>
      <trkpt lat="45.3214" lon="5.85234">
        <ele>1547.1</ele>
        <time>2025-07-12T09:03:28</time>
      </trkpt>
      <trkpt lat="45.3214" lon="5.85234">
        <ele>1547.1</ele>
        <time>2025-07-12T09:03:28</time>
      </trkpt>
      <trkpt lat="45.3214" lon="5.85233">
        <ele>1547.1</ele>
        <time>2025-07-12T09:03:30</time>
      </trkpt>
      <trkpt lat="45.32139" lon="5.85233">
        <ele>1547.6</ele>
        <time>2025-07-12T09:03:34</time>
      </trkpt>
      <trkpt lat="45.32133" lon="5.85228">
        <ele>1547.6</ele>
        <time>2025-07-12T09:03:36</time>
      </trkpt>
      <trkpt lat="45.32132" lon="5.85228">
        <ele>1547.6</ele>
        <time>2025-07-12T09:03:37</time>
      </trkpt>
      <trkpt lat="45.3213" lon="5.85228">
        <ele>1547.6</ele>
        <time>2025-07-12T09:03:43</time>
      </trkpt>
      <trkpt lat="45.3213" lon="5.85228">
        <ele>1547.6</ele>
        <time>2025-07-12T09:03:44</time>
      </trkpt>
      <trkpt lat="45.3213" lon="5.85228">
        <ele>1547.6</ele>
        <time>2025-07-12T09:03:44</time>
      </trkpt>
      <trkpt lat="45.3213" lon="5.85228">
        <ele>1547.6</ele>
        <time>2025-07-12T09:03:45</time>
      </trkpt>
      <trkpt lat="45.3213" lon="5.85228">
        <ele>1547.6</ele>
        <time>2025-07-12T09:03:46</time>
      </trkpt>
      <trkpt lat="45.3213" lon="5.85228">
        <ele>1547.6</ele>
        <time>2025-07-12T09:03:46</time>
      </trkpt>
      <trkpt lat="45.32123" lon="5.85224">
        <ele>1547.6</ele>
        <time>2025-07-12T09:03:48</time>
      </trkpt>
      <trkpt lat="45.32121" lon="5.85223">
        <ele>1549.9</ele>
        <time>2025-07-12T09:04:12</time>
      </trkpt>
      <trkpt lat="45.3212" lon="5.85223">
        <ele>1552.1</ele>
        <time>2025-07-12T09:04:14</time>
      </trkpt>
      <trkpt lat="45.32117" lon="5.85224">
        <ele>1552.1</ele>
        <time>2025-07-12T09:04:15</time>
      </trkpt>
      <trkpt lat="45.32111" lon="5.85224">
        <ele>1552.1</ele>
        <time>2025-07-12T09:04:22</time>
      </trkpt>
      <trkpt lat="45.32111" lon="5.85223">
        <ele>1552.1</ele>
        <time>2025-07-12T09:04:28</time>
      </trkpt>
      <trkpt lat="45.3211" lon="5.85222">
        <ele>1552</ele>
        <time>2025-07-12T09:04:36</time>
      </trkpt>
      <trkpt lat="45.3211" lon="5.85222">
        <ele>1552</ele>
        <time>2025-07-12T09:04:38</time>
      </trkpt>
      <trkpt lat="45.3211" lon="5.85222">
        <ele>1552</ele>
        <time>2025-07-12T09:04:39</time>
      </trkpt>
      <trkpt lat="45.3211" lon="5.85222">
        <ele>1552</ele>
        <time>2025-07-12T09:04:40</time>
      </trkpt>
      <trkpt lat="45.32105" lon="5.85218">
        <ele>1555.3334</ele>
        <time>2025-07-12T09:04:42</time>
      </trkpt>
      <trkpt lat="45.32105" lon="5.85217">
        <ele>1555.3334</ele>
        <time>2025-07-12T09:04:43</time>
      </trkpt>
      <trkpt lat="45.32104" lon="5.85217">
        <ele>1555.3334</ele>
        <time>2025-07-12T09:04:43</time>
      </trkpt>
      <trkpt lat="45.32104" lon="5.85217">
        <ele>1555.3334</ele>
        <time>2025-07-12T09:04:44</time>
      </trkpt>
      <trkpt lat="45.32102" lon="5.85216">
        <ele>1555.3334</ele>
        <time>2025-07-12T09:04:47</time>
      </trkpt>
      <trkpt lat="45.32102" lon="5.85217">
        <ele>1555.3334</ele>
        <time>2025-07-12T09:04:48</time>
      </trkpt>
      <trkpt lat="45.32102" lon="5.85217">
        <ele>1555.3334</ele>
        <time>2025-07-12T09:04:50</time>
      </trkpt>
      <trkpt lat="45.32101" lon="5.85217">
        <ele>1557.3</ele>
        <time>2025-07-12T09:04:55</time>
      </trkpt>
      <trkpt lat="45.32101" lon="5.85217">
        <ele>1557.3</ele>
        <time>2025-07-12T09:04:56</time>
      </trkpt>
      <trkpt lat="45.32101" lon="5.85217">
        <ele>1557.3</ele>
        <time>2025-07-12T09:04:58</time>
      </trkpt>
      <trkpt lat="45.32101" lon="5.85217">
        <ele>1557.3</ele>
        <time>2025-07-12T09:05:01</time>
      </trkpt>
      <trkpt lat="45.32101" lon="5.85217">
        <ele>1557.3</ele>
        <time>2025-07-12T09:05:02</time>
      </trkpt>
      <trkpt lat="45.32101" lon="5.85217">
        <ele>1557.3</ele>
        <time>2025-07-12T09:05:03</time>
      </trkpt>
      <trkpt lat="45.32101" lon="5.85217">
        <ele>1557.3</ele>
        <time>2025-07-12T09:05:07</time>
      </trkpt>
      <trkpt lat="45.32101" lon="5.85217">
        <ele>1557.3</ele>
        <time>2025-07-12T09:05:08</time>
      </trkpt>
      <trkpt lat="45.32101" lon="5.85217">
        <ele>1557.3</ele>
        <time>2025-07-12T09:05:09</time>
      </trkpt>
      <trkpt lat="45.32101" lon="5.85217">
        <ele>1557.3</ele>
        <time>2025-07-12T09:05:12</time>
      </trkpt>
      <trkpt lat="45.32101" lon="5.85217">
        <ele>1557.3</ele>
        <time>2025-07-12T09:05:13</time>
      </trkpt>
      <trkpt lat="45.32101" lon="5.85217">
        <ele>1557.3</ele>
        <time>2025-07-12T09:05:15</time>
      </trkpt>
      <trkpt lat="45.32101" lon="5.85217">
        <ele>1557.3</ele>
        <time>2025-07-12T09:05:17</time>
      </trkpt>
      <trkpt lat="45.32101" lon="5.85217">
        <ele>1557.3</ele>
        <time>2025-07-12T09:05:18</time>
      </trkpt>
      <trkpt lat="45.32101" lon="5.85217">
        <ele>1557.3</ele>
        <time>2025-07-12T09:05:19</time>
      </trkpt>
      <trkpt lat="45.32101" lon="5.85217">
        <ele>1557.3</ele>
        <time>2025-07-12T09:05:20</time>
      </trkpt>
      <trkpt lat="45.32101" lon="5.85217">
        <ele>1557.3</ele>
        <time>2025-07-12T09:05:21</time>
      </trkpt>
      <trkpt lat="45.32101" lon="5.85217">
        <ele>1557.3</ele>
        <time>2025-07-12T09:05:22</time>
      </trkpt>
      <trkpt lat="45.32101" lon="5.85217">
        <ele>1557.3</ele>
        <time>2025-07-12T09:05:23</time>
      </trkpt>
      <trkpt lat="45.32101" lon="5.85217">
        <ele>1557.3</ele>
        <time>2025-07-12T09:05:24</time>
      </trkpt>
      <trkpt lat="45.32101" lon="5.85217">
        <ele>1563</ele>
        <time>2025-07-12T09:05:25</time>
      </trkpt>
      <trkpt lat="45.32101" lon="5.85217">
        <ele>1563</ele>
        <time>2025-07-12T09:05:26</time>
      </trkpt>
      <trkpt lat="45.32101" lon="5.85217">
        <ele>1563</ele>
        <time>2025-07-12T09:05:27</time>
      </trkpt>
      <trkpt lat="45.32099" lon="5.85217">
        <ele>1563</ele>
        <time>2025-07-12T09:05:28</time>
      </trkpt>
      <trkpt lat="45.32095" lon="5.85216">
        <ele>1563</ele>
        <time>2025-07-12T09:05:29</time>
      </trkpt>
      <trkpt lat="45.32094" lon="5.85215">
        <ele>1563</ele>
        <time>2025-07-12T09:05:30</time>
      </trkpt>
      <trkpt lat="45.32093" lon="5.85213">
        <ele>1563</ele>
        <time>2025-07-12T09:05:36</time>
      </trkpt>
      <trkpt lat="45.32092" lon="5.85213">
        <ele>1563</ele>
        <time>2025-07-12T09:05:38</time>
      </trkpt>
      <trkpt lat="45.32092" lon="5.85212">
        <ele>1563</ele>
        <time>2025-07-12T09:06:11</time>
      </trkpt>
      <trkpt lat="45.32092" lon="5.85212">
        <ele>1563</ele>
        <time>2025-07-12T09:06:55</time>
      </trkpt>
      <trkpt lat="45.32092" lon="5.85212">
        <ele>1563</ele>
        <time>2025-07-12T09:06:58</time>
      </trkpt>
      <trkpt lat="45.32092" lon="5.85212">
        <ele>1563</ele>
        <time>2025-07-12T09:07:03</time>
      </trkpt>
      <trkpt lat="45.32092" lon="5.85212">
        <ele>1563</ele>
        <time>2025-07-12T09:07:09</time>
      </trkpt>
      <trkpt lat="45.32092" lon="5.85212">
        <ele>1563</ele>
        <time>2025-07-12T09:07:14</time>
      </trkpt>
      <trkpt lat="45.32092" lon="5.85212">
        <ele>1563</ele>
        <time>2025-07-12T09:07:25</time>
      </trkpt>
      <trkpt lat="45.32092" lon="5.85212">
        <ele>1563</ele>
        <time>2025-07-12T09:07:26</time>
      </trkpt>
      <trkpt lat="45.32092" lon="5.85212">
        <ele>1563</ele>
        <time>2025-07-12T09:07:46</time>
      </trkpt>
      <trkpt lat="45.32092" lon="5.85212">
        <ele>1563</ele>
        <time>2025-07-12T09:07:47</time>
      </trkpt>
      <trkpt lat="45.32092" lon="5.85212">
        <ele>1563</ele>
        <time>2025-07-12T09:07:48</time>
      </trkpt>
      <trkpt lat="45.32092" lon="5.85212">
        <ele>1563</ele>
        <time>2025-07-12T09:07:49</time>
      </trkpt>
      <trkpt lat="45.32092" lon="5.85212">
        <ele>1563</ele>
        <time>2025-07-12T09:07:49</time>
      </trkpt>
      <trkpt lat="45.32092" lon="5.85212">
        <ele>1563</ele>
        <time>2025-07-12T09:07:50</time>
      </trkpt>
      <trkpt lat="45.32086" lon="5.852">
        <ele>1563</ele>
        <time>2025-07-12T09:07:53</time>
      </trkpt>
      <trkpt lat="45.32086" lon="5.85199">
        <ele>1563</ele>
        <time>2025-07-12T09:07:55</time>
      </trkpt>
      <trkpt lat="45.32086" lon="5.85199">
        <ele>1563</ele>
        <time>2025-07-12T09:07:56</time>
      </trkpt>
      <trkpt lat="45.32086" lon="5.85199">
        <ele>1563</ele>
        <time>2025-07-12T09:07:57</time>
      </trkpt>
      <trkpt lat="45.32085" lon="5.85198">
        <ele>1563</ele>
        <time>2025-07-12T09:07:58</time>
      </trkpt>
      <trkpt lat="45.32085" lon="5.85196">
        <ele>1572.8667</ele>
        <time>2025-07-12T09:07:58</time>
      </trkpt>
      <trkpt lat="45.32084" lon="5.85194">
        <ele>1572.8667</ele>
        <time>2025-07-12T09:08:00</time>
      </trkpt>
      <trkpt lat="45.32084" lon="5.85193">
        <ele>1572.8667</ele>
        <time>2025-07-12T09:08:00</time>
      </trkpt>
      <trkpt lat="45.32083" lon="5.85193">
        <ele>1572.8667</ele>
        <time>2025-07-12T09:08:01</time>
      </trkpt>
      <trkpt lat="45.32083" lon="5.85192">
        <ele>1572.8667</ele>
        <time>2025-07-12T09:08:02</time>
      </trkpt>
      <trkpt lat="45.32083" lon="5.85191">
        <ele>1572.8667</ele>
        <time>2025-07-12T09:08:03</time>
      </trkpt>
      <trkpt lat="45.32083" lon="5.85191">
        <ele>1572.8667</ele>
        <time>2025-07-12T09:08:04</time>
      </trkpt>
      <trkpt lat="45.32082" lon="5.85191">
        <ele>1572.8667</ele>
        <time>2025-07-12T09:08:05</time>
      </trkpt>
      <trkpt lat="45.32082" lon="5.85191">
        <ele>1572.8667</ele>
        <time>2025-07-12T09:08:06</time>
      </trkpt>
      <trkpt lat="45.32082" lon="5.85191">
        <ele>1572.8667</ele>
        <time>2025-07-12T09:08:06</time>
      </trkpt>
      <trkpt lat="45.32082" lon="5.85191">
        <ele>1574.5667</ele>
        <time>2025-07-12T09:08:08</time>
      </trkpt>
      <trkpt lat="45.32082" lon="5.85191">
        <ele>1575.4</ele>
        <time>2025-07-12T09:08:23</time>
      </trkpt>
      <trkpt lat="45.32082" lon="5.85191">
        <ele>1575.4</ele>
        <time>2025-07-12T09:08:26</time>
      </trkpt>
      <trkpt lat="45.32082" lon="5.85191">
        <ele>1575.4</ele>
        <time>2025-07-12T09:08:28</time>
      </trkpt>
      <trkpt lat="45.32082" lon="5.85191">
        <ele>1575.4</ele>
        <time>2025-07-12T09:08:34</time>
      </trkpt>
      <trkpt lat="45.32082" lon="5.85191">
        <ele>1575.4</ele>
        <time>2025-07-12T09:08:34</time>
      </trkpt>
      <trkpt lat="45.32082" lon="5.85191">
        <ele>1575.4</ele>
        <time>2025-07-12T09:08:37</time>
      </trkpt>
      <trkpt lat="45.32082" lon="5.8519">
        <ele>1575.4</ele>
        <time>2025-07-12T09:08:39</time>
      </trkpt>
      <trkpt lat="45.3208" lon="5.85188">
        <ele>1575.4</ele>
        <time>2025-07-12T09:08:41</time>
      </trkpt>
      <trkpt lat="45.3208" lon="5.85188">
        <ele>1575.4</ele>
        <time>2025-07-12T09:08:42</time>
      </trkpt>
      <trkpt lat="45.3208" lon="5.85188">
        <ele>1576.5</ele>
        <time>2025-07-12T09:08:43</time>
      </trkpt>
      <trkpt lat="45.3208" lon="5.85188">
        <ele>1576.5</ele>
        <time>2025-07-12T09:08:43</time>
      </trkpt>
      <trkpt lat="45.32076" lon="5.85189">
        <ele>1576.5</ele>
        <time>2025-07-12T09:08:44</time>
      </trkpt>
      <trkpt lat="45.32073" lon="5.8519">
        <ele>1576.5</ele>
        <time>2025-07-12T09:08:46</time>
      </trkpt>
      <trkpt lat="45.32072" lon="5.8519">
        <ele>1576.5</ele>
        <time>2025-07-12T09:08:47</time>
      </trkpt>
      <trkpt lat="45.32072" lon="5.8519">
        <ele>1576.5</ele>
        <time>2025-07-12T09:08:49</time>
      </trkpt>
      <trkpt lat="45.32072" lon="5.8519">
        <ele>1578.7</ele>
        <time>2025-07-12T09:08:50</time>
      </trkpt>
      <trkpt lat="45.32072" lon="5.8519">
        <ele>1578.7</ele>
        <time>2025-07-12T09:08:51</time>
      </trkpt>
      <trkpt lat="45.32072" lon="5.8519">
        <ele>1578.7</ele>
        <time>2025-07-12T09:08:53</time>
      </trkpt>
      <trkpt lat="45.32072" lon="5.8519">
        <ele>1578.7</ele>
        <time>2025-07-12T09:08:57</time>
      </trkpt>
      <trkpt lat="45.32072" lon="5.8519">
        <ele>1578.7</ele>
        <time>2025-07-12T09:08:59</time>
      </trkpt>
      <trkpt lat="45.32071" lon="5.8519">
        <ele>1578.7</ele>
        <time>2025-07-12T09:09:00</time>
      </trkpt>
      <trkpt lat="45.32066" lon="5.8519">
        <ele>1578.7</ele>
        <time>2025-07-12T09:09:01</time>
      </trkpt>
      <trkpt lat="45.32063" lon="5.85191">
        <ele>1578.7</ele>
        <time>2025-07-12T09:09:02</time>
      </trkpt>
      <trkpt lat="45.32061" lon="5.85191">
        <ele>1578.7</ele>
        <time>2025-07-12T09:09:03</time>
      </trkpt>
      <trkpt lat="45.3206" lon="5.85191">
        <ele>1574.6</ele>
        <time>2025-07-12T09:09:08</time>
      </trkpt>
      <trkpt lat="45.3206" lon="5.85191">
        <ele>1574.6</ele>
        <time>2025-07-12T09:09:09</time>
      </trkpt>
      <trkpt lat="45.3206" lon="5.85191">
        <ele>1574.6</ele>
        <time>2025-07-12T09:09:12</time>
      </trkpt>
      <trkpt lat="45.3206" lon="5.85191">
        <ele>1574.1</ele>
        <time>2025-07-12T09:09:38</time>
      </trkpt>
      <trkpt lat="45.3206" lon="5.85191">
        <ele>1574.1</ele>
        <time>2025-07-12T09:09:40</time>
      </trkpt>
      <trkpt lat="45.32057" lon="5.85182">
        <ele>1574.1</ele>
        <time>2025-07-12T09:10:18</time>
      </trkpt>
      <trkpt lat="45.32056" lon="5.85181">
        <ele>1574.1</ele>
        <time>2025-07-12T09:10:19</time>
      </trkpt>
      <trkpt lat="45.32054" lon="5.85181">
        <ele>1574.1</ele>
        <time>2025-07-12T09:10:21</time>
      </trkpt>
      <trkpt lat="45.32053" lon="5.85181">
        <ele>1574.1</ele>
        <time>2025-07-12T09:10:22</time>
      </trkpt>
      <trkpt lat="45.32051" lon="5.85182">
        <ele>1574.1</ele>
        <time>2025-07-12T09:10:23</time>
      </trkpt>
      <trkpt lat="45.32048" lon="5.85182">
        <ele>1574.1</ele>
        <time>2025-07-12T09:10:25</time>
      </trkpt>
      <trkpt lat="45.32046" lon="5.85183">
        <ele>1574.1</ele>
        <time>2025-07-12T09:10:27</time>
      </trkpt>
      <trkpt lat="45.32045" lon="5.85183">
        <ele>1574.1</ele>
        <time>2025-07-12T09:10:28</time>
      </trkpt>
      <trkpt lat="45.32042" lon="5.85184">
        <ele>1577.6</ele>
        <time>2025-07-12T09:10:31</time>
      </trkpt>
      <trkpt lat="45.32042" lon="5.85184">
        <ele>1577.6</ele>
        <time>2025-07-12T09:10:32</time>
      </trkpt>
      <trkpt lat="45.3204" lon="5.85183">
        <ele>1577.6</ele>
        <time>2025-07-12T09:10:33</time>
      </trkpt>
      <trkpt lat="45.32039" lon="5.85184">
        <ele>1577.6</ele>
        <time>2025-07-12T09:10:34</time>
      </trkpt>
      <trkpt lat="45.32039" lon="5.85184">
        <ele>1577.6</ele>
        <time>2025-07-12T09:10:35</time>
      </trkpt>
      <trkpt lat="45.32038" lon="5.85184">
        <ele>1577.6</ele>
        <time>2025-07-12T09:10:37</time>
      </trkpt>
      <trkpt lat="45.32035" lon="5.85185">
        <ele>1578.9</ele>
        <time>2025-07-12T09:10:39</time>
      </trkpt>
      <trkpt lat="45.32033" lon="5.85186">
        <ele>1578.9</ele>
        <time>2025-07-12T09:10:41</time>
      </trkpt>
      <trkpt lat="45.32032" lon="5.85186">
        <ele>1578.9</ele>
        <time>2025-07-12T09:10:43</time>
      </trkpt>
      <trkpt lat="45.32032" lon="5.85186">
        <ele>1578.9</ele>
        <time>2025-07-12T09:10:44</time>
      </trkpt>
      <trkpt lat="45.32032" lon="5.85186">
        <ele>1578.9</ele>
        <time>2025-07-12T09:10:46</time>
      </trkpt>
      <trkpt lat="45.32032" lon="5.85186">
        <ele>1579.6</ele>
        <time>2025-07-12T09:10:47</time>
      </trkpt>
      <trkpt lat="45.32032" lon="5.85186">
        <ele>1579.6</ele>
        <time>2025-07-12T09:10:48</time>
      </trkpt>
      <trkpt lat="45.32032" lon="5.85186">
        <ele>1579.6</ele>
        <time>2025-07-12T09:10:49</time>
      </trkpt>
      <trkpt lat="45.32032" lon="5.85186">
        <ele>1579.6</ele>
        <time>2025-07-12T09:10:51</time>
      </trkpt>
      <trkpt lat="45.32032" lon="5.85186">
        <ele>1579.6</ele>
        <time>2025-07-12T09:10:52</time>
      </trkpt>
      <trkpt lat="45.32032" lon="5.85186">
        <ele>1579.6</ele>
        <time>2025-07-12T09:10:53</time>
      </trkpt>
      <trkpt lat="45.32032" lon="5.85186">
        <ele>1579.6</ele>
        <time>2025-07-12T09:10:55</time>
      </trkpt>
      <trkpt lat="45.32032" lon="5.85186">
        <ele>1579.6</ele>
        <time>2025-07-12T09:10:57</time>
      </trkpt>
      <trkpt lat="45.32032" lon="5.85186">
        <ele>1579.6</ele>
        <time>2025-07-12T09:10:58</time>
      </trkpt>
      <trkpt lat="45.32032" lon="5.85186">
        <ele>1579.6</ele>
        <time>2025-07-12T09:10:59</time>
      </trkpt>
      <trkpt lat="45.32032" lon="5.85186">
        <ele>1579.6</ele>
        <time>2025-07-12T09:11:00</time>
      </trkpt>
      <trkpt lat="45.32032" lon="5.85186">
        <ele>1579.6</ele>
        <time>2025-07-12T09:11:01</time>
      </trkpt>
      <trkpt lat="45.32023" lon="5.85187">
        <ele>1579.6</ele>
        <time>2025-07-12T09:11:02</time>
      </trkpt>
      <trkpt lat="45.32022" lon="5.85187">
        <ele>1579.6</ele>
        <time>2025-07-12T09:11:03</time>
      </trkpt>
      <trkpt lat="45.32021" lon="5.85187">
        <ele>1579.6</ele>
        <time>2025-07-12T09:11:04</time>
      </trkpt>
      <trkpt lat="45.32021" lon="5.85187">
        <ele>1581.7</ele>
        <time>2025-07-12T09:11:05</time>
      </trkpt>
      <trkpt lat="45.32021" lon="5.85187">
        <ele>1581.7</ele>
        <time>2025-07-12T09:11:06</time>
      </trkpt>
      <trkpt lat="45.32021" lon="5.85187">
        <ele>1581.7</ele>
        <time>2025-07-12T09:11:07</time>
      </trkpt>
      <trkpt lat="45.32021" lon="5.85187">
        <ele>1581.7</ele>
        <time>2025-07-12T09:11:09</time>
      </trkpt>
      <trkpt lat="45.32021" lon="5.85187">
        <ele>1581.7</ele>
        <time>2025-07-12T09:11:10</time>
      </trkpt>
      <trkpt lat="45.32021" lon="5.85187">
        <ele>1581.7</ele>
        <time>2025-07-12T09:11:12</time>
      </trkpt>
      <trkpt lat="45.32021" lon="5.85187">
        <ele>1581.7</ele>
        <time>2025-07-12T09:11:13</time>
      </trkpt>
      <trkpt lat="45.32021" lon="5.85187">
        <ele>1581.7</ele>
        <time>2025-07-12T09:11:13</time>
      </trkpt>
      <trkpt lat="45.32021" lon="5.85187">
        <ele>1581.7</ele>
        <time>2025-07-12T09:11:14</time>
      </trkpt>
      <trkpt lat="45.32021" lon="5.85187">
        <ele>1581.7</ele>
        <time>2025-07-12T09:11:15</time>
      </trkpt>
      <trkpt lat="45.32021" lon="5.85187">
        <ele>1581.7</ele>
        <time>2025-07-12T09:11:17</time>
      </trkpt>
      <trkpt lat="45.32021" lon="5.85187">
        <ele>1581.7</ele>
        <time>2025-07-12T09:11:18</time>
      </trkpt>
      <trkpt lat="45.32021" lon="5.85187">
        <ele>1581.7</ele>
        <time>2025-07-12T09:11:19</time>
      </trkpt>
      <trkpt lat="45.32021" lon="5.85187">
        <ele>1581.7</ele>
        <time>2025-07-12T09:11:20</time>
      </trkpt>
      <trkpt lat="45.32021" lon="5.85187">
        <ele>1581.7</ele>
        <time>2025-07-12T09:11:21</time>
      </trkpt>
      <trkpt lat="45.32021" lon="5.85187">
        <ele>1581.7</ele>
        <time>2025-07-12T09:11:23</time>
      </trkpt>
      <trkpt lat="45.32012" lon="5.85189">
        <ele>1581.7</ele>
        <time>2025-07-12T09:11:26</time>
      </trkpt>
      <trkpt lat="45.32011" lon="5.8519">
        <ele>1581.7</ele>
        <time>2025-07-12T09:11:27</time>
      </trkpt>
      <trkpt lat="45.32011" lon="5.8519">
        <ele>1581.7</ele>
        <time>2025-07-12T09:11:28</time>
      </trkpt>
      <trkpt lat="45.3201" lon="5.8519">
        <ele>1581.7</ele>
        <time>2025-07-12T09:11:30</time>
      </trkpt>
      <trkpt lat="45.3201" lon="5.8519">
        <ele>1581.7</ele>
        <time>2025-07-12T09:11:31</time>
      </trkpt>
      <trkpt lat="45.3201" lon="5.8519">
        <ele>1581.7</ele>
        <time>2025-07-12T09:11:32</time>
      </trkpt>
      <trkpt lat="45.3201" lon="5.8519">
        <ele>1581.7</ele>
        <time>2025-07-12T09:11:34</time>
      </trkpt>
      <trkpt lat="45.3201" lon="5.8519">
        <ele>1581.7</ele>
        <time>2025-07-12T09:11:35</time>
      </trkpt>
      <trkpt lat="45.3201" lon="5.8519">
        <ele>1581.7</ele>
        <time>2025-07-12T09:11:36</time>
      </trkpt>
      <trkpt lat="45.3201" lon="5.8519">
        <ele>1581.7</ele>
        <time>2025-07-12T09:11:37</time>
      </trkpt>
      <trkpt lat="45.3201" lon="5.8519">
        <ele>1581.7</ele>
        <time>2025-07-12T09:11:37</time>
      </trkpt>
      <trkpt lat="45.3201" lon="5.8519">
        <ele>1581.7</ele>
        <time>2025-07-12T09:11:39</time>
      </trkpt>
      <trkpt lat="45.3201" lon="5.8519">
        <ele>1581.7</ele>
        <time>2025-07-12T09:11:40</time>
      </trkpt>
      <trkpt lat="45.3201" lon="5.8519">
        <ele>1581.7</ele>
        <time>2025-07-12T09:11:42</time>
      </trkpt>
      <trkpt lat="45.3201" lon="5.8519">
        <ele>1581.7</ele>
        <time>2025-07-12T09:11:42</time>
      </trkpt>
      <trkpt lat="45.3201" lon="5.8519">
        <ele>1581.7</ele>
        <time>2025-07-12T09:11:43</time>
      </trkpt>
      <trkpt lat="45.3201" lon="5.8519">
        <ele>1581.7</ele>
        <time>2025-07-12T09:11:46</time>
      </trkpt>
      <trkpt lat="45.3201" lon="5.8519">
        <ele>1581.7667</ele>
        <time>2025-07-12T09:11:47</time>
      </trkpt>
      <trkpt lat="45.3201" lon="5.8519">
        <ele>1581.7667</ele>
        <time>2025-07-12T09:11:48</time>
      </trkpt>
      <trkpt lat="45.3201" lon="5.8519">
        <ele>1581.7667</ele>
        <time>2025-07-12T09:11:49</time>
      </trkpt>
      <trkpt lat="45.3201" lon="5.8519">
        <ele>1581.7667</ele>
        <time>2025-07-12T09:11:50</time>
      </trkpt>
      <trkpt lat="45.32009" lon="5.8519">
        <ele>1581.7667</ele>
        <time>2025-07-12T09:11:51</time>
      </trkpt>
      <trkpt lat="45.32002" lon="5.85191">
        <ele>1581.7667</ele>
        <time>2025-07-12T09:11:53</time>
      </trkpt>
      <trkpt lat="45.32001" lon="5.85191">
        <ele>1582</ele>
        <time>2025-07-12T09:11:54</time>
      </trkpt>
      <trkpt lat="45.32001" lon="5.85191">
        <ele>1582</ele>
        <time>2025-07-12T09:11:56</time>
      </trkpt>
      <trkpt lat="45.32001" lon="5.85191">
        <ele>1582</ele>
        <time>2025-07-12T09:11:57</time>
      </trkpt>
      <trkpt lat="45.32" lon="5.85192">
        <ele>1582</ele>
        <time>2025-07-12T09:11:58</time>
      </trkpt>
      <trkpt lat="45.32" lon="5.85192">
        <ele>1582</ele>
        <time>2025-07-12T09:11:59</time>
      </trkpt>
      <trkpt lat="45.32" lon="5.85192">
        <ele>1582</ele>
        <time>2025-07-12T09:12:00</time>
      </trkpt>
      <trkpt lat="45.32" lon="5.85193">
        <ele>1582</ele>
        <time>2025-07-12T09:12:00</time>
      </trkpt>
      <trkpt lat="45.32" lon="5.85193">
        <ele>1582</ele>
        <time>2025-07-12T09:12:01</time>
      </trkpt>
      <trkpt lat="45.32" lon="5.85193">
        <ele>1582</ele>
        <time>2025-07-12T09:12:02</time>
      </trkpt>
      <trkpt lat="45.32" lon="5.85193">
        <ele>1582</ele>
        <time>2025-07-12T09:12:03</time>
      </trkpt>
      <trkpt lat="45.32" lon="5.85193">
        <ele>1582</ele>
        <time>2025-07-12T09:12:04</time>
      </trkpt>
      <trkpt lat="45.32" lon="5.85193">
        <ele>1582</ele>
        <time>2025-07-12T09:12:05</time>
      </trkpt>
      <trkpt lat="45.32" lon="5.85193">
        <ele>1582</ele>
        <time>2025-07-12T09:12:05</time>
      </trkpt>
      <trkpt lat="45.32" lon="5.85193">
        <ele>1582</ele>
        <time>2025-07-12T09:12:06</time>
      </trkpt>
      <trkpt lat="45.32" lon="5.85193">
        <ele>1582</ele>
        <time>2025-07-12T09:12:08</time>
      </trkpt>
      <trkpt lat="45.32" lon="5.85193">
        <ele>1582</ele>
        <time>2025-07-12T09:12:09</time>
      </trkpt>
      <trkpt lat="45.32" lon="5.85193">
        <ele>1582</ele>
        <time>2025-07-12T09:12:10</time>
      </trkpt>
      <trkpt lat="45.31999" lon="5.85193">
        <ele>1582</ele>
        <time>2025-07-12T09:12:11</time>
      </trkpt>
      <trkpt lat="45.31999" lon="5.85193">
        <ele>1582</ele>
        <time>2025-07-12T09:12:15</time>
      </trkpt>
      <trkpt lat="45.31999" lon="5.85193">
        <ele>1582</ele>
        <time>2025-07-12T09:12:18</time>
      </trkpt>
      <trkpt lat="45.31998" lon="5.85193">
        <ele>1585.5</ele>
        <time>2025-07-12T09:12:21</time>
      </trkpt>
      <trkpt lat="45.31998" lon="5.85193">
        <ele>1585.5</ele>
        <time>2025-07-12T09:12:22</time>
      </trkpt>
      <trkpt lat="45.31997" lon="5.85191">
        <ele>1585.5</ele>
        <time>2025-07-12T09:12:23</time>
      </trkpt>
      <trkpt lat="45.31995" lon="5.85188">
        <ele>1585.5</ele>
        <time>2025-07-12T09:12:24</time>
      </trkpt>
      <trkpt lat="45.31993" lon="5.85186">
        <ele>1585.5</ele>
        <time>2025-07-12T09:12:25</time>
      </trkpt>
      <trkpt lat="45.31993" lon="5.85185">
        <ele>1585.5</ele>
        <time>2025-07-12T09:12:26</time>
      </trkpt>
      <trkpt lat="45.31992" lon="5.85185">
        <ele>1585.5</ele>
        <time>2025-07-12T09:12:27</time>
      </trkpt>
      <trkpt lat="45.31992" lon="5.85185">
        <ele>1585.5</ele>
        <time>2025-07-12T09:12:28</time>
      </trkpt>
      <trkpt lat="45.31991" lon="5.85184">
        <ele>1585.5</ele>
        <time>2025-07-12T09:12:28</time>
      </trkpt>
      <trkpt lat="45.31991" lon="5.85184">
        <ele>1585.5</ele>
        <time>2025-07-12T09:12:29</time>
      </trkpt>
      <trkpt lat="45.31991" lon="5.85184">
        <ele>1585.5</ele>
        <time>2025-07-12T09:12:30</time>
      </trkpt>
      <trkpt lat="45.31991" lon="5.85184">
        <ele>1585.5</ele>
        <time>2025-07-12T09:12:30</time>
      </trkpt>
      <trkpt lat="45.3199" lon="5.85184">
        <ele>1585.5</ele>
        <time>2025-07-12T09:12:32</time>
      </trkpt>
      <trkpt lat="45.3199" lon="5.85184">
        <ele>1585.5</ele>
        <time>2025-07-12T09:12:33</time>
      </trkpt>
      <trkpt lat="45.3199" lon="5.85184">
        <ele>1585.5</ele>
        <time>2025-07-12T09:12:34</time>
      </trkpt>
      <trkpt lat="45.3199" lon="5.85184">
        <ele>1585.5</ele>
        <time>2025-07-12T09:12:34</time>
      </trkpt>
      <trkpt lat="45.3199" lon="5.85184">
        <ele>1585.5</ele>
        <time>2025-07-12T09:12:37</time>
      </trkpt>
      <trkpt lat="45.3199" lon="5.85184">
        <ele>1585.5</ele>
        <time>2025-07-12T09:12:37</time>
      </trkpt>
      <trkpt lat="45.31985" lon="5.85185">
        <ele>1585.5</ele>
        <time>2025-07-12T09:12:40</time>
      </trkpt>
      <trkpt lat="45.31979" lon="5.85191">
        <ele>1588.7667</ele>
        <time>2025-07-12T09:12:43</time>
      </trkpt>
      <trkpt lat="45.31979" lon="5.85194">
        <ele>1588.7667</ele>
        <time>2025-07-12T09:12:44</time>
      </trkpt>
      <trkpt lat="45.31979" lon="5.85194">
        <ele>1588.7667</ele>
        <time>2025-07-12T09:12:45</time>
      </trkpt>
      <trkpt lat="45.31978" lon="5.85195">
        <ele>1588.7667</ele>
        <time>2025-07-12T09:12:46</time>
      </trkpt>
      <trkpt lat="45.31978" lon="5.85196">
        <ele>1588.7667</ele>
        <time>2025-07-12T09:12:47</time>
      </trkpt>
      <trkpt lat="45.31978" lon="5.85196">
        <ele>1588.7667</ele>
        <time>2025-07-12T09:12:48</time>
      </trkpt>
      <trkpt lat="45.31978" lon="5.85196">
        <ele>1597.4333</ele>
        <time>2025-07-12T09:12:50</time>
      </trkpt>
      <trkpt lat="45.31978" lon="5.85197">
        <ele>1597.4333</ele>
        <time>2025-07-12T09:12:51</time>
      </trkpt>
      <trkpt lat="45.31978" lon="5.85197">
        <ele>1597.4333</ele>
        <time>2025-07-12T09:12:55</time>
      </trkpt>
      <trkpt lat="45.31978" lon="5.85197">
        <ele>1597.4333</ele>
        <time>2025-07-12T09:12:56</time>
      </trkpt>
      <trkpt lat="45.31978" lon="5.85197">
        <ele>1597.4333</ele>
        <time>2025-07-12T09:12:57</time>
      </trkpt>
      <trkpt lat="45.31978" lon="5.85197">
        <ele>1598</ele>
        <time>2025-07-12T09:12:58</time>
      </trkpt>
      <trkpt lat="45.31978" lon="5.85197">
        <ele>1598</ele>
        <time>2025-07-12T09:12:58</time>
      </trkpt>
      <trkpt lat="45.31978" lon="5.85197">
        <ele>1598</ele>
        <time>2025-07-12T09:13:00</time>
      </trkpt>
      <trkpt lat="45.31978" lon="5.85197">
        <ele>1598</ele>
        <time>2025-07-12T09:13:01</time>
      </trkpt>
      <trkpt lat="45.31978" lon="5.85197">
        <ele>1598</ele>
        <time>2025-07-12T09:13:02</time>
      </trkpt>
      <trkpt lat="45.31978" lon="5.85197">
        <ele>1598</ele>
        <time>2025-07-12T09:13:02</time>
      </trkpt>
      <trkpt lat="45.31978" lon="5.85197">
        <ele>1598</ele>
        <time>2025-07-12T09:13:03</time>
      </trkpt>
      <trkpt lat="45.31978" lon="5.85197">
        <ele>1598</ele>
        <time>2025-07-12T09:13:04</time>
      </trkpt>
      <trkpt lat="45.31977" lon="5.85196">
        <ele>1598</ele>
        <time>2025-07-12T09:13:05</time>
      </trkpt>
      <trkpt lat="45.31977" lon="5.85196">
        <ele>1598</ele>
        <time>2025-07-12T09:13:07</time>
      </trkpt>
      <trkpt lat="45.31977" lon="5.85196">
        <ele>1598</ele>
        <time>2025-07-12T09:13:09</time>
      </trkpt>
      <trkpt lat="45.31977" lon="5.85196">
        <ele>1598</ele>
        <time>2025-07-12T09:13:11</time>
      </trkpt>
      <trkpt lat="45.31977" lon="5.85196">
        <ele>1598</ele>
        <time>2025-07-12T09:13:12</time>
      </trkpt>
      <trkpt lat="45.31976" lon="5.85196">
        <ele>1598.3</ele>
        <time>2025-07-12T09:13:14</time>
      </trkpt>
      <trkpt lat="45.31972" lon="5.85199">
        <ele>1598.3</ele>
        <time>2025-07-12T09:13:15</time>
      </trkpt>
      <trkpt lat="45.31968" lon="5.85201">
        <ele>1598.3</ele>
        <time>2025-07-12T09:13:18</time>
      </trkpt>
      <trkpt lat="45.31968" lon="5.85201">
        <ele>1598.3</ele>
        <time>2025-07-12T09:13:19</time>
      </trkpt>
      <trkpt lat="45.31968" lon="5.85202">
        <ele>1598.3</ele>
        <time>2025-07-12T09:13:19</time>
      </trkpt>
      <trkpt lat="45.31968" lon="5.85202">
        <ele>1598.3</ele>
        <time>2025-07-12T09:13:20</time>
      </trkpt>
      <trkpt lat="45.31968" lon="5.85202">
        <ele>1598.3</ele>
        <time>2025-07-12T09:13:21</time>
      </trkpt>
      <trkpt lat="45.31968" lon="5.85202">
        <ele>1598.3</ele>
        <time>2025-07-12T09:13:22</time>
      </trkpt>
      <trkpt lat="45.31968" lon="5.85202">
        <ele>1598.3</ele>
        <time>2025-07-12T09:13:23</time>
      </trkpt>
      <trkpt lat="45.31968" lon="5.85202">
        <ele>1598.3</ele>
        <time>2025-07-12T09:13:24</time>
      </trkpt>
      <trkpt lat="45.31968" lon="5.85202">
        <ele>1598.3</ele>
        <time>2025-07-12T09:13:25</time>
      </trkpt>
      <trkpt lat="45.31968" lon="5.85202">
        <ele>1598.3</ele>
        <time>2025-07-12T09:13:28</time>
      </trkpt>
      <trkpt lat="45.31967" lon="5.85202">
        <ele>1598.4</ele>
        <time>2025-07-12T09:13:29</time>
      </trkpt>
      <trkpt lat="45.31964" lon="5.85201">
        <ele>1598.4</ele>
        <time>2025-07-12T09:13:30</time>
      </trkpt>
      <trkpt lat="45.31959" lon="5.85199">
        <ele>1598.4</ele>
        <time>2025-07-12T09:13:31</time>
      </trkpt>
      <trkpt lat="45.31958" lon="5.85199">
        <ele>1598.4</ele>
        <time>2025-07-12T09:13:33</time>
      </trkpt>
      <trkpt lat="45.31957" lon="5.852">
        <ele>1598.4</ele>
        <time>2025-07-12T09:13:34</time>
      </trkpt>
      <trkpt lat="45.31957" lon="5.85201">
        <ele>1598.6</ele>
        <time>2025-07-12T09:13:39</time>
      </trkpt>
      <trkpt lat="45.31957" lon="5.85201">
        <ele>1598.6</ele>
        <time>2025-07-12T09:13:40</time>
      </trkpt>
      <trkpt lat="45.31957" lon="5.85201">
        <ele>1598.6</ele>
        <time>2025-07-12T09:13:42</time>
      </trkpt>
      <trkpt lat="45.31957" lon="5.85201">
        <ele>1601.6</ele>
        <time>2025-07-12T09:13:44</time>
      </trkpt>
      <trkpt lat="45.31956" lon="5.85199">
        <ele>1601.6</ele>
        <time>2025-07-12T09:13:46</time>
      </trkpt>
      <trkpt lat="45.31953" lon="5.85196">
        <ele>1601.6</ele>
        <time>2025-07-12T09:13:47</time>
      </trkpt>
      <trkpt lat="45.31951" lon="5.85192">
        <ele>1601.6</ele>
        <time>2025-07-12T09:13:50</time>
      </trkpt>
      <trkpt lat="45.3195" lon="5.85192">
        <ele>1602.5</ele>
        <time>2025-07-12T09:13:51</time>
      </trkpt>
      <trkpt lat="45.3195" lon="5.85192">
        <ele>1602.5</ele>
        <time>2025-07-12T09:13:52</time>
      </trkpt>
      <trkpt lat="45.31949" lon="5.85192">
        <ele>1602.5</ele>
        <time>2025-07-12T09:13:54</time>
      </trkpt>
      <trkpt lat="45.31949" lon="5.85192">
        <ele>1602.5</ele>
        <time>2025-07-12T09:13:55</time>
      </trkpt>
      <trkpt lat="45.31949" lon="5.85192">
        <ele>1602.5</ele>
        <time>2025-07-12T09:13:56</time>
      </trkpt>
      <trkpt lat="45.31949" lon="5.85192">
        <ele>1602.5</ele>
        <time>2025-07-12T09:13:57</time>
      </trkpt>
      <trkpt lat="45.31949" lon="5.85192">
        <ele>1602.5</ele>
        <time>2025-07-12T09:13:58</time>
      </trkpt>
      <trkpt lat="45.31948" lon="5.85192">
        <ele>1602.5</ele>
        <time>2025-07-12T09:14:00</time>
      </trkpt>
      <trkpt lat="45.31944" lon="5.85186">
        <ele>1602.5</ele>
        <time>2025-07-12T09:14:08</time>
      </trkpt>
      <trkpt lat="45.31943" lon="5.85186">
        <ele>1602.5</ele>
        <time>2025-07-12T09:14:09</time>
      </trkpt>
      <trkpt lat="45.31942" lon="5.85185">
        <ele>1607.9</ele>
        <time>2025-07-12T09:14:10</time>
      </trkpt>
      <trkpt lat="45.31941" lon="5.85185">
        <ele>1607.9</ele>
        <time>2025-07-12T09:14:14</time>
      </trkpt>
      <trkpt lat="45.31941" lon="5.85185">
        <ele>1607.9</ele>
        <time>2025-07-12T09:14:15</time>
      </trkpt>
      <trkpt lat="45.31941" lon="5.85185">
        <ele>1607.9</ele>
        <time>2025-07-12T09:14:16</time>
      </trkpt>
      <trkpt lat="45.31941" lon="5.85185">
        <ele>1607.9</ele>
        <time>2025-07-12T09:14:17</time>
      </trkpt>
      <trkpt lat="45.31941" lon="5.85185">
        <ele>1607.9</ele>
        <time>2025-07-12T09:14:18</time>
      </trkpt>
      <trkpt lat="45.31941" lon="5.85185">
        <ele>1607.9</ele>
        <time>2025-07-12T09:14:18</time>
      </trkpt>
      <trkpt lat="45.31941" lon="5.85185">
        <ele>1607.9</ele>
        <time>2025-07-12T09:14:20</time>
      </trkpt>
      <trkpt lat="45.31941" lon="5.85185">
        <ele>1607.9</ele>
        <time>2025-07-12T09:14:21</time>
      </trkpt>
      <trkpt lat="45.31941" lon="5.85185">
        <ele>1607.9</ele>
        <time>2025-07-12T09:14:22</time>
      </trkpt>
      <trkpt lat="45.31941" lon="5.85185">
        <ele>1607.9</ele>
        <time>2025-07-12T09:14:36</time>
      </trkpt>
      <trkpt lat="45.31941" lon="5.85185">
        <ele>1607.9</ele>
        <time>2025-07-12T09:14:37</time>
      </trkpt>
      <trkpt lat="45.31941" lon="5.85185">
        <ele>1607.9</ele>
        <time>2025-07-12T09:14:38</time>
      </trkpt>
      <trkpt lat="45.31941" lon="5.85183">
        <ele>1607.9</ele>
        <time>2025-07-12T09:14:43</time>
      </trkpt>
      <trkpt lat="45.31941" lon="5.85183">
        <ele>1607.9</ele>
        <time>2025-07-12T09:14:45</time>
      </trkpt>
      <trkpt lat="45.31937" lon="5.85171">
        <ele>1613.4</ele>
        <time>2025-07-12T09:15:16</time>
      </trkpt>
      <trkpt lat="45.31937" lon="5.85171">
        <ele>1613.4</ele>
        <time>2025-07-12T09:15:47</time>
      </trkpt>
      <trkpt lat="45.31937" lon="5.85171">
        <ele>1613.4</ele>
        <time>2025-07-12T09:16:17</time>
      </trkpt>
      <trkpt lat="45.31937" lon="5.85171">
        <ele>1613.4</ele>
        <time>2025-07-12T09:16:47</time>
      </trkpt>
      <trkpt lat="45.31938" lon="5.8518">
        <ele>1613.4</ele>
        <time>2025-07-12T09:16:58</time>
      </trkpt>
      <trkpt lat="45.31939" lon="5.85183">
        <ele>1613.4</ele>
        <time>2025-07-12T09:16:59</time>
      </trkpt>
      <trkpt lat="45.31939" lon="5.85184">
        <ele>1615.7</ele>
        <time>2025-07-12T09:17:33</time>
      </trkpt>
      <trkpt lat="45.31933" lon="5.85188">
        <ele>1615.7</ele>
        <time>2025-07-12T09:18:01</time>
      </trkpt>
      <trkpt lat="45.31931" lon="5.85189">
        <ele>1615.7</ele>
        <time>2025-07-12T09:18:02</time>
      </trkpt>
      <trkpt lat="45.3193" lon="5.85189">
        <ele>1615.7</ele>
        <time>2025-07-12T09:18:03</time>
      </trkpt>
      <trkpt lat="45.31929" lon="5.85188">
        <ele>1615.7</ele>
        <time>2025-07-12T09:18:15</time>
      </trkpt>
      <trkpt lat="45.31929" lon="5.85188">
        <ele>1615.8</ele>
        <time>2025-07-12T09:18:18</time>
      </trkpt>
      <trkpt lat="45.31929" lon="5.85188">
        <ele>1615.8</ele>
        <time>2025-07-12T09:18:19</time>
      </trkpt>
      <trkpt lat="45.31929" lon="5.85188">
        <ele>1615.8</ele>
        <time>2025-07-12T09:18:20</time>
      </trkpt>
      <trkpt lat="45.31929" lon="5.85188">
        <ele>1615.8</ele>
        <time>2025-07-12T09:18:21</time>
      </trkpt>
      <trkpt lat="45.31929" lon="5.85188">
        <ele>1615.8</ele>
        <time>2025-07-12T09:18:22</time>
      </trkpt>
      <trkpt lat="45.31929" lon="5.85188">
        <ele>1615.8</ele>
        <time>2025-07-12T09:18:23</time>
      </trkpt>
      <trkpt lat="45.31929" lon="5.85188">
        <ele>1615.8</ele>
        <time>2025-07-12T09:18:24</time>
      </trkpt>
      <trkpt lat="45.31929" lon="5.85189">
        <ele>1615.8</ele>
        <time>2025-07-12T09:18:25</time>
      </trkpt>
      <trkpt lat="45.31929" lon="5.85189">
        <ele>1615.8</ele>
        <time>2025-07-12T09:18:28</time>
      </trkpt>
      <trkpt lat="45.31929" lon="5.85189">
        <ele>1615.8</ele>
        <time>2025-07-12T09:18:29</time>
      </trkpt>
      <trkpt lat="45.31929" lon="5.85189">
        <ele>1615.8</ele>
        <time>2025-07-12T09:18:30</time>
      </trkpt>
      <trkpt lat="45.31929" lon="5.85189">
        <ele>1615.8</ele>
        <time>2025-07-12T09:18:32</time>
      </trkpt>
      <trkpt lat="45.3192" lon="5.8519">
        <ele>1615.8</ele>
        <time>2025-07-12T09:18:35</time>
      </trkpt>
      <trkpt lat="45.3192" lon="5.8519">
        <ele>1615.8</ele>
        <time>2025-07-12T09:18:35</time>
      </trkpt>
      <trkpt lat="45.3192" lon="5.8519">
        <ele>1615.8</ele>
        <time>2025-07-12T09:18:37</time>
      </trkpt>
      <trkpt lat="45.3192" lon="5.8519">
        <ele>1615.8</ele>
        <time>2025-07-12T09:18:38</time>
      </trkpt>
      <trkpt lat="45.31919" lon="5.8519">
        <ele>1615.8</ele>
        <time>2025-07-12T09:18:42</time>
      </trkpt>
      <trkpt lat="45.3192" lon="5.8519">
        <ele>1615.7</ele>
        <time>2025-07-12T09:18:45</time>
      </trkpt>
      <trkpt lat="45.3192" lon="5.8519">
        <ele>1615.7</ele>
        <time>2025-07-12T09:18:46</time>
      </trkpt>
      <trkpt lat="45.31919" lon="5.8519">
        <ele>1615.7</ele>
        <time>2025-07-12T09:18:47</time>
      </trkpt>
      <trkpt lat="45.31919" lon="5.8519">
        <ele>1615.7</ele>
        <time>2025-07-12T09:18:50</time>
      </trkpt>
      <trkpt lat="45.31919" lon="5.8519">
        <ele>1615.7</ele>
        <time>2025-07-12T09:18:51</time>
      </trkpt>
      <trkpt lat="45.31919" lon="5.8519">
        <ele>1615.7</ele>
        <time>2025-07-12T09:18:52</time>
      </trkpt>
      <trkpt lat="45.31919" lon="5.8519">
        <ele>1615.7</ele>
        <time>2025-07-12T09:18:53</time>
      </trkpt>
      <trkpt lat="45.31919" lon="5.8519">
        <ele>1615.7</ele>
        <time>2025-07-12T09:18:54</time>
      </trkpt>
      <trkpt lat="45.3192" lon="5.8519">
        <ele>1615.7</ele>
        <time>2025-07-12T09:18:54</time>
      </trkpt>
      <trkpt lat="45.31919" lon="5.8519">
        <ele>1615.7</ele>
        <time>2025-07-12T09:18:55</time>
      </trkpt>
      <trkpt lat="45.3192" lon="5.8519">
        <ele>1615.7</ele>
        <time>2025-07-12T09:18:56</time>
      </trkpt>
      <trkpt lat="45.3192" lon="5.8519">
        <ele>1615.7</ele>
        <time>2025-07-12T09:18:57</time>
      </trkpt>
      <trkpt lat="45.3192" lon="5.8519">
        <ele>1615.7</ele>
        <time>2025-07-12T09:18:59</time>
      </trkpt>
      <trkpt lat="45.3192" lon="5.8519">
        <ele>1615.7</ele>
        <time>2025-07-12T09:19:00</time>
      </trkpt>
      <trkpt lat="45.3192" lon="5.8519">
        <ele>1615.7</ele>
        <time>2025-07-12T09:19:01</time>
      </trkpt>
      <trkpt lat="45.31919" lon="5.8519">
        <ele>1615.7</ele>
        <time>2025-07-12T09:19:03</time>
      </trkpt>
      <trkpt lat="45.31917" lon="5.85188">
        <ele>1615.7</ele>
        <time>2025-07-12T09:19:04</time>
      </trkpt>
      <trkpt lat="45.31914" lon="5.85187">
        <ele>1615.7</ele>
        <time>2025-07-12T09:19:05</time>
      </trkpt>
      <trkpt lat="45.31912" lon="5.85188">
        <ele>1615.7</ele>
        <time>2025-07-12T09:19:08</time>
      </trkpt>
      <trkpt lat="45.31911" lon="5.85188">
        <ele>1615.7</ele>
        <time>2025-07-12T09:19:10</time>
      </trkpt>
      <trkpt lat="45.31911" lon="5.85188">
        <ele>1615.2</ele>
        <time>2025-07-12T09:19:11</time>
      </trkpt>
      <trkpt lat="45.3191" lon="5.85189">
        <ele>1615.2</ele>
        <time>2025-07-12T09:19:16</time>
      </trkpt>
      <trkpt lat="45.3191" lon="5.85189">
        <ele>1615.2</ele>
        <time>2025-07-12T09:19:17</time>
      </trkpt>
      <trkpt lat="45.3191" lon="5.85189">
        <ele>1615.2</ele>
        <time>2025-07-12T09:19:18</time>
      </trkpt>
      <trkpt lat="45.31909" lon="5.85189">
        <ele>1615.2</ele>
        <time>2025-07-12T09:19:19</time>
      </trkpt>
      <trkpt lat="45.31909" lon="5.85189">
        <ele>1615.2</ele>
        <time>2025-07-12T09:19:20</time>
      </trkpt>
      <trkpt lat="45.31909" lon="5.85189">
        <ele>1615.2</ele>
        <time>2025-07-12T09:19:21</time>
      </trkpt>
      <trkpt lat="45.31909" lon="5.85189">
        <ele>1615.2</ele>
        <time>2025-07-12T09:19:21</time>
      </trkpt>
      <trkpt lat="45.31909" lon="5.85189">
        <ele>1615.2</ele>
        <time>2025-07-12T09:19:22</time>
      </trkpt>
      <trkpt lat="45.31909" lon="5.85189">
        <ele>1615.2</ele>
        <time>2025-07-12T09:19:23</time>
      </trkpt>
      <trkpt lat="45.31909" lon="5.85189">
        <ele>1615.2</ele>
        <time>2025-07-12T09:19:24</time>
      </trkpt>
      <trkpt lat="45.31909" lon="5.85189">
        <ele>1615.2</ele>
        <time>2025-07-12T09:19:26</time>
      </trkpt>
      <trkpt lat="45.31909" lon="5.85189">
        <ele>1615.2</ele>
        <time>2025-07-12T09:19:26</time>
      </trkpt>
      <trkpt lat="45.31909" lon="5.85189">
        <ele>1615.2</ele>
        <time>2025-07-12T09:19:27</time>
      </trkpt>
      <trkpt lat="45.31909" lon="5.85189">
        <ele>1615.2</ele>
        <time>2025-07-12T09:19:28</time>
      </trkpt>
      <trkpt lat="45.31909" lon="5.85189">
        <ele>1615.2</ele>
        <time>2025-07-12T09:19:29</time>
      </trkpt>
      <trkpt lat="45.31909" lon="5.85189">
        <ele>1615.2</ele>
        <time>2025-07-12T09:19:31</time>
      </trkpt>
      <trkpt lat="45.31909" lon="5.85189">
        <ele>1615.2</ele>
        <time>2025-07-12T09:19:31</time>
      </trkpt>
      <trkpt lat="45.31909" lon="5.85189">
        <ele>1615.2</ele>
        <time>2025-07-12T09:19:32</time>
      </trkpt>
      <trkpt lat="45.31909" lon="5.85189">
        <ele>1615.2</ele>
        <time>2025-07-12T09:19:34</time>
      </trkpt>
      <trkpt lat="45.31909" lon="5.85189">
        <ele>1615.2</ele>
        <time>2025-07-12T09:19:40</time>
      </trkpt>
      <trkpt lat="45.31909" lon="5.85189">
        <ele>1615.2</ele>
        <time>2025-07-12T09:19:43</time>
      </trkpt>
      <trkpt lat="45.31909" lon="5.85189">
        <ele>1615.2</ele>
        <time>2025-07-12T09:19:44</time>
      </trkpt>
      <trkpt lat="45.31909" lon="5.85189">
        <ele>1615.2</ele>
        <time>2025-07-12T09:19:46</time>
      </trkpt>
      <trkpt lat="45.31902" lon="5.85191">
        <ele>1615.2</ele>
        <time>2025-07-12T09:20:10</time>
      </trkpt>
      <trkpt lat="45.31901" lon="5.85192">
        <ele>1615.2</ele>
        <time>2025-07-12T09:20:11</time>
      </trkpt>
      <trkpt lat="45.319" lon="5.85193">
        <ele>1623.6</ele>
        <time>2025-07-12T09:21:06</time>
      </trkpt>
      <trkpt lat="45.31895" lon="5.85184">
        <ele>1623.6</ele>
        <time>2025-07-12T09:21:19</time>
      </trkpt>
      <trkpt lat="45.31893" lon="5.85182">
        <ele>1623.6</ele>
        <time>2025-07-12T09:21:20</time>
      </trkpt>
      <trkpt lat="45.31893" lon="5.85184">
        <ele>1623.6</ele>
        <time>2025-07-12T09:21:28</time>
      </trkpt>
      <trkpt lat="45.31892" lon="5.85184">
        <ele>1623.6</ele>
        <time>2025-07-12T09:21:30</time>
      </trkpt>
      <trkpt lat="45.31892" lon="5.85183">
        <ele>1623.6</ele>
        <time>2025-07-12T09:21:32</time>
      </trkpt>
      <trkpt lat="45.31892" lon="5.85182">
        <ele>1632.7</ele>
        <time>2025-07-12T09:21:34</time>
      </trkpt>
      <trkpt lat="45.31892" lon="5.85182">
        <ele>1632.7</ele>
        <time>2025-07-12T09:21:35</time>
      </trkpt>
      <trkpt lat="45.31893" lon="5.85182">
        <ele>1632.7</ele>
        <time>2025-07-12T09:21:36</time>
      </trkpt>
      <trkpt lat="45.31893" lon="5.85182">
        <ele>1632.7</ele>
        <time>2025-07-12T09:21:38</time>
      </trkpt>
      <trkpt lat="45.31893" lon="5.85182">
        <ele>1632.7</ele>
        <time>2025-07-12T09:21:38</time>
      </trkpt>
      <trkpt lat="45.31893" lon="5.85182">
        <ele>1632.7</ele>
        <time>2025-07-12T09:21:40</time>
      </trkpt>
      <trkpt lat="45.31892" lon="5.85181">
        <ele>1632.7</ele>
        <time>2025-07-12T09:21:47</time>
      </trkpt>
      <trkpt lat="45.3189" lon="5.85176">
        <ele>1632.7</ele>
        <time>2025-07-12T09:21:48</time>
      </trkpt>
      <trkpt lat="45.31888" lon="5.85172">
        <ele>1632.7</ele>
        <time>2025-07-12T09:21:51</time>
      </trkpt>
      <trkpt lat="45.31887" lon="5.85171">
        <ele>1632.7</ele>
        <time>2025-07-12T09:21:56</time>
      </trkpt>
      <trkpt lat="45.31887" lon="5.85171">
        <ele>1632.7</ele>
        <time>2025-07-12T09:21:57</time>
      </trkpt>
      <trkpt lat="45.31887" lon="5.85171">
        <ele>1636.7</ele>
        <time>2025-07-12T09:21:58</time>
      </trkpt>
      <trkpt lat="45.31887" lon="5.85171">
        <ele>1636.7</ele>
        <time>2025-07-12T09:22:00</time>
      </trkpt>
      <trkpt lat="45.31887" lon="5.85171">
        <ele>1636.7</ele>
        <time>2025-07-12T09:22:02</time>
      </trkpt>
      <trkpt lat="45.31887" lon="5.85171">
        <ele>1636.7</ele>
        <time>2025-07-12T09:22:02</time>
      </trkpt>
      <trkpt lat="45.31887" lon="5.85171">
        <ele>1636.7</ele>
        <time>2025-07-12T09:22:16</time>
      </trkpt>
      <trkpt lat="45.31887" lon="5.85171">
        <ele>1636.7</ele>
        <time>2025-07-12T09:22:17</time>
      </trkpt>
      <trkpt lat="45.31887" lon="5.85171">
        <ele>1636.7</ele>
        <time>2025-07-12T09:22:23</time>
      </trkpt>
      <trkpt lat="45.31887" lon="5.85171">
        <ele>1636.7</ele>
        <time>2025-07-12T09:22:24</time>
      </trkpt>
      <trkpt lat="45.31887" lon="5.85171">
        <ele>1636.7</ele>
        <time>2025-07-12T09:22:25</time>
      </trkpt>
      <trkpt lat="45.3188" lon="5.85172">
        <ele>1636.7</ele>
        <time>2025-07-12T09:22:50</time>
      </trkpt>
      <trkpt lat="45.31878" lon="5.85173">
        <ele>1636.7</ele>
        <time>2025-07-12T09:22:51</time>
      </trkpt>
      <trkpt lat="45.31877" lon="5.85173">
        <ele>1636.7</ele>
        <time>2025-07-12T09:22:52</time>
      </trkpt>
      <trkpt lat="45.31874" lon="5.85172">
        <ele>1636.7</ele>
        <time>2025-07-12T09:22:55</time>
      </trkpt>
      <trkpt lat="45.31872" lon="5.85171">
        <ele>1636.7</ele>
        <time>2025-07-12T09:22:56</time>
      </trkpt>
      <trkpt lat="45.31871" lon="5.85171">
        <ele>1636.7</ele>
        <time>2025-07-12T09:22:58</time>
      </trkpt>
      <trkpt lat="45.31865" lon="5.85169">
        <ele>1646.3</ele>
        <time>2025-07-12T09:23:15</time>
      </trkpt>
      <trkpt lat="45.31862" lon="5.8517">
        <ele>1646.1</ele>
        <time>2025-07-12T09:23:17</time>
      </trkpt>
      <trkpt lat="45.31856" lon="5.85177">
        <ele>1644.2</ele>
        <time>2025-07-12T09:23:44</time>
      </trkpt>
      <trkpt lat="45.31854" lon="5.8518">
        <ele>1644.2</ele>
        <time>2025-07-12T09:23:46</time>
      </trkpt>
      <trkpt lat="45.31854" lon="5.85181">
        <ele>1646.8</ele>
        <time>2025-07-12T09:24:16</time>
      </trkpt>
      <trkpt lat="45.31847" lon="5.85182">
        <ele>1646.8</ele>
        <time>2025-07-12T09:24:33</time>
      </trkpt>
      <trkpt lat="45.31844" lon="5.85182">
        <ele>1646.8</ele>
        <time>2025-07-12T09:24:34</time>
      </trkpt>
      <trkpt lat="45.31843" lon="5.85182">
        <ele>1646.8</ele>
        <time>2025-07-12T09:24:35</time>
      </trkpt>
      <trkpt lat="45.31843" lon="5.85181">
        <ele>1646.8</ele>
        <time>2025-07-12T09:24:42</time>
      </trkpt>
      <trkpt lat="45.31842" lon="5.85181">
        <ele>1652.4</ele>
        <time>2025-07-12T09:24:45</time>
      </trkpt>
      <trkpt lat="45.31842" lon="5.85181">
        <ele>1652.4</ele>
        <time>2025-07-12T09:24:46</time>
      </trkpt>
      <trkpt lat="45.31842" lon="5.85182">
        <ele>1652.4</ele>
        <time>2025-07-12T09:24:48</time>
      </trkpt>
      <trkpt lat="45.31842" lon="5.85182">
        <ele>1652.4</ele>
        <time>2025-07-12T09:24:50</time>
      </trkpt>
      <trkpt lat="45.31842" lon="5.85182">
        <ele>1652.4</ele>
        <time>2025-07-12T09:24:51</time>
      </trkpt>
      <trkpt lat="45.31841" lon="5.85183">
        <ele>1652.4</ele>
        <time>2025-07-12T09:24:52</time>
      </trkpt>
      <trkpt lat="45.3184" lon="5.85184">
        <ele>1652.4</ele>
        <time>2025-07-12T09:24:52</time>
      </trkpt>
      <trkpt lat="45.31838" lon="5.85185">
        <ele>1652.4</ele>
        <time>2025-07-12T09:24:53</time>
      </trkpt>
      <trkpt lat="45.31837" lon="5.85185">
        <ele>1652.4</ele>
        <time>2025-07-12T09:24:54</time>
      </trkpt>
      <trkpt lat="45.31836" lon="5.85184">
        <ele>1652.4</ele>
        <time>2025-07-12T09:24:54</time>
      </trkpt>
      <trkpt lat="45.31833" lon="5.85183">
        <ele>1652.4</ele>
        <time>2025-07-12T09:24:58</time>
      </trkpt>
      <trkpt lat="45.31833" lon="5.85183">
        <ele>1652.4</ele>
        <time>2025-07-12T09:25:00</time>
      </trkpt>
      <trkpt lat="45.31833" lon="5.85183">
        <ele>1652.4</ele>
        <time>2025-07-12T09:25:01</time>
      </trkpt>
      <trkpt lat="45.31832" lon="5.85183">
        <ele>1651.9</ele>
        <time>2025-07-12T09:25:02</time>
      </trkpt>
      <trkpt lat="45.31832" lon="5.85183">
        <ele>1651.9</ele>
        <time>2025-07-12T09:25:03</time>
      </trkpt>
      <trkpt lat="45.31832" lon="5.85183">
        <ele>1651.9</ele>
        <time>2025-07-12T09:25:05</time>
      </trkpt>
      <trkpt lat="45.31828" lon="5.85183">
        <ele>1651.9</ele>
        <time>2025-07-12T09:25:07</time>
      </trkpt>
      <trkpt lat="45.31821" lon="5.85182">
        <ele>1651.9</ele>
        <time>2025-07-12T09:25:14</time>
      </trkpt>
      <trkpt lat="45.3182" lon="5.85182">
        <ele>1651.9</ele>
        <time>2025-07-12T09:25:14</time>
      </trkpt>
      <trkpt lat="45.3182" lon="5.85181">
        <ele>1651.9</ele>
        <time>2025-07-12T09:25:15</time>
      </trkpt>
      <trkpt lat="45.3182" lon="5.85181">
        <ele>1651.9</ele>
        <time>2025-07-12T09:25:16</time>
      </trkpt>
      <trkpt lat="45.3182" lon="5.85181">
        <ele>1651.9</ele>
        <time>2025-07-12T09:25:17</time>
      </trkpt>
      <trkpt lat="45.3182" lon="5.85181">
        <ele>1653.7</ele>
        <time>2025-07-12T09:25:18</time>
      </trkpt>
      <trkpt lat="45.3182" lon="5.85181">
        <ele>1653.7</ele>
        <time>2025-07-12T09:25:19</time>
      </trkpt>
      <trkpt lat="45.3182" lon="5.8518">
        <ele>1653.7</ele>
        <time>2025-07-12T09:25:20</time>
      </trkpt>
      <trkpt lat="45.3182" lon="5.8518">
        <ele>1653.7</ele>
        <time>2025-07-12T09:25:21</time>
      </trkpt>
      <trkpt lat="45.3182" lon="5.85181">
        <ele>1653.7</ele>
        <time>2025-07-12T09:25:21</time>
      </trkpt>
      <trkpt lat="45.3182" lon="5.85181">
        <ele>1653.7</ele>
        <time>2025-07-12T09:25:22</time>
      </trkpt>
      <trkpt lat="45.3182" lon="5.85181">
        <ele>1653.7</ele>
        <time>2025-07-12T09:25:25</time>
      </trkpt>
      <trkpt lat="45.31814" lon="5.85181">
        <ele>1653.7</ele>
        <time>2025-07-12T09:25:30</time>
      </trkpt>
      <trkpt lat="45.31811" lon="5.85181">
        <ele>1653.7</ele>
        <time>2025-07-12T09:25:31</time>
      </trkpt>
      <trkpt lat="45.31811" lon="5.8518">
        <ele>1653.7</ele>
        <time>2025-07-12T09:25:32</time>
      </trkpt>
      <trkpt lat="45.31809" lon="5.85178">
        <ele>1658.8</ele>
        <time>2025-07-12T09:25:39</time>
      </trkpt>
      <trkpt lat="45.31809" lon="5.85177">
        <ele>1658.8</ele>
        <time>2025-07-12T09:25:41</time>
      </trkpt>
      <trkpt lat="45.31809" lon="5.85177">
        <ele>1659.4</ele>
        <time>2025-07-12T09:25:42</time>
      </trkpt>
      <trkpt lat="45.31809" lon="5.85177">
        <ele>1659.4</ele>
        <time>2025-07-12T09:25:42</time>
      </trkpt>
      <trkpt lat="45.31809" lon="5.85177">
        <ele>1659.4</ele>
        <time>2025-07-12T09:25:43</time>
      </trkpt>
      <trkpt lat="45.31809" lon="5.85177">
        <ele>1659.4</ele>
        <time>2025-07-12T09:25:44</time>
      </trkpt>
      <trkpt lat="45.31809" lon="5.85177">
        <ele>1659.4</ele>
        <time>2025-07-12T09:25:45</time>
      </trkpt>
      <trkpt lat="45.31809" lon="5.85178">
        <ele>1659.4</ele>
        <time>2025-07-12T09:25:46</time>
      </trkpt>
      <trkpt lat="45.31809" lon="5.85178">
        <ele>1659.4</ele>
        <time>2025-07-12T09:25:48</time>
      </trkpt>
      <trkpt lat="45.31809" lon="5.85178">
        <ele>1659.4</ele>
        <time>2025-07-12T09:25:49</time>
      </trkpt>
      <trkpt lat="45.31809" lon="5.85177">
        <ele>1664.3</ele>
        <time>2025-07-12T09:25:50</time>
      </trkpt>
      <trkpt lat="45.31802" lon="5.85173">
        <ele>1664.3</ele>
        <time>2025-07-12T09:25:55</time>
      </trkpt>
      <trkpt lat="45.31801" lon="5.85173">
        <ele>1664.3</ele>
        <time>2025-07-12T09:25:56</time>
      </trkpt>
      <trkpt lat="45.318" lon="5.85172">
        <ele>1664.3</ele>
        <time>2025-07-12T09:25:58</time>
      </trkpt>
      <trkpt lat="45.31799" lon="5.85172">
        <ele>1665.3</ele>
        <time>2025-07-12T09:25:59</time>
      </trkpt>
      <trkpt lat="45.31799" lon="5.85173">
        <ele>1665.3</ele>
        <time>2025-07-12T09:26:02</time>
      </trkpt>
      <trkpt lat="45.31799" lon="5.85173">
        <ele>1665.3</ele>
        <time>2025-07-12T09:26:03</time>
      </trkpt>
      <trkpt lat="45.31799" lon="5.85173">
        <ele>1665.3</ele>
        <time>2025-07-12T09:26:03</time>
      </trkpt>
      <trkpt lat="45.31799" lon="5.85173">
        <ele>1665.3</ele>
        <time>2025-07-12T09:26:06</time>
      </trkpt>
      <trkpt lat="45.31799" lon="5.85173">
        <ele>1665.3</ele>
        <time>2025-07-12T09:26:07</time>
      </trkpt>
      <trkpt lat="45.31799" lon="5.85173">
        <ele>1665.3</ele>
        <time>2025-07-12T09:26:07</time>
      </trkpt>
      <trkpt lat="45.31799" lon="5.85173">
        <ele>1665.3</ele>
        <time>2025-07-12T09:26:11</time>
      </trkpt>
      <trkpt lat="45.31799" lon="5.85173">
        <ele>1665.3</ele>
        <time>2025-07-12T09:26:13</time>
      </trkpt>
      <trkpt lat="45.31799" lon="5.85173">
        <ele>1665.3</ele>
        <time>2025-07-12T09:26:14</time>
      </trkpt>
      <trkpt lat="45.31799" lon="5.85173">
        <ele>1665.3</ele>
        <time>2025-07-12T09:26:15</time>
      </trkpt>
      <trkpt lat="45.31798" lon="5.85173">
        <ele>1665.3</ele>
        <time>2025-07-12T09:26:17</time>
      </trkpt>
      <trkpt lat="45.31798" lon="5.85173">
        <ele>1665.3</ele>
        <time>2025-07-12T09:26:18</time>
      </trkpt>
      <trkpt lat="45.31798" lon="5.85173">
        <ele>1665.3</ele>
        <time>2025-07-12T09:26:19</time>
      </trkpt>
      <trkpt lat="45.31798" lon="5.85173">
        <ele>1665.3</ele>
        <time>2025-07-12T09:26:19</time>
      </trkpt>
      <trkpt lat="45.31798" lon="5.85173">
        <ele>1665.3</ele>
        <time>2025-07-12T09:26:20</time>
      </trkpt>
      <trkpt lat="45.31799" lon="5.85172">
        <ele>1665.3</ele>
        <time>2025-07-12T09:26:24</time>
      </trkpt>
      <trkpt lat="45.31789" lon="5.85175">
        <ele>1668.1</ele>
        <time>2025-07-12T09:26:31</time>
      </trkpt>
      <trkpt lat="45.31788" lon="5.85175">
        <ele>1668.1</ele>
        <time>2025-07-12T09:26:32</time>
      </trkpt>
      <trkpt lat="45.31788" lon="5.85175">
        <ele>1668.1</ele>
        <time>2025-07-12T09:26:35</time>
      </trkpt>
      <trkpt lat="45.31788" lon="5.85175">
        <ele>1668.1</ele>
        <time>2025-07-12T09:26:36</time>
      </trkpt>
      <trkpt lat="45.31788" lon="5.85175">
        <ele>1668.1</ele>
        <time>2025-07-12T09:26:37</time>
      </trkpt>
      <trkpt lat="45.31788" lon="5.85175">
        <ele>1668.1</ele>
        <time>2025-07-12T09:26:38</time>
      </trkpt>
      <trkpt lat="45.31788" lon="5.85175">
        <ele>1668.1</ele>
        <time>2025-07-12T09:26:39</time>
      </trkpt>
      <trkpt lat="45.31788" lon="5.85175">
        <ele>1668.1</ele>
        <time>2025-07-12T09:26:40</time>
      </trkpt>
      <trkpt lat="45.31788" lon="5.85175">
        <ele>1668.1</ele>
        <time>2025-07-12T09:26:42</time>
      </trkpt>
      <trkpt lat="45.31788" lon="5.85175">
        <ele>1668.1</ele>
        <time>2025-07-12T09:26:42</time>
      </trkpt>
      <trkpt lat="45.31788" lon="5.85175">
        <ele>1668.1</ele>
        <time>2025-07-12T09:26:44</time>
      </trkpt>
      <trkpt lat="45.31788" lon="5.85175">
        <ele>1668.1</ele>
        <time>2025-07-12T09:26:46</time>
      </trkpt>
      <trkpt lat="45.31788" lon="5.85175">
        <ele>1668.1</ele>
        <time>2025-07-12T09:26:47</time>
      </trkpt>
      <trkpt lat="45.31788" lon="5.85175">
        <ele>1668.1</ele>
        <time>2025-07-12T09:26:48</time>
      </trkpt>
      <trkpt lat="45.31788" lon="5.85175">
        <ele>1668.1</ele>
        <time>2025-07-12T09:26:49</time>
      </trkpt>
      <trkpt lat="45.31788" lon="5.85175">
        <ele>1668.1</ele>
        <time>2025-07-12T09:26:50</time>
      </trkpt>
      <trkpt lat="45.31788" lon="5.85175">
        <ele>1668.1</ele>
        <time>2025-07-12T09:26:51</time>
      </trkpt>
      <trkpt lat="45.31788" lon="5.85175">
        <ele>1668.1</ele>
        <time>2025-07-12T09:26:51</time>
      </trkpt>
      <trkpt lat="45.31788" lon="5.85175">
        <ele>1668.1</ele>
        <time>2025-07-12T09:27:00</time>
      </trkpt>
      <trkpt lat="45.31788" lon="5.85175">
        <ele>1668.1</ele>
        <time>2025-07-12T09:27:01</time>
      </trkpt>
      <trkpt lat="45.31788" lon="5.85175">
        <ele>1668.1</ele>
        <time>2025-07-12T09:27:02</time>
      </trkpt>
      <trkpt lat="45.31788" lon="5.85175">
        <ele>1668.1</ele>
        <time>2025-07-12T09:27:02</time>
      </trkpt>
      <trkpt lat="45.31788" lon="5.85175">
        <ele>1668.1</ele>
        <time>2025-07-12T09:27:04</time>
      </trkpt>
      <trkpt lat="45.31788" lon="5.85175">
        <ele>1668.1</ele>
        <time>2025-07-12T09:27:05</time>
      </trkpt>
      <trkpt lat="45.31788" lon="5.85175">
        <ele>1668.1</ele>
        <time>2025-07-12T09:27:07</time>
      </trkpt>
      <trkpt lat="45.31788" lon="5.85175">
        <ele>1668.1</ele>
        <time>2025-07-12T09:27:08</time>
      </trkpt>
      <trkpt lat="45.31788" lon="5.85175">
        <ele>1668.1</ele>
        <time>2025-07-12T09:27:09</time>
      </trkpt>
      <trkpt lat="45.31788" lon="5.85175">
        <ele>1668.1</ele>
        <time>2025-07-12T09:27:10</time>
      </trkpt>
      <trkpt lat="45.31788" lon="5.85175">
        <ele>1668.1</ele>
        <time>2025-07-12T09:27:10</time>
      </trkpt>
      <trkpt lat="45.31788" lon="5.85175">
        <ele>1668.1</ele>
        <time>2025-07-12T09:27:12</time>
      </trkpt>
      <trkpt lat="45.31788" lon="5.85175">
        <ele>1668.1</ele>
        <time>2025-07-12T09:27:13</time>
      </trkpt>
      <trkpt lat="45.31788" lon="5.85175">
        <ele>1668.1</ele>
        <time>2025-07-12T09:27:14</time>
      </trkpt>
      <trkpt lat="45.31788" lon="5.85176">
        <ele>1668.1</ele>
        <time>2025-07-12T09:27:14</time>
      </trkpt>
      <trkpt lat="45.31788" lon="5.85176">
        <ele>1668.1</ele>
        <time>2025-07-12T09:27:15</time>
      </trkpt>
      <trkpt lat="45.31788" lon="5.85176">
        <ele>1668.1</ele>
        <time>2025-07-12T09:27:17</time>
      </trkpt>
      <trkpt lat="45.31788" lon="5.85176">
        <ele>1668.1</ele>
        <time>2025-07-12T09:27:18</time>
      </trkpt>
      <trkpt lat="45.3178" lon="5.85172">
        <ele>1668.1</ele>
        <time>2025-07-12T09:27:20</time>
      </trkpt>
      <trkpt lat="45.31778" lon="5.85172">
        <ele>1675.2</ele>
        <time>2025-07-12T09:27:54</time>
      </trkpt>
      <trkpt lat="45.31778" lon="5.85172">
        <ele>1675.2</ele>
        <time>2025-07-12T09:28:26</time>
      </trkpt>
      <trkpt lat="45.31784" lon="5.85178">
        <ele>1675.2</ele>
        <time>2025-07-12T09:28:48</time>
      </trkpt>
      <trkpt lat="45.31788" lon="5.85177">
        <ele>1675.2</ele>
        <time>2025-07-12T09:28:50</time>
      </trkpt>
      <trkpt lat="45.31794" lon="5.85173">
        <ele>1692.6666</ele>
        <time>2025-07-12T09:28:56</time>
      </trkpt>
      <trkpt lat="45.31796" lon="5.85172">
        <ele>1692.6666</ele>
        <time>2025-07-12T09:28:57</time>
      </trkpt>
      <trkpt lat="45.31797" lon="5.8517">
        <ele>1692.6666</ele>
        <time>2025-07-12T09:28:59</time>
      </trkpt>
      <trkpt lat="45.31797" lon="5.85171">
        <ele>1692.6666</ele>
        <time>2025-07-12T09:29:02</time>
      </trkpt>
      <trkpt lat="45.318" lon="5.8517">
        <ele>1695.4</ele>
        <time>2025-07-12T09:29:05</time>
      </trkpt>
      <trkpt lat="45.31801" lon="5.85171">
        <ele>1695.4</ele>
        <time>2025-07-12T09:29:06</time>
      </trkpt>
      <trkpt lat="45.31802" lon="5.85171">
        <ele>1695.4</ele>
        <time>2025-07-12T09:29:08</time>
      </trkpt>
      <trkpt lat="45.31802" lon="5.85171">
        <ele>1695.4</ele>
        <time>2025-07-12T09:29:09</time>
      </trkpt>
      <trkpt lat="45.31802" lon="5.85171">
        <ele>1695.4</ele>
        <time>2025-07-12T09:29:10</time>
      </trkpt>
      <trkpt lat="45.31802" lon="5.85171">
        <ele>1695.4</ele>
        <time>2025-07-12T09:29:11</time>
      </trkpt>
      <trkpt lat="45.31802" lon="5.85171">
        <ele>1695.4</ele>
        <time>2025-07-12T09:29:12</time>
      </trkpt>
      <trkpt lat="45.31802" lon="5.85171">
        <ele>1695.4</ele>
        <time>2025-07-12T09:29:14</time>
      </trkpt>
      <trkpt lat="45.31802" lon="5.85171">
        <ele>1698.7</ele>
        <time>2025-07-12T09:29:15</time>
      </trkpt>
      <trkpt lat="45.31802" lon="5.85171">
        <ele>1698.7</ele>
        <time>2025-07-12T09:29:16</time>
      </trkpt>
      <trkpt lat="45.31803" lon="5.85171">
        <ele>1699.1</ele>
        <time>2025-07-12T09:29:22</time>
      </trkpt>
      <trkpt lat="45.31803" lon="5.85171">
        <ele>1699.1</ele>
        <time>2025-07-12T09:29:23</time>
      </trkpt>
      <trkpt lat="45.31803" lon="5.85171">
        <ele>1699.1</ele>
        <time>2025-07-12T09:29:24</time>
      </trkpt>
      <trkpt lat="45.31802" lon="5.85171">
        <ele>1699.1</ele>
        <time>2025-07-12T09:29:25</time>
      </trkpt>
      <trkpt lat="45.31802" lon="5.85171">
        <ele>1699.1</ele>
        <time>2025-07-12T09:29:26</time>
      </trkpt>
      <trkpt lat="45.31802" lon="5.85171">
        <ele>1699.1</ele>
        <time>2025-07-12T09:29:27</time>
      </trkpt>
      <trkpt lat="45.31802" lon="5.85171">
        <ele>1699.1</ele>
        <time>2025-07-12T09:29:29</time>
      </trkpt>
      <trkpt lat="45.31802" lon="5.85171">
        <ele>1699.1</ele>
        <time>2025-07-12T09:29:30</time>
      </trkpt>
      <trkpt lat="45.31806" lon="5.85173">
        <ele>1699.1</ele>
        <time>2025-07-12T09:29:35</time>
      </trkpt>
      <trkpt lat="45.31807" lon="5.85174">
        <ele>1699.1</ele>
        <time>2025-07-12T09:29:35</time>
      </trkpt>
      <trkpt lat="45.31809" lon="5.85176">
        <ele>1699.1</ele>
        <time>2025-07-12T09:29:38</time>
      </trkpt>
      <trkpt lat="45.3181" lon="5.85176">
        <ele>1699.3</ele>
        <time>2025-07-12T09:29:40</time>
      </trkpt>
      <trkpt lat="45.3181" lon="5.85177">
        <ele>1699.3</ele>
        <time>2025-07-12T09:29:40</time>
      </trkpt>
      <trkpt lat="45.3181" lon="5.85177">
        <ele>1699.3</ele>
        <time>2025-07-12T09:29:41</time>
      </trkpt>
      <trkpt lat="45.3181" lon="5.85177">
        <ele>1699.3</ele>
        <time>2025-07-12T09:29:42</time>
      </trkpt>
      <trkpt lat="45.3181" lon="5.85177">
        <ele>1699.3</ele>
        <time>2025-07-12T09:29:44</time>
      </trkpt>
      <trkpt lat="45.3181" lon="5.85177">
        <ele>1699.3</ele>
        <time>2025-07-12T09:29:45</time>
      </trkpt>
      <trkpt lat="45.3181" lon="5.85178">
        <ele>1699.3</ele>
        <time>2025-07-12T09:29:46</time>
      </trkpt>
      <trkpt lat="45.31811" lon="5.85178">
        <ele>1699.3</ele>
        <time>2025-07-12T09:29:49</time>
      </trkpt>
      <trkpt lat="45.31812" lon="5.85179">
        <ele>1699.3</ele>
        <time>2025-07-12T09:29:49</time>
      </trkpt>
      <trkpt lat="45.31814" lon="5.85179">
        <ele>1699.3</ele>
        <time>2025-07-12T09:29:50</time>
      </trkpt>
      <trkpt lat="45.31817" lon="5.8518">
        <ele>1699.3</ele>
        <time>2025-07-12T09:29:53</time>
      </trkpt>
      <trkpt lat="45.31819" lon="5.85181">
        <ele>1699.8</ele>
        <time>2025-07-12T09:29:56</time>
      </trkpt>
      <trkpt lat="45.3182" lon="5.85181">
        <ele>1699.8</ele>
        <time>2025-07-12T09:29:57</time>
      </trkpt>
      <trkpt lat="45.3182" lon="5.85181">
        <ele>1699.8</ele>
        <time>2025-07-12T09:29:58</time>
      </trkpt>
      <trkpt lat="45.31821" lon="5.85181">
        <ele>1699.8</ele>
        <time>2025-07-12T09:30:00</time>
      </trkpt>
      <trkpt lat="45.31821" lon="5.85181">
        <ele>1699.8</ele>
        <time>2025-07-12T09:30:01</time>
      </trkpt>
      <trkpt lat="45.31822" lon="5.85182">
        <ele>1699.8</ele>
        <time>2025-07-12T09:30:02</time>
      </trkpt>
      <trkpt lat="45.31822" lon="5.85182">
        <ele>1699.8</ele>
        <time>2025-07-12T09:30:06</time>
      </trkpt>
      <trkpt lat="45.31822" lon="5.85182">
        <ele>1699.8</ele>
        <time>2025-07-12T09:30:10</time>
      </trkpt>
      <trkpt lat="45.31822" lon="5.85182">
        <ele>1699.8</ele>
        <time>2025-07-12T09:30:11</time>
      </trkpt>
      <trkpt lat="45.31822" lon="5.85182">
        <ele>1699.8</ele>
        <time>2025-07-12T09:30:11</time>
      </trkpt>
      <trkpt lat="45.31822" lon="5.85182">
        <ele>1699.8</ele>
        <time>2025-07-12T09:30:12</time>
      </trkpt>
      <trkpt lat="45.31822" lon="5.85182">
        <ele>1699.8</ele>
        <time>2025-07-12T09:30:15</time>
      </trkpt>
      <trkpt lat="45.31822" lon="5.85182">
        <ele>1699.8</ele>
        <time>2025-07-12T09:30:16</time>
      </trkpt>
      <trkpt lat="45.31822" lon="5.85182">
        <ele>1699.8</ele>
        <time>2025-07-12T09:30:17</time>
      </trkpt>
      <trkpt lat="45.31822" lon="5.85182">
        <ele>1699.8</ele>
        <time>2025-07-12T09:30:17</time>
      </trkpt>
      <trkpt lat="45.31822" lon="5.85182">
        <ele>1699.8</ele>
        <time>2025-07-12T09:30:19</time>
      </trkpt>
      <trkpt lat="45.31822" lon="5.85183">
        <ele>1699.8</ele>
        <time>2025-07-12T09:30:20</time>
      </trkpt>
      <trkpt lat="45.31822" lon="5.85183">
        <ele>1699.8</ele>
        <time>2025-07-12T09:30:21</time>
      </trkpt>
      <trkpt lat="45.31822" lon="5.85183">
        <ele>1699.8</ele>
        <time>2025-07-12T09:30:26</time>
      </trkpt>
      <trkpt lat="45.31829" lon="5.85189">
        <ele>1699.9333</ele>
        <time>2025-07-12T09:30:37</time>
      </trkpt>
      <trkpt lat="45.31829" lon="5.85189">
        <ele>1700.1</ele>
        <time>2025-07-12T09:30:45</time>
      </trkpt>
      <trkpt lat="45.31829" lon="5.85189">
        <ele>1700.1</ele>
        <time>2025-07-12T09:30:46</time>
      </trkpt>
      <trkpt lat="45.31829" lon="5.85189">
        <ele>1700.1</ele>
        <time>2025-07-12T09:31:16</time>
      </trkpt>
      <trkpt lat="45.31839" lon="5.85197">
        <ele>1700.1</ele>
        <time>2025-07-12T09:31:21</time>
      </trkpt>
      <trkpt lat="45.3184" lon="5.85196">
        <ele>1700.1</ele>
        <time>2025-07-12T09:31:22</time>
      </trkpt>
      <trkpt lat="45.3184" lon="5.85196">
        <ele>1700.8</ele>
        <time>2025-07-12T09:31:52</time>
      </trkpt>
      <trkpt lat="45.31846" lon="5.85194">
        <ele>1700.8</ele>
        <time>2025-07-12T09:32:12</time>
      </trkpt>
      <trkpt lat="45.31849" lon="5.85194">
        <ele>1700.8</ele>
        <time>2025-07-12T09:32:13</time>
      </trkpt>
      <trkpt lat="45.3185" lon="5.85194">
        <ele>1700.8</ele>
        <time>2025-07-12T09:32:19</time>
      </trkpt>
      <trkpt lat="45.31851" lon="5.85194">
        <ele>1700.8</ele>
        <time>2025-07-12T09:32:20</time>
      </trkpt>
      <trkpt lat="45.31851" lon="5.85194">
        <ele>1700.8</ele>
        <time>2025-07-12T09:32:20</time>
      </trkpt>
      <trkpt lat="45.31851" lon="5.85194">
        <ele>1700.8</ele>
        <time>2025-07-12T09:32:22</time>
      </trkpt>
      <trkpt lat="45.31851" lon="5.85194">
        <ele>1700.8</ele>
        <time>2025-07-12T09:32:24</time>
      </trkpt>
      <trkpt lat="45.31851" lon="5.85194">
        <ele>1713.6</ele>
        <time>2025-07-12T09:32:27</time>
      </trkpt>
      <trkpt lat="45.31851" lon="5.85194">
        <ele>1713.6</ele>
        <time>2025-07-12T09:32:28</time>
      </trkpt>
      <trkpt lat="45.31851" lon="5.85194">
        <ele>1713.6</ele>
        <time>2025-07-12T09:32:29</time>
      </trkpt>
      <trkpt lat="45.31851" lon="5.85194">
        <ele>1713.6</ele>
        <time>2025-07-12T09:32:30</time>
      </trkpt>
      <trkpt lat="45.31851" lon="5.85194">
        <ele>1713.6</ele>
        <time>2025-07-12T09:32:32</time>
      </trkpt>
      <trkpt lat="45.31851" lon="5.85194">
        <ele>1713.6</ele>
        <time>2025-07-12T09:32:33</time>
      </trkpt>
      <trkpt lat="45.31851" lon="5.85194">
        <ele>1713.6</ele>
        <time>2025-07-12T09:32:34</time>
      </trkpt>
      <trkpt lat="45.31851" lon="5.85195">
        <ele>1713.6</ele>
        <time>2025-07-12T09:32:37</time>
      </trkpt>
      <trkpt lat="45.31851" lon="5.85195">
        <ele>1713.6</ele>
        <time>2025-07-12T09:32:38</time>
      </trkpt>
      <trkpt lat="45.31851" lon="5.85195">
        <ele>1713.6</ele>
        <time>2025-07-12T09:32:43</time>
      </trkpt>
      <trkpt lat="45.31851" lon="5.85196">
        <ele>1713.6</ele>
        <time>2025-07-12T09:32:45</time>
      </trkpt>
      <trkpt lat="45.31856" lon="5.85201">
        <ele>1718</ele>
        <time>2025-07-12T09:32:47</time>
      </trkpt>
      <trkpt lat="45.31857" lon="5.85202">
        <ele>1718</ele>
        <time>2025-07-12T09:32:47</time>
      </trkpt>
      <trkpt lat="45.31857" lon="5.85202">
        <ele>1718</ele>
        <time>2025-07-12T09:32:48</time>
      </trkpt>
      <trkpt lat="45.31858" lon="5.85203">
        <ele>1718</ele>
        <time>2025-07-12T09:32:49</time>
      </trkpt>
      <trkpt lat="45.31858" lon="5.85203">
        <ele>1718</ele>
        <time>2025-07-12T09:32:51</time>
      </trkpt>
      <trkpt lat="45.31858" lon="5.85203">
        <ele>1718</ele>
        <time>2025-07-12T09:32:52</time>
      </trkpt>
      <trkpt lat="45.31858" lon="5.85203">
        <ele>1718</ele>
        <time>2025-07-12T09:32:54</time>
      </trkpt>
      <trkpt lat="45.31858" lon="5.85203">
        <ele>1718</ele>
        <time>2025-07-12T09:32:55</time>
      </trkpt>
      <trkpt lat="45.31858" lon="5.85203">
        <ele>1718</ele>
        <time>2025-07-12T09:32:59</time>
      </trkpt>
      <trkpt lat="45.31858" lon="5.85203">
        <ele>1718</ele>
        <time>2025-07-12T09:33:01</time>
      </trkpt>
      <trkpt lat="45.31858" lon="5.85203">
        <ele>1718</ele>
        <time>2025-07-12T09:33:02</time>
      </trkpt>
      <trkpt lat="45.31858" lon="5.85203">
        <ele>1718</ele>
        <time>2025-07-12T09:33:03</time>
      </trkpt>
      <trkpt lat="45.31858" lon="5.85203">
        <ele>1718</ele>
        <time>2025-07-12T09:33:05</time>
      </trkpt>
      <trkpt lat="45.3186" lon="5.85212">
        <ele>1718</ele>
        <time>2025-07-12T09:33:20</time>
      </trkpt>
      <trkpt lat="45.31861" lon="5.85215">
        <ele>1718</ele>
        <time>2025-07-12T09:33:22</time>
      </trkpt>
      <trkpt lat="45.31861" lon="5.85215">
        <ele>1720</ele>
        <time>2025-07-12T09:33:38</time>
      </trkpt>
      <trkpt lat="45.31861" lon="5.85216">
        <ele>1720</ele>
        <time>2025-07-12T09:33:39</time>
      </trkpt>
      <trkpt lat="45.31861" lon="5.85216">
        <ele>1720</ele>
        <time>2025-07-12T09:33:40</time>
      </trkpt>
      <trkpt lat="45.31861" lon="5.85216">
        <ele>1720</ele>
        <time>2025-07-12T09:33:41</time>
      </trkpt>
      <trkpt lat="45.31861" lon="5.85216">
        <ele>1720</ele>
        <time>2025-07-12T09:33:41</time>
      </trkpt>
      <trkpt lat="45.31861" lon="5.85216">
        <ele>1720</ele>
        <time>2025-07-12T09:33:43</time>
      </trkpt>
      <trkpt lat="45.31861" lon="5.85216">
        <ele>1720</ele>
        <time>2025-07-12T09:33:44</time>
      </trkpt>
      <trkpt lat="45.31861" lon="5.85216">
        <ele>1720</ele>
        <time>2025-07-12T09:33:45</time>
      </trkpt>
      <trkpt lat="45.31861" lon="5.85216">
        <ele>1720</ele>
        <time>2025-07-12T09:33:46</time>
      </trkpt>
      <trkpt lat="45.31861" lon="5.85216">
        <ele>1720</ele>
        <time>2025-07-12T09:33:47</time>
      </trkpt>
      <trkpt lat="45.31861" lon="5.85216">
        <ele>1720</ele>
        <time>2025-07-12T09:33:49</time>
      </trkpt>
      <trkpt lat="45.31861" lon="5.85216">
        <ele>1720</ele>
        <time>2025-07-12T09:33:50</time>
      </trkpt>
      <trkpt lat="45.31861" lon="5.85216">
        <ele>1720</ele>
        <time>2025-07-12T09:33:51</time>
      </trkpt>
      <trkpt lat="45.31861" lon="5.85216">
        <ele>1720</ele>
        <time>2025-07-12T09:33:54</time>
      </trkpt>
      <trkpt lat="45.31866" lon="5.85223">
        <ele>1720</ele>
        <time>2025-07-12T09:33:55</time>
      </trkpt>
      <trkpt lat="45.31868" lon="5.85227">
        <ele>1720</ele>
        <time>2025-07-12T09:33:55</time>
      </trkpt>
      <trkpt lat="45.31869" lon="5.85228">
        <ele>1720</ele>
        <time>2025-07-12T09:33:56</time>
      </trkpt>
      <trkpt lat="45.31869" lon="5.85228">
        <ele>1720</ele>
        <time>2025-07-12T09:33:58</time>
      </trkpt>
      <trkpt lat="45.31869" lon="5.85228">
        <ele>1720</ele>
        <time>2025-07-12T09:33:59</time>
      </trkpt>
      <trkpt lat="45.31869" lon="5.85229">
        <ele>1719.5</ele>
        <time>2025-07-12T09:34:06</time>
      </trkpt>
      <trkpt lat="45.31871" lon="5.85233">
        <ele>1719.5</ele>
        <time>2025-07-12T09:34:10</time>
      </trkpt>
      <trkpt lat="45.31874" lon="5.85238">
        <ele>1719.5</ele>
        <time>2025-07-12T09:34:11</time>
      </trkpt>
      <trkpt lat="45.31876" lon="5.85242">
        <ele>1718.3</ele>
        <time>2025-07-12T09:34:15</time>
      </trkpt>
      <trkpt lat="45.31876" lon="5.85242">
        <ele>1718.3</ele>
        <time>2025-07-12T09:34:16</time>
      </trkpt>
      <trkpt lat="45.31876" lon="5.85242">
        <ele>1718.3</ele>
        <time>2025-07-12T09:34:17</time>
      </trkpt>
      <trkpt lat="45.31876" lon="5.85242">
        <ele>1718.3</ele>
        <time>2025-07-12T09:34:20</time>
      </trkpt>
      <trkpt lat="45.31876" lon="5.85242">
        <ele>1718.3</ele>
        <time>2025-07-12T09:34:22</time>
      </trkpt>
      <trkpt lat="45.31876" lon="5.85242">
        <ele>1718.3</ele>
        <time>2025-07-12T09:34:24</time>
      </trkpt>
      <trkpt lat="45.31876" lon="5.85242">
        <ele>1718.3</ele>
        <time>2025-07-12T09:34:25</time>
      </trkpt>
      <trkpt lat="45.31876" lon="5.85242">
        <ele>1718.3</ele>
        <time>2025-07-12T09:34:26</time>
      </trkpt>
      <trkpt lat="45.31876" lon="5.85242">
        <ele>1718.3</ele>
        <time>2025-07-12T09:34:27</time>
      </trkpt>
      <trkpt lat="45.31876" lon="5.85242">
        <ele>1718.3</ele>
        <time>2025-07-12T09:34:29</time>
      </trkpt>
      <trkpt lat="45.31876" lon="5.85243">
        <ele>1718.3</ele>
        <time>2025-07-12T09:34:30</time>
      </trkpt>
      <trkpt lat="45.31876" lon="5.85243">
        <ele>1718.3</ele>
        <time>2025-07-12T09:34:31</time>
      </trkpt>
      <trkpt lat="45.3188" lon="5.85254">
        <ele>1718.3</ele>
        <time>2025-07-12T09:34:38</time>
      </trkpt>
      <trkpt lat="45.3188" lon="5.85254">
        <ele>1723.6</ele>
        <time>2025-07-12T09:35:10</time>
      </trkpt>
      <trkpt lat="45.3188" lon="5.85254">
        <ele>1723.6</ele>
        <time>2025-07-12T09:35:11</time>
      </trkpt>
      <trkpt lat="45.31879" lon="5.85254">
        <ele>1723.6</ele>
        <time>2025-07-12T09:35:13</time>
      </trkpt>
      <trkpt lat="45.3188" lon="5.85254">
        <ele>1723.6</ele>
        <time>2025-07-12T09:35:16</time>
      </trkpt>
      <trkpt lat="45.3188" lon="5.85254">
        <ele>1723.6</ele>
        <time>2025-07-12T09:35:16</time>
      </trkpt>
      <trkpt lat="45.3188" lon="5.85254">
        <ele>1723.6</ele>
        <time>2025-07-12T09:35:17</time>
      </trkpt>
      <trkpt lat="45.3188" lon="5.85253">
        <ele>1723.6</ele>
        <time>2025-07-12T09:35:18</time>
      </trkpt>
      <trkpt lat="45.3188" lon="5.85253">
        <ele>1723.6</ele>
        <time>2025-07-12T09:35:20</time>
      </trkpt>
      <trkpt lat="45.3188" lon="5.85253">
        <ele>1723.6</ele>
        <time>2025-07-12T09:35:21</time>
      </trkpt>
      <trkpt lat="45.3188" lon="5.85253">
        <ele>1723.6</ele>
        <time>2025-07-12T09:35:22</time>
      </trkpt>
      <trkpt lat="45.31879" lon="5.85253">
        <ele>1723.6</ele>
        <time>2025-07-12T09:35:22</time>
      </trkpt>
      <trkpt lat="45.31879" lon="5.85253">
        <ele>1723.6</ele>
        <time>2025-07-12T09:35:25</time>
      </trkpt>
      <trkpt lat="45.31879" lon="5.85253">
        <ele>1723.6</ele>
        <time>2025-07-12T09:35:26</time>
      </trkpt>
      <trkpt lat="45.31879" lon="5.85253">
        <ele>1723.6</ele>
        <time>2025-07-12T09:35:29</time>
      </trkpt>
      <trkpt lat="45.31879" lon="5.85253">
        <ele>1723.6</ele>
        <time>2025-07-12T09:35:30</time>
      </trkpt>
      <trkpt lat="45.31879" lon="5.85253">
        <ele>1723.6</ele>
        <time>2025-07-12T09:35:31</time>
      </trkpt>
      <trkpt lat="45.31879" lon="5.85253">
        <ele>1723.6</ele>
        <time>2025-07-12T09:35:33</time>
      </trkpt>
      <trkpt lat="45.31879" lon="5.85252">
        <ele>1723.6</ele>
        <time>2025-07-12T09:35:35</time>
      </trkpt>
      <trkpt lat="45.31879" lon="5.85252">
        <ele>1723.6</ele>
        <time>2025-07-12T09:35:36</time>
      </trkpt>
      <trkpt lat="45.31879" lon="5.85252">
        <ele>1723.6</ele>
        <time>2025-07-12T09:35:37</time>
      </trkpt>
      <trkpt lat="45.31878" lon="5.85252">
        <ele>1723.6</ele>
        <time>2025-07-12T09:35:38</time>
      </trkpt>
      <trkpt lat="45.31872" lon="5.85251">
        <ele>1723.6</ele>
        <time>2025-07-12T09:35:40</time>
      </trkpt>
      <trkpt lat="45.3187" lon="5.8525">
        <ele>1723.6</ele>
        <time>2025-07-12T09:35:41</time>
      </trkpt>
      <trkpt lat="45.3187" lon="5.85249">
        <ele>1729.4</ele>
        <time>2025-07-12T09:35:44</time>
      </trkpt>
      <trkpt lat="45.31869" lon="5.85248">
        <ele>1729.4</ele>
        <time>2025-07-12T09:35:46</time>
      </trkpt>
      <trkpt lat="45.31869" lon="5.85248">
        <ele>1729.4</ele>
        <time>2025-07-12T09:35:47</time>
      </trkpt>
      <trkpt lat="45.31869" lon="5.85247">
        <ele>1729.4</ele>
        <time>2025-07-12T09:35:48</time>
      </trkpt>
      <trkpt lat="45.31869" lon="5.85247">
        <ele>1729.4</ele>
        <time>2025-07-12T09:35:49</time>
      </trkpt>
      <trkpt lat="45.31869" lon="5.85247">
        <ele>1729.4</ele>
        <time>2025-07-12T09:35:50</time>
      </trkpt>
      <trkpt lat="45.31869" lon="5.85247">
        <ele>1729.4</ele>
        <time>2025-07-12T09:35:53</time>
      </trkpt>
      <trkpt lat="45.31869" lon="5.85247">
        <ele>1729.4</ele>
        <time>2025-07-12T09:35:54</time>
      </trkpt>
      <trkpt lat="45.31869" lon="5.85247">
        <ele>1729.4</ele>
        <time>2025-07-12T09:35:55</time>
      </trkpt>
      <trkpt lat="45.31868" lon="5.85247">
        <ele>1729.4</ele>
        <time>2025-07-12T09:36:00</time>
      </trkpt>
      <trkpt lat="45.31868" lon="5.85247">
        <ele>1729.4</ele>
        <time>2025-07-12T09:36:02</time>
      </trkpt>
      <trkpt lat="45.31864" lon="5.85243">
        <ele>1729.4</ele>
        <time>2025-07-12T09:36:03</time>
      </trkpt>
      <trkpt lat="45.31863" lon="5.85242">
        <ele>1729.4</ele>
        <time>2025-07-12T09:36:04</time>
      </trkpt>
      <trkpt lat="45.31862" lon="5.8524">
        <ele>1729.4</ele>
        <time>2025-07-12T09:36:05</time>
      </trkpt>
      <trkpt lat="45.31861" lon="5.8524">
        <ele>1730.6</ele>
        <time>2025-07-12T09:36:07</time>
      </trkpt>
      <trkpt lat="45.31861" lon="5.8524">
        <ele>1730.6</ele>
        <time>2025-07-12T09:36:08</time>
      </trkpt>
      <trkpt lat="45.31861" lon="5.8524">
        <ele>1730.6</ele>
        <time>2025-07-12T09:36:11</time>
      </trkpt>
      <trkpt lat="45.31861" lon="5.8524">
        <ele>1730.6</ele>
        <time>2025-07-12T09:36:15</time>
      </trkpt>
      <trkpt lat="45.31861" lon="5.85239">
        <ele>1730.6</ele>
        <time>2025-07-12T09:36:20</time>
      </trkpt>
      <trkpt lat="45.31861" lon="5.85239">
        <ele>1730.6</ele>
        <time>2025-07-12T09:36:26</time>
      </trkpt>
      <trkpt lat="45.31861" lon="5.85239">
        <ele>1730.6</ele>
        <time>2025-07-12T09:36:27</time>
      </trkpt>
      <trkpt lat="45.31861" lon="5.85239">
        <ele>1730.6</ele>
        <time>2025-07-12T09:36:30</time>
      </trkpt>
      <trkpt lat="45.31861" lon="5.85239">
        <ele>1730.6</ele>
        <time>2025-07-12T09:36:31</time>
      </trkpt>
      <trkpt lat="45.31861" lon="5.85239">
        <ele>1730.6</ele>
        <time>2025-07-12T09:36:33</time>
      </trkpt>
      <trkpt lat="45.31861" lon="5.85239">
        <ele>1730.6</ele>
        <time>2025-07-12T09:36:34</time>
      </trkpt>
      <trkpt lat="45.31861" lon="5.85239">
        <ele>1730.6</ele>
        <time>2025-07-12T09:36:35</time>
      </trkpt>
      <trkpt lat="45.31861" lon="5.85239">
        <ele>1730.6</ele>
        <time>2025-07-12T09:36:39</time>
      </trkpt>
      <trkpt lat="45.31861" lon="5.85239">
        <ele>1730.6</ele>
        <time>2025-07-12T09:36:45</time>
      </trkpt>
      <trkpt lat="45.31861" lon="5.85239">
        <ele>1730.6</ele>
        <time>2025-07-12T09:36:46</time>
      </trkpt>
      <trkpt lat="45.31861" lon="5.85239">
        <ele>1730.6</ele>
        <time>2025-07-12T09:36:48</time>
      </trkpt>
      <trkpt lat="45.31861" lon="5.85239">
        <ele>1730.6</ele>
        <time>2025-07-12T09:36:50</time>
      </trkpt>
      <trkpt lat="45.31861" lon="5.85239">
        <ele>1730.6</ele>
        <time>2025-07-12T09:36:51</time>
      </trkpt>
      <trkpt lat="45.31861" lon="5.85239">
        <ele>1730.6</ele>
        <time>2025-07-12T09:36:54</time>
      </trkpt>
      <trkpt lat="45.31861" lon="5.85239">
        <ele>1730.6</ele>
        <time>2025-07-12T09:36:55</time>
      </trkpt>
      <trkpt lat="45.31861" lon="5.85239">
        <ele>1730.6</ele>
        <time>2025-07-12T09:36:56</time>
      </trkpt>
      <trkpt lat="45.31862" lon="5.8524">
        <ele>1730.6</ele>
        <time>2025-07-12T09:36:59</time>
      </trkpt>
      <trkpt lat="45.31862" lon="5.85248">
        <ele>1735.4</ele>
        <time>2025-07-12T09:37:01</time>
      </trkpt>
      <trkpt lat="45.31861" lon="5.8525">
        <ele>1735.4</ele>
        <time>2025-07-12T09:37:03</time>
      </trkpt>
      <trkpt lat="45.31861" lon="5.8525">
        <ele>1735.4</ele>
        <time>2025-07-12T09:37:04</time>
      </trkpt>
      <trkpt lat="45.3186" lon="5.8525">
        <ele>1735.4</ele>
        <time>2025-07-12T09:37:04</time>
      </trkpt>
      <trkpt lat="45.3186" lon="5.85251">
        <ele>1735.4</ele>
        <time>2025-07-12T09:37:05</time>
      </trkpt>
      <trkpt lat="45.3186" lon="5.85251">
        <ele>1735.4</ele>
        <time>2025-07-12T09:37:05</time>
      </trkpt>
      <trkpt lat="45.3186" lon="5.85251">
        <ele>1735.4</ele>
        <time>2025-07-12T09:37:07</time>
      </trkpt>
      <trkpt lat="45.3186" lon="5.85252">
        <ele>1735.4</ele>
        <time>2025-07-12T09:37:08</time>
      </trkpt>
      <trkpt lat="45.3186" lon="5.85252">
        <ele>1735.4</ele>
        <time>2025-07-12T09:37:09</time>
      </trkpt>
      <trkpt lat="45.3186" lon="5.85253">
        <ele>1735.4</ele>
        <time>2025-07-12T09:37:10</time>
      </trkpt>
      <trkpt lat="45.3186" lon="5.85253">
        <ele>1735.4</ele>
        <time>2025-07-12T09:37:11</time>
      </trkpt>
      <trkpt lat="45.31863" lon="5.8526">
        <ele>1735.4</ele>
        <time>2025-07-12T09:37:12</time>
      </trkpt>
      <trkpt lat="45.31864" lon="5.85263">
        <ele>1735.4</ele>
        <time>2025-07-12T09:37:13</time>
      </trkpt>
      <trkpt lat="45.31865" lon="5.85266">
        <ele>1738.6666</ele>
        <time>2025-07-12T09:37:17</time>
      </trkpt>
      <trkpt lat="45.31865" lon="5.85266">
        <ele>1738.6666</ele>
        <time>2025-07-12T09:37:18</time>
      </trkpt>
      <trkpt lat="45.31865" lon="5.85266">
        <ele>1738.6666</ele>
        <time>2025-07-12T09:37:21</time>
      </trkpt>
      <trkpt lat="45.31865" lon="5.85266">
        <ele>1740.6</ele>
        <time>2025-07-12T09:37:24</time>
      </trkpt>
      <trkpt lat="45.31866" lon="5.85266">
        <ele>1740.6</ele>
        <time>2025-07-12T09:37:25</time>
      </trkpt>
      <trkpt lat="45.31866" lon="5.85266">
        <ele>1740.6</ele>
        <time>2025-07-12T09:37:27</time>
      </trkpt>
      <trkpt lat="45.3187" lon="5.85273">
        <ele>1740.6</ele>
        <time>2025-07-12T09:37:28</time>
      </trkpt>
      <trkpt lat="45.31872" lon="5.85276">
        <ele>1740.6</ele>
        <time>2025-07-12T09:37:29</time>
      </trkpt>
      <trkpt lat="45.31872" lon="5.85277">
        <ele>1740.6</ele>
        <time>2025-07-12T09:37:30</time>
      </trkpt>
      <trkpt lat="45.31873" lon="5.85277">
        <ele>1740</ele>
        <time>2025-07-12T09:37:32</time>
      </trkpt>
      <trkpt lat="45.31873" lon="5.85277">
        <ele>1740</ele>
        <time>2025-07-12T09:37:33</time>
      </trkpt>
      <trkpt lat="45.31873" lon="5.85277">
        <ele>1740</ele>
        <time>2025-07-12T09:37:38</time>
      </trkpt>
      <trkpt lat="45.31879" lon="5.85283">
        <ele>1740.5</ele>
        <time>2025-07-12T09:37:45</time>
      </trkpt>
      <trkpt lat="45.31881" lon="5.85284">
        <ele>1740.5</ele>
        <time>2025-07-12T09:37:46</time>
      </trkpt>
      <trkpt lat="45.31876" lon="5.8528">
        <ele>1740.5</ele>
        <time>2025-07-12T09:37:49</time>
      </trkpt>
      <trkpt lat="45.31878" lon="5.85281">
        <ele>1740.5</ele>
        <time>2025-07-12T09:37:53</time>
      </trkpt>
      <trkpt lat="45.31881" lon="5.85283">
        <ele>1740.5</ele>
        <time>2025-07-12T09:37:55</time>
      </trkpt>
      <trkpt lat="45.31882" lon="5.85284">
        <ele>1740.5</ele>
        <time>2025-07-12T09:37:57</time>
      </trkpt>
      <trkpt lat="45.31882" lon="5.85284">
        <ele>1743.6</ele>
        <time>2025-07-12T09:37:58</time>
      </trkpt>
      <trkpt lat="45.31882" lon="5.85285">
        <ele>1743.6</ele>
        <time>2025-07-12T09:38:02</time>
      </trkpt>
      <trkpt lat="45.31881" lon="5.85285">
        <ele>1743.6</ele>
        <time>2025-07-12T09:38:04</time>
      </trkpt>
      <trkpt lat="45.31887" lon="5.85292">
        <ele>1743.6</ele>
        <time>2025-07-12T09:38:07</time>
      </trkpt>
      <trkpt lat="45.31889" lon="5.85295">
        <ele>1743.6</ele>
        <time>2025-07-12T09:38:09</time>
      </trkpt>
      <trkpt lat="45.31889" lon="5.85295">
        <ele>1743.6</ele>
        <time>2025-07-12T09:38:11</time>
      </trkpt>
      <trkpt lat="45.31889" lon="5.85295">
        <ele>1743.6</ele>
        <time>2025-07-12T09:38:13</time>
      </trkpt>
      <trkpt lat="45.31889" lon="5.85295">
        <ele>1743.6</ele>
        <time>2025-07-12T09:38:15</time>
      </trkpt>
      <trkpt lat="45.31889" lon="5.85295">
        <ele>1747.1</ele>
        <time>2025-07-12T09:38:17</time>
      </trkpt>
      <trkpt lat="45.31889" lon="5.85295">
        <ele>1747.1</ele>
        <time>2025-07-12T09:38:19</time>
      </trkpt>
      <trkpt lat="45.3189" lon="5.85296">
        <ele>1747.1</ele>
        <time>2025-07-12T09:38:22</time>
      </trkpt>
      <trkpt lat="45.3189" lon="5.85296">
        <ele>1747.1</ele>
        <time>2025-07-12T09:38:23</time>
      </trkpt>
      <trkpt lat="45.3189" lon="5.85296">
        <ele>1747.1</ele>
        <time>2025-07-12T09:38:26</time>
      </trkpt>
      <trkpt lat="45.3189" lon="5.85296">
        <ele>1747.1</ele>
        <time>2025-07-12T09:38:27</time>
      </trkpt>
      <trkpt lat="45.3189" lon="5.85297">
        <ele>1747.1</ele>
        <time>2025-07-12T09:38:28</time>
      </trkpt>
      <trkpt lat="45.31894" lon="5.85302">
        <ele>1747.1</ele>
        <time>2025-07-12T09:38:30</time>
      </trkpt>
      <trkpt lat="45.31895" lon="5.85303">
        <ele>1747.1</ele>
        <time>2025-07-12T09:38:31</time>
      </trkpt>
      <trkpt lat="45.31896" lon="5.85304">
        <ele>1747.1</ele>
        <time>2025-07-12T09:38:32</time>
      </trkpt>
      <trkpt lat="45.31897" lon="5.85305">
        <ele>1748.9</ele>
        <time>2025-07-12T09:38:34</time>
      </trkpt>
      <trkpt lat="45.31897" lon="5.85306">
        <ele>1748.9</ele>
        <time>2025-07-12T09:38:36</time>
      </trkpt>
      <trkpt lat="45.31897" lon="5.85306">
        <ele>1748.9</ele>
        <time>2025-07-12T09:38:37</time>
      </trkpt>
      <trkpt lat="45.31897" lon="5.85306">
        <ele>1748.9</ele>
        <time>2025-07-12T09:38:38</time>
      </trkpt>
      <trkpt lat="45.31897" lon="5.85306">
        <ele>1748.9</ele>
        <time>2025-07-12T09:38:40</time>
      </trkpt>
      <trkpt lat="45.31897" lon="5.85306">
        <ele>1748.9</ele>
        <time>2025-07-12T09:38:41</time>
      </trkpt>
      <trkpt lat="45.31896" lon="5.85307">
        <ele>1748.9</ele>
        <time>2025-07-12T09:38:43</time>
      </trkpt>
      <trkpt lat="45.31896" lon="5.85307">
        <ele>1748.9</ele>
        <time>2025-07-12T09:38:44</time>
      </trkpt>
      <trkpt lat="45.31896" lon="5.85307">
        <ele>1748.9</ele>
        <time>2025-07-12T09:38:45</time>
      </trkpt>
      <trkpt lat="45.31896" lon="5.85307">
        <ele>1748.9</ele>
        <time>2025-07-12T09:38:46</time>
      </trkpt>
      <trkpt lat="45.31897" lon="5.85307">
        <ele>1748.9</ele>
        <time>2025-07-12T09:38:47</time>
      </trkpt>
      <trkpt lat="45.31897" lon="5.85307">
        <ele>1748.9</ele>
        <time>2025-07-12T09:38:48</time>
      </trkpt>
      <trkpt lat="45.31897" lon="5.85307">
        <ele>1748.9</ele>
        <time>2025-07-12T09:38:49</time>
      </trkpt>
      <trkpt lat="45.31896" lon="5.85308">
        <ele>1748.9</ele>
        <time>2025-07-12T09:38:50</time>
      </trkpt>
      <trkpt lat="45.31896" lon="5.85308">
        <ele>1754.3</ele>
        <time>2025-07-12T09:38:51</time>
      </trkpt>
      <trkpt lat="45.31897" lon="5.85308">
        <ele>1754.3</ele>
        <time>2025-07-12T09:38:56</time>
      </trkpt>
      <trkpt lat="45.31896" lon="5.85308">
        <ele>1754.3</ele>
        <time>2025-07-12T09:38:58</time>
      </trkpt>
      <trkpt lat="45.31896" lon="5.85309">
        <ele>1754.3</ele>
        <time>2025-07-12T09:38:59</time>
      </trkpt>
      <trkpt lat="45.31896" lon="5.85309">
        <ele>1754.3</ele>
        <time>2025-07-12T09:39:00</time>
      </trkpt>
      <trkpt lat="45.31896" lon="5.85309">
        <ele>1754.3</ele>
        <time>2025-07-12T09:39:01</time>
      </trkpt>
      <trkpt lat="45.31896" lon="5.85309">
        <ele>1754.3</ele>
        <time>2025-07-12T09:39:01</time>
      </trkpt>
      <trkpt lat="45.31896" lon="5.85309">
        <ele>1754.3</ele>
        <time>2025-07-12T09:39:02</time>
      </trkpt>
      <trkpt lat="45.31896" lon="5.85309">
        <ele>1754.3</ele>
        <time>2025-07-12T09:39:03</time>
      </trkpt>
      <trkpt lat="45.31896" lon="5.85309">
        <ele>1754.3</ele>
        <time>2025-07-12T09:39:03</time>
      </trkpt>
      <trkpt lat="45.31896" lon="5.85309">
        <ele>1754.3</ele>
        <time>2025-07-12T09:39:04</time>
      </trkpt>
      <trkpt lat="45.31896" lon="5.85309">
        <ele>1754.3</ele>
        <time>2025-07-12T09:39:04</time>
      </trkpt>
      <trkpt lat="45.31896" lon="5.85309">
        <ele>1754.3</ele>
        <time>2025-07-12T09:39:06</time>
      </trkpt>
      <trkpt lat="45.31899" lon="5.85309">
        <ele>1754.3</ele>
        <time>2025-07-12T09:39:07</time>
      </trkpt>
      <trkpt lat="45.31902" lon="5.85309">
        <ele>1754.3</ele>
        <time>2025-07-12T09:39:08</time>
      </trkpt>
      <trkpt lat="45.31903" lon="5.85309">
        <ele>1754.3</ele>
        <time>2025-07-12T09:39:09</time>
      </trkpt>
      <trkpt lat="45.31903" lon="5.85308">
        <ele>1754.3</ele>
        <time>2025-07-12T09:39:09</time>
      </trkpt>
      <trkpt lat="45.31904" lon="5.85308">
        <ele>1754.3</ele>
        <time>2025-07-12T09:39:10</time>
      </trkpt>
      <trkpt lat="45.31904" lon="5.85308">
        <ele>1754.3</ele>
        <time>2025-07-12T09:39:10</time>
      </trkpt>
      <trkpt lat="45.31904" lon="5.85307">
        <ele>1754.3</ele>
        <time>2025-07-12T09:39:12</time>
      </trkpt>
      <trkpt lat="45.31905" lon="5.85307">
        <ele>1754.3</ele>
        <time>2025-07-12T09:39:13</time>
      </trkpt>
      <trkpt lat="45.31905" lon="5.85307">
        <ele>1754.3</ele>
        <time>2025-07-12T09:39:14</time>
      </trkpt>
      <trkpt lat="45.31905" lon="5.85307">
        <ele>1754.3</ele>
        <time>2025-07-12T09:39:15</time>
      </trkpt>
      <trkpt lat="45.31906" lon="5.85307">
        <ele>1754.3</ele>
        <time>2025-07-12T09:39:15</time>
      </trkpt>
      <trkpt lat="45.31906" lon="5.85307">
        <ele>1754.3</ele>
        <time>2025-07-12T09:39:17</time>
      </trkpt>
      <trkpt lat="45.31906" lon="5.85307">
        <ele>1754.3</ele>
        <time>2025-07-12T09:39:18</time>
      </trkpt>
      <trkpt lat="45.31906" lon="5.85307">
        <ele>1754.3</ele>
        <time>2025-07-12T09:39:19</time>
      </trkpt>
      <trkpt lat="45.31906" lon="5.85307">
        <ele>1754.3</ele>
        <time>2025-07-12T09:39:20</time>
      </trkpt>
      <trkpt lat="45.31906" lon="5.85307">
        <ele>1754.3</ele>
        <time>2025-07-12T09:39:21</time>
      </trkpt>
      <trkpt lat="45.31906" lon="5.85307">
        <ele>1754.3</ele>
        <time>2025-07-12T09:39:22</time>
      </trkpt>
      <trkpt lat="45.31905" lon="5.85307">
        <ele>1754.3</ele>
        <time>2025-07-12T09:39:29</time>
      </trkpt>
      <trkpt lat="45.31905" lon="5.85307">
        <ele>1754.3</ele>
        <time>2025-07-12T09:39:31</time>
      </trkpt>
      <trkpt lat="45.31905" lon="5.85307">
        <ele>1754.3</ele>
        <time>2025-07-12T09:39:32</time>
      </trkpt>
      <trkpt lat="45.31905" lon="5.85307">
        <ele>1757.2</ele>
        <time>2025-07-12T09:39:33</time>
      </trkpt>
      <trkpt lat="45.31905" lon="5.85307">
        <ele>1757.2</ele>
        <time>2025-07-12T09:39:34</time>
      </trkpt>
      <trkpt lat="45.31905" lon="5.85307">
        <ele>1757.2</ele>
        <time>2025-07-12T09:39:35</time>
      </trkpt>
      <trkpt lat="45.31906" lon="5.85309">
        <ele>1757.2</ele>
        <time>2025-07-12T09:39:36</time>
      </trkpt>
      <trkpt lat="45.3191" lon="5.85317">
        <ele>1757.2</ele>
        <time>2025-07-12T09:39:38</time>
      </trkpt>
      <trkpt lat="45.3191" lon="5.85317">
        <ele>1757.2</ele>
        <time>2025-07-12T09:39:40</time>
      </trkpt>
      <trkpt lat="45.31911" lon="5.85318">
        <ele>1757.2</ele>
        <time>2025-07-12T09:39:42</time>
      </trkpt>
      <trkpt lat="45.31911" lon="5.85318">
        <ele>1757.2</ele>
        <time>2025-07-12T09:39:43</time>
      </trkpt>
      <trkpt lat="45.31911" lon="5.85318">
        <ele>1757.2</ele>
        <time>2025-07-12T09:39:44</time>
      </trkpt>
      <trkpt lat="45.31911" lon="5.85318">
        <ele>1757.2</ele>
        <time>2025-07-12T09:39:45</time>
      </trkpt>
      <trkpt lat="45.31911" lon="5.85318">
        <ele>1757.2</ele>
        <time>2025-07-12T09:39:46</time>
      </trkpt>
      <trkpt lat="45.31911" lon="5.85318">
        <ele>1757.2</ele>
        <time>2025-07-12T09:39:47</time>
      </trkpt>
      <trkpt lat="45.31911" lon="5.85318">
        <ele>1757.2</ele>
        <time>2025-07-12T09:39:48</time>
      </trkpt>
      <trkpt lat="45.31911" lon="5.85319">
        <ele>1757.2</ele>
        <time>2025-07-12T09:39:50</time>
      </trkpt>
      <trkpt lat="45.31911" lon="5.85319">
        <ele>1757.2</ele>
        <time>2025-07-12T09:39:51</time>
      </trkpt>
      <trkpt lat="45.31911" lon="5.85319">
        <ele>1757.2</ele>
        <time>2025-07-12T09:39:55</time>
      </trkpt>
      <trkpt lat="45.31911" lon="5.85319">
        <ele>1757.2</ele>
        <time>2025-07-12T09:39:57</time>
      </trkpt>
      <trkpt lat="45.31911" lon="5.85319">
        <ele>1757.2</ele>
        <time>2025-07-12T09:39:58</time>
      </trkpt>
      <trkpt lat="45.31911" lon="5.85319">
        <ele>1757.2</ele>
        <time>2025-07-12T09:39:59</time>
      </trkpt>
      <trkpt lat="45.31911" lon="5.85319">
        <ele>1757.2</ele>
        <time>2025-07-12T09:40:00</time>
      </trkpt>
      <trkpt lat="45.31911" lon="5.85319">
        <ele>1757.2</ele>
        <time>2025-07-12T09:40:02</time>
      </trkpt>
      <trkpt lat="45.31911" lon="5.85319">
        <ele>1757.2</ele>
        <time>2025-07-12T09:40:05</time>
      </trkpt>
      <trkpt lat="45.31911" lon="5.85319">
        <ele>1757.2</ele>
        <time>2025-07-12T09:40:06</time>
      </trkpt>
      <trkpt lat="45.31911" lon="5.85319">
        <ele>1757.2</ele>
        <time>2025-07-12T09:40:07</time>
      </trkpt>
      <trkpt lat="45.31911" lon="5.85319">
        <ele>1757.2</ele>
        <time>2025-07-12T09:40:07</time>
      </trkpt>
      <trkpt lat="45.31911" lon="5.85319">
        <ele>1757.2</ele>
        <time>2025-07-12T09:40:09</time>
      </trkpt>
      <trkpt lat="45.31911" lon="5.85319">
        <ele>1757.2</ele>
        <time>2025-07-12T09:40:10</time>
      </trkpt>
      <trkpt lat="45.31911" lon="5.85319">
        <ele>1757.2</ele>
        <time>2025-07-12T09:40:12</time>
      </trkpt>
      <trkpt lat="45.31911" lon="5.85319">
        <ele>1757.2</ele>
        <time>2025-07-12T09:40:15</time>
      </trkpt>
      <trkpt lat="45.31911" lon="5.85319">
        <ele>1757.2</ele>
        <time>2025-07-12T09:40:16</time>
      </trkpt>
      <trkpt lat="45.31911" lon="5.85319">
        <ele>1757.2</ele>
        <time>2025-07-12T09:40:18</time>
      </trkpt>
      <trkpt lat="45.31914" lon="5.8533">
        <ele>1757.2</ele>
        <time>2025-07-12T09:40:18</time>
      </trkpt>
      <trkpt lat="45.31915" lon="5.85332">
        <ele>1757.2</ele>
        <time>2025-07-12T09:40:21</time>
      </trkpt>
      <trkpt lat="45.31915" lon="5.85332">
        <ele>1757.2</ele>
        <time>2025-07-12T09:40:24</time>
      </trkpt>
      <trkpt lat="45.31915" lon="5.85332">
        <ele>1757.2</ele>
        <time>2025-07-12T09:40:25</time>
      </trkpt>
      <trkpt lat="45.31915" lon="5.85332">
        <ele>1757.2</ele>
        <time>2025-07-12T09:40:26</time>
      </trkpt>
      <trkpt lat="45.31915" lon="5.85332">
        <ele>1762.4</ele>
        <time>2025-07-12T09:40:28</time>
      </trkpt>
      <trkpt lat="45.31915" lon="5.85332">
        <ele>1762.4</ele>
        <time>2025-07-12T09:40:29</time>
      </trkpt>
      <trkpt lat="45.31915" lon="5.85332">
        <ele>1762.4</ele>
        <time>2025-07-12T09:40:30</time>
      </trkpt>
      <trkpt lat="45.31915" lon="5.85332">
        <ele>1762.4</ele>
        <time>2025-07-12T09:40:32</time>
      </trkpt>
      <trkpt lat="45.31915" lon="5.85332">
        <ele>1762.4</ele>
        <time>2025-07-12T09:40:33</time>
      </trkpt>
      <trkpt lat="45.31915" lon="5.85333">
        <ele>1762.4</ele>
        <time>2025-07-12T09:40:35</time>
      </trkpt>
      <trkpt lat="45.31915" lon="5.85333">
        <ele>1762.4</ele>
        <time>2025-07-12T09:40:36</time>
      </trkpt>
      <trkpt lat="45.31915" lon="5.85333">
        <ele>1762.4</ele>
        <time>2025-07-12T09:40:36</time>
      </trkpt>
      <trkpt lat="45.31915" lon="5.85333">
        <ele>1762.4</ele>
        <time>2025-07-12T09:40:37</time>
      </trkpt>
      <trkpt lat="45.31915" lon="5.85333">
        <ele>1762.4</ele>
        <time>2025-07-12T09:40:37</time>
      </trkpt>
      <trkpt lat="45.31915" lon="5.85333">
        <ele>1762.4</ele>
        <time>2025-07-12T09:40:39</time>
      </trkpt>
      <trkpt lat="45.31915" lon="5.85333">
        <ele>1762.4</ele>
        <time>2025-07-12T09:40:41</time>
      </trkpt>
      <trkpt lat="45.31915" lon="5.85334">
        <ele>1762.4</ele>
        <time>2025-07-12T09:40:41</time>
      </trkpt>
      <trkpt lat="45.31915" lon="5.85334">
        <ele>1762.4</ele>
        <time>2025-07-12T09:40:43</time>
      </trkpt>
      <trkpt lat="45.31915" lon="5.85334">
        <ele>1762.4</ele>
        <time>2025-07-12T09:40:44</time>
      </trkpt>
      <trkpt lat="45.31915" lon="5.85335">
        <ele>1762.4</ele>
        <time>2025-07-12T09:40:46</time>
      </trkpt>
      <trkpt lat="45.31915" lon="5.85338">
        <ele>1762.4</ele>
        <time>2025-07-12T09:40:48</time>
      </trkpt>
      <trkpt lat="45.31917" lon="5.85343">
        <ele>1762.4</ele>
        <time>2025-07-12T09:40:48</time>
      </trkpt>
      <trkpt lat="45.31918" lon="5.85346">
        <ele>1762.4</ele>
        <time>2025-07-12T09:40:51</time>
      </trkpt>
      <trkpt lat="45.31918" lon="5.85346">
        <ele>1762.4</ele>
        <time>2025-07-12T09:40:52</time>
      </trkpt>
      <trkpt lat="45.31918" lon="5.85346">
        <ele>1768.5</ele>
        <time>2025-07-12T09:40:53</time>
      </trkpt>
      <trkpt lat="45.31919" lon="5.85346">
        <ele>1768.5</ele>
        <time>2025-07-12T09:40:54</time>
      </trkpt>
      <trkpt lat="45.31919" lon="5.85346">
        <ele>1768.5</ele>
        <time>2025-07-12T09:40:57</time>
      </trkpt>
      <trkpt lat="45.31916" lon="5.85358">
        <ele>1768.5</ele>
        <time>2025-07-12T09:41:00</time>
      </trkpt>
      <trkpt lat="45.31916" lon="5.8536">
        <ele>1768.5</ele>
        <time>2025-07-12T09:41:01</time>
      </trkpt>
      <trkpt lat="45.31916" lon="5.85361">
        <ele>1768.5</ele>
        <time>2025-07-12T09:41:03</time>
      </trkpt>
      <trkpt lat="45.31916" lon="5.85361">
        <ele>1768.5</ele>
        <time>2025-07-12T09:41:04</time>
      </trkpt>
      <trkpt lat="45.31916" lon="5.85361">
        <ele>1768.5</ele>
        <time>2025-07-12T09:41:05</time>
      </trkpt>
      <trkpt lat="45.31916" lon="5.85361">
        <ele>1768.5</ele>
        <time>2025-07-12T09:41:06</time>
      </trkpt>
      <trkpt lat="45.31916" lon="5.85361">
        <ele>1768.5</ele>
        <time>2025-07-12T09:41:06</time>
      </trkpt>
      <trkpt lat="45.31916" lon="5.85361">
        <ele>1768.5</ele>
        <time>2025-07-12T09:41:08</time>
      </trkpt>
      <trkpt lat="45.31916" lon="5.85361">
        <ele>1770.5</ele>
        <time>2025-07-12T09:41:10</time>
      </trkpt>
      <trkpt lat="45.31916" lon="5.85361">
        <ele>1770.5</ele>
        <time>2025-07-12T09:41:12</time>
      </trkpt>
      <trkpt lat="45.31916" lon="5.85361">
        <ele>1770.5</ele>
        <time>2025-07-12T09:41:12</time>
      </trkpt>
      <trkpt lat="45.31914" lon="5.8537">
        <ele>1770.5</ele>
        <time>2025-07-12T09:41:17</time>
      </trkpt>
      <trkpt lat="45.31913" lon="5.85375">
        <ele>1770.5</ele>
        <time>2025-07-12T09:41:21</time>
      </trkpt>
      <trkpt lat="45.31913" lon="5.85375">
        <ele>1770.5</ele>
        <time>2025-07-12T09:41:21</time>
      </trkpt>
      <trkpt lat="45.31913" lon="5.85375">
        <ele>1774.1</ele>
        <time>2025-07-12T09:41:27</time>
      </trkpt>
      <trkpt lat="45.31913" lon="5.85375">
        <ele>1774.1</ele>
        <time>2025-07-12T09:41:27</time>
      </trkpt>
      <trkpt lat="45.31913" lon="5.85375">
        <ele>1774.1</ele>
        <time>2025-07-12T09:41:28</time>
      </trkpt>
      <trkpt lat="45.31913" lon="5.85376">
        <ele>1774.1</ele>
        <time>2025-07-12T09:41:29</time>
      </trkpt>
      <trkpt lat="45.31909" lon="5.85383">
        <ele>1774.1</ele>
        <time>2025-07-12T09:41:29</time>
      </trkpt>
      <trkpt lat="45.31908" lon="5.85388">
        <ele>1774.1</ele>
        <time>2025-07-12T09:41:31</time>
      </trkpt>
      <trkpt lat="45.31908" lon="5.85389">
        <ele>1774.1</ele>
        <time>2025-07-12T09:41:31</time>
      </trkpt>
      <trkpt lat="45.31907" lon="5.8539">
        <ele>1776.5</ele>
        <time>2025-07-12T09:41:34</time>
      </trkpt>
      <trkpt lat="45.31907" lon="5.8539">
        <ele>1776.5</ele>
        <time>2025-07-12T09:41:35</time>
      </trkpt>
      <trkpt lat="45.31907" lon="5.8539">
        <ele>1776.5</ele>
        <time>2025-07-12T09:41:35</time>
      </trkpt>
      <trkpt lat="45.31907" lon="5.8539">
        <ele>1776.5</ele>
        <time>2025-07-12T09:41:36</time>
      </trkpt>
      <trkpt lat="45.31907" lon="5.8539">
        <ele>1776.5</ele>
        <time>2025-07-12T09:41:37</time>
      </trkpt>
      <trkpt lat="45.31907" lon="5.8539">
        <ele>1776.5</ele>
        <time>2025-07-12T09:41:39</time>
      </trkpt>
      <trkpt lat="45.31907" lon="5.85402">
        <ele>1777</ele>
        <time>2025-07-12T09:41:46</time>
      </trkpt>
      <trkpt lat="45.31907" lon="5.85403">
        <ele>1779.6333</ele>
        <time>2025-07-12T09:41:47</time>
      </trkpt>
      <trkpt lat="45.31905" lon="5.85407">
        <ele>1779.6333</ele>
        <time>2025-07-12T09:41:49</time>
      </trkpt>
      <trkpt lat="45.31903" lon="5.85413">
        <ele>1779.6333</ele>
        <time>2025-07-12T09:41:52</time>
      </trkpt>
      <trkpt lat="45.31903" lon="5.85413">
        <ele>1779.6333</ele>
        <time>2025-07-12T09:41:53</time>
      </trkpt>
      <trkpt lat="45.31902" lon="5.85413">
        <ele>1780.6333</ele>
        <time>2025-07-12T09:41:57</time>
      </trkpt>
      <trkpt lat="45.31902" lon="5.85413">
        <ele>1780.6333</ele>
        <time>2025-07-12T09:41:59</time>
      </trkpt>
      <trkpt lat="45.31902" lon="5.85413">
        <ele>1780.6333</ele>
        <time>2025-07-12T09:41:59</time>
      </trkpt>
      <trkpt lat="45.31902" lon="5.85414">
        <ele>1780.6333</ele>
        <time>2025-07-12T09:42:01</time>
      </trkpt>
      <trkpt lat="45.31902" lon="5.85414">
        <ele>1781.4</ele>
        <time>2025-07-12T09:42:05</time>
      </trkpt>
      <trkpt lat="45.31902" lon="5.85414">
        <ele>1781.4</ele>
        <time>2025-07-12T09:42:06</time>
      </trkpt>
      <trkpt lat="45.31897" lon="5.85424">
        <ele>1781.4</ele>
        <time>2025-07-12T09:42:09</time>
      </trkpt>
      <trkpt lat="45.31896" lon="5.85425">
        <ele>1781.4</ele>
        <time>2025-07-12T09:42:10</time>
      </trkpt>
      <trkpt lat="45.31895" lon="5.85425">
        <ele>1781.4</ele>
        <time>2025-07-12T09:42:12</time>
      </trkpt>
      <trkpt lat="45.31895" lon="5.85425">
        <ele>1781.4</ele>
        <time>2025-07-12T09:42:16</time>
      </trkpt>
      <trkpt lat="45.31895" lon="5.85425">
        <ele>1781.9</ele>
        <time>2025-07-12T09:42:20</time>
      </trkpt>
      <trkpt lat="45.31895" lon="5.85425">
        <ele>1781.9</ele>
        <time>2025-07-12T09:42:20</time>
      </trkpt>
      <trkpt lat="45.31895" lon="5.85426">
        <ele>1781.9</ele>
        <time>2025-07-12T09:42:23</time>
      </trkpt>
      <trkpt lat="45.31894" lon="5.85444">
        <ele>1784.2</ele>
        <time>2025-07-12T09:42:27</time>
      </trkpt>
      <trkpt lat="45.31894" lon="5.85448">
        <ele>1784.2</ele>
        <time>2025-07-12T09:42:30</time>
      </trkpt>
      <trkpt lat="45.31894" lon="5.85449">
        <ele>1784.2</ele>
        <time>2025-07-12T09:42:32</time>
      </trkpt>
      <trkpt lat="45.31894" lon="5.85449">
        <ele>1785.8667</ele>
        <time>2025-07-12T09:42:34</time>
      </trkpt>
      <trkpt lat="45.31894" lon="5.85449">
        <ele>1785.8667</ele>
        <time>2025-07-12T09:42:35</time>
      </trkpt>
      <trkpt lat="45.31894" lon="5.85449">
        <ele>1785.8667</ele>
        <time>2025-07-12T09:42:36</time>
      </trkpt>
      <trkpt lat="45.31894" lon="5.85449">
        <ele>1785.8667</ele>
        <time>2025-07-12T09:42:40</time>
      </trkpt>
      <trkpt lat="45.31894" lon="5.85449">
        <ele>1785.8667</ele>
        <time>2025-07-12T09:42:41</time>
      </trkpt>
      <trkpt lat="45.31894" lon="5.85449">
        <ele>1786.1</ele>
        <time>2025-07-12T09:42:45</time>
      </trkpt>
      <trkpt lat="45.31894" lon="5.85449">
        <ele>1786.1</ele>
        <time>2025-07-12T09:42:48</time>
      </trkpt>
      <trkpt lat="45.31894" lon="5.85449">
        <ele>1786.1</ele>
        <time>2025-07-12T09:42:49</time>
      </trkpt>
      <trkpt lat="45.31894" lon="5.85458">
        <ele>1786.1</ele>
        <time>2025-07-12T09:42:50</time>
      </trkpt>
      <trkpt lat="45.31894" lon="5.85462">
        <ele>1786.1</ele>
        <time>2025-07-12T09:42:51</time>
      </trkpt>
      <trkpt lat="45.31894" lon="5.85464">
        <ele>1786.1</ele>
        <time>2025-07-12T09:42:53</time>
      </trkpt>
      <trkpt lat="45.31894" lon="5.85464">
        <ele>1786.1</ele>
        <time>2025-07-12T09:42:55</time>
      </trkpt>
      <trkpt lat="45.31894" lon="5.85465">
        <ele>1786.1</ele>
        <time>2025-07-12T09:42:56</time>
      </trkpt>
      <trkpt lat="45.31894" lon="5.85465">
        <ele>1789.3</ele>
        <time>2025-07-12T09:42:59</time>
      </trkpt>
      <trkpt lat="45.31894" lon="5.85465">
        <ele>1789.3</ele>
        <time>2025-07-12T09:43:02</time>
      </trkpt>
      <trkpt lat="45.31895" lon="5.85465">
        <ele>1789.3</ele>
        <time>2025-07-12T09:43:06</time>
      </trkpt>
      <trkpt lat="45.31894" lon="5.85465">
        <ele>1789.5</ele>
        <time>2025-07-12T09:43:07</time>
      </trkpt>
      <trkpt lat="45.31889" lon="5.85475">
        <ele>1789.5</ele>
        <time>2025-07-12T09:43:10</time>
      </trkpt>
      <trkpt lat="45.31888" lon="5.85476">
        <ele>1789.5</ele>
        <time>2025-07-12T09:43:11</time>
      </trkpt>
      <trkpt lat="45.31888" lon="5.85477">
        <ele>1789.5</ele>
        <time>2025-07-12T09:43:12</time>
      </trkpt>
      <trkpt lat="45.31887" lon="5.85477">
        <ele>1789.5</ele>
        <time>2025-07-12T09:43:17</time>
      </trkpt>
      <trkpt lat="45.31887" lon="5.85477">
        <ele>1789.5</ele>
        <time>2025-07-12T09:43:20</time>
      </trkpt>
      <trkpt lat="45.31887" lon="5.85477">
        <ele>1788.5</ele>
        <time>2025-07-12T09:43:23</time>
      </trkpt>
      <trkpt lat="45.31881" lon="5.8548">
        <ele>1788.5</ele>
        <time>2025-07-12T09:43:24</time>
      </trkpt>
      <trkpt lat="45.31878" lon="5.85482">
        <ele>1788.5</ele>
        <time>2025-07-12T09:43:24</time>
      </trkpt>
      <trkpt lat="45.31878" lon="5.85482">
        <ele>1788.5</ele>
        <time>2025-07-12T09:43:25</time>
      </trkpt>
      <trkpt lat="45.31877" lon="5.85483">
        <ele>1788.5</ele>
        <time>2025-07-12T09:43:27</time>
      </trkpt>
      <trkpt lat="45.31877" lon="5.85483">
        <ele>1788.5</ele>
        <time>2025-07-12T09:43:28</time>
      </trkpt>
      <trkpt lat="45.31876" lon="5.85483">
        <ele>1791.2667</ele>
        <time>2025-07-12T09:43:36</time>
      </trkpt>
      <trkpt lat="45.31876" lon="5.85483">
        <ele>1792</ele>
        <time>2025-07-12T09:43:38</time>
      </trkpt>
      <trkpt lat="45.31869" lon="5.85488">
        <ele>1792</ele>
        <time>2025-07-12T09:43:40</time>
      </trkpt>
      <trkpt lat="45.31867" lon="5.85489">
        <ele>1792</ele>
        <time>2025-07-12T09:43:41</time>
      </trkpt>
      <trkpt lat="45.31867" lon="5.85489">
        <ele>1792</ele>
        <time>2025-07-12T09:43:42</time>
      </trkpt>
      <trkpt lat="45.31866" lon="5.8549">
        <ele>1792</ele>
        <time>2025-07-12T09:43:44</time>
      </trkpt>
      <trkpt lat="45.31866" lon="5.8549">
        <ele>1794.8</ele>
        <time>2025-07-12T09:43:50</time>
      </trkpt>
      <trkpt lat="45.31866" lon="5.8549">
        <ele>1794.8</ele>
        <time>2025-07-12T09:43:51</time>
      </trkpt>
      <trkpt lat="45.31865" lon="5.8549">
        <ele>1795.2</ele>
        <time>2025-07-12T09:43:55</time>
      </trkpt>
      <trkpt lat="45.31865" lon="5.8549">
        <ele>1795.2</ele>
        <time>2025-07-12T09:43:56</time>
      </trkpt>
      <trkpt lat="45.31858" lon="5.85495">
        <ele>1795.2</ele>
        <time>2025-07-12T09:43:57</time>
      </trkpt>
      <trkpt lat="45.31857" lon="5.85496">
        <ele>1795.2</ele>
        <time>2025-07-12T09:43:58</time>
      </trkpt>
      <trkpt lat="45.31857" lon="5.85497">
        <ele>1795.2</ele>
        <time>2025-07-12T09:43:58</time>
      </trkpt>
      <trkpt lat="45.31857" lon="5.85497">
        <ele>1795.2</ele>
        <time>2025-07-12T09:44:01</time>
      </trkpt>
      <trkpt lat="45.31857" lon="5.85497">
        <ele>1797.6</ele>
        <time>2025-07-12T09:44:02</time>
      </trkpt>
      <trkpt lat="45.31856" lon="5.85497">
        <ele>1797.6</ele>
        <time>2025-07-12T09:44:03</time>
      </trkpt>
      <trkpt lat="45.31856" lon="5.85497">
        <ele>1797.6</ele>
        <time>2025-07-12T09:44:05</time>
      </trkpt>
      <trkpt lat="45.31856" lon="5.85497">
        <ele>1797.6</ele>
        <time>2025-07-12T09:44:06</time>
      </trkpt>
      <trkpt lat="45.31856" lon="5.85497">
        <ele>1797.6</ele>
        <time>2025-07-12T09:44:07</time>
      </trkpt>
      <trkpt lat="45.31851" lon="5.85502">
        <ele>1797.6</ele>
        <time>2025-07-12T09:44:10</time>
      </trkpt>
      <trkpt lat="45.31848" lon="5.85504">
        <ele>1798.8</ele>
        <time>2025-07-12T09:44:10</time>
      </trkpt>
      <trkpt lat="45.31847" lon="5.85505">
        <ele>1798.8</ele>
        <time>2025-07-12T09:44:12</time>
      </trkpt>
      <trkpt lat="45.31846" lon="5.85505">
        <ele>1798.8</ele>
        <time>2025-07-12T09:44:13</time>
      </trkpt>
      <trkpt lat="45.31846" lon="5.85505">
        <ele>1798.8</ele>
        <time>2025-07-12T09:44:14</time>
      </trkpt>
      <trkpt lat="45.31845" lon="5.85505">
        <ele>1798.8</ele>
        <time>2025-07-12T09:44:15</time>
      </trkpt>
      <trkpt lat="45.31842" lon="5.85506">
        <ele>1798.7667</ele>
        <time>2025-07-12T09:44:18</time>
      </trkpt>
      <trkpt lat="45.31841" lon="5.85506">
        <ele>1798.7667</ele>
        <time>2025-07-12T09:44:20</time>
      </trkpt>
      <trkpt lat="45.3184" lon="5.85506">
        <ele>1798.7667</ele>
        <time>2025-07-12T09:44:22</time>
      </trkpt>
      <trkpt lat="45.3184" lon="5.85505">
        <ele>1798.7</ele>
        <time>2025-07-12T09:44:30</time>
      </trkpt>
      <trkpt lat="45.3184" lon="5.85505">
        <ele>1798.7</ele>
        <time>2025-07-12T09:44:31</time>
      </trkpt>
      <trkpt lat="45.31834" lon="5.85506">
        <ele>1798.7</ele>
        <time>2025-07-12T09:44:32</time>
      </trkpt>
      <trkpt lat="45.31831" lon="5.85506">
        <ele>1798.3334</ele>
        <time>2025-07-12T09:44:32</time>
      </trkpt>
      <trkpt lat="45.3183" lon="5.85506">
        <ele>1798.3334</ele>
        <time>2025-07-12T09:44:33</time>
      </trkpt>
      <trkpt lat="45.31829" lon="5.85506">
        <ele>1798.3334</ele>
        <time>2025-07-12T09:44:34</time>
      </trkpt>
      <trkpt lat="45.31829" lon="5.85506">
        <ele>1798.3334</ele>
        <time>2025-07-12T09:44:35</time>
      </trkpt>
      <trkpt lat="45.31828" lon="5.85506">
        <ele>1798.3334</ele>
        <time>2025-07-12T09:44:35</time>
      </trkpt>
      <trkpt lat="45.31827" lon="5.85506">
        <ele>1798.3334</ele>
        <time>2025-07-12T09:44:37</time>
      </trkpt>
      <trkpt lat="45.31827" lon="5.85506">
        <ele>1797.6</ele>
        <time>2025-07-12T09:44:45</time>
      </trkpt>
      <trkpt lat="45.31819" lon="5.85506">
        <ele>1800.2333</ele>
        <time>2025-07-12T09:44:48</time>
      </trkpt>
      <trkpt lat="45.31817" lon="5.85506">
        <ele>1800.2333</ele>
        <time>2025-07-12T09:44:49</time>
      </trkpt>
      <trkpt lat="45.31817" lon="5.85506">
        <ele>1800.2333</ele>
        <time>2025-07-12T09:44:49</time>
      </trkpt>
      <trkpt lat="45.31816" lon="5.85506">
        <ele>1800.2333</ele>
        <time>2025-07-12T09:44:51</time>
      </trkpt>
      <trkpt lat="45.31816" lon="5.85506">
        <ele>1800.2333</ele>
        <time>2025-07-12T09:44:52</time>
      </trkpt>
      <trkpt lat="45.31816" lon="5.85506">
        <ele>1800.2333</ele>
        <time>2025-07-12T09:44:53</time>
      </trkpt>
      <trkpt lat="45.31816" lon="5.85506">
        <ele>1800.2333</ele>
        <time>2025-07-12T09:44:55</time>
      </trkpt>
      <trkpt lat="45.31816" lon="5.85506">
        <ele>1802</ele>
        <time>2025-07-12T09:44:55</time>
      </trkpt>
      <trkpt lat="45.31816" lon="5.85506">
        <ele>1802</ele>
        <time>2025-07-12T09:44:56</time>
      </trkpt>
      <trkpt lat="45.31816" lon="5.85506">
        <ele>1802</ele>
        <time>2025-07-12T09:44:57</time>
      </trkpt>
      <trkpt lat="45.31816" lon="5.85506">
        <ele>1802</ele>
        <time>2025-07-12T09:44:59</time>
      </trkpt>
      <trkpt lat="45.31816" lon="5.85506">
        <ele>1802</ele>
        <time>2025-07-12T09:45:00</time>
      </trkpt>
      <trkpt lat="45.31816" lon="5.85506">
        <ele>1802</ele>
        <time>2025-07-12T09:45:01</time>
      </trkpt>
      <trkpt lat="45.31816" lon="5.85506">
        <ele>1802</ele>
        <time>2025-07-12T09:45:02</time>
      </trkpt>
      <trkpt lat="45.31816" lon="5.85507">
        <ele>1802</ele>
        <time>2025-07-12T09:45:03</time>
      </trkpt>
      <trkpt lat="45.31809" lon="5.85511">
        <ele>1802</ele>
        <time>2025-07-12T09:45:05</time>
      </trkpt>
      <trkpt lat="45.31807" lon="5.85511">
        <ele>1802</ele>
        <time>2025-07-12T09:45:06</time>
      </trkpt>
      <trkpt lat="45.31806" lon="5.85512">
        <ele>1802</ele>
        <time>2025-07-12T09:45:07</time>
      </trkpt>
      <trkpt lat="45.31806" lon="5.85512">
        <ele>1802</ele>
        <time>2025-07-12T09:45:07</time>
      </trkpt>
      <trkpt lat="45.31806" lon="5.85512">
        <ele>1802</ele>
        <time>2025-07-12T09:45:08</time>
      </trkpt>
      <trkpt lat="45.31806" lon="5.85512">
        <ele>1802</ele>
        <time>2025-07-12T09:45:09</time>
      </trkpt>
      <trkpt lat="45.31806" lon="5.85513">
        <ele>1805.5</ele>
        <time>2025-07-12T09:45:11</time>
      </trkpt>
      <trkpt lat="45.31806" lon="5.85513">
        <ele>1805.5</ele>
        <time>2025-07-12T09:45:15</time>
      </trkpt>
      <trkpt lat="45.31806" lon="5.85513">
        <ele>1805.5</ele>
        <time>2025-07-12T09:45:16</time>
      </trkpt>
      <trkpt lat="45.31806" lon="5.85513">
        <ele>1805.5</ele>
        <time>2025-07-12T09:45:17</time>
      </trkpt>
      <trkpt lat="45.31805" lon="5.85513">
        <ele>1806.1</ele>
        <time>2025-07-12T09:45:21</time>
      </trkpt>
      <trkpt lat="45.318" lon="5.85516">
        <ele>1806.1</ele>
        <time>2025-07-12T09:45:22</time>
      </trkpt>
      <trkpt lat="45.31797" lon="5.85517">
        <ele>1806.1</ele>
        <time>2025-07-12T09:45:22</time>
      </trkpt>
      <trkpt lat="45.31796" lon="5.85518">
        <ele>1806.1</ele>
        <time>2025-07-12T09:45:24</time>
      </trkpt>
      <trkpt lat="45.31789" lon="5.85519">
        <ele>1807.4333</ele>
        <time>2025-07-12T09:45:30</time>
      </trkpt>
      <trkpt lat="45.31788" lon="5.85519">
        <ele>1810.4</ele>
        <time>2025-07-12T09:45:34</time>
      </trkpt>
      <trkpt lat="45.31788" lon="5.85519">
        <ele>1810.4</ele>
        <time>2025-07-12T09:45:35</time>
      </trkpt>
      <trkpt lat="45.31788" lon="5.85519">
        <ele>1810.4</ele>
        <time>2025-07-12T09:45:36</time>
      </trkpt>
      <trkpt lat="45.31788" lon="5.85519">
        <ele>1810.4</ele>
        <time>2025-07-12T09:45:37</time>
      </trkpt>
      <trkpt lat="45.31788" lon="5.85519">
        <ele>1810.4</ele>
        <time>2025-07-12T09:45:38</time>
      </trkpt>
      <trkpt lat="45.31787" lon="5.85519">
        <ele>1810.4</ele>
        <time>2025-07-12T09:45:40</time>
      </trkpt>
      <trkpt lat="45.31787" lon="5.85519">
        <ele>1810.4</ele>
        <time>2025-07-12T09:45:41</time>
      </trkpt>
      <trkpt lat="45.31787" lon="5.85519">
        <ele>1810.4</ele>
        <time>2025-07-12T09:45:41</time>
      </trkpt>
      <trkpt lat="45.31787" lon="5.8552">
        <ele>1810.4</ele>
        <time>2025-07-12T09:45:43</time>
      </trkpt>
      <trkpt lat="45.31787" lon="5.8552">
        <ele>1810.4</ele>
        <time>2025-07-12T09:45:44</time>
      </trkpt>
      <trkpt lat="45.31782" lon="5.85522">
        <ele>1810.4</ele>
        <time>2025-07-12T09:45:45</time>
      </trkpt>
      <trkpt lat="45.31777" lon="5.85524">
        <ele>1810.4</ele>
        <time>2025-07-12T09:45:47</time>
      </trkpt>
      <trkpt lat="45.31776" lon="5.85524">
        <ele>1810.7</ele>
        <time>2025-07-12T09:45:50</time>
      </trkpt>
      <trkpt lat="45.31775" lon="5.85524">
        <ele>1810.7</ele>
        <time>2025-07-12T09:45:51</time>
      </trkpt>
      <trkpt lat="45.31775" lon="5.85524">
        <ele>1810.7</ele>
        <time>2025-07-12T09:45:53</time>
      </trkpt>
      <trkpt lat="45.31775" lon="5.85524">
        <ele>1810.7</ele>
        <time>2025-07-12T09:45:54</time>
      </trkpt>
      <trkpt lat="45.31775" lon="5.85524">
        <ele>1810.7</ele>
        <time>2025-07-12T09:45:55</time>
      </trkpt>
      <trkpt lat="45.31775" lon="5.85524">
        <ele>1810.7</ele>
        <time>2025-07-12T09:45:56</time>
      </trkpt>
      <trkpt lat="45.31775" lon="5.85524">
        <ele>1810.2</ele>
        <time>2025-07-12T09:45:56</time>
      </trkpt>
      <trkpt lat="45.31775" lon="5.85524">
        <ele>1810.2</ele>
        <time>2025-07-12T09:45:57</time>
      </trkpt>
      <trkpt lat="45.31775" lon="5.85524">
        <ele>1810.2</ele>
        <time>2025-07-12T09:45:59</time>
      </trkpt>
      <trkpt lat="45.31775" lon="5.85524">
        <ele>1810.2</ele>
        <time>2025-07-12T09:46:01</time>
      </trkpt>
      <trkpt lat="45.31768" lon="5.85527">
        <ele>1810.2</ele>
        <time>2025-07-12T09:46:04</time>
      </trkpt>
      <trkpt lat="45.31765" lon="5.85528">
        <ele>1810.2</ele>
        <time>2025-07-12T09:46:06</time>
      </trkpt>
      <trkpt lat="45.31764" lon="5.85528">
        <ele>1810.2</ele>
        <time>2025-07-12T09:46:07</time>
      </trkpt>
      <trkpt lat="45.31764" lon="5.85529">
        <ele>1810.2</ele>
        <time>2025-07-12T09:46:10</time>
      </trkpt>
      <trkpt lat="45.31764" lon="5.85529">
        <ele>1812.5</ele>
        <time>2025-07-12T09:46:12</time>
      </trkpt>
      <trkpt lat="45.31764" lon="5.85529">
        <ele>1812.5</ele>
        <time>2025-07-12T09:46:15</time>
      </trkpt>
      <trkpt lat="45.31756" lon="5.85531">
        <ele>1812.5</ele>
        <time>2025-07-12T09:46:20</time>
      </trkpt>
      <trkpt lat="45.31755" lon="5.85532">
        <ele>1812.5</ele>
        <time>2025-07-12T09:46:21</time>
      </trkpt>
      <trkpt lat="45.31754" lon="5.85532">
        <ele>1812.5</ele>
        <time>2025-07-12T09:46:22</time>
      </trkpt>
      <trkpt lat="45.31754" lon="5.85532">
        <ele>1812.5</ele>
        <time>2025-07-12T09:46:22</time>
      </trkpt>
      <trkpt lat="45.31753" lon="5.85532">
        <ele>1812.5</ele>
        <time>2025-07-12T09:46:26</time>
      </trkpt>
      <trkpt lat="45.31753" lon="5.85532">
        <ele>1814.5</ele>
        <time>2025-07-12T09:46:29</time>
      </trkpt>
      <trkpt lat="45.31753" lon="5.85532">
        <ele>1814.5</ele>
        <time>2025-07-12T09:46:31</time>
      </trkpt>
      <trkpt lat="45.31753" lon="5.85533">
        <ele>1814.5</ele>
        <time>2025-07-12T09:46:33</time>
      </trkpt>
      <trkpt lat="45.31753" lon="5.85533">
        <ele>1814.6</ele>
        <time>2025-07-12T09:46:36</time>
      </trkpt>
      <trkpt lat="45.31748" lon="5.85537">
        <ele>1814.6</ele>
        <time>2025-07-12T09:46:37</time>
      </trkpt>
      <trkpt lat="45.31745" lon="5.85539">
        <ele>1814.6</ele>
        <time>2025-07-12T09:46:38</time>
      </trkpt>
      <trkpt lat="45.31744" lon="5.8554">
        <ele>1814.6</ele>
        <time>2025-07-12T09:46:39</time>
      </trkpt>
      <trkpt lat="45.31743" lon="5.8554">
        <ele>1814.6</ele>
        <time>2025-07-12T09:46:40</time>
      </trkpt>
      <trkpt lat="45.31743" lon="5.85541">
        <ele>1814.6</ele>
        <time>2025-07-12T09:46:43</time>
      </trkpt>
      <trkpt lat="45.31743" lon="5.85541">
        <ele>1817</ele>
        <time>2025-07-12T09:46:44</time>
      </trkpt>
      <trkpt lat="45.31742" lon="5.85541">
        <ele>1817</ele>
        <time>2025-07-12T09:46:50</time>
      </trkpt>
      <trkpt lat="45.31742" lon="5.85542">
        <ele>1819.3667</ele>
        <time>2025-07-12T09:46:52</time>
      </trkpt>
      <trkpt lat="45.31735" lon="5.85545">
        <ele>1819.3667</ele>
        <time>2025-07-12T09:46:53</time>
      </trkpt>
      <trkpt lat="45.31733" lon="5.85545">
        <ele>1819.3667</ele>
        <time>2025-07-12T09:46:54</time>
      </trkpt>
      <trkpt lat="45.31733" lon="5.85546">
        <ele>1821.8667</ele>
        <time>2025-07-12T09:46:59</time>
      </trkpt>
      <trkpt lat="45.31733" lon="5.85546">
        <ele>1821.8667</ele>
        <time>2025-07-12T09:47:00</time>
      </trkpt>
      <trkpt lat="45.31733" lon="5.85546">
        <ele>1821.8667</ele>
        <time>2025-07-12T09:47:00</time>
      </trkpt>
      <trkpt lat="45.31733" lon="5.85546">
        <ele>1821.8667</ele>
        <time>2025-07-12T09:47:04</time>
      </trkpt>
      <trkpt lat="45.31733" lon="5.85546">
        <ele>1821.8667</ele>
        <time>2025-07-12T09:47:05</time>
      </trkpt>
      <trkpt lat="45.31728" lon="5.85549">
        <ele>1821.8667</ele>
        <time>2025-07-12T09:47:06</time>
      </trkpt>
      <trkpt lat="45.31725" lon="5.8555">
        <ele>1822</ele>
        <time>2025-07-12T09:47:06</time>
      </trkpt>
      <trkpt lat="45.31724" lon="5.85551">
        <ele>1822</ele>
        <time>2025-07-12T09:47:07</time>
      </trkpt>
      <trkpt lat="45.31724" lon="5.85551">
        <ele>1822</ele>
        <time>2025-07-12T09:47:08</time>
      </trkpt>
      <trkpt lat="45.31723" lon="5.85551">
        <ele>1822</ele>
        <time>2025-07-12T09:47:09</time>
      </trkpt>
      <trkpt lat="45.3172" lon="5.8555">
        <ele>1824.3334</ele>
        <time>2025-07-12T09:47:17</time>
      </trkpt>
      <trkpt lat="45.3172" lon="5.8555">
        <ele>1824.3334</ele>
        <time>2025-07-12T09:47:18</time>
      </trkpt>
      <trkpt lat="45.3172" lon="5.8555">
        <ele>1824.3334</ele>
        <time>2025-07-12T09:47:22</time>
      </trkpt>
      <trkpt lat="45.3172" lon="5.8555">
        <ele>1824.8</ele>
        <time>2025-07-12T09:47:22</time>
      </trkpt>
      <trkpt lat="45.31719" lon="5.8555">
        <ele>1824.8</ele>
        <time>2025-07-12T09:47:26</time>
      </trkpt>
      <trkpt lat="45.31711" lon="5.8555">
        <ele>1824.8</ele>
        <time>2025-07-12T09:47:28</time>
      </trkpt>
      <trkpt lat="45.3171" lon="5.8555">
        <ele>1824.8</ele>
        <time>2025-07-12T09:47:29</time>
      </trkpt>
      <trkpt lat="45.31709" lon="5.85549">
        <ele>1824.3</ele>
        <time>2025-07-12T09:47:30</time>
      </trkpt>
      <trkpt lat="45.31709" lon="5.85549">
        <ele>1824.3</ele>
        <time>2025-07-12T09:47:33</time>
      </trkpt>
      <trkpt lat="45.31709" lon="5.85549">
        <ele>1824.3</ele>
        <time>2025-07-12T09:47:35</time>
      </trkpt>
      <trkpt lat="45.31709" lon="5.85549">
        <ele>1824.3</ele>
        <time>2025-07-12T09:47:36</time>
      </trkpt>
      <trkpt lat="45.31709" lon="5.85549">
        <ele>1824.3</ele>
        <time>2025-07-12T09:47:37</time>
      </trkpt>
      <trkpt lat="45.31709" lon="5.85549">
        <ele>1824.3</ele>
        <time>2025-07-12T09:47:38</time>
      </trkpt>
      <trkpt lat="45.31703" lon="5.85549">
        <ele>1824.3</ele>
        <time>2025-07-12T09:47:40</time>
      </trkpt>
      <trkpt lat="45.317" lon="5.85549">
        <ele>1824.3</ele>
        <time>2025-07-12T09:47:40</time>
      </trkpt>
      <trkpt lat="45.31699" lon="5.85549">
        <ele>1824.3</ele>
        <time>2025-07-12T09:47:41</time>
      </trkpt>
      <trkpt lat="45.31697" lon="5.85548">
        <ele>1823.5667</ele>
        <time>2025-07-12T09:47:46</time>
      </trkpt>
      <trkpt lat="45.31697" lon="5.85549">
        <ele>1823.5667</ele>
        <time>2025-07-12T09:47:47</time>
      </trkpt>
      <trkpt lat="45.31697" lon="5.85548">
        <ele>1823.5667</ele>
        <time>2025-07-12T09:47:49</time>
      </trkpt>
      <trkpt lat="45.31697" lon="5.85549">
        <ele>1823.4</ele>
        <time>2025-07-12T09:47:52</time>
      </trkpt>
      <trkpt lat="45.31697" lon="5.85548">
        <ele>1823.4</ele>
        <time>2025-07-12T09:47:53</time>
      </trkpt>
      <trkpt lat="45.31697" lon="5.85548">
        <ele>1823.4</ele>
        <time>2025-07-12T09:47:53</time>
      </trkpt>
      <trkpt lat="45.31697" lon="5.85548">
        <ele>1823.4</ele>
        <time>2025-07-12T09:47:55</time>
      </trkpt>
      <trkpt lat="45.31696" lon="5.85549">
        <ele>1823.4</ele>
        <time>2025-07-12T09:47:58</time>
      </trkpt>
      <trkpt lat="45.31689" lon="5.85551">
        <ele>1823.4</ele>
        <time>2025-07-12T09:47:59</time>
      </trkpt>
      <trkpt lat="45.31687" lon="5.85551">
        <ele>1823.4</ele>
        <time>2025-07-12T09:47:59</time>
      </trkpt>
      <trkpt lat="45.31686" lon="5.85552">
        <ele>1823.4</ele>
        <time>2025-07-12T09:48:00</time>
      </trkpt>
      <trkpt lat="45.31685" lon="5.85552">
        <ele>1823.4</ele>
        <time>2025-07-12T09:48:01</time>
      </trkpt>
      <trkpt lat="45.31684" lon="5.85552">
        <ele>1823.4</ele>
        <time>2025-07-12T09:48:03</time>
      </trkpt>
      <trkpt lat="45.31683" lon="5.85552">
        <ele>1823.4</ele>
        <time>2025-07-12T09:48:06</time>
      </trkpt>
      <trkpt lat="45.31683" lon="5.85552">
        <ele>1828.8</ele>
        <time>2025-07-12T09:48:08</time>
      </trkpt>
      <trkpt lat="45.31683" lon="5.85552">
        <ele>1828.8</ele>
        <time>2025-07-12T09:48:08</time>
      </trkpt>
      <trkpt lat="45.31683" lon="5.85552">
        <ele>1828.8</ele>
        <time>2025-07-12T09:48:09</time>
      </trkpt>
      <trkpt lat="45.31683" lon="5.85552">
        <ele>1828.8</ele>
        <time>2025-07-12T09:48:11</time>
      </trkpt>
      <trkpt lat="45.31683" lon="5.85552">
        <ele>1828.8</ele>
        <time>2025-07-12T09:48:12</time>
      </trkpt>
      <trkpt lat="45.31683" lon="5.85552">
        <ele>1828.8</ele>
        <time>2025-07-12T09:48:13</time>
      </trkpt>
      <trkpt lat="45.31683" lon="5.85552">
        <ele>1828.8</ele>
        <time>2025-07-12T09:48:14</time>
      </trkpt>
      <trkpt lat="45.31683" lon="5.85552">
        <ele>1828.9</ele>
        <time>2025-07-12T09:48:15</time>
      </trkpt>
      <trkpt lat="45.31683" lon="5.85552">
        <ele>1828.9</ele>
        <time>2025-07-12T09:48:17</time>
      </trkpt>
      <trkpt lat="45.31683" lon="5.85552">
        <ele>1828.9</ele>
        <time>2025-07-12T09:48:19</time>
      </trkpt>
      <trkpt lat="45.31677" lon="5.85556">
        <ele>1828.9</ele>
        <time>2025-07-12T09:48:20</time>
      </trkpt>
      <trkpt lat="45.31675" lon="5.85558">
        <ele>1828.9</ele>
        <time>2025-07-12T09:48:21</time>
      </trkpt>
      <trkpt lat="45.31674" lon="5.85558">
        <ele>1828.9</ele>
        <time>2025-07-12T09:48:21</time>
      </trkpt>
      <trkpt lat="45.31674" lon="5.85558">
        <ele>1828.9</ele>
        <time>2025-07-12T09:48:22</time>
      </trkpt>
      <trkpt lat="45.31674" lon="5.85559">
        <ele>1828.9</ele>
        <time>2025-07-12T09:48:24</time>
      </trkpt>
      <trkpt lat="45.31674" lon="5.85559">
        <ele>1828.9</ele>
        <time>2025-07-12T09:48:26</time>
      </trkpt>
      <trkpt lat="45.31674" lon="5.85559">
        <ele>1828.9</ele>
        <time>2025-07-12T09:48:26</time>
      </trkpt>
      <trkpt lat="45.31674" lon="5.85559">
        <ele>1828.9</ele>
        <time>2025-07-12T09:48:27</time>
      </trkpt>
      <trkpt lat="45.31674" lon="5.85559">
        <ele>1828.9</ele>
        <time>2025-07-12T09:48:28</time>
      </trkpt>
      <trkpt lat="45.31674" lon="5.85559">
        <ele>1828.9</ele>
        <time>2025-07-12T09:48:30</time>
      </trkpt>
      <trkpt lat="45.31674" lon="5.85559">
        <ele>1831.8</ele>
        <time>2025-07-12T09:48:32</time>
      </trkpt>
      <trkpt lat="45.31668" lon="5.85562">
        <ele>1831.8</ele>
        <time>2025-07-12T09:48:36</time>
      </trkpt>
      <trkpt lat="45.31665" lon="5.85564">
        <ele>1831.8</ele>
        <time>2025-07-12T09:48:37</time>
      </trkpt>
      <trkpt lat="45.31665" lon="5.85563">
        <ele>1831.8</ele>
        <time>2025-07-12T09:48:37</time>
      </trkpt>
      <trkpt lat="45.31664" lon="5.85563">
        <ele>1831.8</ele>
        <time>2025-07-12T09:48:39</time>
      </trkpt>
      <trkpt lat="45.31663" lon="5.85563">
        <ele>1831.8</ele>
        <time>2025-07-12T09:48:41</time>
      </trkpt>
      <trkpt lat="45.31663" lon="5.85563">
        <ele>1831.8</ele>
        <time>2025-07-12T09:48:42</time>
      </trkpt>
      <trkpt lat="45.31663" lon="5.85563">
        <ele>1831.8</ele>
        <time>2025-07-12T09:48:43</time>
      </trkpt>
      <trkpt lat="45.31663" lon="5.85563">
        <ele>1831.8</ele>
        <time>2025-07-12T09:48:43</time>
      </trkpt>
      <trkpt lat="45.31663" lon="5.85563">
        <ele>1831.8</ele>
        <time>2025-07-12T09:48:46</time>
      </trkpt>
      <trkpt lat="45.31663" lon="5.85563">
        <ele>1835</ele>
        <time>2025-07-12T09:48:48</time>
      </trkpt>
      <trkpt lat="45.31663" lon="5.85563">
        <ele>1835</ele>
        <time>2025-07-12T09:48:49</time>
      </trkpt>
      <trkpt lat="45.31663" lon="5.85563">
        <ele>1835</ele>
        <time>2025-07-12T09:48:52</time>
      </trkpt>
      <trkpt lat="45.31663" lon="5.85563">
        <ele>1835</ele>
        <time>2025-07-12T09:48:53</time>
      </trkpt>
      <trkpt lat="45.31663" lon="5.85563">
        <ele>1835</ele>
        <time>2025-07-12T09:48:54</time>
      </trkpt>
      <trkpt lat="45.31657" lon="5.85562">
        <ele>1835</ele>
        <time>2025-07-12T09:48:55</time>
      </trkpt>
      <trkpt lat="45.31654" lon="5.85562">
        <ele>1835</ele>
        <time>2025-07-12T09:48:56</time>
      </trkpt>
      <trkpt lat="45.31653" lon="5.85562">
        <ele>1835</ele>
        <time>2025-07-12T09:48:56</time>
      </trkpt>
      <trkpt lat="45.31653" lon="5.85562">
        <ele>1835</ele>
        <time>2025-07-12T09:48:57</time>
      </trkpt>
      <trkpt lat="45.31652" lon="5.85562">
        <ele>1835</ele>
        <time>2025-07-12T09:49:02</time>
      </trkpt>
      <trkpt lat="45.31652" lon="5.85562">
        <ele>1836.2</ele>
        <time>2025-07-12T09:49:05</time>
      </trkpt>
      <trkpt lat="45.31652" lon="5.85562">
        <ele>1836.2</ele>
        <time>2025-07-12T09:49:06</time>
      </trkpt>
      <trkpt lat="45.31652" lon="5.85562">
        <ele>1836.2</ele>
        <time>2025-07-12T09:49:07</time>
      </trkpt>
      <trkpt lat="45.31652" lon="5.85562">
        <ele>1836.2</ele>
        <time>2025-07-12T09:49:08</time>
      </trkpt>
      <trkpt lat="45.31652" lon="5.85562">
        <ele>1836.2</ele>
        <time>2025-07-12T09:49:09</time>
      </trkpt>
      <trkpt lat="45.31652" lon="5.85561">
        <ele>1836.2</ele>
        <time>2025-07-12T09:49:13</time>
      </trkpt>
      <trkpt lat="45.31651" lon="5.85561">
        <ele>1836.2</ele>
        <time>2025-07-12T09:49:13</time>
      </trkpt>
      <trkpt lat="45.31646" lon="5.8556">
        <ele>1836.2</ele>
        <time>2025-07-12T09:49:14</time>
      </trkpt>
      <trkpt lat="45.31644" lon="5.8556">
        <ele>1836.2</ele>
        <time>2025-07-12T09:49:15</time>
      </trkpt>
      <trkpt lat="45.31642" lon="5.85559">
        <ele>1836.2</ele>
        <time>2025-07-12T09:49:16</time>
      </trkpt>
      <trkpt lat="45.31641" lon="5.85559">
        <ele>1836.2</ele>
        <time>2025-07-12T09:49:19</time>
      </trkpt>
      <trkpt lat="45.31641" lon="5.85559">
        <ele>1836.2</ele>
        <time>2025-07-12T09:49:20</time>
      </trkpt>
      <trkpt lat="45.31641" lon="5.85559">
        <ele>1836.2</ele>
        <time>2025-07-12T09:49:21</time>
      </trkpt>
      <trkpt lat="45.31641" lon="5.85559">
        <ele>1836.2</ele>
        <time>2025-07-12T09:49:22</time>
      </trkpt>
      <trkpt lat="45.31641" lon="5.85559">
        <ele>1838.7</ele>
        <time>2025-07-12T09:49:23</time>
      </trkpt>
      <trkpt lat="45.31641" lon="5.85559">
        <ele>1838.7</ele>
        <time>2025-07-12T09:49:25</time>
      </trkpt>
      <trkpt lat="45.31641" lon="5.85559">
        <ele>1838.7</ele>
        <time>2025-07-12T09:49:29</time>
      </trkpt>
      <trkpt lat="45.31641" lon="5.85559">
        <ele>1838.7</ele>
        <time>2025-07-12T09:49:30</time>
      </trkpt>
      <trkpt lat="45.31641" lon="5.85559">
        <ele>1838.7</ele>
        <time>2025-07-12T09:49:32</time>
      </trkpt>
      <trkpt lat="45.31636" lon="5.85558">
        <ele>1838.7</ele>
        <time>2025-07-12T09:49:34</time>
      </trkpt>
      <trkpt lat="45.31632" lon="5.85557">
        <ele>1838.7</ele>
        <time>2025-07-12T09:49:36</time>
      </trkpt>
      <trkpt lat="45.31631" lon="5.85556">
        <ele>1838.7</ele>
        <time>2025-07-12T09:49:37</time>
      </trkpt>
      <trkpt lat="45.3163" lon="5.85556">
        <ele>1838.7</ele>
        <time>2025-07-12T09:49:44</time>
      </trkpt>
      <trkpt lat="45.3163" lon="5.85556">
        <ele>1838.5</ele>
        <time>2025-07-12T09:49:47</time>
      </trkpt>
      <trkpt lat="45.31623" lon="5.85555">
        <ele>1838.5</ele>
        <time>2025-07-12T09:49:51</time>
      </trkpt>
      <trkpt lat="45.31621" lon="5.85555">
        <ele>1838.5</ele>
        <time>2025-07-12T09:49:52</time>
      </trkpt>
      <trkpt lat="45.3162" lon="5.85555">
        <ele>1838.5</ele>
        <time>2025-07-12T09:49:52</time>
      </trkpt>
      <trkpt lat="45.3162" lon="5.85555">
        <ele>1838.5</ele>
        <time>2025-07-12T09:49:53</time>
      </trkpt>
      <trkpt lat="45.31619" lon="5.85554">
        <ele>1838.5</ele>
        <time>2025-07-12T09:49:53</time>
      </trkpt>
      <trkpt lat="45.31619" lon="5.85554">
        <ele>1838.5</ele>
        <time>2025-07-12T09:49:54</time>
      </trkpt>
      <trkpt lat="45.31619" lon="5.85554">
        <ele>1838.5</ele>
        <time>2025-07-12T09:49:55</time>
      </trkpt>
      <trkpt lat="45.31618" lon="5.85554">
        <ele>1838.5</ele>
        <time>2025-07-12T09:49:56</time>
      </trkpt>
      <trkpt lat="45.31618" lon="5.85554">
        <ele>1838.5</ele>
        <time>2025-07-12T09:49:58</time>
      </trkpt>
      <trkpt lat="45.31618" lon="5.85554">
        <ele>1840.2</ele>
        <time>2025-07-12T09:50:03</time>
      </trkpt>
      <trkpt lat="45.31618" lon="5.85554">
        <ele>1840.2</ele>
        <time>2025-07-12T09:50:04</time>
      </trkpt>
      <trkpt lat="45.31618" lon="5.85554">
        <ele>1840.2</ele>
        <time>2025-07-12T09:50:07</time>
      </trkpt>
      <trkpt lat="45.31618" lon="5.85554">
        <ele>1840.2</ele>
        <time>2025-07-12T09:50:07</time>
      </trkpt>
      <trkpt lat="45.31618" lon="5.85554">
        <ele>1840.2</ele>
        <time>2025-07-12T09:50:08</time>
      </trkpt>
      <trkpt lat="45.31618" lon="5.85554">
        <ele>1840.2</ele>
        <time>2025-07-12T09:50:09</time>
      </trkpt>
      <trkpt lat="45.31611" lon="5.85556">
        <ele>1840.2</ele>
        <time>2025-07-12T09:50:10</time>
      </trkpt>
      <trkpt lat="45.3161" lon="5.85557">
        <ele>1840.2</ele>
        <time>2025-07-12T09:50:11</time>
      </trkpt>
      <trkpt lat="45.31609" lon="5.85557">
        <ele>1840.2</ele>
        <time>2025-07-12T09:50:11</time>
      </trkpt>
      <trkpt lat="45.31608" lon="5.85557">
        <ele>1840.2</ele>
        <time>2025-07-12T09:50:13</time>
      </trkpt>
      <trkpt lat="45.31608" lon="5.85557">
        <ele>1840.2</ele>
        <time>2025-07-12T09:50:15</time>
      </trkpt>
      <trkpt lat="45.31608" lon="5.85557">
        <ele>1840.2</ele>
        <time>2025-07-12T09:50:16</time>
      </trkpt>
      <trkpt lat="45.31608" lon="5.85557">
        <ele>1845</ele>
        <time>2025-07-12T09:50:17</time>
      </trkpt>
      <trkpt lat="45.31608" lon="5.85557">
        <ele>1845</ele>
        <time>2025-07-12T09:50:18</time>
      </trkpt>
      <trkpt lat="45.31607" lon="5.85557">
        <ele>1845</ele>
        <time>2025-07-12T09:50:19</time>
      </trkpt>
      <trkpt lat="45.31607" lon="5.85557">
        <ele>1845</ele>
        <time>2025-07-12T09:50:19</time>
      </trkpt>
      <trkpt lat="45.31607" lon="5.85557">
        <ele>1845</ele>
        <time>2025-07-12T09:50:20</time>
      </trkpt>
      <trkpt lat="45.31607" lon="5.85557">
        <ele>1845</ele>
        <time>2025-07-12T09:50:23</time>
      </trkpt>
      <trkpt lat="45.31607" lon="5.85557">
        <ele>1845</ele>
        <time>2025-07-12T09:50:24</time>
      </trkpt>
      <trkpt lat="45.31607" lon="5.85557">
        <ele>1845</ele>
        <time>2025-07-12T09:50:24</time>
      </trkpt>
      <trkpt lat="45.31607" lon="5.85557">
        <ele>1845.2</ele>
        <time>2025-07-12T09:50:25</time>
      </trkpt>
      <trkpt lat="45.31607" lon="5.85557">
        <ele>1845.2</ele>
        <time>2025-07-12T09:50:28</time>
      </trkpt>
      <trkpt lat="45.31607" lon="5.85557">
        <ele>1845.2</ele>
        <time>2025-07-12T09:50:30</time>
      </trkpt>
      <trkpt lat="45.31602" lon="5.85556">
        <ele>1845.2</ele>
        <time>2025-07-12T09:50:30</time>
      </trkpt>
      <trkpt lat="45.31598" lon="5.85555">
        <ele>1845.2</ele>
        <time>2025-07-12T09:50:32</time>
      </trkpt>
      <trkpt lat="45.31597" lon="5.85555">
        <ele>1845.2</ele>
        <time>2025-07-12T09:50:33</time>
      </trkpt>
      <trkpt lat="45.31597" lon="5.85555">
        <ele>1845.2</ele>
        <time>2025-07-12T09:50:35</time>
      </trkpt>
      <trkpt lat="45.31596" lon="5.85554">
        <ele>1845.2</ele>
        <time>2025-07-12T09:50:36</time>
      </trkpt>
      <trkpt lat="45.31596" lon="5.85554">
        <ele>1845.2</ele>
        <time>2025-07-12T09:50:37</time>
      </trkpt>
      <trkpt lat="45.31596" lon="5.85554">
        <ele>1845.2</ele>
        <time>2025-07-12T09:50:39</time>
      </trkpt>
      <trkpt lat="45.31596" lon="5.85555">
        <ele>1845.2</ele>
        <time>2025-07-12T09:50:39</time>
      </trkpt>
      <trkpt lat="45.31596" lon="5.85555">
        <ele>1845.2</ele>
        <time>2025-07-12T09:50:40</time>
      </trkpt>
      <trkpt lat="45.31596" lon="5.85555">
        <ele>1845.2</ele>
        <time>2025-07-12T09:50:41</time>
      </trkpt>
      <trkpt lat="45.31596" lon="5.85555">
        <ele>1847.7</ele>
        <time>2025-07-12T09:50:43</time>
      </trkpt>
      <trkpt lat="45.31596" lon="5.85554">
        <ele>1847.7</ele>
        <time>2025-07-12T09:50:46</time>
      </trkpt>
      <trkpt lat="45.31587" lon="5.85556">
        <ele>1847.7</ele>
        <time>2025-07-12T09:50:49</time>
      </trkpt>
      <trkpt lat="45.31585" lon="5.85557">
        <ele>1850.2333</ele>
        <time>2025-07-12T09:50:50</time>
      </trkpt>
      <trkpt lat="45.31585" lon="5.85557">
        <ele>1850.2333</ele>
        <time>2025-07-12T09:50:50</time>
      </trkpt>
      <trkpt lat="45.31584" lon="5.85557">
        <ele>1850.2333</ele>
        <time>2025-07-12T09:50:51</time>
      </trkpt>
      <trkpt lat="45.31584" lon="5.85556">
        <ele>1850.2333</ele>
        <time>2025-07-12T09:50:53</time>
      </trkpt>
      <trkpt lat="45.31584" lon="5.85556">
        <ele>1850.2333</ele>
        <time>2025-07-12T09:50:55</time>
      </trkpt>
      <trkpt lat="45.31584" lon="5.85557">
        <ele>1851.7</ele>
        <time>2025-07-12T09:51:00</time>
      </trkpt>
      <trkpt lat="45.31584" lon="5.85557">
        <ele>1851.7</ele>
        <time>2025-07-12T09:51:03</time>
      </trkpt>
      <trkpt lat="45.31578" lon="5.85558">
        <ele>1851.7</ele>
        <time>2025-07-12T09:51:04</time>
      </trkpt>
      <trkpt lat="45.31574" lon="5.8556">
        <ele>1851.7</ele>
        <time>2025-07-12T09:51:05</time>
      </trkpt>
      <trkpt lat="45.31574" lon="5.8556">
        <ele>1851.7</ele>
        <time>2025-07-12T09:51:08</time>
      </trkpt>
      <trkpt lat="45.31574" lon="5.8556">
        <ele>1851.7</ele>
        <time>2025-07-12T09:51:09</time>
      </trkpt>
      <trkpt lat="45.31574" lon="5.8556">
        <ele>1851.7</ele>
        <time>2025-07-12T09:51:09</time>
      </trkpt>
      <trkpt lat="45.31574" lon="5.8556">
        <ele>1851.7</ele>
        <time>2025-07-12T09:51:13</time>
      </trkpt>
      <trkpt lat="45.31574" lon="5.8556">
        <ele>1856.2</ele>
        <time>2025-07-12T09:51:15</time>
      </trkpt>
      <trkpt lat="45.31573" lon="5.8556">
        <ele>1856.2</ele>
        <time>2025-07-12T09:51:17</time>
      </trkpt>
      <trkpt lat="45.31573" lon="5.8556">
        <ele>1856.2</ele>
        <time>2025-07-12T09:51:18</time>
      </trkpt>
      <trkpt lat="45.31573" lon="5.8556">
        <ele>1856.2</ele>
        <time>2025-07-12T09:51:20</time>
      </trkpt>
      <trkpt lat="45.31565" lon="5.85559">
        <ele>1856.2</ele>
        <time>2025-07-12T09:51:21</time>
      </trkpt>
      <trkpt lat="45.31563" lon="5.85559">
        <ele>1856.2</ele>
        <time>2025-07-12T09:51:22</time>
      </trkpt>
      <trkpt lat="45.31563" lon="5.85559">
        <ele>1856.2</ele>
        <time>2025-07-12T09:51:23</time>
      </trkpt>
      <trkpt lat="45.31563" lon="5.85559">
        <ele>1856.2</ele>
        <time>2025-07-12T09:51:25</time>
      </trkpt>
      <trkpt lat="45.31563" lon="5.85559">
        <ele>1856.2</ele>
        <time>2025-07-12T09:51:26</time>
      </trkpt>
      <trkpt lat="45.31562" lon="5.85559">
        <ele>1856.2</ele>
        <time>2025-07-12T09:51:27</time>
      </trkpt>
      <trkpt lat="45.31562" lon="5.85559">
        <ele>1856.2</ele>
        <time>2025-07-12T09:51:28</time>
      </trkpt>
      <trkpt lat="45.31562" lon="5.85559">
        <ele>1860.2</ele>
        <time>2025-07-12T09:51:31</time>
      </trkpt>
      <trkpt lat="45.31562" lon="5.85561">
        <ele>1860.2</ele>
        <time>2025-07-12T09:51:33</time>
      </trkpt>
      <trkpt lat="45.31557" lon="5.85559">
        <ele>1860.2</ele>
        <time>2025-07-12T09:51:34</time>
      </trkpt>
      <trkpt lat="45.31555" lon="5.85556">
        <ele>1860.2</ele>
        <time>2025-07-12T09:51:36</time>
      </trkpt>
      <trkpt lat="45.31553" lon="5.85554">
        <ele>1860.2</ele>
        <time>2025-07-12T09:51:38</time>
      </trkpt>
      <trkpt lat="45.31552" lon="5.85553">
        <ele>1860.2</ele>
        <time>2025-07-12T09:51:39</time>
      </trkpt>
      <trkpt lat="45.31551" lon="5.85552">
        <ele>1860.2</ele>
        <time>2025-07-12T09:51:40</time>
      </trkpt>
      <trkpt lat="45.3155" lon="5.8555">
        <ele>1860.2</ele>
        <time>2025-07-12T09:51:42</time>
      </trkpt>
      <trkpt lat="45.3155" lon="5.85549">
        <ele>1860.2</ele>
        <time>2025-07-12T09:51:43</time>
      </trkpt>
      <trkpt lat="45.31549" lon="5.85547">
        <ele>1859.3</ele>
        <time>2025-07-12T09:51:44</time>
      </trkpt>
      <trkpt lat="45.31549" lon="5.85546">
        <ele>1859.3</ele>
        <time>2025-07-12T09:51:46</time>
      </trkpt>
      <trkpt lat="45.31548" lon="5.85545">
        <ele>1859.3</ele>
        <time>2025-07-12T09:51:48</time>
      </trkpt>
      <trkpt lat="45.31548" lon="5.85545">
        <ele>1859.3</ele>
        <time>2025-07-12T09:51:50</time>
      </trkpt>
      <trkpt lat="45.31548" lon="5.85545">
        <ele>1859.8</ele>
        <time>2025-07-12T09:51:51</time>
      </trkpt>
      <trkpt lat="45.31548" lon="5.85545">
        <ele>1859.8</ele>
        <time>2025-07-12T09:51:52</time>
      </trkpt>
      <trkpt lat="45.31548" lon="5.85545">
        <ele>1859.8</ele>
        <time>2025-07-12T09:51:54</time>
      </trkpt>
      <trkpt lat="45.31548" lon="5.85545">
        <ele>1859.8</ele>
        <time>2025-07-12T09:51:55</time>
      </trkpt>
      <trkpt lat="45.31548" lon="5.85545">
        <ele>1859.8</ele>
        <time>2025-07-12T09:51:56</time>
      </trkpt>
      <trkpt lat="45.31548" lon="5.85545">
        <ele>1859.4</ele>
        <time>2025-07-12T09:51:59</time>
      </trkpt>
      <trkpt lat="45.31548" lon="5.85545">
        <ele>1859.4</ele>
        <time>2025-07-12T09:52:00</time>
      </trkpt>
      <trkpt lat="45.31543" lon="5.85541">
        <ele>1859.4</ele>
        <time>2025-07-12T09:52:01</time>
      </trkpt>
      <trkpt lat="45.3154" lon="5.85539">
        <ele>1859.4</ele>
        <time>2025-07-12T09:52:03</time>
      </trkpt>
      <trkpt lat="45.31539" lon="5.85538">
        <ele>1859.4</ele>
        <time>2025-07-12T09:52:03</time>
      </trkpt>
      <trkpt lat="45.31539" lon="5.85538">
        <ele>1859.4</ele>
        <time>2025-07-12T09:52:04</time>
      </trkpt>
      <trkpt lat="45.31538" lon="5.85538">
        <ele>1859.4</ele>
        <time>2025-07-12T09:52:04</time>
      </trkpt>
      <trkpt lat="45.31537" lon="5.85538">
        <ele>1857.8</ele>
        <time>2025-07-12T09:52:08</time>
      </trkpt>
      <trkpt lat="45.31531" lon="5.85538">
        <ele>1858.9</ele>
        <time>2025-07-12T09:52:14</time>
      </trkpt>
      <trkpt lat="45.31531" lon="5.85538">
        <ele>1858.9</ele>
        <time>2025-07-12T09:52:14</time>
      </trkpt>
      <trkpt lat="45.31531" lon="5.85538">
        <ele>1858.9</ele>
        <time>2025-07-12T09:52:16</time>
      </trkpt>
      <trkpt lat="45.31531" lon="5.85538">
        <ele>1858.9</ele>
        <time>2025-07-12T09:52:17</time>
      </trkpt>
      <trkpt lat="45.31531" lon="5.85538">
        <ele>1858.9</ele>
        <time>2025-07-12T09:52:20</time>
      </trkpt>
      <trkpt lat="45.31531" lon="5.85538">
        <ele>1858.9</ele>
        <time>2025-07-12T09:52:20</time>
      </trkpt>
      <trkpt lat="45.31531" lon="5.85538">
        <ele>1858.9</ele>
        <time>2025-07-12T09:52:22</time>
      </trkpt>
      <trkpt lat="45.31531" lon="5.85538">
        <ele>1858.9</ele>
        <time>2025-07-12T09:52:24</time>
      </trkpt>
      <trkpt lat="45.31531" lon="5.85538">
        <ele>1858.9</ele>
        <time>2025-07-12T09:52:25</time>
      </trkpt>
      <trkpt lat="45.31531" lon="5.85538">
        <ele>1858.9</ele>
        <time>2025-07-12T09:52:26</time>
      </trkpt>
      <trkpt lat="45.31531" lon="5.85538">
        <ele>1858.9</ele>
        <time>2025-07-12T09:52:26</time>
      </trkpt>
      <trkpt lat="45.31531" lon="5.85538">
        <ele>1858.9</ele>
        <time>2025-07-12T09:52:28</time>
      </trkpt>
      <trkpt lat="45.31531" lon="5.85538">
        <ele>1858.9</ele>
        <time>2025-07-12T09:52:29</time>
      </trkpt>
      <trkpt lat="45.31531" lon="5.85538">
        <ele>1858.9</ele>
        <time>2025-07-12T09:52:30</time>
      </trkpt>
      <trkpt lat="45.31525" lon="5.85538">
        <ele>1858.9</ele>
        <time>2025-07-12T09:52:31</time>
      </trkpt>
      <trkpt lat="45.31522" lon="5.85538">
        <ele>1858.9</ele>
        <time>2025-07-12T09:52:32</time>
      </trkpt>
      <trkpt lat="45.31521" lon="5.85538">
        <ele>1858.9</ele>
        <time>2025-07-12T09:52:33</time>
      </trkpt>
      <trkpt lat="45.3152" lon="5.85537">
        <ele>1858.9</ele>
        <time>2025-07-12T09:52:35</time>
      </trkpt>
      <trkpt lat="45.3152" lon="5.85537">
        <ele>1859.8334</ele>
        <time>2025-07-12T09:52:39</time>
      </trkpt>
      <trkpt lat="45.3152" lon="5.85537">
        <ele>1859.8334</ele>
        <time>2025-07-12T09:52:39</time>
      </trkpt>
      <trkpt lat="45.3152" lon="5.85537">
        <ele>1859.8334</ele>
        <time>2025-07-12T09:52:40</time>
      </trkpt>
      <trkpt lat="45.3152" lon="5.85537">
        <ele>1859.8334</ele>
        <time>2025-07-12T09:52:41</time>
      </trkpt>
      <trkpt lat="45.3152" lon="5.85537">
        <ele>1859.8334</ele>
        <time>2025-07-12T09:52:42</time>
      </trkpt>
      <trkpt lat="45.3152" lon="5.85537">
        <ele>1859.8334</ele>
        <time>2025-07-12T09:52:43</time>
      </trkpt>
      <trkpt lat="45.31514" lon="5.85529">
        <ele>1862.7</ele>
        <time>2025-07-12T09:52:46</time>
      </trkpt>
      <trkpt lat="45.31512" lon="5.85527">
        <ele>1862.7</ele>
        <time>2025-07-12T09:52:46</time>
      </trkpt>
      <trkpt lat="45.31512" lon="5.85526">
        <ele>1862.7</ele>
        <time>2025-07-12T09:52:47</time>
      </trkpt>
      <trkpt lat="45.31511" lon="5.85524">
        <ele>1862.7</ele>
        <time>2025-07-12T09:52:49</time>
      </trkpt>
      <trkpt lat="45.31511" lon="5.85524">
        <ele>1862.7</ele>
        <time>2025-07-12T09:52:49</time>
      </trkpt>
      <trkpt lat="45.3151" lon="5.85523">
        <ele>1869.4</ele>
        <time>2025-07-12T09:52:51</time>
      </trkpt>
      <trkpt lat="45.31509" lon="5.85523">
        <ele>1869.4</ele>
        <time>2025-07-12T09:52:52</time>
      </trkpt>
      <trkpt lat="45.31509" lon="5.85523">
        <ele>1869.4</ele>
        <time>2025-07-12T09:52:53</time>
      </trkpt>
      <trkpt lat="45.31507" lon="5.85519">
        <ele>1869.4</ele>
        <time>2025-07-12T09:52:56</time>
      </trkpt>
      <trkpt lat="45.31507" lon="5.85518">
        <ele>1869.4</ele>
        <time>2025-07-12T09:52:57</time>
      </trkpt>
      <trkpt lat="45.31508" lon="5.85517">
        <ele>1869.4</ele>
        <time>2025-07-12T09:52:57</time>
      </trkpt>
      <trkpt lat="45.31508" lon="5.85516">
        <ele>1869.5</ele>
        <time>2025-07-12T09:52:58</time>
      </trkpt>
      <trkpt lat="45.31508" lon="5.85513">
        <ele>1869.5</ele>
        <time>2025-07-12T09:53:00</time>
      </trkpt>
      <trkpt lat="45.31507" lon="5.85512">
        <ele>1869.5</ele>
        <time>2025-07-12T09:53:02</time>
      </trkpt>
      <trkpt lat="45.31506" lon="5.85512">
        <ele>1869.5</ele>
        <time>2025-07-12T09:53:04</time>
      </trkpt>
      <trkpt lat="45.31506" lon="5.85512">
        <ele>1870.0333</ele>
        <time>2025-07-12T09:53:05</time>
      </trkpt>
      <trkpt lat="45.31506" lon="5.85512">
        <ele>1870.0333</ele>
        <time>2025-07-12T09:53:06</time>
      </trkpt>
      <trkpt lat="45.31506" lon="5.85512">
        <ele>1870.0333</ele>
        <time>2025-07-12T09:53:07</time>
      </trkpt>
      <trkpt lat="45.31506" lon="5.85512">
        <ele>1870.0333</ele>
        <time>2025-07-12T09:53:08</time>
      </trkpt>
      <trkpt lat="45.31506" lon="5.85512">
        <ele>1870.0333</ele>
        <time>2025-07-12T09:53:09</time>
      </trkpt>
      <trkpt lat="45.31506" lon="5.85512">
        <ele>1870.0333</ele>
        <time>2025-07-12T09:53:10</time>
      </trkpt>
      <trkpt lat="45.31506" lon="5.85512">
        <ele>1870.0333</ele>
        <time>2025-07-12T09:53:11</time>
      </trkpt>
      <trkpt lat="45.31506" lon="5.85512">
        <ele>1870.0333</ele>
        <time>2025-07-12T09:53:12</time>
      </trkpt>
      <trkpt lat="45.315" lon="5.85512">
        <ele>1870.2</ele>
        <time>2025-07-12T09:53:14</time>
      </trkpt>
      <trkpt lat="45.31497" lon="5.85512">
        <ele>1870.2</ele>
        <time>2025-07-12T09:53:15</time>
      </trkpt>
      <trkpt lat="45.31496" lon="5.85512">
        <ele>1870.2</ele>
        <time>2025-07-12T09:53:17</time>
      </trkpt>
      <trkpt lat="45.31496" lon="5.85512">
        <ele>1870.2</ele>
        <time>2025-07-12T09:53:18</time>
      </trkpt>
      <trkpt lat="45.31495" lon="5.85512">
        <ele>1870.2</ele>
        <time>2025-07-12T09:53:19</time>
      </trkpt>
      <trkpt lat="45.31495" lon="5.85512">
        <ele>1870.2</ele>
        <time>2025-07-12T09:53:20</time>
      </trkpt>
      <trkpt lat="45.31495" lon="5.85513">
        <ele>1870.2</ele>
        <time>2025-07-12T09:53:20</time>
      </trkpt>
      <trkpt lat="45.31495" lon="5.85512">
        <ele>1870.2</ele>
        <time>2025-07-12T09:53:25</time>
      </trkpt>
      <trkpt lat="45.31495" lon="5.85512">
        <ele>1870.2</ele>
        <time>2025-07-12T09:53:26</time>
      </trkpt>
      <trkpt lat="45.31495" lon="5.85512">
        <ele>1875.7</ele>
        <time>2025-07-12T09:53:29</time>
      </trkpt>
      <trkpt lat="45.31495" lon="5.85512">
        <ele>1875.7</ele>
        <time>2025-07-12T09:53:30</time>
      </trkpt>
      <trkpt lat="45.31495" lon="5.85512">
        <ele>1875.7</ele>
        <time>2025-07-12T09:53:31</time>
      </trkpt>
      <trkpt lat="45.31494" lon="5.85513">
        <ele>1875.7</ele>
        <time>2025-07-12T09:53:33</time>
      </trkpt>
      <trkpt lat="45.31489" lon="5.85516">
        <ele>1875.7</ele>
        <time>2025-07-12T09:53:33</time>
      </trkpt>
      <trkpt lat="45.31486" lon="5.85517">
        <ele>1875.7</ele>
        <time>2025-07-12T09:53:34</time>
      </trkpt>
      <trkpt lat="45.31486" lon="5.85517">
        <ele>1875.7</ele>
        <time>2025-07-12T09:53:35</time>
      </trkpt>
      <trkpt lat="45.31484" lon="5.85518">
        <ele>1875.7</ele>
        <time>2025-07-12T09:53:37</time>
      </trkpt>
      <trkpt lat="45.31484" lon="5.85518">
        <ele>1875.7</ele>
        <time>2025-07-12T09:53:40</time>
      </trkpt>
      <trkpt lat="45.31484" lon="5.85518">
        <ele>1875.7</ele>
        <time>2025-07-12T09:53:40</time>
      </trkpt>
      <trkpt lat="45.31484" lon="5.85518">
        <ele>1878.4</ele>
        <time>2025-07-12T09:53:44</time>
      </trkpt>
      <trkpt lat="45.31484" lon="5.85518">
        <ele>1878.4</ele>
        <time>2025-07-12T09:53:46</time>
      </trkpt>
      <trkpt lat="45.31484" lon="5.85518">
        <ele>1878.4</ele>
        <time>2025-07-12T09:53:46</time>
      </trkpt>
      <trkpt lat="45.31484" lon="5.85518">
        <ele>1878.4</ele>
        <time>2025-07-12T09:53:47</time>
      </trkpt>
      <trkpt lat="45.31484" lon="5.85518">
        <ele>1878.4</ele>
        <time>2025-07-12T09:53:48</time>
      </trkpt>
      <trkpt lat="45.31484" lon="5.85518">
        <ele>1878.4</ele>
        <time>2025-07-12T09:53:50</time>
      </trkpt>
      <trkpt lat="45.31484" lon="5.85518">
        <ele>1878.4</ele>
        <time>2025-07-12T09:53:55</time>
      </trkpt>
      <trkpt lat="45.31484" lon="5.85518">
        <ele>1878.4</ele>
        <time>2025-07-12T09:54:04</time>
      </trkpt>
      <trkpt lat="45.31484" lon="5.85518">
        <ele>1878.4</ele>
        <time>2025-07-12T09:54:05</time>
      </trkpt>
      <trkpt lat="45.31484" lon="5.85518">
        <ele>1878.4</ele>
        <time>2025-07-12T09:54:06</time>
      </trkpt>
      <trkpt lat="45.31478" lon="5.85522">
        <ele>1878.4</ele>
        <time>2025-07-12T09:54:08</time>
      </trkpt>
      <trkpt lat="45.31477" lon="5.85524">
        <ele>1878.4</ele>
        <time>2025-07-12T09:54:09</time>
      </trkpt>
      <trkpt lat="45.31476" lon="5.85524">
        <ele>1878.4</ele>
        <time>2025-07-12T09:54:10</time>
      </trkpt>
      <trkpt lat="45.31476" lon="5.85524">
        <ele>1878.4</ele>
        <time>2025-07-12T09:54:11</time>
      </trkpt>
      <trkpt lat="45.31476" lon="5.85524">
        <ele>1878.4</ele>
        <time>2025-07-12T09:54:12</time>
      </trkpt>
      <trkpt lat="45.31476" lon="5.85524">
        <ele>1878.4</ele>
        <time>2025-07-12T09:54:13</time>
      </trkpt>
      <trkpt lat="45.31476" lon="5.85524">
        <ele>1878.4</ele>
        <time>2025-07-12T09:54:14</time>
      </trkpt>
      <trkpt lat="45.31476" lon="5.85524">
        <ele>1878.4</ele>
        <time>2025-07-12T09:54:16</time>
      </trkpt>
      <trkpt lat="45.31476" lon="5.85525">
        <ele>1878.4</ele>
        <time>2025-07-12T09:54:17</time>
      </trkpt>
      <trkpt lat="45.31476" lon="5.85525">
        <ele>1878.4</ele>
        <time>2025-07-12T09:54:19</time>
      </trkpt>
      <trkpt lat="45.31476" lon="5.85525">
        <ele>1878.4</ele>
        <time>2025-07-12T09:54:20</time>
      </trkpt>
      <trkpt lat="45.31476" lon="5.85525">
        <ele>1878.4</ele>
        <time>2025-07-12T09:54:21</time>
      </trkpt>
      <trkpt lat="45.31476" lon="5.85525">
        <ele>1882.1</ele>
        <time>2025-07-12T09:54:22</time>
      </trkpt>
      <trkpt lat="45.31476" lon="5.85525">
        <ele>1882.1</ele>
        <time>2025-07-12T09:54:23</time>
      </trkpt>
      <trkpt lat="45.31476" lon="5.85525">
        <ele>1882.1</ele>
        <time>2025-07-12T09:54:25</time>
      </trkpt>
      <trkpt lat="45.31476" lon="5.85525">
        <ele>1882.1</ele>
        <time>2025-07-12T09:54:26</time>
      </trkpt>
      <trkpt lat="45.31476" lon="5.85525">
        <ele>1882.1</ele>
        <time>2025-07-12T09:54:27</time>
      </trkpt>
      <trkpt lat="45.31476" lon="5.85525">
        <ele>1882.1</ele>
        <time>2025-07-12T09:54:28</time>
      </trkpt>
      <trkpt lat="45.31476" lon="5.85525">
        <ele>1882.1</ele>
        <time>2025-07-12T09:54:29</time>
      </trkpt>
      <trkpt lat="45.31476" lon="5.85525">
        <ele>1882.1</ele>
        <time>2025-07-12T09:54:30</time>
      </trkpt>
      <trkpt lat="45.31476" lon="5.85525">
        <ele>1882.1</ele>
        <time>2025-07-12T09:54:31</time>
      </trkpt>
      <trkpt lat="45.3147" lon="5.85528">
        <ele>1882.1</ele>
        <time>2025-07-12T09:54:32</time>
      </trkpt>
      <trkpt lat="45.31467" lon="5.8553">
        <ele>1882.1</ele>
        <time>2025-07-12T09:54:34</time>
      </trkpt>
      <trkpt lat="45.31466" lon="5.8553">
        <ele>1882.1</ele>
        <time>2025-07-12T09:54:36</time>
      </trkpt>
      <trkpt lat="45.31465" lon="5.85531">
        <ele>1882.1</ele>
        <time>2025-07-12T09:54:41</time>
      </trkpt>
      <trkpt lat="45.31465" lon="5.85531">
        <ele>1882.1</ele>
        <time>2025-07-12T09:54:43</time>
      </trkpt>
      <trkpt lat="45.31465" lon="5.85531">
        <ele>1882.1</ele>
        <time>2025-07-12T09:54:44</time>
      </trkpt>
      <trkpt lat="45.31465" lon="5.85531">
        <ele>1881.9</ele>
        <time>2025-07-12T09:54:48</time>
      </trkpt>
      <trkpt lat="45.31465" lon="5.85531">
        <ele>1881.9</ele>
        <time>2025-07-12T09:54:49</time>
      </trkpt>
      <trkpt lat="45.31465" lon="5.85531">
        <ele>1881.9</ele>
        <time>2025-07-12T09:54:50</time>
      </trkpt>
      <trkpt lat="45.31464" lon="5.85531">
        <ele>1881.9</ele>
        <time>2025-07-12T09:54:51</time>
      </trkpt>
      <trkpt lat="45.31458" lon="5.85537">
        <ele>1881.9</ele>
        <time>2025-07-12T09:54:52</time>
      </trkpt>
      <trkpt lat="45.31455" lon="5.85539">
        <ele>1881.9</ele>
        <time>2025-07-12T09:54:56</time>
      </trkpt>
      <trkpt lat="45.31455" lon="5.85539">
        <ele>1881.9</ele>
        <time>2025-07-12T09:54:59</time>
      </trkpt>
      <trkpt lat="45.31455" lon="5.85539">
        <ele>1881.9</ele>
        <time>2025-07-12T09:55:00</time>
      </trkpt>
      <trkpt lat="45.31455" lon="5.85539">
        <ele>1886.1</ele>
        <time>2025-07-12T09:55:01</time>
      </trkpt>
      <trkpt lat="45.31455" lon="5.85539">
        <ele>1886.1</ele>
        <time>2025-07-12T09:55:03</time>
      </trkpt>
      <trkpt lat="45.31455" lon="5.85539">
        <ele>1886.1</ele>
        <time>2025-07-12T09:55:03</time>
      </trkpt>
      <trkpt lat="45.31455" lon="5.85539">
        <ele>1886.1</ele>
        <time>2025-07-12T09:55:04</time>
      </trkpt>
      <trkpt lat="45.31455" lon="5.85539">
        <ele>1886.1</ele>
        <time>2025-07-12T09:55:05</time>
      </trkpt>
      <trkpt lat="45.31455" lon="5.85539">
        <ele>1886.1</ele>
        <time>2025-07-12T09:55:05</time>
      </trkpt>
      <trkpt lat="45.31446" lon="5.85542">
        <ele>1886.1</ele>
        <time>2025-07-12T09:55:09</time>
      </trkpt>
      <trkpt lat="45.31444" lon="5.85543">
        <ele>1886.1</ele>
        <time>2025-07-12T09:55:12</time>
      </trkpt>
      <trkpt lat="45.31444" lon="5.85543">
        <ele>1886.1</ele>
        <time>2025-07-12T09:55:13</time>
      </trkpt>
      <trkpt lat="45.31444" lon="5.85543">
        <ele>1890.3</ele>
        <time>2025-07-12T09:55:16</time>
      </trkpt>
      <trkpt lat="45.31444" lon="5.85543">
        <ele>1890.3</ele>
        <time>2025-07-12T09:55:17</time>
      </trkpt>
      <trkpt lat="45.31444" lon="5.85543">
        <ele>1890.3</ele>
        <time>2025-07-12T09:55:18</time>
      </trkpt>
      <trkpt lat="45.31444" lon="5.85543">
        <ele>1890.3</ele>
        <time>2025-07-12T09:55:19</time>
      </trkpt>
      <trkpt lat="45.31444" lon="5.85543">
        <ele>1890.3</ele>
        <time>2025-07-12T09:55:20</time>
      </trkpt>
      <trkpt lat="45.31437" lon="5.85542">
        <ele>1890.3</ele>
        <time>2025-07-12T09:55:22</time>
      </trkpt>
      <trkpt lat="45.31435" lon="5.85541">
        <ele>1890.3</ele>
        <time>2025-07-12T09:55:22</time>
      </trkpt>
      <trkpt lat="45.31434" lon="5.85541">
        <ele>1890.3</ele>
        <time>2025-07-12T09:55:25</time>
      </trkpt>
      <trkpt lat="45.31433" lon="5.85541">
        <ele>1890.3</ele>
        <time>2025-07-12T09:55:28</time>
      </trkpt>
      <trkpt lat="45.31433" lon="5.85541">
        <ele>1890.3</ele>
        <time>2025-07-12T09:55:29</time>
      </trkpt>
      <trkpt lat="45.31433" lon="5.8554">
        <ele>1893.9</ele>
        <time>2025-07-12T09:55:32</time>
      </trkpt>
      <trkpt lat="45.31433" lon="5.8554">
        <ele>1893.9</ele>
        <time>2025-07-12T09:55:32</time>
      </trkpt>
      <trkpt lat="45.31433" lon="5.85541">
        <ele>1893.9</ele>
        <time>2025-07-12T09:55:35</time>
      </trkpt>
      <trkpt lat="45.31426" lon="5.85535">
        <ele>1893.9</ele>
        <time>2025-07-12T09:55:37</time>
      </trkpt>
      <trkpt lat="45.31424" lon="5.85534">
        <ele>1893.9</ele>
        <time>2025-07-12T09:55:38</time>
      </trkpt>
      <trkpt lat="45.31424" lon="5.85533">
        <ele>1893.9</ele>
        <time>2025-07-12T09:55:40</time>
      </trkpt>
      <trkpt lat="45.31423" lon="5.85533">
        <ele>1893.9</ele>
        <time>2025-07-12T09:55:44</time>
      </trkpt>
      <trkpt lat="45.31423" lon="5.85533">
        <ele>1894.6</ele>
        <time>2025-07-12T09:55:48</time>
      </trkpt>
      <trkpt lat="45.31423" lon="5.85533">
        <ele>1894.6</ele>
        <time>2025-07-12T09:55:51</time>
      </trkpt>
      <trkpt lat="45.31423" lon="5.85533">
        <ele>1894.6</ele>
        <time>2025-07-12T09:55:51</time>
      </trkpt>
      <trkpt lat="45.31423" lon="5.85533">
        <ele>1894.6</ele>
        <time>2025-07-12T09:55:52</time>
      </trkpt>
      <trkpt lat="45.31423" lon="5.85533">
        <ele>1894.6</ele>
        <time>2025-07-12T09:55:53</time>
      </trkpt>
      <trkpt lat="45.31423" lon="5.85533">
        <ele>1894.6</ele>
        <time>2025-07-12T09:55:54</time>
      </trkpt>
      <trkpt lat="45.31423" lon="5.85533">
        <ele>1894.6</ele>
        <time>2025-07-12T09:55:55</time>
      </trkpt>
      <trkpt lat="45.31417" lon="5.85532">
        <ele>1894.6</ele>
        <time>2025-07-12T09:55:55</time>
      </trkpt>
      <trkpt lat="45.31414" lon="5.85532">
        <ele>1894.6</ele>
        <time>2025-07-12T09:55:57</time>
      </trkpt>
      <trkpt lat="45.31413" lon="5.85532">
        <ele>1894.6</ele>
        <time>2025-07-12T09:55:58</time>
      </trkpt>
      <trkpt lat="45.31413" lon="5.85532">
        <ele>1894.6</ele>
        <time>2025-07-12T09:55:59</time>
      </trkpt>
      <trkpt lat="45.31412" lon="5.85532">
        <ele>1894.6</ele>
        <time>2025-07-12T09:56:00</time>
      </trkpt>
      <trkpt lat="45.31412" lon="5.85531">
        <ele>1895.5333</ele>
        <time>2025-07-12T09:56:04</time>
      </trkpt>
      <trkpt lat="45.31412" lon="5.85531">
        <ele>1895.5333</ele>
        <time>2025-07-12T09:56:06</time>
      </trkpt>
      <trkpt lat="45.31412" lon="5.85531">
        <ele>1895.5333</ele>
        <time>2025-07-12T09:56:07</time>
      </trkpt>
      <trkpt lat="45.31412" lon="5.85531">
        <ele>1895.5333</ele>
        <time>2025-07-12T09:56:09</time>
      </trkpt>
      <trkpt lat="45.31412" lon="5.85532">
        <ele>1895.5333</ele>
        <time>2025-07-12T09:56:10</time>
      </trkpt>
      <trkpt lat="45.31412" lon="5.85532">
        <ele>1895.6</ele>
        <time>2025-07-12T09:56:11</time>
      </trkpt>
      <trkpt lat="45.31412" lon="5.85532">
        <ele>1895.6</ele>
        <time>2025-07-12T09:56:12</time>
      </trkpt>
      <trkpt lat="45.31412" lon="5.85532">
        <ele>1895.6</ele>
        <time>2025-07-12T09:56:13</time>
      </trkpt>
      <trkpt lat="45.31412" lon="5.85532">
        <ele>1895.6</ele>
        <time>2025-07-12T09:56:14</time>
      </trkpt>
      <trkpt lat="45.31406" lon="5.85533">
        <ele>1895.6</ele>
        <time>2025-07-12T09:56:16</time>
      </trkpt>
      <trkpt lat="45.31403" lon="5.85534">
        <ele>1895.6</ele>
        <time>2025-07-12T09:56:16</time>
      </trkpt>
      <trkpt lat="45.31402" lon="5.85534">
        <ele>1895.6</ele>
        <time>2025-07-12T09:56:18</time>
      </trkpt>
      <trkpt lat="45.31401" lon="5.85534">
        <ele>1895.6</ele>
        <time>2025-07-12T09:56:19</time>
      </trkpt>
      <trkpt lat="45.31401" lon="5.85534">
        <ele>1895.6</ele>
        <time>2025-07-12T09:56:22</time>
      </trkpt>
      <trkpt lat="45.31401" lon="5.85534">
        <ele>1895.6</ele>
        <time>2025-07-12T09:56:23</time>
      </trkpt>
      <trkpt lat="45.31401" lon="5.85534">
        <ele>1895.6</ele>
        <time>2025-07-12T09:56:24</time>
      </trkpt>
      <trkpt lat="45.31401" lon="5.85534">
        <ele>1895.6</ele>
        <time>2025-07-12T09:56:26</time>
      </trkpt>
      <trkpt lat="45.31401" lon="5.85534">
        <ele>1897.8</ele>
        <time>2025-07-12T09:56:26</time>
      </trkpt>
      <trkpt lat="45.31401" lon="5.85534">
        <ele>1897.8</ele>
        <time>2025-07-12T09:56:28</time>
      </trkpt>
      <trkpt lat="45.31395" lon="5.85536">
        <ele>1897.8</ele>
        <time>2025-07-12T09:56:32</time>
      </trkpt>
      <trkpt lat="45.31392" lon="5.85537">
        <ele>1897.8</ele>
        <time>2025-07-12T09:56:33</time>
      </trkpt>
      <trkpt lat="45.31392" lon="5.85537">
        <ele>1897.8</ele>
        <time>2025-07-12T09:56:34</time>
      </trkpt>
      <trkpt lat="45.31391" lon="5.85538">
        <ele>1897.8</ele>
        <time>2025-07-12T09:56:35</time>
      </trkpt>
      <trkpt lat="45.31391" lon="5.85538">
        <ele>1897.8</ele>
        <time>2025-07-12T09:56:36</time>
      </trkpt>
      <trkpt lat="45.31391" lon="5.85538">
        <ele>1897.8</ele>
        <time>2025-07-12T09:56:36</time>
      </trkpt>
      <trkpt lat="45.31391" lon="5.85538">
        <ele>1897.8</ele>
        <time>2025-07-12T09:56:38</time>
      </trkpt>
      <trkpt lat="45.31391" lon="5.85538">
        <ele>1897.8</ele>
        <time>2025-07-12T09:56:41</time>
      </trkpt>
      <trkpt lat="45.31391" lon="5.85538">
        <ele>1898.7</ele>
        <time>2025-07-12T09:56:42</time>
      </trkpt>
      <trkpt lat="45.31391" lon="5.85538">
        <ele>1898.7</ele>
        <time>2025-07-12T09:56:43</time>
      </trkpt>
      <trkpt lat="45.31391" lon="5.85538">
        <ele>1898.7</ele>
        <time>2025-07-12T09:56:44</time>
      </trkpt>
      <trkpt lat="45.31391" lon="5.85538">
        <ele>1898.7</ele>
        <time>2025-07-12T09:56:45</time>
      </trkpt>
      <trkpt lat="45.3139" lon="5.85538">
        <ele>1898.7</ele>
        <time>2025-07-12T09:56:45</time>
      </trkpt>
      <trkpt lat="45.3139" lon="5.85538">
        <ele>1898.7</ele>
        <time>2025-07-12T09:56:46</time>
      </trkpt>
      <trkpt lat="45.3139" lon="5.85538">
        <ele>1898.7</ele>
        <time>2025-07-12T09:56:47</time>
      </trkpt>
      <trkpt lat="45.3139" lon="5.85538">
        <ele>1898.7</ele>
        <time>2025-07-12T09:56:48</time>
      </trkpt>
      <trkpt lat="45.3139" lon="5.85538">
        <ele>1898.7</ele>
        <time>2025-07-12T09:56:49</time>
      </trkpt>
      <trkpt lat="45.3139" lon="5.85538">
        <ele>1898.7</ele>
        <time>2025-07-12T09:56:50</time>
      </trkpt>
      <trkpt lat="45.3139" lon="5.85538">
        <ele>1898.7</ele>
        <time>2025-07-12T09:56:51</time>
      </trkpt>
      <trkpt lat="45.3139" lon="5.85538">
        <ele>1898.7</ele>
        <time>2025-07-12T09:56:52</time>
      </trkpt>
      <trkpt lat="45.31385" lon="5.85544">
        <ele>1898.7</ele>
        <time>2025-07-12T09:56:53</time>
      </trkpt>
      <trkpt lat="45.31384" lon="5.85547">
        <ele>1898.7</ele>
        <time>2025-07-12T09:56:54</time>
      </trkpt>
      <trkpt lat="45.31383" lon="5.85547">
        <ele>1898.7</ele>
        <time>2025-07-12T09:56:54</time>
      </trkpt>
      <trkpt lat="45.31383" lon="5.85547">
        <ele>1898.7</ele>
        <time>2025-07-12T09:56:56</time>
      </trkpt>
      <trkpt lat="45.31383" lon="5.85548">
        <ele>1898.7</ele>
        <time>2025-07-12T09:56:57</time>
      </trkpt>
      <trkpt lat="45.31382" lon="5.85548">
        <ele>1901.9667</ele>
        <time>2025-07-12T09:56:59</time>
      </trkpt>
      <trkpt lat="45.31382" lon="5.85548">
        <ele>1901.9667</ele>
        <time>2025-07-12T09:56:59</time>
      </trkpt>
      <trkpt lat="45.31382" lon="5.85548">
        <ele>1901.9667</ele>
        <time>2025-07-12T09:57:01</time>
      </trkpt>
      <trkpt lat="45.31382" lon="5.85548">
        <ele>1901.9667</ele>
        <time>2025-07-12T09:57:01</time>
      </trkpt>
      <trkpt lat="45.31382" lon="5.85548">
        <ele>1901.9667</ele>
        <time>2025-07-12T09:57:02</time>
      </trkpt>
      <trkpt lat="45.31382" lon="5.85548">
        <ele>1901.9667</ele>
        <time>2025-07-12T09:57:03</time>
      </trkpt>
      <trkpt lat="45.31382" lon="5.85548">
        <ele>1901.9667</ele>
        <time>2025-07-12T09:57:04</time>
      </trkpt>
      <trkpt lat="45.31382" lon="5.85548">
        <ele>1901.9667</ele>
        <time>2025-07-12T09:57:05</time>
      </trkpt>
      <trkpt lat="45.31382" lon="5.85548">
        <ele>1904.7</ele>
        <time>2025-07-12T09:57:06</time>
      </trkpt>
      <trkpt lat="45.31382" lon="5.85548">
        <ele>1904.7</ele>
        <time>2025-07-12T09:57:06</time>
      </trkpt>
      <trkpt lat="45.31382" lon="5.85548">
        <ele>1904.7</ele>
        <time>2025-07-12T09:57:07</time>
      </trkpt>
      <trkpt lat="45.31382" lon="5.85548">
        <ele>1904.7</ele>
        <time>2025-07-12T09:57:08</time>
      </trkpt>
      <trkpt lat="45.31382" lon="5.85548">
        <ele>1904.7</ele>
        <time>2025-07-12T09:57:08</time>
      </trkpt>
      <trkpt lat="45.31382" lon="5.85548">
        <ele>1904.7</ele>
        <time>2025-07-12T09:57:09</time>
      </trkpt>
      <trkpt lat="45.31373" lon="5.85551">
        <ele>1904.7</ele>
        <time>2025-07-12T09:57:14</time>
      </trkpt>
      <trkpt lat="45.31372" lon="5.85551">
        <ele>1904.7</ele>
        <time>2025-07-12T09:57:16</time>
      </trkpt>
      <trkpt lat="45.31372" lon="5.85551">
        <ele>1904.7</ele>
        <time>2025-07-12T09:57:17</time>
      </trkpt>
      <trkpt lat="45.31371" lon="5.85552">
        <ele>1910.7</ele>
        <time>2025-07-12T09:57:21</time>
      </trkpt>
      <trkpt lat="45.31371" lon="5.85552">
        <ele>1910.7</ele>
        <time>2025-07-12T09:57:22</time>
      </trkpt>
      <trkpt lat="45.31371" lon="5.85552">
        <ele>1910.7</ele>
        <time>2025-07-12T09:57:23</time>
      </trkpt>
      <trkpt lat="45.31366" lon="5.85555">
        <ele>1910.7</ele>
        <time>2025-07-12T09:57:28</time>
      </trkpt>
      <trkpt lat="45.31362" lon="5.85557">
        <ele>1910.7</ele>
        <time>2025-07-12T09:57:30</time>
      </trkpt>
      <trkpt lat="45.31362" lon="5.85557">
        <ele>1910.7</ele>
        <time>2025-07-12T09:57:31</time>
      </trkpt>
      <trkpt lat="45.31361" lon="5.85557">
        <ele>1910.7</ele>
        <time>2025-07-12T09:57:31</time>
      </trkpt>
      <trkpt lat="45.31361" lon="5.85557">
        <ele>1910.7</ele>
        <time>2025-07-12T09:57:33</time>
      </trkpt>
      <trkpt lat="45.3136" lon="5.85557">
        <ele>1910.7</ele>
        <time>2025-07-12T09:57:34</time>
      </trkpt>
      <trkpt lat="45.3136" lon="5.85557">
        <ele>1910.7</ele>
        <time>2025-07-12T09:57:35</time>
      </trkpt>
      <trkpt lat="45.3136" lon="5.85558">
        <ele>1915</ele>
        <time>2025-07-12T09:57:37</time>
      </trkpt>
      <trkpt lat="45.3136" lon="5.85557">
        <ele>1915</ele>
        <time>2025-07-12T09:57:42</time>
      </trkpt>
      <trkpt lat="45.3136" lon="5.85558">
        <ele>1915</ele>
        <time>2025-07-12T09:57:43</time>
      </trkpt>
      <trkpt lat="45.31352" lon="5.85557">
        <ele>1915.5</ele>
        <time>2025-07-12T09:57:45</time>
      </trkpt>
      <trkpt lat="45.31351" lon="5.85557">
        <ele>1915.5</ele>
        <time>2025-07-12T09:57:46</time>
      </trkpt>
      <trkpt lat="45.3135" lon="5.85557">
        <ele>1915.5</ele>
        <time>2025-07-12T09:57:46</time>
      </trkpt>
      <trkpt lat="45.3135" lon="5.85557">
        <ele>1915.5</ele>
        <time>2025-07-12T09:57:48</time>
      </trkpt>
      <trkpt lat="45.31349" lon="5.85558">
        <ele>1915.5</ele>
        <time>2025-07-12T09:57:49</time>
      </trkpt>
      <trkpt lat="45.31349" lon="5.85558">
        <ele>1915.5</ele>
        <time>2025-07-12T09:57:49</time>
      </trkpt>
      <trkpt lat="45.31349" lon="5.85558">
        <ele>1915.5</ele>
        <time>2025-07-12T09:57:50</time>
      </trkpt>
      <trkpt lat="45.31349" lon="5.85558">
        <ele>1915.5</ele>
        <time>2025-07-12T09:57:51</time>
      </trkpt>
      <trkpt lat="45.31349" lon="5.85558">
        <ele>1919.2</ele>
        <time>2025-07-12T09:57:52</time>
      </trkpt>
      <trkpt lat="45.31349" lon="5.85558">
        <ele>1919.2</ele>
        <time>2025-07-12T09:57:52</time>
      </trkpt>
      <trkpt lat="45.31349" lon="5.85558">
        <ele>1919.2</ele>
        <time>2025-07-12T09:57:54</time>
      </trkpt>
      <trkpt lat="45.31349" lon="5.85558">
        <ele>1919.2</ele>
        <time>2025-07-12T09:57:55</time>
      </trkpt>
      <trkpt lat="45.31349" lon="5.85558">
        <ele>1919.2</ele>
        <time>2025-07-12T09:57:56</time>
      </trkpt>
      <trkpt lat="45.31349" lon="5.85558">
        <ele>1919.2</ele>
        <time>2025-07-12T09:57:57</time>
      </trkpt>
      <trkpt lat="45.31349" lon="5.85558">
        <ele>1919.2</ele>
        <time>2025-07-12T09:57:58</time>
      </trkpt>
      <trkpt lat="45.31349" lon="5.85558">
        <ele>1919.2</ele>
        <time>2025-07-12T09:57:59</time>
      </trkpt>
      <trkpt lat="45.31349" lon="5.85558">
        <ele>1920.1</ele>
        <time>2025-07-12T09:58:00</time>
      </trkpt>
      <trkpt lat="45.31349" lon="5.85558">
        <ele>1920.1</ele>
        <time>2025-07-12T09:58:02</time>
      </trkpt>
      <trkpt lat="45.31341" lon="5.8556">
        <ele>1920.1</ele>
        <time>2025-07-12T09:58:04</time>
      </trkpt>
      <trkpt lat="45.31339" lon="5.8556">
        <ele>1920.1</ele>
        <time>2025-07-12T09:58:08</time>
      </trkpt>
      <trkpt lat="45.31339" lon="5.8556">
        <ele>1920.1</ele>
        <time>2025-07-12T09:58:09</time>
      </trkpt>
      <trkpt lat="45.31339" lon="5.8556">
        <ele>1924.4</ele>
        <time>2025-07-12T09:58:10</time>
      </trkpt>
      <trkpt lat="45.31339" lon="5.8556">
        <ele>1924.4</ele>
        <time>2025-07-12T09:58:11</time>
      </trkpt>
      <trkpt lat="45.31339" lon="5.8556">
        <ele>1924.4</ele>
        <time>2025-07-12T09:58:12</time>
      </trkpt>
      <trkpt lat="45.31339" lon="5.8556">
        <ele>1924.4</ele>
        <time>2025-07-12T09:58:13</time>
      </trkpt>
      <trkpt lat="45.31339" lon="5.8556">
        <ele>1924.4</ele>
        <time>2025-07-12T09:58:15</time>
      </trkpt>
      <trkpt lat="45.31339" lon="5.8556">
        <ele>1924.4</ele>
        <time>2025-07-12T09:58:17</time>
      </trkpt>
      <trkpt lat="45.31339" lon="5.8556">
        <ele>1924.1</ele>
        <time>2025-07-12T09:58:20</time>
      </trkpt>
      <trkpt lat="45.31339" lon="5.8556">
        <ele>1924.1</ele>
        <time>2025-07-12T09:58:21</time>
      </trkpt>
      <trkpt lat="45.31339" lon="5.8556">
        <ele>1924.1</ele>
        <time>2025-07-12T09:58:22</time>
      </trkpt>
      <trkpt lat="45.31339" lon="5.8556">
        <ele>1924.1</ele>
        <time>2025-07-12T09:58:24</time>
      </trkpt>
      <trkpt lat="45.31339" lon="5.8556">
        <ele>1924.1</ele>
        <time>2025-07-12T09:58:25</time>
      </trkpt>
      <trkpt lat="45.31331" lon="5.85556">
        <ele>1924.1</ele>
        <time>2025-07-12T09:58:27</time>
      </trkpt>
      <trkpt lat="45.31329" lon="5.85556">
        <ele>1924.1</ele>
        <time>2025-07-12T09:58:28</time>
      </trkpt>
      <trkpt lat="45.31328" lon="5.85555">
        <ele>1924.1</ele>
        <time>2025-07-12T09:58:32</time>
      </trkpt>
      <trkpt lat="45.31328" lon="5.85555">
        <ele>1924.1</ele>
        <time>2025-07-12T09:58:33</time>
      </trkpt>
      <trkpt lat="45.31328" lon="5.85555">
        <ele>1924.1</ele>
        <time>2025-07-12T09:58:34</time>
      </trkpt>
      <trkpt lat="45.31328" lon="5.85555">
        <ele>1924.2</ele>
        <time>2025-07-12T09:58:35</time>
      </trkpt>
      <trkpt lat="45.31328" lon="5.85555">
        <ele>1924.2</ele>
        <time>2025-07-12T09:58:37</time>
      </trkpt>
      <trkpt lat="45.31328" lon="5.85555">
        <ele>1924.2</ele>
        <time>2025-07-12T09:58:39</time>
      </trkpt>
      <trkpt lat="45.31328" lon="5.85555">
        <ele>1924.2</ele>
        <time>2025-07-12T09:58:41</time>
      </trkpt>
      <trkpt lat="45.31328" lon="5.85555">
        <ele>1924.3</ele>
        <time>2025-07-12T09:58:45</time>
      </trkpt>
      <trkpt lat="45.31328" lon="5.85555">
        <ele>1924.3</ele>
        <time>2025-07-12T09:58:46</time>
      </trkpt>
      <trkpt lat="45.31323" lon="5.85553">
        <ele>1924.3</ele>
        <time>2025-07-12T09:58:47</time>
      </trkpt>
      <trkpt lat="45.31319" lon="5.85551">
        <ele>1924.3</ele>
        <time>2025-07-12T09:58:49</time>
      </trkpt>
      <trkpt lat="45.31318" lon="5.8555">
        <ele>1924.3</ele>
        <time>2025-07-12T09:58:52</time>
      </trkpt>
      <trkpt lat="45.31317" lon="5.8555">
        <ele>1924.3</ele>
        <time>2025-07-12T09:58:53</time>
      </trkpt>
      <trkpt lat="45.31317" lon="5.8555">
        <ele>1924.3</ele>
        <time>2025-07-12T09:58:56</time>
      </trkpt>
      <trkpt lat="45.31317" lon="5.8555">
        <ele>1927.5</ele>
        <time>2025-07-12T09:59:00</time>
      </trkpt>
      <trkpt lat="45.31317" lon="5.8555">
        <ele>1927.5</ele>
        <time>2025-07-12T09:59:01</time>
      </trkpt>
      <trkpt lat="45.31317" lon="5.8555">
        <ele>1927.5</ele>
        <time>2025-07-12T09:59:02</time>
      </trkpt>
      <trkpt lat="45.31317" lon="5.8555">
        <ele>1927.5</ele>
        <time>2025-07-12T09:59:04</time>
      </trkpt>
      <trkpt lat="45.31308" lon="5.8555">
        <ele>1927.5</ele>
        <time>2025-07-12T09:59:07</time>
      </trkpt>
      <trkpt lat="45.31307" lon="5.85549">
        <ele>1927.5</ele>
        <time>2025-07-12T09:59:08</time>
      </trkpt>
      <trkpt lat="45.31307" lon="5.85549">
        <ele>1927.5</ele>
        <time>2025-07-12T09:59:09</time>
      </trkpt>
      <trkpt lat="45.31306" lon="5.85549">
        <ele>1927.5</ele>
        <time>2025-07-12T09:59:10</time>
      </trkpt>
      <trkpt lat="45.31306" lon="5.85549">
        <ele>1927.5</ele>
        <time>2025-07-12T09:59:12</time>
      </trkpt>
      <trkpt lat="45.31306" lon="5.85549">
        <ele>1932</ele>
        <time>2025-07-12T09:59:16</time>
      </trkpt>
      <trkpt lat="45.31306" lon="5.85549">
        <ele>1932</ele>
        <time>2025-07-12T09:59:18</time>
      </trkpt>
      <trkpt lat="45.31305" lon="5.85549">
        <ele>1932</ele>
        <time>2025-07-12T09:59:20</time>
      </trkpt>
      <trkpt lat="45.31305" lon="5.85549">
        <ele>1932.6</ele>
        <time>2025-07-12T09:59:23</time>
      </trkpt>
      <trkpt lat="45.31299" lon="5.85552">
        <ele>1932.6</ele>
        <time>2025-07-12T09:59:27</time>
      </trkpt>
      <trkpt lat="45.31296" lon="5.85553">
        <ele>1932.6</ele>
        <time>2025-07-12T09:59:28</time>
      </trkpt>
      <trkpt lat="45.31296" lon="5.85553">
        <ele>1932.6</ele>
        <time>2025-07-12T09:59:28</time>
      </trkpt>
      <trkpt lat="45.31296" lon="5.85553">
        <ele>1932.6</ele>
        <time>2025-07-12T09:59:29</time>
      </trkpt>
      <trkpt lat="45.31296" lon="5.85553">
        <ele>1932.6</ele>
        <time>2025-07-12T09:59:32</time>
      </trkpt>
      <trkpt lat="45.31295" lon="5.85553">
        <ele>1932.6</ele>
        <time>2025-07-12T09:59:34</time>
      </trkpt>
      <trkpt lat="45.31295" lon="5.85553">
        <ele>1932.6</ele>
        <time>2025-07-12T09:59:36</time>
      </trkpt>
      <trkpt lat="45.31295" lon="5.85553">
        <ele>1932.6</ele>
        <time>2025-07-12T09:59:37</time>
      </trkpt>
      <trkpt lat="45.31295" lon="5.85553">
        <ele>1932.6</ele>
        <time>2025-07-12T09:59:37</time>
      </trkpt>
      <trkpt lat="45.31296" lon="5.85553">
        <ele>1932.6</ele>
        <time>2025-07-12T09:59:38</time>
      </trkpt>
      <trkpt lat="45.31296" lon="5.85553">
        <ele>1932.6</ele>
        <time>2025-07-12T09:59:39</time>
      </trkpt>
      <trkpt lat="45.31296" lon="5.85553">
        <ele>1935</ele>
        <time>2025-07-12T09:59:40</time>
      </trkpt>
      <trkpt lat="45.31295" lon="5.85553">
        <ele>1935</ele>
        <time>2025-07-12T09:59:42</time>
      </trkpt>
      <trkpt lat="45.31295" lon="5.85553">
        <ele>1935</ele>
        <time>2025-07-12T09:59:42</time>
      </trkpt>
      <trkpt lat="45.31295" lon="5.85553">
        <ele>1935</ele>
        <time>2025-07-12T09:59:44</time>
      </trkpt>
      <trkpt lat="45.31289" lon="5.8556">
        <ele>1935</ele>
        <time>2025-07-12T09:59:45</time>
      </trkpt>
      <trkpt lat="45.31288" lon="5.85562">
        <ele>1935</ele>
        <time>2025-07-12T09:59:46</time>
      </trkpt>
      <trkpt lat="45.31288" lon="5.85562">
        <ele>1935</ele>
        <time>2025-07-12T09:59:47</time>
      </trkpt>
      <trkpt lat="45.31287" lon="5.85562">
        <ele>1935</ele>
        <time>2025-07-12T09:59:48</time>
      </trkpt>
      <trkpt lat="45.31287" lon="5.85563">
        <ele>1935</ele>
        <time>2025-07-12T09:59:49</time>
      </trkpt>
      <trkpt lat="45.31287" lon="5.85563">
        <ele>1935</ele>
        <time>2025-07-12T09:59:50</time>
      </trkpt>
      <trkpt lat="45.31287" lon="5.85563">
        <ele>1935</ele>
        <time>2025-07-12T09:59:54</time>
      </trkpt>
      <trkpt lat="45.31287" lon="5.85563">
        <ele>1939.5</ele>
        <time>2025-07-12T09:59:57</time>
      </trkpt>
      <trkpt lat="45.31287" lon="5.85563">
        <ele>1939.5</ele>
        <time>2025-07-12T09:59:59</time>
      </trkpt>
      <trkpt lat="45.31287" lon="5.85564">
        <ele>1939.5</ele>
        <time>2025-07-12T10:00:01</time>
      </trkpt>
      <trkpt lat="45.31283" lon="5.8557">
        <ele>1939.5</ele>
        <time>2025-07-12T10:00:02</time>
      </trkpt>
      <trkpt lat="45.31282" lon="5.85574">
        <ele>1939.5</ele>
        <time>2025-07-12T10:00:02</time>
      </trkpt>
      <trkpt lat="45.31281" lon="5.85575">
        <ele>1942.4</ele>
        <time>2025-07-12T10:00:04</time>
      </trkpt>
      <trkpt lat="45.31281" lon="5.85576">
        <ele>1942.4</ele>
        <time>2025-07-12T10:00:06</time>
      </trkpt>
      <trkpt lat="45.31281" lon="5.85576">
        <ele>1942.4</ele>
        <time>2025-07-12T10:00:09</time>
      </trkpt>
      <trkpt lat="45.31281" lon="5.85576">
        <ele>1942.7</ele>
        <time>2025-07-12T10:00:14</time>
      </trkpt>
      <trkpt lat="45.3128" lon="5.85577">
        <ele>1942.7</ele>
        <time>2025-07-12T10:00:15</time>
      </trkpt>
      <trkpt lat="45.3128" lon="5.85577">
        <ele>1942.7</ele>
        <time>2025-07-12T10:00:17</time>
      </trkpt>
      <trkpt lat="45.31275" lon="5.85582">
        <ele>1942.7</ele>
        <time>2025-07-12T10:00:18</time>
      </trkpt>
      <trkpt lat="45.31273" lon="5.85584">
        <ele>1942.7</ele>
        <time>2025-07-12T10:00:18</time>
      </trkpt>
      <trkpt lat="45.31272" lon="5.85585">
        <ele>1942.7</ele>
        <time>2025-07-12T10:00:19</time>
      </trkpt>
      <trkpt lat="45.31272" lon="5.85585">
        <ele>1942.7</ele>
        <time>2025-07-12T10:00:26</time>
      </trkpt>
      <trkpt lat="45.31272" lon="5.85585">
        <ele>1942.7</ele>
        <time>2025-07-12T10:00:26</time>
      </trkpt>
      <trkpt lat="45.31272" lon="5.85585">
        <ele>1942.7</ele>
        <time>2025-07-12T10:00:28</time>
      </trkpt>
      <trkpt lat="45.31272" lon="5.85585">
        <ele>1944.1</ele>
        <time>2025-07-12T10:00:29</time>
      </trkpt>
      <trkpt lat="45.31267" lon="5.85588">
        <ele>1944.1</ele>
        <time>2025-07-12T10:00:32</time>
      </trkpt>
      <trkpt lat="45.31263" lon="5.85591">
        <ele>1944.1</ele>
        <time>2025-07-12T10:00:35</time>
      </trkpt>
      <trkpt lat="45.31262" lon="5.85591">
        <ele>1944.1</ele>
        <time>2025-07-12T10:00:36</time>
      </trkpt>
      <trkpt lat="45.31261" lon="5.85591">
        <ele>1944.1</ele>
        <time>2025-07-12T10:00:39</time>
      </trkpt>
      <trkpt lat="45.31261" lon="5.85591">
        <ele>1944.1</ele>
        <time>2025-07-12T10:00:40</time>
      </trkpt>
      <trkpt lat="45.31261" lon="5.85591">
        <ele>1944.1</ele>
        <time>2025-07-12T10:00:41</time>
      </trkpt>
      <trkpt lat="45.31261" lon="5.85591">
        <ele>1944.1</ele>
        <time>2025-07-12T10:00:45</time>
      </trkpt>
      <trkpt lat="45.31261" lon="5.85591">
        <ele>1944.4</ele>
        <time>2025-07-12T10:00:45</time>
      </trkpt>
      <trkpt lat="45.31261" lon="5.85591">
        <ele>1944.4</ele>
        <time>2025-07-12T10:00:46</time>
      </trkpt>
      <trkpt lat="45.31261" lon="5.85591">
        <ele>1944.4</ele>
        <time>2025-07-12T10:00:48</time>
      </trkpt>
      <trkpt lat="45.31261" lon="5.85591">
        <ele>1944.4</ele>
        <time>2025-07-12T10:00:49</time>
      </trkpt>
      <trkpt lat="45.31261" lon="5.85591">
        <ele>1944.4</ele>
        <time>2025-07-12T10:00:50</time>
      </trkpt>
      <trkpt lat="45.31261" lon="5.85591">
        <ele>1944.4</ele>
        <time>2025-07-12T10:00:51</time>
      </trkpt>
      <trkpt lat="45.31255" lon="5.8559">
        <ele>1944.4</ele>
        <time>2025-07-12T10:00:52</time>
      </trkpt>
      <trkpt lat="45.31252" lon="5.8559">
        <ele>1944.4</ele>
        <time>2025-07-12T10:00:52</time>
      </trkpt>
      <trkpt lat="45.3125" lon="5.85591">
        <ele>1944.4</ele>
        <time>2025-07-12T10:00:57</time>
      </trkpt>
      <trkpt lat="45.3125" lon="5.85591">
        <ele>1944.4</ele>
        <time>2025-07-12T10:01:00</time>
      </trkpt>
      <trkpt lat="45.3125" lon="5.85591">
        <ele>1944.4</ele>
        <time>2025-07-12T10:01:01</time>
      </trkpt>
      <trkpt lat="45.3125" lon="5.85591">
        <ele>1947.6</ele>
        <time>2025-07-12T10:01:02</time>
      </trkpt>
      <trkpt lat="45.3125" lon="5.85591">
        <ele>1947.6</ele>
        <time>2025-07-12T10:01:03</time>
      </trkpt>
      <trkpt lat="45.3125" lon="5.85591">
        <ele>1947.6</ele>
        <time>2025-07-12T10:01:04</time>
      </trkpt>
      <trkpt lat="45.3125" lon="5.85591">
        <ele>1947.6</ele>
        <time>2025-07-12T10:01:05</time>
      </trkpt>
      <trkpt lat="45.3125" lon="5.85591">
        <ele>1947.6</ele>
        <time>2025-07-12T10:01:07</time>
      </trkpt>
      <trkpt lat="45.3125" lon="5.85591">
        <ele>1947.6</ele>
        <time>2025-07-12T10:01:08</time>
      </trkpt>
      <trkpt lat="45.3125" lon="5.85591">
        <ele>1947.8</ele>
        <time>2025-07-12T10:01:11</time>
      </trkpt>
      <trkpt lat="45.3125" lon="5.85591">
        <ele>1947.8</ele>
        <time>2025-07-12T10:01:13</time>
      </trkpt>
      <trkpt lat="45.3125" lon="5.85591">
        <ele>1947.8</ele>
        <time>2025-07-12T10:01:16</time>
      </trkpt>
      <trkpt lat="45.3125" lon="5.85591">
        <ele>1947.8</ele>
        <time>2025-07-12T10:01:17</time>
      </trkpt>
      <trkpt lat="45.3125" lon="5.85591">
        <ele>1947.8</ele>
        <time>2025-07-12T10:01:18</time>
      </trkpt>
      <trkpt lat="45.31243" lon="5.8559">
        <ele>1947.8</ele>
        <time>2025-07-12T10:01:19</time>
      </trkpt>
      <trkpt lat="45.31241" lon="5.8559">
        <ele>1947.8</ele>
        <time>2025-07-12T10:01:20</time>
      </trkpt>
      <trkpt lat="45.3124" lon="5.8559">
        <ele>1947.8</ele>
        <time>2025-07-12T10:01:20</time>
      </trkpt>
      <trkpt lat="45.3124" lon="5.85591">
        <ele>1947.8</ele>
        <time>2025-07-12T10:01:22</time>
      </trkpt>
      <trkpt lat="45.31239" lon="5.85591">
        <ele>1947.8</ele>
        <time>2025-07-12T10:01:23</time>
      </trkpt>
      <trkpt lat="45.31239" lon="5.85591">
        <ele>1947.8</ele>
        <time>2025-07-12T10:01:24</time>
      </trkpt>
      <trkpt lat="45.31239" lon="5.85591">
        <ele>1949.7</ele>
        <time>2025-07-12T10:01:27</time>
      </trkpt>
      <trkpt lat="45.31239" lon="5.85591">
        <ele>1949.7</ele>
        <time>2025-07-12T10:01:30</time>
      </trkpt>
      <trkpt lat="45.31239" lon="5.85591">
        <ele>1949.7</ele>
        <time>2025-07-12T10:01:30</time>
      </trkpt>
      <trkpt lat="45.31239" lon="5.85591">
        <ele>1949.7</ele>
        <time>2025-07-12T10:01:32</time>
      </trkpt>
      <trkpt lat="45.31239" lon="5.85591">
        <ele>1949.7</ele>
        <time>2025-07-12T10:01:33</time>
      </trkpt>
      <trkpt lat="45.31239" lon="5.85591">
        <ele>1949.7</ele>
        <time>2025-07-12T10:01:34</time>
      </trkpt>
      <trkpt lat="45.31239" lon="5.85591">
        <ele>1949.7</ele>
        <time>2025-07-12T10:01:34</time>
      </trkpt>
      <trkpt lat="45.31239" lon="5.85591">
        <ele>1949.7</ele>
        <time>2025-07-12T10:01:35</time>
      </trkpt>
      <trkpt lat="45.31239" lon="5.85591">
        <ele>1949.7</ele>
        <time>2025-07-12T10:01:36</time>
      </trkpt>
      <trkpt lat="45.31239" lon="5.8559">
        <ele>1949.7</ele>
        <time>2025-07-12T10:01:37</time>
      </trkpt>
      <trkpt lat="45.31239" lon="5.8559">
        <ele>1949.7</ele>
        <time>2025-07-12T10:01:38</time>
      </trkpt>
      <trkpt lat="45.31233" lon="5.85594">
        <ele>1949.7</ele>
        <time>2025-07-12T10:01:39</time>
      </trkpt>
      <trkpt lat="45.31231" lon="5.85595">
        <ele>1949.7</ele>
        <time>2025-07-12T10:01:39</time>
      </trkpt>
      <trkpt lat="45.31231" lon="5.85595">
        <ele>1949.7</ele>
        <time>2025-07-12T10:01:40</time>
      </trkpt>
      <trkpt lat="45.3123" lon="5.85595">
        <ele>1949.7</ele>
        <time>2025-07-12T10:01:41</time>
      </trkpt>
      <trkpt lat="45.3123" lon="5.85595">
        <ele>1949.7</ele>
        <time>2025-07-12T10:01:45</time>
      </trkpt>
      <trkpt lat="45.3123" lon="5.85595">
        <ele>1949.7</ele>
        <time>2025-07-12T10:01:46</time>
      </trkpt>
      <trkpt lat="45.3123" lon="5.85595">
        <ele>1949.7</ele>
        <time>2025-07-12T10:01:47</time>
      </trkpt>
      <trkpt lat="45.31229" lon="5.85595">
        <ele>1949.7</ele>
        <time>2025-07-12T10:01:48</time>
      </trkpt>
      <trkpt lat="45.31229" lon="5.85595">
        <ele>1949.7</ele>
        <time>2025-07-12T10:01:49</time>
      </trkpt>
      <trkpt lat="45.31229" lon="5.85595">
        <ele>1949.7</ele>
        <time>2025-07-12T10:01:52</time>
      </trkpt>
      <trkpt lat="45.31229" lon="5.85595">
        <ele>1952.8</ele>
        <time>2025-07-12T10:01:53</time>
      </trkpt>
      <trkpt lat="45.31229" lon="5.85595">
        <ele>1952.8</ele>
        <time>2025-07-12T10:01:55</time>
      </trkpt>
      <trkpt lat="45.31229" lon="5.85595">
        <ele>1952.8</ele>
        <time>2025-07-12T10:01:58</time>
      </trkpt>
      <trkpt lat="45.31229" lon="5.85595">
        <ele>1952.8</ele>
        <time>2025-07-12T10:01:59</time>
      </trkpt>
      <trkpt lat="45.31222" lon="5.856">
        <ele>1952.8</ele>
        <time>2025-07-12T10:02:01</time>
      </trkpt>
      <trkpt lat="45.3122" lon="5.85601">
        <ele>1952.8</ele>
        <time>2025-07-12T10:02:02</time>
      </trkpt>
      <trkpt lat="45.3122" lon="5.85601">
        <ele>1952.8</ele>
        <time>2025-07-12T10:02:03</time>
      </trkpt>
      <trkpt lat="45.3122" lon="5.85601">
        <ele>1952.8</ele>
        <time>2025-07-12T10:02:04</time>
      </trkpt>
      <trkpt lat="45.31219" lon="5.85602">
        <ele>1952.8</ele>
        <time>2025-07-12T10:02:07</time>
      </trkpt>
      <trkpt lat="45.31219" lon="5.85602">
        <ele>1955.5</ele>
        <time>2025-07-12T10:02:09</time>
      </trkpt>
      <trkpt lat="45.31219" lon="5.85602">
        <ele>1955.5</ele>
        <time>2025-07-12T10:02:10</time>
      </trkpt>
      <trkpt lat="45.31219" lon="5.85602">
        <ele>1955.5</ele>
        <time>2025-07-12T10:02:12</time>
      </trkpt>
      <trkpt lat="45.31219" lon="5.85602">
        <ele>1955.6</ele>
        <time>2025-07-12T10:02:19</time>
      </trkpt>
      <trkpt lat="45.31212" lon="5.85604">
        <ele>1955.6</ele>
        <time>2025-07-12T10:02:20</time>
      </trkpt>
      <trkpt lat="45.3121" lon="5.85605">
        <ele>1955.6</ele>
        <time>2025-07-12T10:02:21</time>
      </trkpt>
      <trkpt lat="45.31209" lon="5.85605">
        <ele>1955.6</ele>
        <time>2025-07-12T10:02:21</time>
      </trkpt>
      <trkpt lat="45.31209" lon="5.85605">
        <ele>1955.6</ele>
        <time>2025-07-12T10:02:23</time>
      </trkpt>
      <trkpt lat="45.31209" lon="5.85605">
        <ele>1955.6</ele>
        <time>2025-07-12T10:02:25</time>
      </trkpt>
      <trkpt lat="45.31209" lon="5.85605">
        <ele>1955.6</ele>
        <time>2025-07-12T10:02:26</time>
      </trkpt>
      <trkpt lat="45.31209" lon="5.85605">
        <ele>1955.6</ele>
        <time>2025-07-12T10:02:28</time>
      </trkpt>
      <trkpt lat="45.31209" lon="5.85605">
        <ele>1955.6</ele>
        <time>2025-07-12T10:02:29</time>
      </trkpt>
      <trkpt lat="45.31209" lon="5.85605">
        <ele>1955.6</ele>
        <time>2025-07-12T10:02:33</time>
      </trkpt>
      <trkpt lat="45.31209" lon="5.85606">
        <ele>1955.6</ele>
        <time>2025-07-12T10:02:34</time>
      </trkpt>
      <trkpt lat="45.31209" lon="5.85606">
        <ele>1960.1</ele>
        <time>2025-07-12T10:02:35</time>
      </trkpt>
      <trkpt lat="45.31209" lon="5.85605">
        <ele>1960.1</ele>
        <time>2025-07-12T10:02:35</time>
      </trkpt>
      <trkpt lat="45.31204" lon="5.8561">
        <ele>1960.1</ele>
        <time>2025-07-12T10:02:36</time>
      </trkpt>
      <trkpt lat="45.31201" lon="5.85612">
        <ele>1960.1</ele>
        <time>2025-07-12T10:02:38</time>
      </trkpt>
      <trkpt lat="45.312" lon="5.85613">
        <ele>1960.1</ele>
        <time>2025-07-12T10:02:40</time>
      </trkpt>
      <trkpt lat="45.31199" lon="5.85613">
        <ele>1960.1</ele>
        <time>2025-07-12T10:02:41</time>
      </trkpt>
      <trkpt lat="45.31199" lon="5.85613">
        <ele>1960.1</ele>
        <time>2025-07-12T10:02:43</time>
      </trkpt>
      <trkpt lat="45.31199" lon="5.85613">
        <ele>1960.1</ele>
        <time>2025-07-12T10:02:44</time>
      </trkpt>
      <trkpt lat="45.31199" lon="5.85613">
        <ele>1960.1</ele>
        <time>2025-07-12T10:02:44</time>
      </trkpt>
      <trkpt lat="45.31199" lon="5.85613">
        <ele>1960.1</ele>
        <time>2025-07-12T10:02:46</time>
      </trkpt>
      <trkpt lat="45.31199" lon="5.85613">
        <ele>1960.1</ele>
        <time>2025-07-12T10:02:47</time>
      </trkpt>
      <trkpt lat="45.31199" lon="5.85613">
        <ele>1960.1</ele>
        <time>2025-07-12T10:02:47</time>
      </trkpt>
      <trkpt lat="45.31199" lon="5.85613">
        <ele>1960.1</ele>
        <time>2025-07-12T10:02:48</time>
      </trkpt>
      <trkpt lat="45.31199" lon="5.85613">
        <ele>1960.1</ele>
        <time>2025-07-12T10:02:49</time>
      </trkpt>
      <trkpt lat="45.31199" lon="5.85613">
        <ele>1960.1</ele>
        <time>2025-07-12T10:02:50</time>
      </trkpt>
      <trkpt lat="45.31199" lon="5.85613">
        <ele>1966</ele>
        <time>2025-07-12T10:02:55</time>
      </trkpt>
      <trkpt lat="45.31199" lon="5.85611">
        <ele>1966</ele>
        <time>2025-07-12T10:02:58</time>
      </trkpt>
      <trkpt lat="45.31194" lon="5.85608">
        <ele>1966</ele>
        <time>2025-07-12T10:02:58</time>
      </trkpt>
      <trkpt lat="45.31192" lon="5.85607">
        <ele>1966</ele>
        <time>2025-07-12T10:02:59</time>
      </trkpt>
      <trkpt lat="45.31191" lon="5.85606">
        <ele>1966</ele>
        <time>2025-07-12T10:03:00</time>
      </trkpt>
      <trkpt lat="45.3119" lon="5.85605">
        <ele>1966</ele>
        <time>2025-07-12T10:03:02</time>
      </trkpt>
      <trkpt lat="45.3119" lon="5.85605">
        <ele>1966</ele>
        <time>2025-07-12T10:03:02</time>
      </trkpt>
      <trkpt lat="45.3119" lon="5.85605">
        <ele>1966</ele>
        <time>2025-07-12T10:03:03</time>
      </trkpt>
      <trkpt lat="45.3119" lon="5.85605">
        <ele>1966</ele>
        <time>2025-07-12T10:03:04</time>
      </trkpt>
      <trkpt lat="45.3119" lon="5.85605">
        <ele>1966</ele>
        <time>2025-07-12T10:03:05</time>
      </trkpt>
      <trkpt lat="45.3119" lon="5.85605">
        <ele>1966</ele>
        <time>2025-07-12T10:03:06</time>
      </trkpt>
      <trkpt lat="45.31189" lon="5.85605">
        <ele>1967.5</ele>
        <time>2025-07-12T10:03:06</time>
      </trkpt>
      <trkpt lat="45.31189" lon="5.85605">
        <ele>1967.5</ele>
        <time>2025-07-12T10:03:09</time>
      </trkpt>
      <trkpt lat="45.31189" lon="5.85604">
        <ele>1967.5</ele>
        <time>2025-07-12T10:03:10</time>
      </trkpt>
      <trkpt lat="45.31189" lon="5.85604">
        <ele>1967.5</ele>
        <time>2025-07-12T10:03:12</time>
      </trkpt>
      <trkpt lat="45.31186" lon="5.85603">
        <ele>1969.1</ele>
        <time>2025-07-12T10:03:13</time>
      </trkpt>
      <trkpt lat="45.31183" lon="5.85602">
        <ele>1969.1</ele>
        <time>2025-07-12T10:03:15</time>
      </trkpt>
      <trkpt lat="45.31178" lon="5.856">
        <ele>1969.1</ele>
        <time>2025-07-12T10:03:17</time>
      </trkpt>
      <trkpt lat="45.31177" lon="5.85599">
        <ele>1969.1</ele>
        <time>2025-07-12T10:03:19</time>
      </trkpt>
      <trkpt lat="45.31176" lon="5.85598">
        <ele>1971</ele>
        <time>2025-07-12T10:03:21</time>
      </trkpt>
      <trkpt lat="45.31176" lon="5.85598">
        <ele>1971</ele>
        <time>2025-07-12T10:03:22</time>
      </trkpt>
      <trkpt lat="45.31176" lon="5.85598">
        <ele>1971</ele>
        <time>2025-07-12T10:03:24</time>
      </trkpt>
      <trkpt lat="45.31176" lon="5.85598">
        <ele>1971</ele>
        <time>2025-07-12T10:03:25</time>
      </trkpt>
      <trkpt lat="45.31176" lon="5.85598">
        <ele>1971</ele>
        <time>2025-07-12T10:03:27</time>
      </trkpt>
      <trkpt lat="45.31176" lon="5.85598">
        <ele>1971</ele>
        <time>2025-07-12T10:03:28</time>
      </trkpt>
      <trkpt lat="45.31169" lon="5.85594">
        <ele>1971.9667</ele>
        <time>2025-07-12T10:03:29</time>
      </trkpt>
      <trkpt lat="45.31167" lon="5.85593">
        <ele>1971.9667</ele>
        <time>2025-07-12T10:03:30</time>
      </trkpt>
      <trkpt lat="45.31166" lon="5.85592">
        <ele>1971.9667</ele>
        <time>2025-07-12T10:03:30</time>
      </trkpt>
      <trkpt lat="45.31166" lon="5.85592">
        <ele>1971.9667</ele>
        <time>2025-07-12T10:03:31</time>
      </trkpt>
      <trkpt lat="45.31165" lon="5.85591">
        <ele>1971.9667</ele>
        <time>2025-07-12T10:03:33</time>
      </trkpt>
      <trkpt lat="45.31165" lon="5.85591">
        <ele>1971.9667</ele>
        <time>2025-07-12T10:03:35</time>
      </trkpt>
      <trkpt lat="45.31158" lon="5.85589">
        <ele>1973.7</ele>
        <time>2025-07-12T10:03:45</time>
      </trkpt>
      <trkpt lat="45.31155" lon="5.85588">
        <ele>1973.7</ele>
        <time>2025-07-12T10:03:46</time>
      </trkpt>
      <trkpt lat="45.31155" lon="5.85587">
        <ele>1973.7</ele>
        <time>2025-07-12T10:03:47</time>
      </trkpt>
      <trkpt lat="45.31154" lon="5.85587">
        <ele>1973.7</ele>
        <time>2025-07-12T10:03:48</time>
      </trkpt>
      <trkpt lat="45.31153" lon="5.85587">
        <ele>1973.7</ele>
        <time>2025-07-12T10:03:49</time>
      </trkpt>
      <trkpt lat="45.31153" lon="5.85587">
        <ele>1975.3</ele>
        <time>2025-07-12T10:03:52</time>
      </trkpt>
      <trkpt lat="45.31153" lon="5.85587">
        <ele>1975.3</ele>
        <time>2025-07-12T10:03:56</time>
      </trkpt>
      <trkpt lat="45.31153" lon="5.85587">
        <ele>1975.3</ele>
        <time>2025-07-12T10:03:56</time>
      </trkpt>
      <trkpt lat="45.31152" lon="5.85587">
        <ele>1975.3</ele>
        <time>2025-07-12T10:03:58</time>
      </trkpt>
      <trkpt lat="45.31147" lon="5.85584">
        <ele>1975.7</ele>
        <time>2025-07-12T10:03:59</time>
      </trkpt>
      <trkpt lat="45.31144" lon="5.85583">
        <ele>1975.7</ele>
        <time>2025-07-12T10:04:00</time>
      </trkpt>
      <trkpt lat="45.31143" lon="5.85583">
        <ele>1975.7</ele>
        <time>2025-07-12T10:04:01</time>
      </trkpt>
      <trkpt lat="45.31143" lon="5.85583">
        <ele>1975.7</ele>
        <time>2025-07-12T10:04:02</time>
      </trkpt>
      <trkpt lat="45.31142" lon="5.85583">
        <ele>1975.7</ele>
        <time>2025-07-12T10:04:03</time>
      </trkpt>
      <trkpt lat="45.31142" lon="5.85582">
        <ele>1975.5667</ele>
        <time>2025-07-12T10:04:07</time>
      </trkpt>
      <trkpt lat="45.31142" lon="5.85582">
        <ele>1975.5667</ele>
        <time>2025-07-12T10:04:08</time>
      </trkpt>
      <trkpt lat="45.31142" lon="5.85582">
        <ele>1975.5667</ele>
        <time>2025-07-12T10:04:13</time>
      </trkpt>
      <trkpt lat="45.31142" lon="5.85582">
        <ele>1975.5667</ele>
        <time>2025-07-12T10:04:14</time>
      </trkpt>
      <trkpt lat="45.31142" lon="5.85582">
        <ele>1975.5667</ele>
        <time>2025-07-12T10:04:14</time>
      </trkpt>
      <trkpt lat="45.31142" lon="5.85582">
        <ele>1975.6</ele>
        <time>2025-07-12T10:04:15</time>
      </trkpt>
      <trkpt lat="45.31141" lon="5.85582">
        <ele>1975.6</ele>
        <time>2025-07-12T10:04:16</time>
      </trkpt>
      <trkpt lat="45.31134" lon="5.85585">
        <ele>1975.6</ele>
        <time>2025-07-12T10:04:17</time>
      </trkpt>
      <trkpt lat="45.31132" lon="5.85586">
        <ele>1975.6</ele>
        <time>2025-07-12T10:04:17</time>
      </trkpt>
      <trkpt lat="45.31132" lon="5.85587">
        <ele>1975.6</ele>
        <time>2025-07-12T10:04:18</time>
      </trkpt>
      <trkpt lat="45.31131" lon="5.85587">
        <ele>1975.6</ele>
        <time>2025-07-12T10:04:19</time>
      </trkpt>
      <trkpt lat="45.3113" lon="5.85586">
        <ele>1975.6</ele>
        <time>2025-07-12T10:04:20</time>
      </trkpt>
      <trkpt lat="45.3113" lon="5.85586">
        <ele>1975.6</ele>
        <time>2025-07-12T10:04:22</time>
      </trkpt>
      <trkpt lat="45.3113" lon="5.85586">
        <ele>1980.2</ele>
        <time>2025-07-12T10:04:24</time>
      </trkpt>
      <trkpt lat="45.3113" lon="5.85586">
        <ele>1980.2</ele>
        <time>2025-07-12T10:04:28</time>
      </trkpt>
      <trkpt lat="45.31123" lon="5.85583">
        <ele>1980.2</ele>
        <time>2025-07-12T10:04:32</time>
      </trkpt>
      <trkpt lat="45.31121" lon="5.85582">
        <ele>1980.2</ele>
        <time>2025-07-12T10:04:32</time>
      </trkpt>
      <trkpt lat="45.3112" lon="5.85582">
        <ele>1980.2</ele>
        <time>2025-07-12T10:04:33</time>
      </trkpt>
      <trkpt lat="45.31119" lon="5.85581">
        <ele>1980.2</ele>
        <time>2025-07-12T10:04:37</time>
      </trkpt>
      <trkpt lat="45.31118" lon="5.85581">
        <ele>1982.2</ele>
        <time>2025-07-12T10:04:38</time>
      </trkpt>
      <trkpt lat="45.31118" lon="5.85581">
        <ele>1982.2</ele>
        <time>2025-07-12T10:04:39</time>
      </trkpt>
      <trkpt lat="45.31118" lon="5.85581">
        <ele>1982.2</ele>
        <time>2025-07-12T10:04:40</time>
      </trkpt>
      <trkpt lat="45.31118" lon="5.85581">
        <ele>1982.2</ele>
        <time>2025-07-12T10:04:42</time>
      </trkpt>
      <trkpt lat="45.31118" lon="5.85581">
        <ele>1983</ele>
        <time>2025-07-12T10:04:48</time>
      </trkpt>
      <trkpt lat="45.31118" lon="5.85581">
        <ele>1983</ele>
        <time>2025-07-12T10:04:49</time>
      </trkpt>
      <trkpt lat="45.3111" lon="5.8558">
        <ele>1983</ele>
        <time>2025-07-12T10:04:50</time>
      </trkpt>
      <trkpt lat="45.31109" lon="5.8558">
        <ele>1983</ele>
        <time>2025-07-12T10:04:51</time>
      </trkpt>
      <trkpt lat="45.31108" lon="5.8558">
        <ele>1983</ele>
        <time>2025-07-12T10:04:52</time>
      </trkpt>
      <trkpt lat="45.31108" lon="5.8558">
        <ele>1983</ele>
        <time>2025-07-12T10:04:53</time>
      </trkpt>
      <trkpt lat="45.31107" lon="5.8558">
        <ele>1983</ele>
        <time>2025-07-12T10:04:55</time>
      </trkpt>
      <trkpt lat="45.31107" lon="5.8558">
        <ele>1983</ele>
        <time>2025-07-12T10:04:56</time>
      </trkpt>
      <trkpt lat="45.31107" lon="5.8558">
        <ele>1983</ele>
        <time>2025-07-12T10:04:57</time>
      </trkpt>
      <trkpt lat="45.31107" lon="5.8558">
        <ele>1983</ele>
        <time>2025-07-12T10:04:58</time>
      </trkpt>
      <trkpt lat="45.31107" lon="5.8558">
        <ele>1983</ele>
        <time>2025-07-12T10:04:59</time>
      </trkpt>
      <trkpt lat="45.31107" lon="5.8558">
        <ele>1983.9</ele>
        <time>2025-07-12T10:05:01</time>
      </trkpt>
      <trkpt lat="45.31107" lon="5.8558">
        <ele>1983.9</ele>
        <time>2025-07-12T10:05:05</time>
      </trkpt>
      <trkpt lat="45.31107" lon="5.8558">
        <ele>1983.9</ele>
        <time>2025-07-12T10:05:06</time>
      </trkpt>
      <trkpt lat="45.31102" lon="5.85583">
        <ele>1983.9</ele>
        <time>2025-07-12T10:05:06</time>
      </trkpt>
      <trkpt lat="45.31098" lon="5.85584">
        <ele>1983.9</ele>
        <time>2025-07-12T10:05:09</time>
      </trkpt>
      <trkpt lat="45.31097" lon="5.85584">
        <ele>1983.9</ele>
        <time>2025-07-12T10:05:10</time>
      </trkpt>
      <trkpt lat="45.31097" lon="5.85584">
        <ele>1983.9</ele>
        <time>2025-07-12T10:05:11</time>
      </trkpt>
      <trkpt lat="45.31097" lon="5.85584">
        <ele>1983.9</ele>
        <time>2025-07-12T10:05:12</time>
      </trkpt>
      <trkpt lat="45.31097" lon="5.85584">
        <ele>1983.9</ele>
        <time>2025-07-12T10:05:13</time>
      </trkpt>
      <trkpt lat="45.31097" lon="5.85584">
        <ele>1983.9</ele>
        <time>2025-07-12T10:05:14</time>
      </trkpt>
      <trkpt lat="45.31096" lon="5.85584">
        <ele>1983.9</ele>
        <time>2025-07-12T10:05:16</time>
      </trkpt>
      <trkpt lat="45.31096" lon="5.85584">
        <ele>1983.9</ele>
        <time>2025-07-12T10:05:17</time>
      </trkpt>
      <trkpt lat="45.31096" lon="5.85584">
        <ele>1985.4</ele>
        <time>2025-07-12T10:05:17</time>
      </trkpt>
      <trkpt lat="45.31096" lon="5.85584">
        <ele>1985.4</ele>
        <time>2025-07-12T10:05:18</time>
      </trkpt>
      <trkpt lat="45.31096" lon="5.85584">
        <ele>1985.4</ele>
        <time>2025-07-12T10:05:19</time>
      </trkpt>
      <trkpt lat="45.31096" lon="5.85584">
        <ele>1985.4</ele>
        <time>2025-07-12T10:05:20</time>
      </trkpt>
      <trkpt lat="45.31096" lon="5.85584">
        <ele>1985.4</ele>
        <time>2025-07-12T10:05:22</time>
      </trkpt>
      <trkpt lat="45.31096" lon="5.85584">
        <ele>1985.4</ele>
        <time>2025-07-12T10:05:24</time>
      </trkpt>
      <trkpt lat="45.31091" lon="5.85584">
        <ele>1985.4</ele>
        <time>2025-07-12T10:05:27</time>
      </trkpt>
      <trkpt lat="45.31089" lon="5.85584">
        <ele>1985.4</ele>
        <time>2025-07-12T10:05:28</time>
      </trkpt>
      <trkpt lat="45.31086" lon="5.85584">
        <ele>1985.4</ele>
        <time>2025-07-12T10:05:30</time>
      </trkpt>
      <trkpt lat="45.31086" lon="5.85584">
        <ele>1985.4</ele>
        <time>2025-07-12T10:05:30</time>
      </trkpt>
      <trkpt lat="45.31086" lon="5.85584">
        <ele>1985.4</ele>
        <time>2025-07-12T10:05:31</time>
      </trkpt>
      <trkpt lat="45.31086" lon="5.85584">
        <ele>1985.4</ele>
        <time>2025-07-12T10:05:33</time>
      </trkpt>
      <trkpt lat="45.31086" lon="5.85584">
        <ele>1987.9</ele>
        <time>2025-07-12T10:05:33</time>
      </trkpt>
      <trkpt lat="45.31086" lon="5.85584">
        <ele>1987.9</ele>
        <time>2025-07-12T10:05:34</time>
      </trkpt>
      <trkpt lat="45.31086" lon="5.85584">
        <ele>1987.9</ele>
        <time>2025-07-12T10:05:35</time>
      </trkpt>
      <trkpt lat="45.31086" lon="5.85584">
        <ele>1987.9</ele>
        <time>2025-07-12T10:05:36</time>
      </trkpt>
      <trkpt lat="45.31086" lon="5.85584">
        <ele>1987.9</ele>
        <time>2025-07-12T10:05:38</time>
      </trkpt>
      <trkpt lat="45.31086" lon="5.85584">
        <ele>1987.9</ele>
        <time>2025-07-12T10:05:39</time>
      </trkpt>
      <trkpt lat="45.31086" lon="5.85584">
        <ele>1987.9</ele>
        <time>2025-07-12T10:05:41</time>
      </trkpt>
      <trkpt lat="45.31086" lon="5.85584">
        <ele>1988.1</ele>
        <time>2025-07-12T10:05:42</time>
      </trkpt>
      <trkpt lat="45.31086" lon="5.85584">
        <ele>1988.1</ele>
        <time>2025-07-12T10:05:44</time>
      </trkpt>
      <trkpt lat="45.3108" lon="5.85583">
        <ele>1988.1</ele>
        <time>2025-07-12T10:05:44</time>
      </trkpt>
      <trkpt lat="45.31077" lon="5.85583">
        <ele>1988.1</ele>
        <time>2025-07-12T10:05:45</time>
      </trkpt>
      <trkpt lat="45.31076" lon="5.85583">
        <ele>1988.1</ele>
        <time>2025-07-12T10:05:46</time>
      </trkpt>
      <trkpt lat="45.31075" lon="5.85583">
        <ele>1988.1</ele>
        <time>2025-07-12T10:05:47</time>
      </trkpt>
      <trkpt lat="45.31075" lon="5.85583">
        <ele>1988.1</ele>
        <time>2025-07-12T10:05:48</time>
      </trkpt>
      <trkpt lat="45.31075" lon="5.85583">
        <ele>1988.1</ele>
        <time>2025-07-12T10:05:49</time>
      </trkpt>
      <trkpt lat="45.31074" lon="5.85583">
        <ele>1988.1</ele>
        <time>2025-07-12T10:05:50</time>
      </trkpt>
      <trkpt lat="45.31074" lon="5.85583">
        <ele>1988.1</ele>
        <time>2025-07-12T10:05:50</time>
      </trkpt>
      <trkpt lat="45.31074" lon="5.85583">
        <ele>1988.1</ele>
        <time>2025-07-12T10:05:51</time>
      </trkpt>
      <trkpt lat="45.31074" lon="5.85583">
        <ele>1988.1</ele>
        <time>2025-07-12T10:05:52</time>
      </trkpt>
      <trkpt lat="45.31074" lon="5.85583">
        <ele>1988.1</ele>
        <time>2025-07-12T10:05:53</time>
      </trkpt>
      <trkpt lat="45.31074" lon="5.85583">
        <ele>1988.1</ele>
        <time>2025-07-12T10:05:55</time>
      </trkpt>
      <trkpt lat="45.31074" lon="5.85583">
        <ele>1988.1</ele>
        <time>2025-07-12T10:05:56</time>
      </trkpt>
      <trkpt lat="45.31074" lon="5.85583">
        <ele>1988.1</ele>
        <time>2025-07-12T10:05:56</time>
      </trkpt>
      <trkpt lat="45.31074" lon="5.85583">
        <ele>1990.8</ele>
        <time>2025-07-12T10:05:59</time>
      </trkpt>
      <trkpt lat="45.31074" lon="5.85583">
        <ele>1990.8</ele>
        <time>2025-07-12T10:06:01</time>
      </trkpt>
      <trkpt lat="45.31074" lon="5.85583">
        <ele>1990.8</ele>
        <time>2025-07-12T10:06:02</time>
      </trkpt>
      <trkpt lat="45.31074" lon="5.85583">
        <ele>1990.8</ele>
        <time>2025-07-12T10:06:03</time>
      </trkpt>
      <trkpt lat="45.31074" lon="5.85582">
        <ele>1990.8</ele>
        <time>2025-07-12T10:06:05</time>
      </trkpt>
      <trkpt lat="45.31074" lon="5.85582">
        <ele>1990.8</ele>
        <time>2025-07-12T10:06:06</time>
      </trkpt>
      <trkpt lat="45.31074" lon="5.85582">
        <ele>1990.8</ele>
        <time>2025-07-12T10:06:07</time>
      </trkpt>
      <trkpt lat="45.31068" lon="5.85582">
        <ele>1990.8</ele>
        <time>2025-07-12T10:06:08</time>
      </trkpt>
      <trkpt lat="45.31065" lon="5.85582">
        <ele>1990.8</ele>
        <time>2025-07-12T10:06:09</time>
      </trkpt>
      <trkpt lat="45.31065" lon="5.85582">
        <ele>1990.8</ele>
        <time>2025-07-12T10:06:10</time>
      </trkpt>
      <trkpt lat="45.31064" lon="5.85582">
        <ele>1990.8</ele>
        <time>2025-07-12T10:06:12</time>
      </trkpt>
      <trkpt lat="45.31064" lon="5.85582">
        <ele>1990.8</ele>
        <time>2025-07-12T10:06:13</time>
      </trkpt>
      <trkpt lat="45.31064" lon="5.85582">
        <ele>1990.8</ele>
        <time>2025-07-12T10:06:15</time>
      </trkpt>
      <trkpt lat="45.31064" lon="5.85582">
        <ele>1990.8</ele>
        <time>2025-07-12T10:06:16</time>
      </trkpt>
      <trkpt lat="45.31064" lon="5.85582">
        <ele>1994.6333</ele>
        <time>2025-07-12T10:06:17</time>
      </trkpt>
      <trkpt lat="45.31064" lon="5.85582">
        <ele>1994.6333</ele>
        <time>2025-07-12T10:06:18</time>
      </trkpt>
      <trkpt lat="45.31064" lon="5.85582">
        <ele>1994.6333</ele>
        <time>2025-07-12T10:06:19</time>
      </trkpt>
      <trkpt lat="45.31063" lon="5.85581">
        <ele>1994.6333</ele>
        <time>2025-07-12T10:06:20</time>
      </trkpt>
      <trkpt lat="45.31063" lon="5.85581">
        <ele>1994.6333</ele>
        <time>2025-07-12T10:06:21</time>
      </trkpt>
      <trkpt lat="45.31061" lon="5.85581">
        <ele>1994.6333</ele>
        <time>2025-07-12T10:06:22</time>
      </trkpt>
      <trkpt lat="45.3106" lon="5.85581">
        <ele>1994.6333</ele>
        <time>2025-07-12T10:06:22</time>
      </trkpt>
      <trkpt lat="45.31059" lon="5.85582">
        <ele>1994.6333</ele>
        <time>2025-07-12T10:06:23</time>
      </trkpt>
      <trkpt lat="45.31058" lon="5.85581">
        <ele>1994.6333</ele>
        <time>2025-07-12T10:06:24</time>
      </trkpt>
      <trkpt lat="45.31057" lon="5.8558">
        <ele>1996.0333</ele>
        <time>2025-07-12T10:06:26</time>
      </trkpt>
      <trkpt lat="45.31057" lon="5.85579">
        <ele>1996.0333</ele>
        <time>2025-07-12T10:06:27</time>
      </trkpt>
      <trkpt lat="45.31056" lon="5.85579">
        <ele>1996.0333</ele>
        <time>2025-07-12T10:06:28</time>
      </trkpt>
      <trkpt lat="45.31056" lon="5.85579">
        <ele>1996.0333</ele>
        <time>2025-07-12T10:06:28</time>
      </trkpt>
      <trkpt lat="45.31056" lon="5.85579">
        <ele>1996.0333</ele>
        <time>2025-07-12T10:06:29</time>
      </trkpt>
      <trkpt lat="45.31056" lon="5.85579">
        <ele>1996.0333</ele>
        <time>2025-07-12T10:06:30</time>
      </trkpt>
      <trkpt lat="45.31056" lon="5.85579">
        <ele>1996.0333</ele>
        <time>2025-07-12T10:06:30</time>
      </trkpt>
      <trkpt lat="45.31056" lon="5.85579">
        <ele>1996.0333</ele>
        <time>2025-07-12T10:06:31</time>
      </trkpt>
      <trkpt lat="45.31056" lon="5.85579">
        <ele>1996.5</ele>
        <time>2025-07-12T10:06:32</time>
      </trkpt>
      <trkpt lat="45.31056" lon="5.85579">
        <ele>1996.5</ele>
        <time>2025-07-12T10:06:33</time>
      </trkpt>
      <trkpt lat="45.31056" lon="5.85579">
        <ele>1996.5</ele>
        <time>2025-07-12T10:06:34</time>
      </trkpt>
      <trkpt lat="45.31056" lon="5.85579">
        <ele>1996.5</ele>
        <time>2025-07-12T10:06:34</time>
      </trkpt>
      <trkpt lat="45.31056" lon="5.85579">
        <ele>1996.5</ele>
        <time>2025-07-12T10:06:36</time>
      </trkpt>
      <trkpt lat="45.31056" lon="5.85579">
        <ele>1996.5</ele>
        <time>2025-07-12T10:06:37</time>
      </trkpt>
      <trkpt lat="45.31056" lon="5.85579">
        <ele>1996.5</ele>
        <time>2025-07-12T10:06:39</time>
      </trkpt>
      <trkpt lat="45.31056" lon="5.85579">
        <ele>1996.5</ele>
        <time>2025-07-12T10:06:39</time>
      </trkpt>
      <trkpt lat="45.3105" lon="5.8558">
        <ele>1996.5</ele>
        <time>2025-07-12T10:06:42</time>
      </trkpt>
      <trkpt lat="45.31046" lon="5.8558">
        <ele>1996.5</ele>
        <time>2025-07-12T10:06:43</time>
      </trkpt>
      <trkpt lat="45.31045" lon="5.8558">
        <ele>1996.5</ele>
        <time>2025-07-12T10:06:44</time>
      </trkpt>
      <trkpt lat="45.31041" lon="5.85579">
        <ele>1996.5</ele>
        <time>2025-07-12T10:06:46</time>
      </trkpt>
      <trkpt lat="45.31039" lon="5.85579">
        <ele>1999</ele>
        <time>2025-07-12T10:06:48</time>
      </trkpt>
      <trkpt lat="45.31038" lon="5.85579">
        <ele>1999</ele>
        <time>2025-07-12T10:06:49</time>
      </trkpt>
      <trkpt lat="45.31037" lon="5.85577">
        <ele>1999</ele>
        <time>2025-07-12T10:06:50</time>
      </trkpt>
      <trkpt lat="45.31035" lon="5.85574">
        <ele>2000.3</ele>
        <time>2025-07-12T10:06:55</time>
      </trkpt>
      <trkpt lat="45.31034" lon="5.85572">
        <ele>2000.3</ele>
        <time>2025-07-12T10:06:58</time>
      </trkpt>
      <trkpt lat="45.31033" lon="5.8557">
        <ele>2000.3</ele>
        <time>2025-07-12T10:07:00</time>
      </trkpt>
      <trkpt lat="45.31032" lon="5.8557">
        <ele>2000.3</ele>
        <time>2025-07-12T10:07:00</time>
      </trkpt>
      <trkpt lat="45.31029" lon="5.85568">
        <ele>2000.3</ele>
        <time>2025-07-12T10:07:03</time>
      </trkpt>
      <trkpt lat="45.31029" lon="5.85568">
        <ele>2000.3</ele>
        <time>2025-07-12T10:07:04</time>
      </trkpt>
      <trkpt lat="45.31028" lon="5.85567">
        <ele>2000.3</ele>
        <time>2025-07-12T10:07:05</time>
      </trkpt>
      <trkpt lat="45.31028" lon="5.85567">
        <ele>2000.3</ele>
        <time>2025-07-12T10:07:08</time>
      </trkpt>
      <trkpt lat="45.31028" lon="5.85566">
        <ele>2000.3</ele>
        <time>2025-07-12T10:07:09</time>
      </trkpt>
      <trkpt lat="45.31028" lon="5.85567">
        <ele>1999.6</ele>
        <time>2025-07-12T10:07:12</time>
      </trkpt>
      <trkpt lat="45.31028" lon="5.85567">
        <ele>1999.6</ele>
        <time>2025-07-12T10:07:13</time>
      </trkpt>
      <trkpt lat="45.31028" lon="5.85567">
        <ele>1999.6</ele>
        <time>2025-07-12T10:07:14</time>
      </trkpt>
      <trkpt lat="45.31028" lon="5.85567">
        <ele>1999.6</ele>
        <time>2025-07-12T10:07:15</time>
      </trkpt>
      <trkpt lat="45.31028" lon="5.85567">
        <ele>1999.6</ele>
        <time>2025-07-12T10:07:15</time>
      </trkpt>
      <trkpt lat="45.31028" lon="5.85567">
        <ele>1999.6</ele>
        <time>2025-07-12T10:07:18</time>
      </trkpt>
      <trkpt lat="45.31022" lon="5.85563">
        <ele>1999.6</ele>
        <time>2025-07-12T10:07:19</time>
      </trkpt>
      <trkpt lat="45.31019" lon="5.85562">
        <ele>1999.6</ele>
        <time>2025-07-12T10:07:20</time>
      </trkpt>
      <trkpt lat="45.31019" lon="5.85562">
        <ele>1999.6</ele>
        <time>2025-07-12T10:07:21</time>
      </trkpt>
      <trkpt lat="45.31018" lon="5.85562">
        <ele>1999.6</ele>
        <time>2025-07-12T10:07:22</time>
      </trkpt>
      <trkpt lat="45.31017" lon="5.85563">
        <ele>1999.6</ele>
        <time>2025-07-12T10:07:24</time>
      </trkpt>
      <trkpt lat="45.31017" lon="5.85562">
        <ele>2000.2</ele>
        <time>2025-07-12T10:07:28</time>
      </trkpt>
      <trkpt lat="45.31017" lon="5.85563">
        <ele>2001.4</ele>
        <time>2025-07-12T10:07:33</time>
      </trkpt>
      <trkpt lat="45.31016" lon="5.85563">
        <ele>2001.4</ele>
        <time>2025-07-12T10:07:34</time>
      </trkpt>
      <trkpt lat="45.31009" lon="5.8556">
        <ele>2001.4</ele>
        <time>2025-07-12T10:07:35</time>
      </trkpt>
      <trkpt lat="45.31008" lon="5.85559">
        <ele>2001.4</ele>
        <time>2025-07-12T10:07:36</time>
      </trkpt>
      <trkpt lat="45.31007" lon="5.85559">
        <ele>2001.4</ele>
        <time>2025-07-12T10:07:37</time>
      </trkpt>
      <trkpt lat="45.31006" lon="5.85559">
        <ele>2001.4</ele>
        <time>2025-07-12T10:07:38</time>
      </trkpt>
      <trkpt lat="45.31006" lon="5.85559">
        <ele>2001.4</ele>
        <time>2025-07-12T10:07:39</time>
      </trkpt>
      <trkpt lat="45.31006" lon="5.85559">
        <ele>2002.4</ele>
        <time>2025-07-12T10:07:50</time>
      </trkpt>
      <trkpt lat="45.31006" lon="5.85559">
        <ele>2002.4</ele>
        <time>2025-07-12T10:07:51</time>
      </trkpt>
      <trkpt lat="45.31" lon="5.85559">
        <ele>2002.4</ele>
        <time>2025-07-12T10:07:52</time>
      </trkpt>
      <trkpt lat="45.30998" lon="5.85558">
        <ele>2002.4</ele>
        <time>2025-07-12T10:07:53</time>
      </trkpt>
      <trkpt lat="45.30996" lon="5.85558">
        <ele>2002.4</ele>
        <time>2025-07-12T10:07:54</time>
      </trkpt>
      <trkpt lat="45.30995" lon="5.85559">
        <ele>2006.4</ele>
        <time>2025-07-12T10:08:06</time>
      </trkpt>
      <trkpt lat="45.30995" lon="5.85559">
        <ele>2006.4</ele>
        <time>2025-07-12T10:08:08</time>
      </trkpt>
      <trkpt lat="45.30989" lon="5.85559">
        <ele>2006.4</ele>
        <time>2025-07-12T10:08:11</time>
      </trkpt>
      <trkpt lat="45.30987" lon="5.85559">
        <ele>2006.4</ele>
        <time>2025-07-12T10:08:12</time>
      </trkpt>
      <trkpt lat="45.30985" lon="5.85558">
        <ele>2006.4</ele>
        <time>2025-07-12T10:08:14</time>
      </trkpt>
      <trkpt lat="45.30984" lon="5.85558">
        <ele>2006.4</ele>
        <time>2025-07-12T10:08:15</time>
      </trkpt>
      <trkpt lat="45.30984" lon="5.85558">
        <ele>2006.4</ele>
        <time>2025-07-12T10:08:15</time>
      </trkpt>
      <trkpt lat="45.30984" lon="5.85558">
        <ele>2006.4</ele>
        <time>2025-07-12T10:08:17</time>
      </trkpt>
      <trkpt lat="45.30984" lon="5.85558">
        <ele>2006.4</ele>
        <time>2025-07-12T10:08:18</time>
      </trkpt>
      <trkpt lat="45.30984" lon="5.85558">
        <ele>2010.1</ele>
        <time>2025-07-12T10:08:26</time>
      </trkpt>
      <trkpt lat="45.30984" lon="5.85558">
        <ele>2010.1</ele>
        <time>2025-07-12T10:08:28</time>
      </trkpt>
      <trkpt lat="45.30984" lon="5.85558">
        <ele>2010.1</ele>
        <time>2025-07-12T10:08:29</time>
      </trkpt>
      <trkpt lat="45.30978" lon="5.85555">
        <ele>2010.1</ele>
        <time>2025-07-12T10:08:31</time>
      </trkpt>
      <trkpt lat="45.30976" lon="5.85553">
        <ele>2010.1</ele>
        <time>2025-07-12T10:08:32</time>
      </trkpt>
      <trkpt lat="45.30975" lon="5.85552">
        <ele>2010.1</ele>
        <time>2025-07-12T10:08:34</time>
      </trkpt>
      <trkpt lat="45.30974" lon="5.85552">
        <ele>2010.1</ele>
        <time>2025-07-12T10:08:38</time>
      </trkpt>
      <trkpt lat="45.30974" lon="5.85552">
        <ele>2010.1</ele>
        <time>2025-07-12T10:08:39</time>
      </trkpt>
      <trkpt lat="45.30974" lon="5.85552">
        <ele>2010.1</ele>
        <time>2025-07-12T10:08:42</time>
      </trkpt>
      <trkpt lat="45.30974" lon="5.85551">
        <ele>2015</ele>
        <time>2025-07-12T10:08:47</time>
      </trkpt>
      <trkpt lat="45.30974" lon="5.85551">
        <ele>2015</ele>
        <time>2025-07-12T10:08:48</time>
      </trkpt>
      <trkpt lat="45.30974" lon="5.85552">
        <ele>2015</ele>
        <time>2025-07-12T10:08:50</time>
      </trkpt>
      <trkpt lat="45.30974" lon="5.85552">
        <ele>2015</ele>
        <time>2025-07-12T10:08:51</time>
      </trkpt>
      <trkpt lat="45.30974" lon="5.85552">
        <ele>2015</ele>
        <time>2025-07-12T10:08:52</time>
      </trkpt>
      <trkpt lat="45.30974" lon="5.85552">
        <ele>2015</ele>
        <time>2025-07-12T10:08:53</time>
      </trkpt>
      <trkpt lat="45.30966" lon="5.85549">
        <ele>2015</ele>
        <time>2025-07-12T10:08:54</time>
      </trkpt>
      <trkpt lat="45.30965" lon="5.85549">
        <ele>2015</ele>
        <time>2025-07-12T10:08:55</time>
      </trkpt>
      <trkpt lat="45.30964" lon="5.85549">
        <ele>2015</ele>
        <time>2025-07-12T10:08:56</time>
      </trkpt>
      <trkpt lat="45.30964" lon="5.85549">
        <ele>2015</ele>
        <time>2025-07-12T10:09:02</time>
      </trkpt>
      <trkpt lat="45.30964" lon="5.85549">
        <ele>2015</ele>
        <time>2025-07-12T10:09:03</time>
      </trkpt>
      <trkpt lat="45.30963" lon="5.85549">
        <ele>2017.9</ele>
        <time>2025-07-12T10:09:04</time>
      </trkpt>
      <trkpt lat="45.30963" lon="5.85549">
        <ele>2017.9</ele>
        <time>2025-07-12T10:09:05</time>
      </trkpt>
      <trkpt lat="45.30963" lon="5.85549">
        <ele>2017.9</ele>
        <time>2025-07-12T10:09:07</time>
      </trkpt>
      <trkpt lat="45.30963" lon="5.85549">
        <ele>2017.9</ele>
        <time>2025-07-12T10:09:14</time>
      </trkpt>
      <trkpt lat="45.30963" lon="5.85549">
        <ele>2017.9</ele>
        <time>2025-07-12T10:09:15</time>
      </trkpt>
      <trkpt lat="45.30963" lon="5.85549">
        <ele>2017.9</ele>
        <time>2025-07-12T10:09:16</time>
      </trkpt>
      <trkpt lat="45.30963" lon="5.85549">
        <ele>2017.9</ele>
        <time>2025-07-12T10:09:17</time>
      </trkpt>
      <trkpt lat="45.30956" lon="5.85553">
        <ele>2017.9</ele>
        <time>2025-07-12T10:09:18</time>
      </trkpt>
      <trkpt lat="45.30955" lon="5.85553">
        <ele>2017.9</ele>
        <time>2025-07-12T10:09:19</time>
      </trkpt>
      <trkpt lat="45.30954" lon="5.85553">
        <ele>2017.9</ele>
        <time>2025-07-12T10:09:19</time>
      </trkpt>
      <trkpt lat="45.30954" lon="5.85553">
        <ele>2017.9</ele>
        <time>2025-07-12T10:09:20</time>
      </trkpt>
      <trkpt lat="45.30954" lon="5.85553">
        <ele>2017.9</ele>
        <time>2025-07-12T10:09:22</time>
      </trkpt>
      <trkpt lat="45.30954" lon="5.85553">
        <ele>2017.9</ele>
        <time>2025-07-12T10:09:23</time>
      </trkpt>
      <trkpt lat="45.30954" lon="5.85553">
        <ele>2017.9</ele>
        <time>2025-07-12T10:09:23</time>
      </trkpt>
      <trkpt lat="45.30954" lon="5.85553">
        <ele>2017.9</ele>
        <time>2025-07-12T10:09:24</time>
      </trkpt>
      <trkpt lat="45.30953" lon="5.85553">
        <ele>2017.9</ele>
        <time>2025-07-12T10:09:25</time>
      </trkpt>
      <trkpt lat="45.30953" lon="5.85554">
        <ele>2017.9</ele>
        <time>2025-07-12T10:09:26</time>
      </trkpt>
      <trkpt lat="45.30953" lon="5.85553">
        <ele>2017.9</ele>
        <time>2025-07-12T10:09:27</time>
      </trkpt>
      <trkpt lat="45.30954" lon="5.85553">
        <ele>2017.9</ele>
        <time>2025-07-12T10:09:28</time>
      </trkpt>
      <trkpt lat="45.30954" lon="5.85553">
        <ele>2019.5</ele>
        <time>2025-07-12T10:09:29</time>
      </trkpt>
      <trkpt lat="45.30954" lon="5.85553">
        <ele>2019.5</ele>
        <time>2025-07-12T10:09:33</time>
      </trkpt>
      <trkpt lat="45.30954" lon="5.85553">
        <ele>2019.5</ele>
        <time>2025-07-12T10:09:34</time>
      </trkpt>
      <trkpt lat="45.30946" lon="5.85556">
        <ele>2019.5</ele>
        <time>2025-07-12T10:09:35</time>
      </trkpt>
      <trkpt lat="45.30945" lon="5.85556">
        <ele>2019.5</ele>
        <time>2025-07-12T10:09:36</time>
      </trkpt>
      <trkpt lat="45.30944" lon="5.85557">
        <ele>2019.5</ele>
        <time>2025-07-12T10:09:40</time>
      </trkpt>
      <trkpt lat="45.30943" lon="5.85557">
        <ele>2019.5</ele>
        <time>2025-07-12T10:09:42</time>
      </trkpt>
      <trkpt lat="45.30943" lon="5.85558">
        <ele>2023.8</ele>
        <time>2025-07-12T10:09:45</time>
      </trkpt>
      <trkpt lat="45.30943" lon="5.85558">
        <ele>2023.8</ele>
        <time>2025-07-12T10:09:47</time>
      </trkpt>
      <trkpt lat="45.30943" lon="5.85558">
        <ele>2023.8</ele>
        <time>2025-07-12T10:09:48</time>
      </trkpt>
      <trkpt lat="45.30943" lon="5.85558">
        <ele>2023.8</ele>
        <time>2025-07-12T10:09:49</time>
      </trkpt>
      <trkpt lat="45.30943" lon="5.85557">
        <ele>2023.8</ele>
        <time>2025-07-12T10:09:52</time>
      </trkpt>
      <trkpt lat="45.30937" lon="5.85558">
        <ele>2023.9</ele>
        <time>2025-07-12T10:09:53</time>
      </trkpt>
      <trkpt lat="45.30935" lon="5.85559">
        <ele>2023.9</ele>
        <time>2025-07-12T10:09:54</time>
      </trkpt>
      <trkpt lat="45.30934" lon="5.85559">
        <ele>2023.9</ele>
        <time>2025-07-12T10:09:55</time>
      </trkpt>
      <trkpt lat="45.30934" lon="5.85559">
        <ele>2023.9</ele>
        <time>2025-07-12T10:10:00</time>
      </trkpt>
      <trkpt lat="45.30934" lon="5.8556">
        <ele>2023.9</ele>
        <time>2025-07-12T10:10:02</time>
      </trkpt>
      <trkpt lat="45.30934" lon="5.8556">
        <ele>2026.4</ele>
        <time>2025-07-12T10:10:03</time>
      </trkpt>
      <trkpt lat="45.30934" lon="5.8556">
        <ele>2026.4</ele>
        <time>2025-07-12T10:10:04</time>
      </trkpt>
      <trkpt lat="45.30934" lon="5.8556">
        <ele>2026.4</ele>
        <time>2025-07-12T10:10:07</time>
      </trkpt>
      <trkpt lat="45.30934" lon="5.8556">
        <ele>2026.4</ele>
        <time>2025-07-12T10:10:07</time>
      </trkpt>
      <trkpt lat="45.30934" lon="5.8556">
        <ele>2026.4</ele>
        <time>2025-07-12T10:10:10</time>
      </trkpt>
      <trkpt lat="45.30934" lon="5.8556">
        <ele>2026.4</ele>
        <time>2025-07-12T10:10:11</time>
      </trkpt>
      <trkpt lat="45.30934" lon="5.8556">
        <ele>2026.4</ele>
        <time>2025-07-12T10:10:12</time>
      </trkpt>
      <trkpt lat="45.30934" lon="5.8556">
        <ele>2026.4</ele>
        <time>2025-07-12T10:10:13</time>
      </trkpt>
      <trkpt lat="45.30934" lon="5.8556">
        <ele>2026.4</ele>
        <time>2025-07-12T10:10:14</time>
      </trkpt>
      <trkpt lat="45.30934" lon="5.8556">
        <ele>2026.4</ele>
        <time>2025-07-12T10:10:16</time>
      </trkpt>
      <trkpt lat="45.30934" lon="5.8556">
        <ele>2026.4</ele>
        <time>2025-07-12T10:10:17</time>
      </trkpt>
      <trkpt lat="45.30934" lon="5.8556">
        <ele>2026.4</ele>
        <time>2025-07-12T10:10:17</time>
      </trkpt>
      <trkpt lat="45.30934" lon="5.8556">
        <ele>2026.4</ele>
        <time>2025-07-12T10:10:18</time>
      </trkpt>
      <trkpt lat="45.30934" lon="5.8556">
        <ele>2026.4</ele>
        <time>2025-07-12T10:10:19</time>
      </trkpt>
      <trkpt lat="45.30928" lon="5.85561">
        <ele>2026.4</ele>
        <time>2025-07-12T10:10:19</time>
      </trkpt>
      <trkpt lat="45.30925" lon="5.85562">
        <ele>2026.4</ele>
        <time>2025-07-12T10:10:20</time>
      </trkpt>
      <trkpt lat="45.30924" lon="5.85562">
        <ele>2026.4</ele>
        <time>2025-07-12T10:10:21</time>
      </trkpt>
      <trkpt lat="45.30924" lon="5.85562">
        <ele>2029.7</ele>
        <time>2025-07-12T10:10:27</time>
      </trkpt>
      <trkpt lat="45.30924" lon="5.85562">
        <ele>2029.7</ele>
        <time>2025-07-12T10:10:28</time>
      </trkpt>
      <trkpt lat="45.30924" lon="5.85562">
        <ele>2029.7</ele>
        <time>2025-07-12T10:10:29</time>
      </trkpt>
      <trkpt lat="45.30924" lon="5.85562">
        <ele>2029.7</ele>
        <time>2025-07-12T10:10:30</time>
      </trkpt>
      <trkpt lat="45.30924" lon="5.85563">
        <ele>2029.7</ele>
        <time>2025-07-12T10:10:32</time>
      </trkpt>
      <trkpt lat="45.30924" lon="5.85563">
        <ele>2029.7</ele>
        <time>2025-07-12T10:10:33</time>
      </trkpt>
      <trkpt lat="45.30924" lon="5.85562">
        <ele>2029.7</ele>
        <time>2025-07-12T10:10:34</time>
      </trkpt>
      <trkpt lat="45.30924" lon="5.85562">
        <ele>2029.7</ele>
        <time>2025-07-12T10:10:35</time>
      </trkpt>
      <trkpt lat="45.30924" lon="5.85563">
        <ele>2029.7</ele>
        <time>2025-07-12T10:10:36</time>
      </trkpt>
      <trkpt lat="45.30924" lon="5.85563">
        <ele>2029.7</ele>
        <time>2025-07-12T10:10:38</time>
      </trkpt>
      <trkpt lat="45.30924" lon="5.85563">
        <ele>2029.7</ele>
        <time>2025-07-12T10:10:40</time>
      </trkpt>
      <trkpt lat="45.30924" lon="5.85563">
        <ele>2029.7</ele>
        <time>2025-07-12T10:10:41</time>
      </trkpt>
      <trkpt lat="45.30924" lon="5.85563">
        <ele>2029.7</ele>
        <time>2025-07-12T10:10:41</time>
      </trkpt>
      <trkpt lat="45.30916" lon="5.85559">
        <ele>2029.7</ele>
        <time>2025-07-12T10:10:44</time>
      </trkpt>
      <trkpt lat="45.30915" lon="5.85559">
        <ele>2029.7</ele>
        <time>2025-07-12T10:10:45</time>
      </trkpt>
      <trkpt lat="45.30914" lon="5.85558">
        <ele>2029.7</ele>
        <time>2025-07-12T10:10:45</time>
      </trkpt>
      <trkpt lat="45.30913" lon="5.85558">
        <ele>2029.7</ele>
        <time>2025-07-12T10:10:48</time>
      </trkpt>
      <trkpt lat="45.30913" lon="5.85558">
        <ele>2029.7</ele>
        <time>2025-07-12T10:10:48</time>
      </trkpt>
      <trkpt lat="45.30913" lon="5.85558">
        <ele>2029.7</ele>
        <time>2025-07-12T10:10:49</time>
      </trkpt>
      <trkpt lat="45.30913" lon="5.85558">
        <ele>2029.7</ele>
        <time>2025-07-12T10:10:50</time>
      </trkpt>
      <trkpt lat="45.30913" lon="5.85558">
        <ele>2032.7</ele>
        <time>2025-07-12T10:10:50</time>
      </trkpt>
      <trkpt lat="45.30913" lon="5.85558">
        <ele>2032.7</ele>
        <time>2025-07-12T10:10:51</time>
      </trkpt>
      <trkpt lat="45.30913" lon="5.85558">
        <ele>2032.7</ele>
        <time>2025-07-12T10:10:52</time>
      </trkpt>
      <trkpt lat="45.30913" lon="5.85558">
        <ele>2032.7</ele>
        <time>2025-07-12T10:10:53</time>
      </trkpt>
      <trkpt lat="45.30913" lon="5.85558">
        <ele>2032.7</ele>
        <time>2025-07-12T10:10:56</time>
      </trkpt>
      <trkpt lat="45.30913" lon="5.85558">
        <ele>2032.7</ele>
        <time>2025-07-12T10:10:56</time>
      </trkpt>
      <trkpt lat="45.30913" lon="5.85558">
        <ele>2032.7</ele>
        <time>2025-07-12T10:10:57</time>
      </trkpt>
      <trkpt lat="45.30913" lon="5.85558">
        <ele>2032.7</ele>
        <time>2025-07-12T10:10:58</time>
      </trkpt>
      <trkpt lat="45.30912" lon="5.85558">
        <ele>2033.1</ele>
        <time>2025-07-12T10:10:59</time>
      </trkpt>
      <trkpt lat="45.30912" lon="5.85558">
        <ele>2033.1</ele>
        <time>2025-07-12T10:10:59</time>
      </trkpt>
      <trkpt lat="45.30912" lon="5.85558">
        <ele>2033.1</ele>
        <time>2025-07-12T10:11:00</time>
      </trkpt>
      <trkpt lat="45.30902" lon="5.85558">
        <ele>2033.1</ele>
        <time>2025-07-12T10:11:05</time>
      </trkpt>
      <trkpt lat="45.30902" lon="5.85558">
        <ele>2033.1</ele>
        <time>2025-07-12T10:11:06</time>
      </trkpt>
      <trkpt lat="45.30902" lon="5.85558">
        <ele>2033.1</ele>
        <time>2025-07-12T10:11:13</time>
      </trkpt>
      <trkpt lat="45.30902" lon="5.85558">
        <ele>2033.1</ele>
        <time>2025-07-12T10:11:14</time>
      </trkpt>
      <trkpt lat="45.30902" lon="5.85558">
        <ele>2037.9</ele>
        <time>2025-07-12T10:11:14</time>
      </trkpt>
      <trkpt lat="45.30902" lon="5.85558">
        <ele>2037.9</ele>
        <time>2025-07-12T10:11:16</time>
      </trkpt>
      <trkpt lat="45.30902" lon="5.85558">
        <ele>2037.9</ele>
        <time>2025-07-12T10:11:17</time>
      </trkpt>
      <trkpt lat="45.30902" lon="5.85558">
        <ele>2037.9</ele>
        <time>2025-07-12T10:11:18</time>
      </trkpt>
      <trkpt lat="45.30902" lon="5.85558">
        <ele>2037.9</ele>
        <time>2025-07-12T10:11:19</time>
      </trkpt>
      <trkpt lat="45.30902" lon="5.85558">
        <ele>2037.9</ele>
        <time>2025-07-12T10:11:20</time>
      </trkpt>
      <trkpt lat="45.30902" lon="5.85558">
        <ele>2037.9</ele>
        <time>2025-07-12T10:11:22</time>
      </trkpt>
      <trkpt lat="45.30895" lon="5.85554">
        <ele>2037.9</ele>
        <time>2025-07-12T10:11:24</time>
      </trkpt>
      <trkpt lat="45.30893" lon="5.85553">
        <ele>2037.9</ele>
        <time>2025-07-12T10:11:25</time>
      </trkpt>
      <trkpt lat="45.30892" lon="5.85552">
        <ele>2037.9</ele>
        <time>2025-07-12T10:11:26</time>
      </trkpt>
      <trkpt lat="45.30892" lon="5.85552">
        <ele>2037.9</ele>
        <time>2025-07-12T10:11:28</time>
      </trkpt>
      <trkpt lat="45.30892" lon="5.85552">
        <ele>2037.9</ele>
        <time>2025-07-12T10:11:30</time>
      </trkpt>
      <trkpt lat="45.30892" lon="5.85552">
        <ele>2037.9</ele>
        <time>2025-07-12T10:11:30</time>
      </trkpt>
      <trkpt lat="45.30892" lon="5.85552">
        <ele>2038.5</ele>
        <time>2025-07-12T10:11:32</time>
      </trkpt>
      <trkpt lat="45.30892" lon="5.85552">
        <ele>2038.5</ele>
        <time>2025-07-12T10:11:34</time>
      </trkpt>
      <trkpt lat="45.30892" lon="5.85552">
        <ele>2038.5</ele>
        <time>2025-07-12T10:11:35</time>
      </trkpt>
      <trkpt lat="45.30892" lon="5.85552">
        <ele>2038.5</ele>
        <time>2025-07-12T10:11:37</time>
      </trkpt>
      <trkpt lat="45.30892" lon="5.85552">
        <ele>2038.9</ele>
        <time>2025-07-12T10:11:39</time>
      </trkpt>
      <trkpt lat="45.30892" lon="5.85552">
        <ele>2038.9</ele>
        <time>2025-07-12T10:11:40</time>
      </trkpt>
      <trkpt lat="45.30892" lon="5.85552">
        <ele>2038.9</ele>
        <time>2025-07-12T10:11:42</time>
      </trkpt>
      <trkpt lat="45.30885" lon="5.85554">
        <ele>2038.9</ele>
        <time>2025-07-12T10:11:44</time>
      </trkpt>
      <trkpt lat="45.30883" lon="5.85554">
        <ele>2038.9</ele>
        <time>2025-07-12T10:11:45</time>
      </trkpt>
      <trkpt lat="45.30882" lon="5.85554">
        <ele>2038.9</ele>
        <time>2025-07-12T10:11:47</time>
      </trkpt>
      <trkpt lat="45.30882" lon="5.85554">
        <ele>2038.9</ele>
        <time>2025-07-12T10:11:49</time>
      </trkpt>
      <trkpt lat="45.30882" lon="5.85554">
        <ele>2038.9</ele>
        <time>2025-07-12T10:11:50</time>
      </trkpt>
      <trkpt lat="45.30882" lon="5.85554">
        <ele>2038.9</ele>
        <time>2025-07-12T10:11:51</time>
      </trkpt>
      <trkpt lat="45.30882" lon="5.85554">
        <ele>2038.9</ele>
        <time>2025-07-12T10:11:52</time>
      </trkpt>
      <trkpt lat="45.30882" lon="5.85555">
        <ele>2038.9</ele>
        <time>2025-07-12T10:11:53</time>
      </trkpt>
      <trkpt lat="45.30882" lon="5.85555">
        <ele>2038.9</ele>
        <time>2025-07-12T10:11:54</time>
      </trkpt>
      <trkpt lat="45.30882" lon="5.85554">
        <ele>2038.9</ele>
        <time>2025-07-12T10:11:55</time>
      </trkpt>
      <trkpt lat="45.30882" lon="5.85554">
        <ele>2044.4</ele>
        <time>2025-07-12T10:11:56</time>
      </trkpt>
      <trkpt lat="45.30882" lon="5.85554">
        <ele>2044.4</ele>
        <time>2025-07-12T10:11:59</time>
      </trkpt>
      <trkpt lat="45.30882" lon="5.85554">
        <ele>2044.4</ele>
        <time>2025-07-12T10:12:00</time>
      </trkpt>
      <trkpt lat="45.30882" lon="5.85554">
        <ele>2044.4</ele>
        <time>2025-07-12T10:12:04</time>
      </trkpt>
      <trkpt lat="45.30874" lon="5.85552">
        <ele>2044.4</ele>
        <time>2025-07-12T10:12:08</time>
      </trkpt>
      <trkpt lat="45.30873" lon="5.85551">
        <ele>2044.4</ele>
        <time>2025-07-12T10:12:09</time>
      </trkpt>
      <trkpt lat="45.30872" lon="5.85551">
        <ele>2044.4</ele>
        <time>2025-07-12T10:12:10</time>
      </trkpt>
      <trkpt lat="45.30872" lon="5.8555">
        <ele>2044.4</ele>
        <time>2025-07-12T10:12:11</time>
      </trkpt>
      <trkpt lat="45.30872" lon="5.8555">
        <ele>2044.4</ele>
        <time>2025-07-12T10:12:11</time>
      </trkpt>
      <trkpt lat="45.30872" lon="5.8555">
        <ele>2044.4</ele>
        <time>2025-07-12T10:12:12</time>
      </trkpt>
      <trkpt lat="45.30872" lon="5.8555">
        <ele>2048.6</ele>
        <time>2025-07-12T10:12:16</time>
      </trkpt>
      <trkpt lat="45.30872" lon="5.8555">
        <ele>2048.6</ele>
        <time>2025-07-12T10:12:17</time>
      </trkpt>
      <trkpt lat="45.30872" lon="5.8555">
        <ele>2048.6</ele>
        <time>2025-07-12T10:12:18</time>
      </trkpt>
      <trkpt lat="45.30872" lon="5.8555">
        <ele>2048.6</ele>
        <time>2025-07-12T10:12:19</time>
      </trkpt>
      <trkpt lat="45.30872" lon="5.8555">
        <ele>2048.6</ele>
        <time>2025-07-12T10:12:20</time>
      </trkpt>
      <trkpt lat="45.30872" lon="5.8555">
        <ele>2048.6</ele>
        <time>2025-07-12T10:12:21</time>
      </trkpt>
      <trkpt lat="45.30872" lon="5.8555">
        <ele>2048.6</ele>
        <time>2025-07-12T10:12:23</time>
      </trkpt>
      <trkpt lat="45.30872" lon="5.8555">
        <ele>2048.6</ele>
        <time>2025-07-12T10:12:24</time>
      </trkpt>
      <trkpt lat="45.30872" lon="5.8555">
        <ele>2048.6</ele>
        <time>2025-07-12T10:12:25</time>
      </trkpt>
      <trkpt lat="45.30872" lon="5.8555">
        <ele>2048.6</ele>
        <time>2025-07-12T10:12:26</time>
      </trkpt>
      <trkpt lat="45.30872" lon="5.8555">
        <ele>2048.6</ele>
        <time>2025-07-12T10:12:28</time>
      </trkpt>
      <trkpt lat="45.30872" lon="5.8555">
        <ele>2048.6</ele>
        <time>2025-07-12T10:12:29</time>
      </trkpt>
      <trkpt lat="45.30871" lon="5.8555">
        <ele>2048.6</ele>
        <time>2025-07-12T10:12:31</time>
      </trkpt>
      <trkpt lat="45.30871" lon="5.8555">
        <ele>2048.6</ele>
        <time>2025-07-12T10:12:32</time>
      </trkpt>
      <trkpt lat="45.30863" lon="5.85546">
        <ele>2048.6</ele>
        <time>2025-07-12T10:12:36</time>
      </trkpt>
      <trkpt lat="45.30862" lon="5.85546">
        <ele>2051</ele>
        <time>2025-07-12T10:12:50</time>
      </trkpt>
      <trkpt lat="45.30862" lon="5.85546">
        <ele>2051</ele>
        <time>2025-07-12T10:12:50</time>
      </trkpt>
      <trkpt lat="45.3086" lon="5.85542">
        <ele>2051</ele>
        <time>2025-07-12T10:12:53</time>
      </trkpt>
      <trkpt lat="45.3086" lon="5.8554">
        <ele>2051</ele>
        <time>2025-07-12T10:12:55</time>
      </trkpt>
      <trkpt lat="45.30859" lon="5.85538">
        <ele>2051</ele>
        <time>2025-07-12T10:12:58</time>
      </trkpt>
      <trkpt lat="45.3086" lon="5.85538">
        <ele>2051</ele>
        <time>2025-07-12T10:12:59</time>
      </trkpt>
      <trkpt lat="45.3086" lon="5.85537">
        <ele>2051</ele>
        <time>2025-07-12T10:13:02</time>
      </trkpt>
      <trkpt lat="45.3086" lon="5.85537">
        <ele>2053.8</ele>
        <time>2025-07-12T10:13:05</time>
      </trkpt>
      <trkpt lat="45.3086" lon="5.85537">
        <ele>2053.8</ele>
        <time>2025-07-12T10:13:06</time>
      </trkpt>
      <trkpt lat="45.30856" lon="5.85531">
        <ele>2053.8</ele>
        <time>2025-07-12T10:13:07</time>
      </trkpt>
      <trkpt lat="45.30853" lon="5.85528">
        <ele>2053.8</ele>
        <time>2025-07-12T10:13:09</time>
      </trkpt>
      <trkpt lat="45.30852" lon="5.85527">
        <ele>2053.8</ele>
        <time>2025-07-12T10:13:10</time>
      </trkpt>
      <trkpt lat="45.30852" lon="5.85527">
        <ele>2053.8</ele>
        <time>2025-07-12T10:13:11</time>
      </trkpt>
      <trkpt lat="45.30852" lon="5.85527">
        <ele>2054.9</ele>
        <time>2025-07-12T10:13:23</time>
      </trkpt>
      <trkpt lat="45.30852" lon="5.85527">
        <ele>2054.9</ele>
        <time>2025-07-12T10:13:24</time>
      </trkpt>
      <trkpt lat="45.30852" lon="5.85527">
        <ele>2054.9</ele>
        <time>2025-07-12T10:13:25</time>
      </trkpt>
      <trkpt lat="45.30852" lon="5.85527">
        <ele>2054.9</ele>
        <time>2025-07-12T10:13:27</time>
      </trkpt>
      <trkpt lat="45.30852" lon="5.85527">
        <ele>2054.9</ele>
        <time>2025-07-12T10:13:28</time>
      </trkpt>
      <trkpt lat="45.30852" lon="5.85527">
        <ele>2054.9</ele>
        <time>2025-07-12T10:13:36</time>
      </trkpt>
      <trkpt lat="45.30852" lon="5.85527">
        <ele>2054.9</ele>
        <time>2025-07-12T10:13:40</time>
      </trkpt>
      <trkpt lat="45.30852" lon="5.85527">
        <ele>2054.9</ele>
        <time>2025-07-12T10:13:41</time>
      </trkpt>
      <trkpt lat="45.30852" lon="5.85527">
        <ele>2054.9</ele>
        <time>2025-07-12T10:13:42</time>
      </trkpt>
      <trkpt lat="45.30852" lon="5.85527">
        <ele>2054.9</ele>
        <time>2025-07-12T10:13:44</time>
      </trkpt>
      <trkpt lat="45.30852" lon="5.85527">
        <ele>2054.9</ele>
        <time>2025-07-12T10:13:45</time>
      </trkpt>
      <trkpt lat="45.30852" lon="5.85527">
        <ele>2054.9</ele>
        <time>2025-07-12T10:13:48</time>
      </trkpt>
      <trkpt lat="45.30852" lon="5.85527">
        <ele>2054.9</ele>
        <time>2025-07-12T10:13:49</time>
      </trkpt>
      <trkpt lat="45.30852" lon="5.85527">
        <ele>2054.9</ele>
        <time>2025-07-12T10:13:50</time>
      </trkpt>
      <trkpt lat="45.30852" lon="5.85527">
        <ele>2054.9</ele>
        <time>2025-07-12T10:13:53</time>
      </trkpt>
      <trkpt lat="45.30852" lon="5.85527">
        <ele>2054.9</ele>
        <time>2025-07-12T10:13:58</time>
      </trkpt>
      <trkpt lat="45.30852" lon="5.85527">
        <ele>2054.9</ele>
        <time>2025-07-12T10:13:59</time>
      </trkpt>
      <trkpt lat="45.30852" lon="5.85527">
        <ele>2054.9</ele>
        <time>2025-07-12T10:14:00</time>
      </trkpt>
      <trkpt lat="45.30852" lon="5.85527">
        <ele>2054.9</ele>
        <time>2025-07-12T10:14:01</time>
      </trkpt>
      <trkpt lat="45.30852" lon="5.85527">
        <ele>2054.9</ele>
        <time>2025-07-12T10:14:03</time>
      </trkpt>
      <trkpt lat="45.30852" lon="5.85527">
        <ele>2054.9</ele>
        <time>2025-07-12T10:14:07</time>
      </trkpt>
      <trkpt lat="45.30852" lon="5.85527">
        <ele>2054.9</ele>
        <time>2025-07-12T10:14:08</time>
      </trkpt>
      <trkpt lat="45.30849" lon="5.85535">
        <ele>2054.9</ele>
        <time>2025-07-12T10:14:10</time>
      </trkpt>
      <trkpt lat="45.30848" lon="5.85537">
        <ele>2054.9</ele>
        <time>2025-07-12T10:14:11</time>
      </trkpt>
      <trkpt lat="45.30847" lon="5.85539">
        <ele>2054.9</ele>
        <time>2025-07-12T10:14:12</time>
      </trkpt>
      <trkpt lat="45.30846" lon="5.85539">
        <ele>2054.9</ele>
        <time>2025-07-12T10:14:13</time>
      </trkpt>
      <trkpt lat="45.30846" lon="5.85539">
        <ele>2054.9</ele>
        <time>2025-07-12T10:14:13</time>
      </trkpt>
      <trkpt lat="45.30846" lon="5.85539">
        <ele>2054.9</ele>
        <time>2025-07-12T10:14:14</time>
      </trkpt>
      <trkpt lat="45.30846" lon="5.85539">
        <ele>2054.9</ele>
        <time>2025-07-12T10:14:16</time>
      </trkpt>
      <trkpt lat="45.30846" lon="5.85539">
        <ele>2054.9</ele>
        <time>2025-07-12T10:14:19</time>
      </trkpt>
      <trkpt lat="45.30846" lon="5.85539">
        <ele>2054.9</ele>
        <time>2025-07-12T10:14:20</time>
      </trkpt>
      <trkpt lat="45.30846" lon="5.85539">
        <ele>2054.9</ele>
        <time>2025-07-12T10:14:21</time>
      </trkpt>
      <trkpt lat="45.30846" lon="5.85539">
        <ele>2054.9</ele>
        <time>2025-07-12T10:14:21</time>
      </trkpt>
      <trkpt lat="45.30846" lon="5.85539">
        <ele>2054.9</ele>
        <time>2025-07-12T10:14:22</time>
      </trkpt>
      <trkpt lat="45.30846" lon="5.85539">
        <ele>2055.9</ele>
        <time>2025-07-12T10:14:23</time>
      </trkpt>
      <trkpt lat="45.30846" lon="5.85539">
        <ele>2055.9</ele>
        <time>2025-07-12T10:14:24</time>
      </trkpt>
      <trkpt lat="45.30846" lon="5.85539">
        <ele>2055.9</ele>
        <time>2025-07-12T10:14:26</time>
      </trkpt>
      <trkpt lat="45.3084" lon="5.85547">
        <ele>2055.9</ele>
        <time>2025-07-12T10:14:28</time>
      </trkpt>
      <trkpt lat="45.30839" lon="5.85548">
        <ele>2055.9</ele>
        <time>2025-07-12T10:14:29</time>
      </trkpt>
      <trkpt lat="45.30838" lon="5.85549">
        <ele>2055.9</ele>
        <time>2025-07-12T10:14:31</time>
      </trkpt>
      <trkpt lat="45.30838" lon="5.85549">
        <ele>2055.9</ele>
        <time>2025-07-12T10:14:32</time>
      </trkpt>
      <trkpt lat="45.30838" lon="5.85549">
        <ele>2055.9</ele>
        <time>2025-07-12T10:14:34</time>
      </trkpt>
      <trkpt lat="45.30838" lon="5.85549">
        <ele>2055.9</ele>
        <time>2025-07-12T10:14:35</time>
      </trkpt>
      <trkpt lat="45.30837" lon="5.85551">
        <ele>2055.9</ele>
        <time>2025-07-12T10:14:35</time>
      </trkpt>
      <trkpt lat="45.30836" lon="5.85552">
        <ele>2055.9</ele>
        <time>2025-07-12T10:14:36</time>
      </trkpt>
      <trkpt lat="45.30835" lon="5.85553">
        <ele>2055.9</ele>
        <time>2025-07-12T10:14:37</time>
      </trkpt>
      <trkpt lat="45.30834" lon="5.85554">
        <ele>2055.9</ele>
        <time>2025-07-12T10:14:38</time>
      </trkpt>
      <trkpt lat="45.30834" lon="5.85555">
        <ele>2055.9</ele>
        <time>2025-07-12T10:14:39</time>
      </trkpt>
      <trkpt lat="45.30833" lon="5.85555">
        <ele>2057.8667</ele>
        <time>2025-07-12T10:14:39</time>
      </trkpt>
      <trkpt lat="45.30833" lon="5.85556">
        <ele>2057.8667</ele>
        <time>2025-07-12T10:14:40</time>
      </trkpt>
      <trkpt lat="45.30834" lon="5.85556">
        <ele>2057.8667</ele>
        <time>2025-07-12T10:14:41</time>
      </trkpt>
      <trkpt lat="45.30835" lon="5.85557">
        <ele>2057.8667</ele>
        <time>2025-07-12T10:14:43</time>
      </trkpt>
      <trkpt lat="45.30835" lon="5.85557">
        <ele>2057.8667</ele>
        <time>2025-07-12T10:14:43</time>
      </trkpt>
      <trkpt lat="45.30834" lon="5.85557">
        <ele>2057.8</ele>
        <time>2025-07-12T10:14:46</time>
      </trkpt>
      <trkpt lat="45.30835" lon="5.85559">
        <ele>2057.8</ele>
        <time>2025-07-12T10:14:49</time>
      </trkpt>
      <trkpt lat="45.30836" lon="5.85562">
        <ele>2057.8</ele>
        <time>2025-07-12T10:14:49</time>
      </trkpt>
      <trkpt lat="45.30837" lon="5.85563">
        <ele>2057.8</ele>
        <time>2025-07-12T10:14:50</time>
      </trkpt>
      <trkpt lat="45.30837" lon="5.85564">
        <ele>2057.8</ele>
        <time>2025-07-12T10:14:51</time>
      </trkpt>
      <trkpt lat="45.30837" lon="5.85565">
        <ele>2057.8</ele>
        <time>2025-07-12T10:14:52</time>
      </trkpt>
      <trkpt lat="45.30837" lon="5.85567">
        <ele>2060.2</ele>
        <time>2025-07-12T10:14:56</time>
      </trkpt>
      <trkpt lat="45.30836" lon="5.85568">
        <ele>2060.2</ele>
        <time>2025-07-12T10:15:01</time>
      </trkpt>
      <trkpt lat="45.30836" lon="5.85568">
        <ele>2060.2</ele>
        <time>2025-07-12T10:15:02</time>
      </trkpt>
    </trkseg>
  </trk>
</gpx>